<?xml version='1.0' encoding='UTF-8'?><gpx version="1.1" creator="JPX - https://github.com/jenetics/jpx" xmlns="http://www.topografix.com/GPX/1/1"><trk><trkseg><trkpt lat="44.42053067855851" lon="8.946763188325026"><ele>14.000000000000002</ele><time>2026-05-02T07:23:44.185Z</time></trkpt><trkpt lat="44.420527759905454" lon="8.946873044934344"><ele>14.0</ele><time>2026-05-02T07:23:55.812Z</time></trkpt><trkpt lat="44.420586183986" lon="8.946952202296634"><ele>14.0</ele><time>2026-05-02T07:25:39.682Z</time></trkpt><trkpt lat="44.42057603872123" lon="8.946853007245728"><ele>14.0</ele><time>2026-05-02T07:31:40Z</time></trkpt><trkpt lat="44.42071043654483" lon="8.946781309891643"><ele>14.000000000000002</ele><time>2026-05-02T07:32:30.999Z</time></trkpt><trkpt lat="44.42077410432223" lon="8.946772545300464"><ele>14.0</ele><time>2026-05-02T07:32:32.999Z</time></trkpt><trkpt lat="44.42083770403601" lon="8.946753320166021"><ele>14.0</ele><time>2026-05-02T07:32:34.999Z</time></trkpt><trkpt lat="44.42089928713154" lon="8.946726936299108"><ele>14.0</ele><time>2026-05-02T07:32:37.999Z</time></trkpt><trkpt lat="44.421113215483516" lon="8.946711690978738"><ele>14.0</ele><time>2026-05-02T07:32:46.999Z</time></trkpt><trkpt lat="44.42127305626014" lon="8.946635764739224"><ele>14.0</ele><time>2026-05-02T07:33:11.999Z</time></trkpt><trkpt lat="44.42135747953892" lon="8.946603587272737"><ele>15.2</ele><time>2026-05-02T07:33:15.999Z</time></trkpt><trkpt lat="44.421508030230456" lon="8.946596577072723"><ele>16.4</ele><time>2026-05-02T07:33:21.999Z</time></trkpt><trkpt lat="44.421522870420524" lon="8.946497597365386"><ele>17.6</ele><time>2026-05-02T07:33:25.999Z</time></trkpt><trkpt lat="44.42152393936642" lon="8.9463568637494"><ele>18.8</ele><time>2026-05-02T07:33:29.999Z</time></trkpt><trkpt lat="44.421516692440946" lon="8.946266945687427"><ele>20.0</ele><time>2026-05-02T07:33:31.999Z</time></trkpt><trkpt lat="44.42150677136986" lon="8.946155829266345"><ele>20.0</ele><time>2026-05-02T07:33:34.999Z</time></trkpt><trkpt lat="44.42152854276801" lon="8.946057801711513"><ele>20.0</ele><time>2026-05-02T07:33:38.999Z</time></trkpt><trkpt lat="44.42162857942623" lon="8.946012280368302"><ele>20.0</ele><time>2026-05-02T07:33:43.999Z</time></trkpt><trkpt lat="44.42174727569627" lon="8.94600188382925"><ele>20.0</ele><time>2026-05-02T07:33:46.999Z</time></trkpt><trkpt lat="44.42184662383126" lon="8.945966725208331"><ele>20.0</ele><time>2026-05-02T07:33:48.999Z</time></trkpt><trkpt lat="44.42198845725828" lon="8.945963298047849"><ele>20.0</ele><time>2026-05-02T07:33:52Z</time></trkpt><trkpt lat="44.42205934809756" lon="8.945944678947708"><ele>20.0</ele><time>2026-05-02T07:33:54Z</time></trkpt><trkpt lat="44.42215065237236" lon="8.945889436189095"><ele>20.0</ele><time>2026-05-02T07:33:56Z</time></trkpt><trkpt lat="44.422219101496836" lon="8.945836384155609"><ele>20.0</ele><time>2026-05-02T07:33:58Z</time></trkpt><trkpt lat="44.42227289253612" lon="8.945785311791518"><ele>20.0</ele><time>2026-05-02T07:34:02Z</time></trkpt><trkpt lat="44.42233682889255" lon="8.945783424319176"><ele>20.0</ele><time>2026-05-02T07:34:05Z</time></trkpt><trkpt lat="44.422586161030935" lon="8.945848874482627"><ele>20.8</ele><time>2026-05-02T07:34:15Z</time></trkpt><trkpt lat="44.42266722007481" lon="8.945929162713252"><ele>21.6</ele><time>2026-05-02T07:34:17Z</time></trkpt><trkpt lat="44.42272813358488" lon="8.945954528139119"><ele>22.4</ele><time>2026-05-02T07:34:19Z</time></trkpt><trkpt lat="44.422801289736924" lon="8.94595604490532"><ele>23.2</ele><time>2026-05-02T07:34:22Z</time></trkpt><trkpt lat="44.42295603424971" lon="8.945942988915508"><ele>24.0</ele><time>2026-05-02T07:34:31Z</time></trkpt><trkpt lat="44.42299939656548" lon="8.946010011439181"><ele>24.25</ele><time>2026-05-02T07:34:34Z</time></trkpt><trkpt lat="44.423061565159706" lon="8.94605183180411"><ele>24.5</ele><time>2026-05-02T07:34:37Z</time></trkpt><trkpt lat="44.4230972193228" lon="8.946129500026004"><ele>24.75</ele><time>2026-05-02T07:34:39Z</time></trkpt><trkpt lat="44.42330395875625" lon="8.946130127018126"><ele>25.0</ele><time>2026-05-02T07:34:49Z</time></trkpt><trkpt lat="44.42353864353139" lon="8.94614350290129"><ele>25.0</ele><time>2026-05-02T07:34:57Z</time></trkpt><trkpt lat="44.42373180482966" lon="8.946174176292095"><ele>25.0</ele><time>2026-05-02T07:35:03Z</time></trkpt><trkpt lat="44.42379791199165" lon="8.94621310662358"><ele>25.0</ele><time>2026-05-02T07:35:04Z</time></trkpt><trkpt lat="44.42387040306155" lon="8.946253279601956"><ele>25.0</ele><time>2026-05-02T07:35:06Z</time></trkpt><trkpt lat="44.42397140982724" lon="8.946310487019323"><ele>25.4</ele><time>2026-05-02T07:35:08Z</time></trkpt><trkpt lat="44.42406654806779" lon="8.946304871370051"><ele>25.8</ele><time>2026-05-02T07:35:10Z</time></trkpt><trkpt lat="44.42415164277537" lon="8.946312474282207"><ele>26.200000000000003</ele><time>2026-05-02T07:35:12Z</time></trkpt><trkpt lat="44.424260980508194" lon="8.946345242534619"><ele>26.6</ele><time>2026-05-02T07:35:15Z</time></trkpt><trkpt lat="44.42433859823754" lon="8.94637690202517"><ele>27.0</ele><time>2026-05-02T07:35:17Z</time></trkpt><trkpt lat="44.42441424735892" lon="8.9464054309811"><ele>27.0</ele><time>2026-05-02T07:35:19Z</time></trkpt><trkpt lat="44.424457150816814" lon="8.94649541300292"><ele>27.000000000000004</ele><time>2026-05-02T07:35:21Z</time></trkpt><trkpt lat="44.424523298573064" lon="8.946538402639256"><ele>27.000000000000004</ele><time>2026-05-02T07:35:23Z</time></trkpt><trkpt lat="44.424586029886754" lon="8.946572185813105"><ele>27.0</ele><time>2026-05-02T07:35:24.998Z</time></trkpt><trkpt lat="44.424658965959" lon="8.946550747347246"><ele>27.0</ele><time>2026-05-02T07:35:27.998Z</time></trkpt><trkpt lat="44.424885221093604" lon="8.946556774089478"><ele>26.6</ele><time>2026-05-02T07:35:36.999Z</time></trkpt><trkpt lat="44.42504371088135" lon="8.946595921538576"><ele>26.200000000000003</ele><time>2026-05-02T07:35:43.999Z</time></trkpt><trkpt lat="44.42512095804281" lon="8.946643404636285"><ele>25.8</ele><time>2026-05-02T07:35:47.999Z</time></trkpt><trkpt lat="44.42518314124268" lon="8.946677440007562"><ele>25.4</ele><time>2026-05-02T07:35:51.999Z</time></trkpt><trkpt lat="44.42527245082757" lon="8.946702663706333"><ele>25.0</ele><time>2026-05-02T07:35:54.999Z</time></trkpt><trkpt lat="44.425342668984" lon="8.946757809797333"><ele>25.0</ele><time>2026-05-02T07:35:57.999Z</time></trkpt><trkpt lat="44.42541317951398" lon="8.946769471450539"><ele>25.0</ele><time>2026-05-02T07:36:02Z</time></trkpt><trkpt lat="44.42572570525489" lon="8.946764196984558"><ele>25.0</ele><time>2026-05-02T07:36:22Z</time></trkpt><trkpt lat="44.42577887000906" lon="8.946692259651252"><ele>25.166666666666668</ele><time>2026-05-02T07:36:23Z</time></trkpt><trkpt lat="44.42583746393541" lon="8.946628563576521"><ele>25.333333333333336</ele><time>2026-05-02T07:36:25Z</time></trkpt><trkpt lat="44.425902774804825" lon="8.946612567320848"><ele>25.5</ele><time>2026-05-02T07:36:30Z</time></trkpt><trkpt lat="44.42597821243753" lon="8.94664494133922"><ele>25.666666666666664</ele><time>2026-05-02T07:36:33Z</time></trkpt><trkpt lat="44.426057256051834" lon="8.946670727725703"><ele>25.833333333333332</ele><time>2026-05-02T07:36:37Z</time></trkpt><trkpt lat="44.42612530461506" lon="8.946716813261274"><ele>26.0</ele><time>2026-05-02T07:36:40Z</time></trkpt><trkpt lat="44.42619362243654" lon="8.946758495762154"><ele>26.0</ele><time>2026-05-02T07:36:43Z</time></trkpt><trkpt lat="44.426249596608756" lon="8.946714706039579"><ele>26.0</ele><time>2026-05-02T07:36:45Z</time></trkpt><trkpt lat="44.426275613923835" lon="8.946799069212156"><ele>26.0</ele><time>2026-05-02T07:36:47Z</time></trkpt><trkpt lat="44.42633780769622" lon="8.94685556361338"><ele>26.0</ele><time>2026-05-02T07:36:51Z</time></trkpt><trkpt lat="44.42642104362817" lon="8.9469147282689"><ele>26.0</ele><time>2026-05-02T07:36:54Z</time></trkpt><trkpt lat="44.426474117114594" lon="8.946964458526631"><ele>26.0</ele><time>2026-05-02T07:36:56Z</time></trkpt><trkpt lat="44.426531991728964" lon="8.94701978886479"><ele>26.0</ele><time>2026-05-02T07:36:59Z</time></trkpt><trkpt lat="44.426590229337776" lon="8.947054648410331"><ele>26.499999999999996</ele><time>2026-05-02T07:37:01Z</time></trkpt><trkpt lat="44.426656604750654" lon="8.947098811877279"><ele>27.0</ele><time>2026-05-02T07:37:03Z</time></trkpt><trkpt lat="44.42674134013232" lon="8.947160612360022"><ele>27.5</ele><time>2026-05-02T07:37:06Z</time></trkpt><trkpt lat="44.42680824766688" lon="8.947202887172644"><ele>28.0</ele><time>2026-05-02T07:37:09Z</time></trkpt><trkpt lat="44.42687122498582" lon="8.947233481500817"><ele>28.499999999999996</ele><time>2026-05-02T07:37:11Z</time></trkpt><trkpt lat="44.426935961956225" lon="8.947259070340666"><ele>29.0</ele><time>2026-05-02T07:37:13Z</time></trkpt><trkpt lat="44.42702929152243" lon="8.947279238864398"><ele>28.999999999999996</ele><time>2026-05-02T07:37:16Z</time></trkpt><trkpt lat="44.42709901061118" lon="8.947332449178546"><ele>29.0</ele><time>2026-05-02T07:37:19Z</time></trkpt><trkpt lat="44.427167786990736" lon="8.947361046405678"><ele>29.0</ele><time>2026-05-02T07:37:22Z</time></trkpt><trkpt lat="44.42724189440347" lon="8.947401403487989"><ele>29.0</ele><time>2026-05-02T07:37:25Z</time></trkpt><trkpt lat="44.42730851240604" lon="8.947440643512227"><ele>28.999999999999996</ele><time>2026-05-02T07:37:29Z</time></trkpt><trkpt lat="44.427369854143514" lon="8.947489071376571"><ele>29.0</ele><time>2026-05-02T07:37:30.999Z</time></trkpt><trkpt lat="44.42743111887917" lon="8.947563019586038"><ele>28.166666666666664</ele><time>2026-05-02T07:37:34.999Z</time></trkpt><trkpt lat="44.42751798011227" lon="8.947585715456775"><ele>27.333333333333332</ele><time>2026-05-02T07:37:40.999Z</time></trkpt><trkpt lat="44.42753517706782" lon="8.94772351538968"><ele>26.5</ele><time>2026-05-02T07:37:43.999Z</time></trkpt><trkpt lat="44.42761410013009" lon="8.947772039786866"><ele>25.666666666666664</ele><time>2026-05-02T07:37:45.999Z</time></trkpt><trkpt lat="44.42768094691497" lon="8.947850215871828"><ele>24.833333333333332</ele><time>2026-05-02T07:37:48.999Z</time></trkpt><trkpt lat="44.42773298752483" lon="8.947923327917835"><ele>24.0</ele><time>2026-05-02T07:37:51.999Z</time></trkpt><trkpt lat="44.42778909901752" lon="8.948007950301438"><ele>24.0</ele><time>2026-05-02T07:37:53.999Z</time></trkpt><trkpt lat="44.42785812020932" lon="8.948142316177082"><ele>24.0</ele><time>2026-05-02T07:37:57.999Z</time></trkpt><trkpt lat="44.427897014215475" lon="8.948240407846999"><ele>24.0</ele><time>2026-05-02T07:37:59.999Z</time></trkpt><trkpt lat="44.42790436222463" lon="8.94833096775137"><ele>24.0</ele><time>2026-05-02T07:38:02Z</time></trkpt><trkpt lat="44.42791779244572" lon="8.94844110530028"><ele>24.0</ele><time>2026-05-02T07:38:04Z</time></trkpt><trkpt lat="44.42793951984875" lon="8.948536375628413"><ele>24.0</ele><time>2026-05-02T07:38:06Z</time></trkpt><trkpt lat="44.42798239750054" lon="8.948601457948735"><ele>24.333333333333332</ele><time>2026-05-02T07:38:08Z</time></trkpt><trkpt lat="44.42798458405017" lon="8.948697857438935"><ele>24.666666666666664</ele><time>2026-05-02T07:38:10Z</time></trkpt><trkpt lat="44.42801414977621" lon="8.948787510879319"><ele>25.0</ele><time>2026-05-02T07:38:12Z</time></trkpt><trkpt lat="44.4280381826829" lon="8.948882621131396"><ele>25.333333333333332</ele><time>2026-05-02T07:38:14Z</time></trkpt><trkpt lat="44.42806282595344" lon="8.948977979054547"><ele>25.666666666666664</ele><time>2026-05-02T07:38:17Z</time></trkpt><trkpt lat="44.42808272345517" lon="8.949089238967431"><ele>26.0</ele><time>2026-05-02T07:38:20Z</time></trkpt><trkpt lat="44.42810482162607" lon="8.949220215404887"><ele>26.285714285714285</ele><time>2026-05-02T07:38:41Z</time></trkpt><trkpt lat="44.42807399219595" lon="8.949312131859857"><ele>26.571428571428573</ele><time>2026-05-02T07:38:49Z</time></trkpt><trkpt lat="44.42801374307423" lon="8.949351408557398"><ele>26.857142857142858</ele><time>2026-05-02T07:38:52Z</time></trkpt><trkpt lat="44.42795598503224" lon="8.949390363870405"><ele>27.142857142857142</ele><time>2026-05-02T07:38:55Z</time></trkpt><trkpt lat="44.42790124646454" lon="8.949441732355453"><ele>27.42857142857143</ele><time>2026-05-02T07:39:00Z</time></trkpt><trkpt lat="44.42791559712785" lon="8.949530595502923"><ele>27.714285714285715</ele><time>2026-05-02T07:39:28Z</time></trkpt><trkpt lat="44.4279849283073" lon="8.949582060937956"><ele>28.0</ele><time>2026-05-02T07:39:33Z</time></trkpt><trkpt lat="44.42799331606341" lon="8.94967672088867"><ele>28.0</ele><time>2026-05-02T07:39:36.999Z</time></trkpt><trkpt lat="44.427998559088785" lon="8.94976551704077"><ele>28.0</ele><time>2026-05-02T07:39:43.999Z</time></trkpt><trkpt lat="44.42803769430489" lon="8.94983784907946"><ele>28.0</ele><time>2026-05-02T07:40:06Z</time></trkpt><trkpt lat="44.42803378656752" lon="8.949934603024513"><ele>28.0</ele><time>2026-05-02T07:40:29Z</time></trkpt><trkpt lat="44.42806040058624" lon="8.950029287939646"><ele>28.0</ele><time>2026-05-02T07:40:33Z</time></trkpt><trkpt lat="44.42807441672738" lon="8.950117106581885"><ele>28.0</ele><time>2026-05-02T07:40:35Z</time></trkpt><trkpt lat="44.4280872606822" lon="8.95020957922789"><ele>28.0</ele><time>2026-05-02T07:40:37Z</time></trkpt><trkpt lat="44.428098641820036" lon="8.950298302495453"><ele>27.833333333333336</ele><time>2026-05-02T07:40:39Z</time></trkpt><trkpt lat="44.428102814110076" lon="8.950439937597796"><ele>27.666666666666668</ele><time>2026-05-02T07:40:44Z</time></trkpt><trkpt lat="44.42812934989934" lon="8.950528323096588"><ele>27.5</ele><time>2026-05-02T07:40:46Z</time></trkpt><trkpt lat="44.428138741766716" lon="8.95062564323961"><ele>27.333333333333336</ele><time>2026-05-02T07:40:48Z</time></trkpt><trkpt lat="44.42814309110576" lon="8.950718817796977"><ele>27.166666666666668</ele><time>2026-05-02T07:40:52Z</time></trkpt><trkpt lat="44.42815964691789" lon="8.950847003636088"><ele>27.0</ele><time>2026-05-02T07:40:55Z</time></trkpt><trkpt lat="44.42816982306249" lon="8.950938390904135"><ele>26.8</ele><time>2026-05-02T07:40:58Z</time></trkpt><trkpt lat="44.42819619083346" lon="8.951065618877731"><ele>26.6</ele><time>2026-05-02T07:41:01Z</time></trkpt><trkpt lat="44.42827159390847" lon="8.951130599270117"><ele>26.400000000000002</ele><time>2026-05-02T07:41:03Z</time></trkpt><trkpt lat="44.42833634729635" lon="8.951219400708545"><ele>26.200000000000003</ele><time>2026-05-02T07:41:05Z</time></trkpt><trkpt lat="44.42833531805918" lon="8.951365224895792"><ele>26.0</ele><time>2026-05-02T07:41:07Z</time></trkpt><trkpt lat="44.42836696340939" lon="8.95150276805333"><ele>26.0</ele><time>2026-05-02T07:41:09Z</time></trkpt><trkpt lat="44.428396463561995" lon="8.95165014908652"><ele>26.0</ele><time>2026-05-02T07:41:11Z</time></trkpt><trkpt lat="44.42842324290796" lon="8.951791491588528"><ele>26.0</ele><time>2026-05-02T07:41:13Z</time></trkpt><trkpt lat="44.42844434337997" lon="8.951932910603391"><ele>26.0</ele><time>2026-05-02T07:41:15.001Z</time></trkpt><trkpt lat="44.428471951363136" lon="8.952075525152427"><ele>26.0</ele><time>2026-05-02T07:41:17.001Z</time></trkpt><trkpt lat="44.42849641203197" lon="8.952225253130305"><ele>25.200000000000003</ele><time>2026-05-02T07:41:19.001Z</time></trkpt><trkpt lat="44.428523978231716" lon="8.952369767162098"><ele>24.400000000000002</ele><time>2026-05-02T07:41:21.001Z</time></trkpt><trkpt lat="44.42854978889503" lon="8.952512275934968"><ele>23.6</ele><time>2026-05-02T07:41:23.001Z</time></trkpt><trkpt lat="44.42857453769238" lon="8.952650593832603"><ele>22.8</ele><time>2026-05-02T07:41:25.001Z</time></trkpt><trkpt lat="44.428584447060224" lon="8.95279390599756"><ele>22.0</ele><time>2026-05-02T07:41:27.001Z</time></trkpt><trkpt lat="44.428608818389385" lon="8.952928877641153"><ele>21.8</ele><time>2026-05-02T07:41:29.001Z</time></trkpt><trkpt lat="44.42867856542165" lon="8.953025809044737"><ele>21.6</ele><time>2026-05-02T07:41:31.001Z</time></trkpt><trkpt lat="44.4287198249324" lon="8.953161647505965"><ele>21.400000000000002</ele><time>2026-05-02T07:41:33.001Z</time></trkpt><trkpt lat="44.42874061854635" lon="8.953278215223577"><ele>21.200000000000003</ele><time>2026-05-02T07:41:35.001Z</time></trkpt><trkpt lat="44.42877953352891" lon="8.953398324921446"><ele>21.0</ele><time>2026-05-02T07:41:37.001Z</time></trkpt><trkpt lat="44.4288018475264" lon="8.9535204899201"><ele>22.666666666666668</ele><time>2026-05-02T07:41:39.001Z</time></trkpt><trkpt lat="44.428832537364904" lon="8.953639928885666"><ele>24.333333333333336</ele><time>2026-05-02T07:41:41.001Z</time></trkpt><trkpt lat="44.42886757864052" lon="8.953742379756754"><ele>26.0</ele><time>2026-05-02T07:41:42.999Z</time></trkpt><trkpt lat="44.42889117220306" lon="8.953850613515575"><ele>27.666666666666668</ele><time>2026-05-02T07:41:44.999Z</time></trkpt><trkpt lat="44.42890005128402" lon="8.953960700682137"><ele>29.333333333333336</ele><time>2026-05-02T07:41:46.999Z</time></trkpt><trkpt lat="44.42892775274212" lon="8.954043953969084"><ele>31.0</ele><time>2026-05-02T07:41:48.999Z</time></trkpt><trkpt lat="44.428957770859775" lon="8.954122916490405"><ele>30.142857142857146</ele><time>2026-05-02T07:41:51.999Z</time></trkpt><trkpt lat="44.42898600051331" lon="8.954230417493427"><ele>29.28571428571429</ele><time>2026-05-02T07:41:55.999Z</time></trkpt><trkpt lat="44.42901572564029" lon="8.954320872382297"><ele>28.42857142857143</ele><time>2026-05-02T07:41:59Z</time></trkpt><trkpt lat="44.42904652976244" lon="8.954399907123745"><ele>27.571428571428573</ele><time>2026-05-02T07:42:03Z</time></trkpt><trkpt lat="44.429110198977696" lon="8.954449244961921"><ele>26.714285714285715</ele><time>2026-05-02T07:42:10Z</time></trkpt><trkpt lat="44.42918286514896" lon="8.954405573761743"><ele>25.85714285714286</ele><time>2026-05-02T07:42:13Z</time></trkpt><trkpt lat="44.429257298861145" lon="8.954367718692566"><ele>25.0</ele><time>2026-05-02T07:42:16Z</time></trkpt><trkpt lat="44.42933231909834" lon="8.95432963493985"><ele>25.000000000000004</ele><time>2026-05-02T07:42:19Z</time></trkpt><trkpt lat="44.42939883370821" lon="8.954290069528263"><ele>25.0</ele><time>2026-05-02T07:42:22Z</time></trkpt><trkpt lat="44.42948461002236" lon="8.954284175481375"><ele>25.0</ele><time>2026-05-02T07:42:26Z</time></trkpt><trkpt lat="44.429542699625124" lon="8.9543242850469"><ele>25.0</ele><time>2026-05-02T07:42:29Z</time></trkpt><trkpt lat="44.429596025351955" lon="8.954386581977102"><ele>25.000000000000004</ele><time>2026-05-02T07:42:32Z</time></trkpt><trkpt lat="44.4296307012718" lon="8.95448745208845"><ele>25.0</ele><time>2026-05-02T07:42:35Z</time></trkpt><trkpt lat="44.429664085215336" lon="8.954621147802477"><ele>26.42857142857143</ele><time>2026-05-02T07:42:38Z</time></trkpt><trkpt lat="44.42967539255774" lon="8.954708466652775"><ele>27.857142857142858</ele><time>2026-05-02T07:42:40Z</time></trkpt><trkpt lat="44.4296988855984" lon="8.95479233032474"><ele>29.285714285714285</ele><time>2026-05-02T07:42:42Z</time></trkpt><trkpt lat="44.429713876552036" lon="8.954884292824495"><ele>30.714285714285715</ele><time>2026-05-02T07:42:44Z</time></trkpt><trkpt lat="44.42972984905613" lon="8.954978439162623"><ele>32.142857142857146</ele><time>2026-05-02T07:42:46Z</time></trkpt><trkpt lat="44.42974921611851" lon="8.955078223538196"><ele>33.57142857142857</ele><time>2026-05-02T07:42:48Z</time></trkpt><trkpt lat="44.42976609975493" lon="8.955163411336516"><ele>35.0</ele><time>2026-05-02T07:42:50Z</time></trkpt><trkpt lat="44.42980066071083" lon="8.955247857108011"><ele>35.0</ele><time>2026-05-02T07:42:52Z</time></trkpt><trkpt lat="44.429815624988066" lon="8.955340864870163"><ele>35.0</ele><time>2026-05-02T07:42:54Z</time></trkpt><trkpt lat="44.42985954669894" lon="8.955430315330688"><ele>35.0</ele><time>2026-05-02T07:42:56Z</time></trkpt><trkpt lat="44.42990197895986" lon="8.95555068002698"><ele>35.0</ele><time>2026-05-02T07:42:59.001Z</time></trkpt><trkpt lat="44.42993820198803" lon="8.955637768687431"><ele>35.0</ele><time>2026-05-02T07:43:01.001Z</time></trkpt><trkpt lat="44.42998644382982" lon="8.955759216397418"><ele>35.0</ele><time>2026-05-02T07:43:04.001Z</time></trkpt><trkpt lat="44.430038618859484" lon="8.955866247507242"><ele>33.57142857142857</ele><time>2026-05-02T07:43:07.001Z</time></trkpt><trkpt lat="44.43007489358172" lon="8.955943438748115"><ele>32.142857142857146</ele><time>2026-05-02T07:43:09.001Z</time></trkpt><trkpt lat="44.43012058964599" lon="8.956027286173596"><ele>30.714285714285715</ele><time>2026-05-02T07:43:11.001Z</time></trkpt><trkpt lat="44.43014773411469" lon="8.956111589989408"><ele>29.285714285714285</ele><time>2026-05-02T07:43:13.001Z</time></trkpt><trkpt lat="44.4301992097086" lon="8.956194809891674"><ele>27.857142857142858</ele><time>2026-05-02T07:43:15.001Z</time></trkpt><trkpt lat="44.430237447771916" lon="8.956266862198767"><ele>26.42857142857143</ele><time>2026-05-02T07:43:17.001Z</time></trkpt><trkpt lat="44.43030436093466" lon="8.956300461237504"><ele>25.0</ele><time>2026-05-02T07:43:19.001Z</time></trkpt><trkpt lat="44.430355357982954" lon="8.95635347650507"><ele>25.000000000000004</ele><time>2026-05-02T07:43:22.001Z</time></trkpt><trkpt lat="44.43044419423612" lon="8.956379128981158"><ele>25.0</ele><time>2026-05-02T07:43:25.001Z</time></trkpt><trkpt lat="44.43050181518637" lon="8.956429762415796"><ele>25.0</ele><time>2026-05-02T07:43:27.001Z</time></trkpt><trkpt lat="44.430527691181496" lon="8.956518632762245"><ele>25.0</ele><time>2026-05-02T07:43:29.001Z</time></trkpt><trkpt lat="44.43052036997" lon="8.956613825278147"><ele>25.000000000000004</ele><time>2026-05-02T07:43:31.001Z</time></trkpt><trkpt lat="44.4305064952169" lon="8.956712537192471"><ele>25.0</ele><time>2026-05-02T07:43:33.001Z</time></trkpt><trkpt lat="44.430589862984" lon="8.956768131815222"><ele>26.000000000000004</ele><time>2026-05-02T07:43:35.001Z</time></trkpt><trkpt lat="44.43062992697931" lon="8.956862287532482"><ele>27.0</ele><time>2026-05-02T07:43:40.001Z</time></trkpt><trkpt lat="44.43068919612124" lon="8.956944929451248"><ele>28.0</ele><time>2026-05-02T07:43:44.001Z</time></trkpt><trkpt lat="44.43073120938054" lon="8.95702206988493"><ele>29.0</ele><time>2026-05-02T07:43:47.001Z</time></trkpt><trkpt lat="44.43080498484217" lon="8.957086939506166"><ele>30.000000000000004</ele><time>2026-05-02T07:43:49.999Z</time></trkpt><trkpt lat="44.43086695056739" lon="8.957119845539783"><ele>31.0</ele><time>2026-05-02T07:43:51.999Z</time></trkpt><trkpt lat="44.43093700603756" lon="8.95716800591322"><ele>31.000000000000004</ele><time>2026-05-02T07:43:54.999Z</time></trkpt><trkpt lat="44.43101030654246" lon="8.957231228838472"><ele>31.0</ele><time>2026-05-02T07:43:57.999Z</time></trkpt><trkpt lat="44.43108788167292" lon="8.957265948118739"><ele>31.0</ele><time>2026-05-02T07:44:01Z</time></trkpt><trkpt lat="44.43118279153328" lon="8.957304509846455"><ele>31.0</ele><time>2026-05-02T07:44:04Z</time></trkpt><trkpt lat="44.43125119202508" lon="8.957364220417638"><ele>31.000000000000004</ele><time>2026-05-02T07:44:07Z</time></trkpt><trkpt lat="44.43130747062142" lon="8.957421446357648"><ele>31.0</ele><time>2026-05-02T07:44:09Z</time></trkpt><trkpt lat="44.43140037420801" lon="8.957401199859403"><ele>30.4</ele><time>2026-05-02T07:44:12Z</time></trkpt><trkpt lat="44.43146404220176" lon="8.957465970804979"><ele>29.8</ele><time>2026-05-02T07:44:14Z</time></trkpt><trkpt lat="44.43153280515441" lon="8.957529128132176"><ele>29.199999999999996</ele><time>2026-05-02T07:44:16Z</time></trkpt><trkpt lat="44.43159548390278" lon="8.957581632835621"><ele>28.599999999999998</ele><time>2026-05-02T07:44:18Z</time></trkpt><trkpt lat="44.43167454862898" lon="8.957610227186933"><ele>28.0</ele><time>2026-05-02T07:44:20Z</time></trkpt><trkpt lat="44.43187690588765" lon="8.957634313986851"><ele>28.0</ele><time>2026-05-02T07:44:24Z</time></trkpt><trkpt lat="44.43198978903818" lon="8.957697305876206"><ele>27.999999999999996</ele><time>2026-05-02T07:44:26Z</time></trkpt><trkpt lat="44.43207496171695" lon="8.957725854347435"><ele>27.999999999999996</ele><time>2026-05-02T07:44:28Z</time></trkpt><trkpt lat="44.43215143578992" lon="8.957759587427251"><ele>28.0</ele><time>2026-05-02T07:44:30Z</time></trkpt><trkpt lat="44.43221432744118" lon="8.95782882973359"><ele>28.0</ele><time>2026-05-02T07:44:32Z</time></trkpt><trkpt lat="44.432292563705246" lon="8.95790709270361"><ele>29.000000000000004</ele><time>2026-05-02T07:44:35Z</time></trkpt><trkpt lat="44.43236320248637" lon="8.957952614816891"><ele>30.0</ele><time>2026-05-02T07:44:37Z</time></trkpt><trkpt lat="44.43243801572527" lon="8.95805452120305"><ele>31.0</ele><time>2026-05-02T07:44:40Z</time></trkpt><trkpt lat="44.43247024299284" lon="8.958143627328546"><ele>32.0</ele><time>2026-05-02T07:44:42Z</time></trkpt><trkpt lat="44.43251694812445" lon="8.958238009797462"><ele>33.0</ele><time>2026-05-02T07:44:44Z</time></trkpt><trkpt lat="44.432549508991485" lon="8.958327003993569"><ele>34.0</ele><time>2026-05-02T07:44:46Z</time></trkpt><trkpt lat="44.43257489202833" lon="8.958425506952889"><ele>34.0</ele><time>2026-05-02T07:44:48Z</time></trkpt><trkpt lat="44.432624601149" lon="8.958509128220388"><ele>34.0</ele><time>2026-05-02T07:44:50Z</time></trkpt><trkpt lat="44.4326913495163" lon="8.958627620987434"><ele>34.0</ele><time>2026-05-02T07:44:53Z</time></trkpt><trkpt lat="44.43274912232311" lon="8.95869539626858"><ele>34.0</ele><time>2026-05-02T07:44:55Z</time></trkpt><trkpt lat="44.432792884738085" lon="8.958794439011811"><ele>34.0</ele><time>2026-05-02T07:44:57.001Z</time></trkpt><trkpt lat="44.432847487912156" lon="8.958883430736046"><ele>34.0</ele><time>2026-05-02T07:44:59.001Z</time></trkpt><trkpt lat="44.43291948849847" lon="8.95898821463937"><ele>34.0</ele><time>2026-05-02T07:45:02.001Z</time></trkpt><trkpt lat="44.43296137891762" lon="8.959064411224546"><ele>34.0</ele><time>2026-05-02T07:45:04.001Z</time></trkpt><trkpt lat="44.43300878869749" lon="8.959160320521068"><ele>34.0</ele><time>2026-05-02T07:45:07.001Z</time></trkpt><trkpt lat="44.433069727973695" lon="8.95924862998245"><ele>34.0</ele><time>2026-05-02T07:45:10.001Z</time></trkpt><trkpt lat="44.433279228785246" lon="8.959269141388093"><ele>34.2</ele><time>2026-05-02T07:45:17.001Z</time></trkpt><trkpt lat="44.43343095654294" lon="8.959278870517426"><ele>34.4</ele><time>2026-05-02T07:45:22.001Z</time></trkpt><trkpt lat="44.433507600357515" lon="8.959276723368804"><ele>34.6</ele><time>2026-05-02T07:45:25.001Z</time></trkpt><trkpt lat="44.4336165182206" lon="8.95928669018026"><ele>34.8</ele><time>2026-05-02T07:45:30.001Z</time></trkpt><trkpt lat="44.4335944921282" lon="8.959376810591873"><ele>35.0</ele><time>2026-05-02T07:45:34.001Z</time></trkpt><trkpt lat="44.43358144829351" lon="8.959472521186102"><ele>35.0</ele><time>2026-05-02T07:45:37.001Z</time></trkpt><trkpt lat="44.433561722752344" lon="8.959563080940905"><ele>35.0</ele><time>2026-05-02T07:45:40.001Z</time></trkpt><trkpt lat="44.43352960980645" lon="8.959640600702421"><ele>35.0</ele><time>2026-05-02T07:45:43.001Z</time></trkpt><trkpt lat="44.433488422694985" lon="8.959760615641544"><ele>35.0</ele><time>2026-05-02T07:46:06Z</time></trkpt><trkpt lat="44.433441839971316" lon="8.959856423176518"><ele>35.0</ele><time>2026-05-02T07:46:09Z</time></trkpt><trkpt lat="44.43345393347641" lon="8.959945115184151"><ele>35.0</ele><time>2026-05-02T07:46:11Z</time></trkpt><trkpt lat="44.43350214189774" lon="8.960029697658054"><ele>34.57142857142857</ele><time>2026-05-02T07:46:13Z</time></trkpt><trkpt lat="44.43355506788697" lon="8.960083332652877"><ele>34.14285714285714</ele><time>2026-05-02T07:46:15Z</time></trkpt><trkpt lat="44.4336111440608" lon="8.960152205868399"><ele>33.714285714285715</ele><time>2026-05-02T07:46:17Z</time></trkpt><trkpt lat="44.43366805660185" lon="8.9602080743916"><ele>33.285714285714285</ele><time>2026-05-02T07:46:19Z</time></trkpt><trkpt lat="44.433724688365395" lon="8.960276764636744"><ele>32.857142857142854</ele><time>2026-05-02T07:46:21Z</time></trkpt><trkpt lat="44.433781311155826" lon="8.960339626698321"><ele>32.42857142857143</ele><time>2026-05-02T07:46:23Z</time></trkpt><trkpt lat="44.43384270373254" lon="8.960412146917436"><ele>32.0</ele><time>2026-05-02T07:46:25Z</time></trkpt><trkpt lat="44.4339071113367" lon="8.9604776210528"><ele>31.999999999999996</ele><time>2026-05-02T07:46:27Z</time></trkpt><trkpt lat="44.433965947609835" lon="8.96054664962195"><ele>32.0</ele><time>2026-05-02T07:46:29Z</time></trkpt><trkpt lat="44.43402835186478" lon="8.960608204049857"><ele>32.0</ele><time>2026-05-02T07:46:31Z</time></trkpt><trkpt lat="44.434107670576545" lon="8.960657105945746"><ele>32.0</ele><time>2026-05-02T07:46:34Z</time></trkpt><trkpt lat="44.43417258463064" lon="8.9607278658042"><ele>31.999999999999996</ele><time>2026-05-02T07:46:36Z</time></trkpt><trkpt lat="44.43423521672221" lon="8.96077045422729"><ele>32.0</ele><time>2026-05-02T07:46:38Z</time></trkpt><trkpt lat="44.43430295597599" lon="8.960866579837313"><ele>31.833333333333332</ele><time>2026-05-02T07:46:40Z</time></trkpt><trkpt lat="44.434370938965934" lon="8.960932378996603"><ele>31.666666666666664</ele><time>2026-05-02T07:46:42Z</time></trkpt><trkpt lat="44.434440339834275" lon="8.961000232565722"><ele>31.5</ele><time>2026-05-02T07:46:44Z</time></trkpt><trkpt lat="44.43451290902212" lon="8.961061718573008"><ele>31.333333333333336</ele><time>2026-05-02T07:46:46Z</time></trkpt><trkpt lat="44.43458702903749" lon="8.961129964164227"><ele>31.166666666666668</ele><time>2026-05-02T07:46:48Z</time></trkpt><trkpt lat="44.43465668357956" lon="8.961180528160627"><ele>31.0</ele><time>2026-05-02T07:46:50.001Z</time></trkpt><trkpt lat="44.434730392658835" lon="8.961249705666383"><ele>31.000000000000004</ele><time>2026-05-02T07:46:52.001Z</time></trkpt><trkpt lat="44.43479393407993" lon="8.961294698733512"><ele>31.0</ele><time>2026-05-02T07:46:54.001Z</time></trkpt><trkpt lat="44.43486085064328" lon="8.96134578578271"><ele>31.0</ele><time>2026-05-02T07:46:56.001Z</time></trkpt><trkpt lat="44.43493729694153" lon="8.961393740681325"><ele>31.0</ele><time>2026-05-02T07:46:58.001Z</time></trkpt><trkpt lat="44.435010858113614" lon="8.961447142722596"><ele>31.000000000000004</ele><time>2026-05-02T07:47:00.001Z</time></trkpt><trkpt lat="44.43509006673727" lon="8.961483417066994"><ele>31.0</ele><time>2026-05-02T07:47:02.001Z</time></trkpt><trkpt lat="44.43516265941507" lon="8.961554973849443"><ele>31.000000000000004</ele><time>2026-05-02T07:47:04.001Z</time></trkpt><trkpt lat="44.435236900138506" lon="8.961657965955453"><ele>31.0</ele><time>2026-05-02T07:47:06.001Z</time></trkpt><trkpt lat="44.435318949094565" lon="8.96168359493683"><ele>31.0</ele><time>2026-05-02T07:47:08.001Z</time></trkpt><trkpt lat="44.43539798925278" lon="8.961730444073268"><ele>31.0</ele><time>2026-05-02T07:47:10.001Z</time></trkpt><trkpt lat="44.43546924322097" lon="8.961744078252432"><ele>31.000000000000004</ele><time>2026-05-02T07:47:12.001Z</time></trkpt><trkpt lat="44.43555065159169" lon="8.961789931247464"><ele>31.0</ele><time>2026-05-02T07:47:14.001Z</time></trkpt><trkpt lat="44.43562821568957" lon="8.961810391707807"><ele>30.833333333333336</ele><time>2026-05-02T07:47:16.001Z</time></trkpt><trkpt lat="44.43570560513232" lon="8.961839358983884"><ele>30.666666666666668</ele><time>2026-05-02T07:47:18.001Z</time></trkpt><trkpt lat="44.43577765056839" lon="8.961855748602416"><ele>30.5</ele><time>2026-05-02T07:47:20.001Z</time></trkpt><trkpt lat="44.43584748591221" lon="8.961898253903009"><ele>30.333333333333336</ele><time>2026-05-02T07:47:22.001Z</time></trkpt><trkpt lat="44.435926579110635" lon="8.9619173819919"><ele>30.166666666666668</ele><time>2026-05-02T07:47:24.001Z</time></trkpt><trkpt lat="44.436018433085806" lon="8.96193800735981"><ele>30.0</ele><time>2026-05-02T07:47:27.001Z</time></trkpt><trkpt lat="44.436226073644605" lon="8.961939675625144"><ele>30.5</ele><time>2026-05-02T07:47:35.001Z</time></trkpt><trkpt lat="44.43644655414474" lon="8.961944814578805"><ele>31.0</ele><time>2026-05-02T07:47:41.001Z</time></trkpt><trkpt lat="44.43651992348148" lon="8.961940760772833"><ele>31.5</ele><time>2026-05-02T07:47:43.001Z</time></trkpt><trkpt lat="44.43658630859633" lon="8.961942234497945"><ele>32.0</ele><time>2026-05-02T07:47:45.001Z</time></trkpt><trkpt lat="44.436702132935274" lon="8.961947756361747"><ele>32.0</ele><time>2026-05-02T07:47:48.001Z</time></trkpt><trkpt lat="44.436918646811606" lon="8.961973539582628"><ele>32.0</ele><time>2026-05-02T07:47:54.002Z</time></trkpt><trkpt lat="44.43701441660881" lon="8.961986667023247"><ele>32.0</ele><time>2026-05-02T07:47:57.002Z</time></trkpt><trkpt lat="44.4370820601174" lon="8.9619979995544"><ele>32.0</ele><time>2026-05-02T07:48:01Z</time></trkpt><trkpt lat="44.437262081710244" lon="8.96199494294748"><ele>32.166666666666664</ele><time>2026-05-02T07:48:10Z</time></trkpt><trkpt lat="44.43732836697422" lon="8.961994041881638"><ele>32.33333333333333</ele><time>2026-05-02T07:48:12Z</time></trkpt><trkpt lat="44.43743607633513" lon="8.962002110027322"><ele>32.5</ele><time>2026-05-02T07:48:15Z</time></trkpt><trkpt lat="44.437511050041635" lon="8.962008304892036"><ele>32.666666666666664</ele><time>2026-05-02T07:48:17Z</time></trkpt><trkpt lat="44.43758039318988" lon="8.962019865835298"><ele>32.833333333333336</ele><time>2026-05-02T07:48:19Z</time></trkpt><trkpt lat="44.4376519989635" lon="8.9620332220747"><ele>33.0</ele><time>2026-05-02T07:48:21Z</time></trkpt><trkpt lat="44.43772896036492" lon="8.962071251712342"><ele>33.0</ele><time>2026-05-02T07:48:23Z</time></trkpt><trkpt lat="44.437811319054745" lon="8.962091465404558"><ele>33.0</ele><time>2026-05-02T07:48:25Z</time></trkpt><trkpt lat="44.43788251649627" lon="8.96211721583739"><ele>33.0</ele><time>2026-05-02T07:48:27Z</time></trkpt><trkpt lat="44.43795126098703" lon="8.962135875545018"><ele>33.0</ele><time>2026-05-02T07:48:29Z</time></trkpt><trkpt lat="44.438031799845994" lon="8.962144086815373"><ele>33.0</ele><time>2026-05-02T07:48:31Z</time></trkpt><trkpt lat="44.43811687422466" lon="8.962174667337399"><ele>33.0</ele><time>2026-05-02T07:48:33Z</time></trkpt><trkpt lat="44.4381883776407" lon="8.962222375486725"><ele>34.199999999999996</ele><time>2026-05-02T07:48:35Z</time></trkpt><trkpt lat="44.4382671283301" lon="8.962267323248813"><ele>35.4</ele><time>2026-05-02T07:48:37Z</time></trkpt><trkpt lat="44.438360474380275" lon="8.962289270108563"><ele>36.599999999999994</ele><time>2026-05-02T07:48:39Z</time></trkpt><trkpt lat="44.438480790222144" lon="8.96231850697735"><ele>37.8</ele><time>2026-05-02T07:48:42Z</time></trkpt><trkpt lat="44.43854977942966" lon="8.96233771528481"><ele>39.0</ele><time>2026-05-02T07:48:44Z</time></trkpt><trkpt lat="44.43863302560544" lon="8.962391535852985"><ele>39.0</ele><time>2026-05-02T07:48:46Z</time></trkpt><trkpt lat="44.43871862263349" lon="8.962403265243912"><ele>39.0</ele><time>2026-05-02T07:48:48Z</time></trkpt><trkpt lat="44.43887295663643" lon="8.962457173069398"><ele>39.0</ele><time>2026-05-02T07:48:52.001Z</time></trkpt><trkpt lat="44.43896931414421" lon="8.962477824688571"><ele>39.0</ele><time>2026-05-02T07:48:54.001Z</time></trkpt><trkpt lat="44.43904725238098" lon="8.96251000005814"><ele>39.0</ele><time>2026-05-02T07:48:56.001Z</time></trkpt><trkpt lat="44.43922476920458" lon="8.962539075755014"><ele>39.0</ele><time>2026-05-02T07:49:00.001Z</time></trkpt><trkpt lat="44.43929441157953" lon="8.962578227058929"><ele>39.0</ele><time>2026-05-02T07:49:02.001Z</time></trkpt><trkpt lat="44.439388244909395" lon="8.96259923065632"><ele>39.0</ele><time>2026-05-02T07:49:04.001Z</time></trkpt><trkpt lat="44.43947153706307" lon="8.962632177814253"><ele>39.0</ele><time>2026-05-02T07:49:06.001Z</time></trkpt><trkpt lat="44.439568488720255" lon="8.962666632765202"><ele>39.0</ele><time>2026-05-02T07:49:08.001Z</time></trkpt><trkpt lat="44.439651529296455" lon="8.962687575318057"><ele>39.0</ele><time>2026-05-02T07:49:10.001Z</time></trkpt><trkpt lat="44.43973227050696" lon="8.96274278717332"><ele>39.0</ele><time>2026-05-02T07:49:12.001Z</time></trkpt><trkpt lat="44.43982980976609" lon="8.962749366141711"><ele>39.0</ele><time>2026-05-02T07:49:14.001Z</time></trkpt><trkpt lat="44.439918178947295" lon="8.962773388490305"><ele>39.0</ele><time>2026-05-02T07:49:16.001Z</time></trkpt><trkpt lat="44.44000238332344" lon="8.96279224217584"><ele>39.0</ele><time>2026-05-02T07:49:18.001Z</time></trkpt><trkpt lat="44.4401216437232" lon="8.962820403124818"><ele>39.0</ele><time>2026-05-02T07:49:21.001Z</time></trkpt><trkpt lat="44.440180318831366" lon="8.96285702622596"><ele>39.0</ele><time>2026-05-02T07:49:23.001Z</time></trkpt><trkpt lat="44.44023977534045" lon="8.962896156120223"><ele>39.0</ele><time>2026-05-02T07:49:25.001Z</time></trkpt><trkpt lat="44.44031051706384" lon="8.962948837101917"><ele>39.0</ele><time>2026-05-02T07:49:27.001Z</time></trkpt><trkpt lat="44.440407531553305" lon="8.962990864281855"><ele>39.0</ele><time>2026-05-02T07:49:29.001Z</time></trkpt><trkpt lat="44.440612608036474" lon="8.96306974359387"><ele>40.25</ele><time>2026-05-02T07:49:34.001Z</time></trkpt><trkpt lat="44.44069840412209" lon="8.963105467500018"><ele>41.5</ele><time>2026-05-02T07:49:36.001Z</time></trkpt><trkpt lat="44.44078514068786" lon="8.96317399926696"><ele>42.75</ele><time>2026-05-02T07:49:38.001Z</time></trkpt><trkpt lat="44.44086737448711" lon="8.96318719985103"><ele>44.0</ele><time>2026-05-02T07:49:40.001Z</time></trkpt><trkpt lat="44.441093534291674" lon="8.963262233519092"><ele>44.0</ele><time>2026-05-02T07:49:45.001Z</time></trkpt><trkpt lat="44.44117221985666" lon="8.96328282967513"><ele>44.0</ele><time>2026-05-02T07:49:47.001Z</time></trkpt><trkpt lat="44.441260390725276" lon="8.963312155929025"><ele>44.0</ele><time>2026-05-02T07:49:49.002Z</time></trkpt><trkpt lat="44.44134458097488" lon="8.963350824457324"><ele>44.0</ele><time>2026-05-02T07:49:51.002Z</time></trkpt><trkpt lat="44.4414111300716" lon="8.963387494450538"><ele>44.0</ele><time>2026-05-02T07:49:53.002Z</time></trkpt><trkpt lat="44.441488489375956" lon="8.96339304176399"><ele>44.0</ele><time>2026-05-02T07:49:55.002Z</time></trkpt><trkpt lat="44.44159558492189" lon="8.963417291319763"><ele>43.0</ele><time>2026-05-02T07:49:58.002Z</time></trkpt><trkpt lat="44.441658789104586" lon="8.963434370054618"><ele>42.0</ele><time>2026-05-02T07:50:00.002Z</time></trkpt><trkpt lat="44.44173376338114" lon="8.963408145760724"><ele>41.0</ele><time>2026-05-02T07:50:02.002Z</time></trkpt><trkpt lat="44.441796928424125" lon="8.963448662974416"><ele>40.0</ele><time>2026-05-02T07:50:04.002Z</time></trkpt><trkpt lat="44.44188087149221" lon="8.96349160765214"><ele>39.0</ele><time>2026-05-02T07:50:06.002Z</time></trkpt><trkpt lat="44.44196073129487" lon="8.963545190029693"><ele>38.0</ele><time>2026-05-02T07:50:08Z</time></trkpt><trkpt lat="44.442037322213075" lon="8.96356969979101"><ele>38.0</ele><time>2026-05-02T07:50:10Z</time></trkpt><trkpt lat="44.442099361273364" lon="8.96363136419932"><ele>38.0</ele><time>2026-05-02T07:50:12Z</time></trkpt><trkpt lat="44.44221951706493" lon="8.96368369495914"><ele>38.0</ele><time>2026-05-02T07:50:15Z</time></trkpt><trkpt lat="44.4422998533516" lon="8.9637478702904"><ele>38.0</ele><time>2026-05-02T07:50:17Z</time></trkpt><trkpt lat="44.4423763591042" lon="8.963817928427684"><ele>38.0</ele><time>2026-05-02T07:50:19Z</time></trkpt><trkpt lat="44.442453964265496" lon="8.963842403292809"><ele>37.666666666666664</ele><time>2026-05-02T07:50:21Z</time></trkpt><trkpt lat="44.44252636333735" lon="8.963914025068402"><ele>37.33333333333333</ele><time>2026-05-02T07:50:23Z</time></trkpt><trkpt lat="44.442608822649056" lon="8.963963121035567"><ele>37.0</ele><time>2026-05-02T07:50:25Z</time></trkpt><trkpt lat="44.44268664468378" lon="8.964016053292717"><ele>36.666666666666664</ele><time>2026-05-02T07:50:27Z</time></trkpt><trkpt lat="44.44275985298317" lon="8.964066321327673"><ele>36.333333333333336</ele><time>2026-05-02T07:50:29Z</time></trkpt><trkpt lat="44.44281710505274" lon="8.964152579316423"><ele>36.0</ele><time>2026-05-02T07:50:31Z</time></trkpt><trkpt lat="44.442885680679204" lon="8.964208925092963"><ele>36.0</ele><time>2026-05-02T07:50:33Z</time></trkpt><trkpt lat="44.44295220536056" lon="8.964289939242523"><ele>36.0</ele><time>2026-05-02T07:50:35Z</time></trkpt><trkpt lat="44.443028194205986" lon="8.964341883675301"><ele>36.0</ele><time>2026-05-02T07:50:37Z</time></trkpt><trkpt lat="44.443078989737884" lon="8.96441412338141"><ele>36.0</ele><time>2026-05-02T07:50:39Z</time></trkpt><trkpt lat="44.443158596534765" lon="8.964493640395649"><ele>36.0</ele><time>2026-05-02T07:50:41Z</time></trkpt><trkpt lat="44.44322361682628" lon="8.96457011367296"><ele>36.0</ele><time>2026-05-02T07:50:43Z</time></trkpt><trkpt lat="44.44329393353881" lon="8.964626092997568"><ele>36.8</ele><time>2026-05-02T07:50:45Z</time></trkpt><trkpt lat="44.44334628384679" lon="8.964728095604961"><ele>37.6</ele><time>2026-05-02T07:50:47Z</time></trkpt><trkpt lat="44.443419688681104" lon="8.964823365087373"><ele>38.4</ele><time>2026-05-02T07:50:49Z</time></trkpt><trkpt lat="44.44349545136842" lon="8.96490675530851"><ele>39.2</ele><time>2026-05-02T07:50:51Z</time></trkpt><trkpt lat="44.4435663323347" lon="8.964988335406925"><ele>40.0</ele><time>2026-05-02T07:50:53Z</time></trkpt><trkpt lat="44.443638580109145" lon="8.96506948343928"><ele>40.0</ele><time>2026-05-02T07:50:55Z</time></trkpt><trkpt lat="44.44370089622951" lon="8.965152541406313"><ele>40.0</ele><time>2026-05-02T07:50:57.001Z</time></trkpt><trkpt lat="44.443769340123225" lon="8.96522740670815"><ele>40.0</ele><time>2026-05-02T07:50:59.001Z</time></trkpt><trkpt lat="44.44383125637564" lon="8.965288143597824"><ele>40.0</ele><time>2026-05-02T07:51:01.001Z</time></trkpt><trkpt lat="44.443889070931824" lon="8.965333684537063"><ele>40.0</ele><time>2026-05-02T07:51:03.001Z</time></trkpt><trkpt lat="44.44395784463314" lon="8.96541236929093"><ele>40.0</ele><time>2026-05-02T07:51:05.001Z</time></trkpt><trkpt lat="44.444013315755754" lon="8.965479267984568"><ele>40.5</ele><time>2026-05-02T07:51:07.001Z</time></trkpt><trkpt lat="44.44407756395241" lon="8.96552779132966"><ele>41.0</ele><time>2026-05-02T07:51:09.001Z</time></trkpt><trkpt lat="44.44413159513899" lon="8.965598191664814"><ele>41.5</ele><time>2026-05-02T07:51:11.001Z</time></trkpt><trkpt lat="44.444206691086926" lon="8.965646464176922"><ele>42.0</ele><time>2026-05-02T07:51:13.001Z</time></trkpt><trkpt lat="44.4442603817644" lon="8.965698344510082"><ele>42.5</ele><time>2026-05-02T07:51:15.001Z</time></trkpt><trkpt lat="44.4443216927861" lon="8.965780003826572"><ele>43.0</ele><time>2026-05-02T07:51:17.001Z</time></trkpt><trkpt lat="44.4443940415421" lon="8.965839858585191"><ele>42.833333333333336</ele><time>2026-05-02T07:51:19.001Z</time></trkpt><trkpt lat="44.44446402418701" lon="8.965890925357792"><ele>42.66666666666667</ele><time>2026-05-02T07:51:21.001Z</time></trkpt><trkpt lat="44.44454805951675" lon="8.965953393773512"><ele>42.5</ele><time>2026-05-02T07:51:24.001Z</time></trkpt><trkpt lat="44.444617582655326" lon="8.966021991138383"><ele>42.333333333333336</ele><time>2026-05-02T07:51:26.001Z</time></trkpt><trkpt lat="44.444667766788" lon="8.966105529042656"><ele>42.166666666666664</ele><time>2026-05-02T07:51:28.001Z</time></trkpt><trkpt lat="44.444690413430976" lon="8.966240359618673"><ele>42.0</ele><time>2026-05-02T07:51:30.001Z</time></trkpt><trkpt lat="44.444802216812114" lon="8.9663470566072"><ele>42.0</ele><time>2026-05-02T07:51:33.001Z</time></trkpt><trkpt lat="44.444854643966835" lon="8.96643514141405"><ele>42.0</ele><time>2026-05-02T07:51:35.001Z</time></trkpt><trkpt lat="44.44492837813246" lon="8.966502089566552"><ele>42.0</ele><time>2026-05-02T07:51:37.001Z</time></trkpt><trkpt lat="44.4449951177494" lon="8.966581299249913"><ele>42.0</ele><time>2026-05-02T07:51:39.001Z</time></trkpt><trkpt lat="44.44505506002376" lon="8.966688166433308"><ele>42.0</ele><time>2026-05-02T07:51:41.001Z</time></trkpt><trkpt lat="44.44511417224769" lon="8.966759523687996"><ele>42.0</ele><time>2026-05-02T07:51:43.001Z</time></trkpt><trkpt lat="44.445174528933364" lon="8.966851708535168"><ele>41.8</ele><time>2026-05-02T07:51:45.001Z</time></trkpt><trkpt lat="44.44526415638361" lon="8.96696870962243"><ele>41.6</ele><time>2026-05-02T07:51:48.001Z</time></trkpt><trkpt lat="44.4453259081124" lon="8.967035374084679"><ele>41.4</ele><time>2026-05-02T07:51:50.001Z</time></trkpt><trkpt lat="44.44539547320474" lon="8.967135658082537"><ele>41.199999999999996</ele><time>2026-05-02T07:51:52.001Z</time></trkpt><trkpt lat="44.44543545571032" lon="8.96721650771454"><ele>41.0</ele><time>2026-05-02T07:51:54.002Z</time></trkpt><trkpt lat="44.44550261872296" lon="8.967285977465242"><ele>41.5</ele><time>2026-05-02T07:51:56.002Z</time></trkpt><trkpt lat="44.44556112222564" lon="8.96736639474909"><ele>42.0</ele><time>2026-05-02T07:51:58.002Z</time></trkpt><trkpt lat="44.445601408859005" lon="8.967448967937973"><ele>42.5</ele><time>2026-05-02T07:52:00.002Z</time></trkpt><trkpt lat="44.44567363625712" lon="8.967505843065931"><ele>43.0</ele><time>2026-05-02T07:52:02.002Z</time></trkpt><trkpt lat="44.445749317845745" lon="8.9675985542879"><ele>43.5</ele><time>2026-05-02T07:52:05.002Z</time></trkpt><trkpt lat="44.44581814852158" lon="8.967681921066475"><ele>44.0</ele><time>2026-05-02T07:52:08.002Z</time></trkpt><trkpt lat="44.44586400057293" lon="8.967772181515443"><ele>44.0</ele><time>2026-05-02T07:52:11.002Z</time></trkpt><trkpt lat="44.445898797110324" lon="8.96788037926758"><ele>44.0</ele><time>2026-05-02T07:54:27Z</time></trkpt><trkpt lat="44.445961781051466" lon="8.967889536062751"><ele>44.0</ele><time>2026-05-02T07:54:33Z</time></trkpt><trkpt lat="44.44600671247336" lon="8.967955141412778"><ele>44.0</ele><time>2026-05-02T07:54:36Z</time></trkpt><trkpt lat="44.4460784884095" lon="8.96801273247956"><ele>44.0</ele><time>2026-05-02T07:54:39Z</time></trkpt><trkpt lat="44.44615522238587" lon="8.968093155737318"><ele>44.0</ele><time>2026-05-02T07:54:42Z</time></trkpt><trkpt lat="44.446217984298066" lon="8.968187637042583"><ele>44.166666666666664</ele><time>2026-05-02T07:54:44Z</time></trkpt><trkpt lat="44.446295457182565" lon="8.968259957891872"><ele>44.33333333333333</ele><time>2026-05-02T07:54:46Z</time></trkpt><trkpt lat="44.44634450260098" lon="8.968341444464231"><ele>44.5</ele><time>2026-05-02T07:54:48Z</time></trkpt><trkpt lat="44.44640478790752" lon="8.96843740785519"><ele>44.666666666666664</ele><time>2026-05-02T07:54:51Z</time></trkpt><trkpt lat="44.4464521835783" lon="8.968508742563515"><ele>44.833333333333336</ele><time>2026-05-02T07:54:53Z</time></trkpt><trkpt lat="44.446512171317345" lon="8.968585947871036"><ele>45.0</ele><time>2026-05-02T07:54:55Z</time></trkpt><trkpt lat="44.446561688751736" lon="8.968685592280263"><ele>44.666666666666664</ele><time>2026-05-02T07:54:57Z</time></trkpt><trkpt lat="44.44663165232825" lon="8.96874332998036"><ele>44.333333333333336</ele><time>2026-05-02T07:54:59Z</time></trkpt><trkpt lat="44.44668832485708" lon="8.968794512320038"><ele>44.0</ele><time>2026-05-02T07:55:01Z</time></trkpt><trkpt lat="44.446751902415976" lon="8.968877883115832"><ele>43.66666666666667</ele><time>2026-05-02T07:55:03Z</time></trkpt><trkpt lat="44.446801596693504" lon="8.968961932047263"><ele>43.333333333333336</ele><time>2026-05-02T07:55:05.001Z</time></trkpt><trkpt lat="44.446859528089036" lon="8.969044794283729"><ele>43.0</ele><time>2026-05-02T07:55:07.001Z</time></trkpt><trkpt lat="44.44690880662029" lon="8.969135848309524"><ele>43.0</ele><time>2026-05-02T07:55:09.001Z</time></trkpt><trkpt lat="44.44697906092924" lon="8.969210820614705"><ele>43.0</ele><time>2026-05-02T07:55:11.001Z</time></trkpt><trkpt lat="44.44703865601598" lon="8.969303618228091"><ele>43.0</ele><time>2026-05-02T07:55:13.001Z</time></trkpt><trkpt lat="44.44710051750493" lon="8.969393259525535"><ele>43.0</ele><time>2026-05-02T07:55:15.001Z</time></trkpt><trkpt lat="44.44716704587552" lon="8.969484161458237"><ele>43.0</ele><time>2026-05-02T07:55:17.001Z</time></trkpt><trkpt lat="44.44723353274884" lon="8.96956297200593"><ele>43.0</ele><time>2026-05-02T07:55:19.001Z</time></trkpt><trkpt lat="44.4472871249328" lon="8.969635585108707"><ele>43.16666666666667</ele><time>2026-05-02T07:55:21.001Z</time></trkpt><trkpt lat="44.447344702936554" lon="8.96971883836903"><ele>43.333333333333336</ele><time>2026-05-02T07:55:23.001Z</time></trkpt><trkpt lat="44.447415788759216" lon="8.969787849526416"><ele>43.5</ele><time>2026-05-02T07:55:25.001Z</time></trkpt><trkpt lat="44.4474613567558" lon="8.969858107590364"><ele>43.666666666666664</ele><time>2026-05-02T07:55:27.001Z</time></trkpt><trkpt lat="44.44753540560888" lon="8.969906292733926"><ele>43.83333333333333</ele><time>2026-05-02T07:55:29.001Z</time></trkpt><trkpt lat="44.44757690184274" lon="8.970021985945529"><ele>44.0</ele><time>2026-05-02T07:55:31.001Z</time></trkpt><trkpt lat="44.44765307523389" lon="8.970075249272195"><ele>44.0</ele><time>2026-05-02T07:55:33.001Z</time></trkpt><trkpt lat="44.44770555932469" lon="8.970150686013891"><ele>44.0</ele><time>2026-05-02T07:55:35.001Z</time></trkpt><trkpt lat="44.447763521046255" lon="8.970222271438614"><ele>44.0</ele><time>2026-05-02T07:55:37.001Z</time></trkpt><trkpt lat="44.44783818023071" lon="8.970300431166942"><ele>44.0</ele><time>2026-05-02T07:55:39.001Z</time></trkpt><trkpt lat="44.44789670155724" lon="8.970373056150736"><ele>44.0</ele><time>2026-05-02T07:55:41.001Z</time></trkpt><trkpt lat="44.447961514573784" lon="8.970453224201894"><ele>44.0</ele><time>2026-05-02T07:55:43.001Z</time></trkpt><trkpt lat="44.44802503342978" lon="8.970527558382098"><ele>44.0</ele><time>2026-05-02T07:55:45.001Z</time></trkpt><trkpt lat="44.44808355791878" lon="8.970619415939732"><ele>44.0</ele><time>2026-05-02T07:55:47.001Z</time></trkpt><trkpt lat="44.44814529320003" lon="8.97069586142049"><ele>44.0</ele><time>2026-05-02T07:55:49.001Z</time></trkpt><trkpt lat="44.44820823459891" lon="8.970789280078534"><ele>44.0</ele><time>2026-05-02T07:55:51.001Z</time></trkpt><trkpt lat="44.44825836968993" lon="8.970887806282702"><ele>44.0</ele><time>2026-05-02T07:55:53.001Z</time></trkpt><trkpt lat="44.448320010299454" lon="8.971011986925987"><ele>44.0</ele><time>2026-05-02T07:55:55.001Z</time></trkpt><trkpt lat="44.44839649405106" lon="8.971106507267429"><ele>44.0</ele><time>2026-05-02T07:55:57.001Z</time></trkpt><trkpt lat="44.448468975954505" lon="8.971186177255547"><ele>44.0</ele><time>2026-05-02T07:55:59.002Z</time></trkpt><trkpt lat="44.44853284128094" lon="8.971289273486011"><ele>44.0</ele><time>2026-05-02T07:56:01.002Z</time></trkpt><trkpt lat="44.44861126661448" lon="8.971340564833362"><ele>44.0</ele><time>2026-05-02T07:56:03.002Z</time></trkpt><trkpt lat="44.44867060200599" lon="8.971410492412566"><ele>44.0</ele><time>2026-05-02T07:56:05.002Z</time></trkpt><trkpt lat="44.44873633703812" lon="8.971487857065364"><ele>44.0</ele><time>2026-05-02T07:56:07.002Z</time></trkpt><trkpt lat="44.448806016433075" lon="8.97154131114793"><ele>44.0</ele><time>2026-05-02T07:56:09.002Z</time></trkpt><trkpt lat="44.448875941697686" lon="8.971600891034683"><ele>44.0</ele><time>2026-05-02T07:56:11.002Z</time></trkpt><trkpt lat="44.44894089065287" lon="8.971651862367505"><ele>44.0</ele><time>2026-05-02T07:56:13.002Z</time></trkpt><trkpt lat="44.44898661288224" lon="8.971754265481096"><ele>44.0</ele><time>2026-05-02T07:56:15.002Z</time></trkpt><trkpt lat="44.44903606368865" lon="8.971834721039897"><ele>44.33333333333333</ele><time>2026-05-02T07:56:17.002Z</time></trkpt><trkpt lat="44.44910287996135" lon="8.971910117430543"><ele>44.666666666666664</ele><time>2026-05-02T07:56:19.002Z</time></trkpt><trkpt lat="44.44917021075997" lon="8.971966968199101"><ele>45.0</ele><time>2026-05-02T07:56:21.002Z</time></trkpt><trkpt lat="44.44923101071558" lon="8.972032045107435"><ele>45.333333333333336</ele><time>2026-05-02T07:56:23.002Z</time></trkpt><trkpt lat="44.449284883247664" lon="8.972118680903229"><ele>45.66666666666667</ele><time>2026-05-02T07:56:25Z</time></trkpt><trkpt lat="44.44936042327148" lon="8.97217201513578"><ele>46.0</ele><time>2026-05-02T07:56:27Z</time></trkpt><trkpt lat="44.44941941321169" lon="8.972241893846997"><ele>46.0</ele><time>2026-05-02T07:56:29Z</time></trkpt><trkpt lat="44.44947892198011" lon="8.972295550636865"><ele>46.0</ele><time>2026-05-02T07:56:31Z</time></trkpt><trkpt lat="44.44952120595239" lon="8.972376351358006"><ele>46.0</ele><time>2026-05-02T07:56:33Z</time></trkpt><trkpt lat="44.44958744450748" lon="8.972454934105109"><ele>46.0</ele><time>2026-05-02T07:56:35Z</time></trkpt><trkpt lat="44.449633071101296" lon="8.97253222026212"><ele>46.0</ele><time>2026-05-02T07:56:37Z</time></trkpt><trkpt lat="44.44967655896735" lon="8.972625584311967"><ele>46.0</ele><time>2026-05-02T07:56:39Z</time></trkpt><trkpt lat="44.44973133774741" lon="8.972683132277085"><ele>46.0</ele><time>2026-05-02T07:56:41Z</time></trkpt><trkpt lat="44.44979356485012" lon="8.972744144018208"><ele>46.333333333333336</ele><time>2026-05-02T07:56:43Z</time></trkpt><trkpt lat="44.44985994210798" lon="8.972824162083839"><ele>46.66666666666667</ele><time>2026-05-02T07:56:45Z</time></trkpt><trkpt lat="44.44991778811674" lon="8.972867701882082"><ele>47.0</ele><time>2026-05-02T07:56:47Z</time></trkpt><trkpt lat="44.449975428704306" lon="8.972956168707048"><ele>47.333333333333336</ele><time>2026-05-02T07:56:49Z</time></trkpt><trkpt lat="44.45002756264732" lon="8.973031877644535"><ele>47.666666666666664</ele><time>2026-05-02T07:56:51Z</time></trkpt><trkpt lat="44.450088751012366" lon="8.973114796792029"><ele>48.0</ele><time>2026-05-02T07:56:53Z</time></trkpt><trkpt lat="44.45014349155062" lon="8.973187908186059"><ele>48.0</ele><time>2026-05-02T07:56:55Z</time></trkpt><trkpt lat="44.450242540706" lon="8.973248372656528"><ele>48.0</ele><time>2026-05-02T07:56:58Z</time></trkpt><trkpt lat="44.45029926313685" lon="8.973354708103688"><ele>48.0</ele><time>2026-05-02T07:57:00Z</time></trkpt><trkpt lat="44.45035613971879" lon="8.973413360189683"><ele>48.0</ele><time>2026-05-02T07:57:02Z</time></trkpt><trkpt lat="44.45041970965371" lon="8.973518243471554"><ele>48.0</ele><time>2026-05-02T07:57:04Z</time></trkpt><trkpt lat="44.45048508564012" lon="8.97357989002726"><ele>48.333333333333336</ele><time>2026-05-02T07:57:06Z</time></trkpt><trkpt lat="44.45054452837197" lon="8.973647605375191"><ele>48.66666666666667</ele><time>2026-05-02T07:57:08Z</time></trkpt><trkpt lat="44.450586589110436" lon="8.97373715245773"><ele>49.0</ele><time>2026-05-02T07:57:10Z</time></trkpt><trkpt lat="44.45066060321064" lon="8.973817067006117"><ele>49.333333333333336</ele><time>2026-05-02T07:57:12.001Z</time></trkpt><trkpt lat="44.45072105826849" lon="8.97390129410334"><ele>49.66666666666667</ele><time>2026-05-02T07:57:14.001Z</time></trkpt><trkpt lat="44.4507694692207" lon="8.973983183510775"><ele>50.0</ele><time>2026-05-02T07:57:16.001Z</time></trkpt><trkpt lat="44.45082726283253" lon="8.974056496523472"><ele>50.00000000000001</ele><time>2026-05-02T07:57:18.001Z</time></trkpt><trkpt lat="44.45087239459846" lon="8.9741272119537"><ele>50.0</ele><time>2026-05-02T07:57:20.001Z</time></trkpt><trkpt lat="44.4509389682011" lon="8.974129763244964"><ele>50.0</ele><time>2026-05-02T07:57:23.001Z</time></trkpt><trkpt lat="44.45104855874708" lon="8.974229572797013"><ele>50.0</ele><time>2026-05-02T07:57:26.001Z</time></trkpt><trkpt lat="44.451099969098266" lon="8.974308994246472"><ele>50.00000000000001</ele><time>2026-05-02T07:57:28.001Z</time></trkpt><trkpt lat="44.45118250195432" lon="8.974369531455979"><ele>50.0</ele><time>2026-05-02T07:57:30.001Z</time></trkpt><trkpt lat="44.45124851394328" lon="8.974436449132124"><ele>51.00000000000001</ele><time>2026-05-02T07:57:32.001Z</time></trkpt><trkpt lat="44.45131885694241" lon="8.974520165735113"><ele>52.0</ele><time>2026-05-02T07:57:34.001Z</time></trkpt><trkpt lat="44.45138528539094" lon="8.974587983854127"><ele>53.0</ele><time>2026-05-02T07:57:36.001Z</time></trkpt><trkpt lat="44.451446727751744" lon="8.974678208626065"><ele>54.0</ele><time>2026-05-02T07:57:38.001Z</time></trkpt><trkpt lat="44.451512376247756" lon="8.974765276412272"><ele>55.00000000000001</ele><time>2026-05-02T07:57:40.001Z</time></trkpt><trkpt lat="44.45157756592357" lon="8.974833367917018"><ele>56.0</ele><time>2026-05-02T07:57:42.001Z</time></trkpt><trkpt lat="44.45164232021979" lon="8.974917744642504"><ele>56.00000000000001</ele><time>2026-05-02T07:57:44.001Z</time></trkpt><trkpt lat="44.451710634856" lon="8.974972022747412"><ele>56.0</ele><time>2026-05-02T07:57:47.001Z</time></trkpt><trkpt lat="44.45176815793798" lon="8.975045697936837"><ele>56.0</ele><time>2026-05-02T07:57:53.001Z</time></trkpt><trkpt lat="44.451827304731175" lon="8.975150327446011"><ele>56.0</ele><time>2026-05-02T07:57:56.001Z</time></trkpt><trkpt lat="44.45187968909987" lon="8.975215162436234"><ele>56.00000000000001</ele><time>2026-05-02T07:57:58.001Z</time></trkpt><trkpt lat="44.45195661458446" lon="8.975238961195826"><ele>56.0</ele><time>2026-05-02T07:58:00.001Z</time></trkpt><trkpt lat="44.45203716709495" lon="8.975259818762826"><ele>55.833333333333336</ele><time>2026-05-02T07:58:02.002Z</time></trkpt><trkpt lat="44.45209715512567" lon="8.975358625587335"><ele>55.66666666666667</ele><time>2026-05-02T07:58:04.002Z</time></trkpt><trkpt lat="44.45214674358008" lon="8.975462878534124"><ele>55.5</ele><time>2026-05-02T07:58:06.002Z</time></trkpt><trkpt lat="44.45219579306872" lon="8.975563640351323"><ele>55.33333333333333</ele><time>2026-05-02T07:58:08.002Z</time></trkpt><trkpt lat="44.452255506749914" lon="8.975651817989837"><ele>55.166666666666664</ele><time>2026-05-02T07:58:10.002Z</time></trkpt><trkpt lat="44.45230122542344" lon="8.975759153233943"><ele>55.0</ele><time>2026-05-02T07:58:12.002Z</time></trkpt><trkpt lat="44.45234178298135" lon="8.975874074231678"><ele>55.0</ele><time>2026-05-02T07:58:14.002Z</time></trkpt><trkpt lat="44.45239505051231" lon="8.97599279422565"><ele>55.0</ele><time>2026-05-02T07:58:16.002Z</time></trkpt><trkpt lat="44.45244988738033" lon="8.976090149486877"><ele>55.0</ele><time>2026-05-02T07:58:18.002Z</time></trkpt><trkpt lat="44.45250705131036" lon="8.976191661919593"><ele>55.0</ele><time>2026-05-02T07:58:20.002Z</time></trkpt><trkpt lat="44.45255678061238" lon="8.976308744508957"><ele>55.0</ele><time>2026-05-02T07:58:22.002Z</time></trkpt><trkpt lat="44.4526074703394" lon="8.976423865090743"><ele>55.0</ele><time>2026-05-02T07:58:24.002Z</time></trkpt><trkpt lat="44.45266458264632" lon="8.976535179777407"><ele>55.0</ele><time>2026-05-02T07:58:26.002Z</time></trkpt><trkpt lat="44.45271700681335" lon="8.976652072441986"><ele>55.0</ele><time>2026-05-02T07:58:28.002Z</time></trkpt><trkpt lat="44.45277331133447" lon="8.976756719229355"><ele>55.0</ele><time>2026-05-02T07:58:30.002Z</time></trkpt><trkpt lat="44.45283288440347" lon="8.97687870478124"><ele>55.0</ele><time>2026-05-02T07:58:32Z</time></trkpt><trkpt lat="44.45288344992332" lon="8.976994102190977"><ele>55.33333333333333</ele><time>2026-05-02T07:58:34Z</time></trkpt><trkpt lat="44.452938940744396" lon="8.97709192366435"><ele>55.666666666666664</ele><time>2026-05-02T07:58:36Z</time></trkpt><trkpt lat="44.45298244567983" lon="8.977217508053766"><ele>56.0</ele><time>2026-05-02T07:58:38Z</time></trkpt><trkpt lat="44.453037959251965" lon="8.977292306870462"><ele>56.33333333333333</ele><time>2026-05-02T07:58:40Z</time></trkpt><trkpt lat="44.45308710745562" lon="8.977382868707734"><ele>56.666666666666664</ele><time>2026-05-02T07:58:42Z</time></trkpt><trkpt lat="44.45313667919948" lon="8.977481209162725"><ele>57.0</ele><time>2026-05-02T07:58:44Z</time></trkpt><trkpt lat="44.45318334299419" lon="8.977586201279042"><ele>57.5</ele><time>2026-05-02T07:58:46Z</time></trkpt><trkpt lat="44.45322212663655" lon="8.977693589616594"><ele>58.0</ele><time>2026-05-02T07:58:48Z</time></trkpt><trkpt lat="44.45326798615305" lon="8.977782830275956"><ele>58.5</ele><time>2026-05-02T07:58:50Z</time></trkpt><trkpt lat="44.45331934305862" lon="8.977878930470876"><ele>59.0</ele><time>2026-05-02T07:58:52Z</time></trkpt><trkpt lat="44.45337343315588" lon="8.977979707664455"><ele>59.5</ele><time>2026-05-02T07:58:54Z</time></trkpt><trkpt lat="44.45341812461905" lon="8.978063938237735"><ele>60.0</ele><time>2026-05-02T07:58:56Z</time></trkpt><trkpt lat="44.45347090463438" lon="8.978168923177865"><ele>60.0</ele><time>2026-05-02T07:58:58Z</time></trkpt><trkpt lat="44.45350371073838" lon="8.978274291178634"><ele>60.0</ele><time>2026-05-02T07:59:00Z</time></trkpt><trkpt lat="44.45354429130248" lon="8.978357772798692"><ele>60.0</ele><time>2026-05-02T07:59:02Z</time></trkpt><trkpt lat="44.45361713357364" lon="8.978463472235113"><ele>60.0</ele><time>2026-05-02T07:59:04Z</time></trkpt><trkpt lat="44.45366963507752" lon="8.978553952290556"><ele>60.0</ele><time>2026-05-02T07:59:06Z</time></trkpt><trkpt lat="44.453722490301885" lon="8.978645623118787"><ele>60.0</ele><time>2026-05-02T07:59:08Z</time></trkpt><trkpt lat="44.453774136147786" lon="8.978728908258129"><ele>59.833333333333336</ele><time>2026-05-02T07:59:10Z</time></trkpt><trkpt lat="44.453818393944054" lon="8.978826979527476"><ele>59.66666666666667</ele><time>2026-05-02T07:59:12Z</time></trkpt><trkpt lat="44.453849183638496" lon="8.978919116764398"><ele>59.5</ele><time>2026-05-02T07:59:14Z</time></trkpt><trkpt lat="44.45390726642904" lon="8.979012115012017"><ele>59.333333333333336</ele><time>2026-05-02T07:59:16Z</time></trkpt><trkpt lat="44.45392356585909" lon="8.97914105902958"><ele>59.16666666666667</ele><time>2026-05-02T07:59:18Z</time></trkpt><trkpt lat="44.45395556553168" lon="8.979229306403555"><ele>59.0</ele><time>2026-05-02T07:59:20.001Z</time></trkpt><trkpt lat="44.453980958637366" lon="8.979339590090705"><ele>59.00000000000001</ele><time>2026-05-02T07:59:22.001Z</time></trkpt><trkpt lat="44.4539973324684" lon="8.979449182912113"><ele>59.0</ele><time>2026-05-02T07:59:24.001Z</time></trkpt><trkpt lat="44.45402621165048" lon="8.979543589408207"><ele>59.0</ele><time>2026-05-02T07:59:26.001Z</time></trkpt><trkpt lat="44.454050519984854" lon="8.979648768911407"><ele>59.0</ele><time>2026-05-02T07:59:28.001Z</time></trkpt><trkpt lat="44.45407772376814" lon="8.979753746881903"><ele>59.00000000000001</ele><time>2026-05-02T07:59:31.001Z</time></trkpt><trkpt lat="44.4540832451249" lon="8.979856403935102"><ele>59.0</ele><time>2026-05-02T07:59:35.001Z</time></trkpt><trkpt lat="44.454118053917846" lon="8.979933265255154"><ele>59.16666666666667</ele><time>2026-05-02T07:59:37.001Z</time></trkpt><trkpt lat="44.45415614013562" lon="8.980031030982762"><ele>59.333333333333336</ele><time>2026-05-02T07:59:39.001Z</time></trkpt><trkpt lat="44.45419277752237" lon="8.980128696076035"><ele>59.5</ele><time>2026-05-02T07:59:41.001Z</time></trkpt><trkpt lat="44.45422099619828" lon="8.980225651451336"><ele>59.66666666666667</ele><time>2026-05-02T07:59:43.001Z</time></trkpt><trkpt lat="44.454237342294036" lon="8.980359020649816"><ele>59.833333333333336</ele><time>2026-05-02T07:59:45.001Z</time></trkpt><trkpt lat="44.45425619346817" lon="8.980497824550374"><ele>60.0</ele><time>2026-05-02T07:59:47.001Z</time></trkpt><trkpt lat="44.45427898451225" lon="8.980634773923287"><ele>60.0</ele><time>2026-05-02T07:59:49.001Z</time></trkpt><trkpt lat="44.454319914270236" lon="8.98075736891967"><ele>60.0</ele><time>2026-05-02T07:59:51.001Z</time></trkpt><trkpt lat="44.45433742783457" lon="8.980888797369252"><ele>60.0</ele><time>2026-05-02T07:59:53.001Z</time></trkpt><trkpt lat="44.454339145214846" lon="8.98102796984103"><ele>60.0</ele><time>2026-05-02T07:59:55.001Z</time></trkpt><trkpt lat="44.45436247847807" lon="8.981110272440969"><ele>60.0</ele><time>2026-05-02T07:59:57.001Z</time></trkpt><trkpt lat="44.45437698220242" lon="8.981205274026658"><ele>60.0</ele><time>2026-05-02T07:59:59.001Z</time></trkpt><trkpt lat="44.45436919360689" lon="8.981316462510655"><ele>59.5</ele><time>2026-05-02T08:00:03.001Z</time></trkpt><trkpt lat="44.45439904753858" lon="8.981413918511553"><ele>59.0</ele><time>2026-05-02T08:00:05.001Z</time></trkpt><trkpt lat="44.454404842326525" lon="8.981527665954248"><ele>58.5</ele><time>2026-05-02T08:00:07.001Z</time></trkpt><trkpt lat="44.454423807338955" lon="8.981666108231826"><ele>58.0</ele><time>2026-05-02T08:00:09.002Z</time></trkpt><trkpt lat="44.45444955871962" lon="8.981783912616967"><ele>57.5</ele><time>2026-05-02T08:00:11.002Z</time></trkpt><trkpt lat="44.454501672115484" lon="8.981860524138797"><ele>57.0</ele><time>2026-05-02T08:00:13.002Z</time></trkpt><trkpt lat="44.454486731365535" lon="8.981966501899379"><ele>57.0</ele><time>2026-05-02T08:00:14.002Z</time></trkpt><trkpt lat="44.454487075735926" lon="8.982098987880995"><ele>57.0</ele><time>2026-05-02T08:00:16.002Z</time></trkpt><trkpt lat="44.45450587071272" lon="8.982233132010188"><ele>57.0</ele><time>2026-05-02T08:00:18.002Z</time></trkpt><trkpt lat="44.454503360897085" lon="8.98233100724973"><ele>57.0</ele><time>2026-05-02T08:00:20.002Z</time></trkpt><trkpt lat="44.45452150885261" lon="8.982419496962061"><ele>57.0</ele><time>2026-05-02T08:00:22.002Z</time></trkpt><trkpt lat="44.454540499055646" lon="8.982527114851795"><ele>57.0</ele><time>2026-05-02T08:00:24.002Z</time></trkpt><trkpt lat="44.45455672562461" lon="8.982630519395364"><ele>57.0</ele><time>2026-05-02T08:00:26.002Z</time></trkpt><trkpt lat="44.45454336029129" lon="8.98271818047683"><ele>57.0</ele><time>2026-05-02T08:00:28.002Z</time></trkpt><trkpt lat="44.45458869008641" lon="8.982844651941447"><ele>57.0</ele><time>2026-05-02T08:00:30.002Z</time></trkpt><trkpt lat="44.45460040560655" lon="8.982967565774723"><ele>57.0</ele><time>2026-05-02T08:00:32.002Z</time></trkpt><trkpt lat="44.45461625293065" lon="8.983085176284"><ele>57.0</ele><time>2026-05-02T08:00:34.002Z</time></trkpt><trkpt lat="44.454667915232335" lon="8.983168786862763"><ele>57.0</ele><time>2026-05-02T08:00:36.002Z</time></trkpt><trkpt lat="44.45466382557165" lon="8.983264387785129"><ele>58.285714285714285</ele><time>2026-05-02T08:00:38Z</time></trkpt><trkpt lat="44.454686900551295" lon="8.983355135796202"><ele>59.57142857142857</ele><time>2026-05-02T08:00:40Z</time></trkpt><trkpt lat="44.45469943237385" lon="8.983456420693571"><ele>60.857142857142854</ele><time>2026-05-02T08:00:43Z</time></trkpt><trkpt lat="44.454686563774416" lon="8.983543621546646"><ele>62.14285714285714</ele><time>2026-05-02T08:00:45Z</time></trkpt><trkpt lat="44.45468050489124" lon="8.98363726067579"><ele>63.42857142857143</ele><time>2026-05-02T08:00:47Z</time></trkpt><trkpt lat="44.4546897269859" lon="8.983772133373996"><ele>64.71428571428571</ele><time>2026-05-02T08:00:50Z</time></trkpt><trkpt lat="44.45462189351819" lon="8.983755289881028"><ele>66.0</ele><time>2026-05-02T08:01:16Z</time></trkpt><trkpt lat="44.45467257938103" lon="8.983671836401761"><ele>66.0</ele><time>2026-05-02T08:01:18Z</time></trkpt><trkpt lat="44.454556451145784" lon="8.983756318334013"><ele>66.0</ele><time>2026-05-02T08:01:59.001Z</time></trkpt><trkpt lat="44.45461048975536" lon="8.98382635223311"><ele>66.0</ele><time>2026-05-02T08:04:04.002Z</time></trkpt><trkpt lat="44.45466188810386" lon="8.983881741879486"><ele>66.0</ele><time>2026-05-02T08:04:09.002Z</time></trkpt><trkpt lat="44.454643564005494" lon="8.983981108955659"><ele>66.0</ele><time>2026-05-02T08:04:14.002Z</time></trkpt><trkpt lat="44.45464273519343" lon="8.984079049478211"><ele>66.0</ele><time>2026-05-02T08:04:17.002Z</time></trkpt><trkpt lat="44.45468571388898" lon="8.984183667169402"><ele>65.5</ele><time>2026-05-02T08:04:20.002Z</time></trkpt><trkpt lat="44.45470562080525" lon="8.984304702263689"><ele>65.0</ele><time>2026-05-02T08:04:23.002Z</time></trkpt><trkpt lat="44.45472398754049" lon="8.98444086423036"><ele>64.5</ele><time>2026-05-02T08:04:26.002Z</time></trkpt><trkpt lat="44.45473768244648" lon="8.984535155892237"><ele>64.0</ele><time>2026-05-02T08:04:28.002Z</time></trkpt><trkpt lat="44.45475761077773" lon="8.98466513519995"><ele>63.5</ele><time>2026-05-02T08:04:31.002Z</time></trkpt><trkpt lat="44.454766164299244" lon="8.98476145647201"><ele>63.0</ele><time>2026-05-02T08:04:33.002Z</time></trkpt><trkpt lat="44.45476532598968" lon="8.984854204633141"><ele>63.0</ele><time>2026-05-02T08:04:35.002Z</time></trkpt><trkpt lat="44.45475326194364" lon="8.984969181327344"><ele>63.0</ele><time>2026-05-02T08:04:37.002Z</time></trkpt><trkpt lat="44.454738647442184" lon="8.985069448067541"><ele>63.0</ele><time>2026-05-02T08:04:39.002Z</time></trkpt><trkpt lat="44.454721581411846" lon="8.985175405696538"><ele>63.0</ele><time>2026-05-02T08:04:41.002Z</time></trkpt><trkpt lat="44.454710279757236" lon="8.985283606883742"><ele>63.0</ele><time>2026-05-02T08:04:43.002Z</time></trkpt><trkpt lat="44.454698562777736" lon="8.985398865987316"><ele>63.0</ele><time>2026-05-02T08:04:45.002Z</time></trkpt><trkpt lat="44.454670630712826" lon="8.98549085630317"><ele>63.166666666666664</ele><time>2026-05-02T08:04:47.002Z</time></trkpt><trkpt lat="44.45464965554424" lon="8.985585834105825"><ele>63.33333333333333</ele><time>2026-05-02T08:04:49.001Z</time></trkpt><trkpt lat="44.45462416598999" lon="8.985677886803295"><ele>63.5</ele><time>2026-05-02T08:04:51.001Z</time></trkpt><trkpt lat="44.454600346536786" lon="8.98579663233824"><ele>63.666666666666664</ele><time>2026-05-02T08:04:53.001Z</time></trkpt><trkpt lat="44.45457222995809" lon="8.985899950507687"><ele>63.83333333333333</ele><time>2026-05-02T08:04:55Z</time></trkpt><trkpt lat="44.4545454592769" lon="8.986008108710488"><ele>64.0</ele><time>2026-05-02T08:04:57Z</time></trkpt><trkpt lat="44.45452087880398" lon="8.986116935034193"><ele>63.666666666666664</ele><time>2026-05-02T08:04:59Z</time></trkpt><trkpt lat="44.45449342817905" lon="8.986215928345061"><ele>63.33333333333333</ele><time>2026-05-02T08:05:01Z</time></trkpt><trkpt lat="44.45447476802555" lon="8.986311985340404"><ele>63.0</ele><time>2026-05-02T08:05:03Z</time></trkpt><trkpt lat="44.45446141672531" lon="8.98641989180914"><ele>62.66666666666667</ele><time>2026-05-02T08:05:05Z</time></trkpt><trkpt lat="44.45443361524011" lon="8.986518382492491"><ele>62.333333333333336</ele><time>2026-05-02T08:05:07Z</time></trkpt><trkpt lat="44.45441923731012" lon="8.986612900675183"><ele>62.0</ele><time>2026-05-02T08:05:09Z</time></trkpt><trkpt lat="44.454402589835134" lon="8.986728806531577"><ele>62.00000000000001</ele><time>2026-05-02T08:05:11Z</time></trkpt><trkpt lat="44.45438565583372" lon="8.986828976524505"><ele>62.0</ele><time>2026-05-02T08:05:13Z</time></trkpt><trkpt lat="44.45435301692049" lon="8.986929700077601"><ele>62.0</ele><time>2026-05-02T08:05:15Z</time></trkpt><trkpt lat="44.45433553272755" lon="8.987039698036794"><ele>62.0</ele><time>2026-05-02T08:05:17.001Z</time></trkpt><trkpt lat="44.45431060865981" lon="8.987135414049744"><ele>62.00000000000001</ele><time>2026-05-02T08:05:19.001Z</time></trkpt><trkpt lat="44.454284609910054" lon="8.987241559233485"><ele>62.0</ele><time>2026-05-02T08:05:21.001Z</time></trkpt><trkpt lat="44.4542564708541" lon="8.987351645461795"><ele>62.00000000000001</ele><time>2026-05-02T08:05:23.001Z</time></trkpt><trkpt lat="44.45422906455018" lon="8.987457636573785"><ele>62.0</ele><time>2026-05-02T08:05:25.001Z</time></trkpt><trkpt lat="44.45419778934769" lon="8.987562994211583"><ele>62.0</ele><time>2026-05-02T08:05:27.001Z</time></trkpt><trkpt lat="44.454171918602896" lon="8.987668670166657"><ele>62.0</ele><time>2026-05-02T08:05:29.001Z</time></trkpt><trkpt lat="44.454140868220115" lon="8.987768914260124"><ele>62.00000000000001</ele><time>2026-05-02T08:05:31.001Z</time></trkpt><trkpt lat="44.45411799218387" lon="8.987875314726244"><ele>62.0</ele><time>2026-05-02T08:05:33.001Z</time></trkpt><trkpt lat="44.45408499768519" lon="8.987987992426818"><ele>63.833333333333336</ele><time>2026-05-02T08:05:35.001Z</time></trkpt><trkpt lat="44.45406219884945" lon="8.988101602349378"><ele>65.66666666666667</ele><time>2026-05-02T08:05:37.001Z</time></trkpt><trkpt lat="44.45402695195653" lon="8.988195578707755"><ele>67.5</ele><time>2026-05-02T08:05:39.001Z</time></trkpt><trkpt lat="44.45399601796325" lon="8.988304844245665"><ele>69.33333333333333</ele><time>2026-05-02T08:05:41.001Z</time></trkpt><trkpt lat="44.453970092632815" lon="8.988414584201198"><ele>71.16666666666666</ele><time>2026-05-02T08:05:43.001Z</time></trkpt><trkpt lat="44.45393800731595" lon="8.988514739170249"><ele>73.0</ele><time>2026-05-02T08:05:45.001Z</time></trkpt><trkpt lat="44.45391331124074" lon="8.988621522652277"><ele>73.66666666666666</ele><time>2026-05-02T08:05:47.001Z</time></trkpt><trkpt lat="44.453882511664744" lon="8.988717177790273"><ele>74.33333333333333</ele><time>2026-05-02T08:05:49.001Z</time></trkpt><trkpt lat="44.45384953662155" lon="8.988822344704124"><ele>75.0</ele><time>2026-05-02T08:05:51.001Z</time></trkpt><trkpt lat="44.45381448390859" lon="8.988917251395614"><ele>75.66666666666667</ele><time>2026-05-02T08:05:53.001Z</time></trkpt><trkpt lat="44.453786176193226" lon="8.989032609733853"><ele>76.33333333333334</ele><time>2026-05-02T08:05:55.001Z</time></trkpt><trkpt lat="44.45375290460695" lon="8.989151290361118"><ele>77.0</ele><time>2026-05-02T08:05:57.001Z</time></trkpt><trkpt lat="44.45372682614436" lon="8.989273014842473"><ele>73.83333333333334</ele><time>2026-05-02T08:05:59.001Z</time></trkpt><trkpt lat="44.45369359294563" lon="8.989383187159824"><ele>70.66666666666667</ele><time>2026-05-02T08:06:01.001Z</time></trkpt><trkpt lat="44.453661815987076" lon="8.98950385076781"><ele>67.5</ele><time>2026-05-02T08:06:03.001Z</time></trkpt><trkpt lat="44.45363155451794" lon="8.989614803532247"><ele>64.33333333333333</ele><time>2026-05-02T08:06:05.001Z</time></trkpt><trkpt lat="44.45360343188546" lon="8.989724980050644"><ele>61.166666666666664</ele><time>2026-05-02T08:06:07.001Z</time></trkpt><trkpt lat="44.453578069825944" lon="8.989843299215803"><ele>58.0</ele><time>2026-05-02T08:06:09.001Z</time></trkpt><trkpt lat="44.45354236413343" lon="8.989954278705108"><ele>58.99999999999999</ele><time>2026-05-02T08:06:11.002Z</time></trkpt><trkpt lat="44.453518049740694" lon="8.990061889873672"><ele>60.0</ele><time>2026-05-02T08:06:13.002Z</time></trkpt><trkpt lat="44.45347569202277" lon="8.990161195776448"><ele>61.0</ele><time>2026-05-02T08:06:15.002Z</time></trkpt><trkpt lat="44.45344591539114" lon="8.990265159630107"><ele>62.0</ele><time>2026-05-02T08:06:17.002Z</time></trkpt><trkpt lat="44.453424769802936" lon="8.99036530349065"><ele>62.99999999999999</ele><time>2026-05-02T08:06:19.002Z</time></trkpt><trkpt lat="44.453374786588" lon="8.990483506735032"><ele>64.0</ele><time>2026-05-02T08:06:21.002Z</time></trkpt><trkpt lat="44.45332881830367" lon="8.990581871618224"><ele>63.99999999999999</ele><time>2026-05-02T08:06:23.002Z</time></trkpt><trkpt lat="44.45329392628025" lon="8.990696688652692"><ele>64.0</ele><time>2026-05-02T08:06:25.002Z</time></trkpt><trkpt lat="44.45325081992265" lon="8.990800313610055"><ele>64.0</ele><time>2026-05-02T08:06:27.002Z</time></trkpt><trkpt lat="44.45320540857473" lon="8.990900687705816"><ele>64.0</ele><time>2026-05-02T08:06:29.002Z</time></trkpt><trkpt lat="44.453152135538105" lon="8.99099957375777"><ele>63.99999999999999</ele><time>2026-05-02T08:06:31.002Z</time></trkpt><trkpt lat="44.45310389032479" lon="8.991093236170412"><ele>64.0</ele><time>2026-05-02T08:06:33.002Z</time></trkpt><trkpt lat="44.453046180077905" lon="8.991188201316115"><ele>63.99999999999999</ele><time>2026-05-02T08:06:35.002Z</time></trkpt><trkpt lat="44.4529998511529" lon="8.991286333949821"><ele>64.0</ele><time>2026-05-02T08:06:37.002Z</time></trkpt><trkpt lat="44.45293693621328" lon="8.991369906865556"><ele>64.0</ele><time>2026-05-02T08:06:39.002Z</time></trkpt><trkpt lat="44.45287138062577" lon="8.99145613197783"><ele>64.0</ele><time>2026-05-02T08:06:41.002Z</time></trkpt><trkpt lat="44.45280424679359" lon="8.991527409683561"><ele>63.99999999999999</ele><time>2026-05-02T08:06:43.002Z</time></trkpt><trkpt lat="44.452747658309086" lon="8.99160811487247"><ele>64.0</ele><time>2026-05-02T08:06:45.002Z</time></trkpt><trkpt lat="44.452673786708246" lon="8.99167045963504"><ele>65.83333333333333</ele><time>2026-05-02T08:06:47.002Z</time></trkpt><trkpt lat="44.452609308149526" lon="8.991752756079629"><ele>67.66666666666666</ele><time>2026-05-02T08:06:49.002Z</time></trkpt><trkpt lat="44.452560894499335" lon="8.991846879085067"><ele>69.5</ele><time>2026-05-02T08:06:51.002Z</time></trkpt><trkpt lat="44.45250183999721" lon="8.991920569166515"><ele>71.33333333333333</ele><time>2026-05-02T08:06:53.002Z</time></trkpt><trkpt lat="44.45244126065535" lon="8.992007960654675"><ele>73.16666666666667</ele><time>2026-05-02T08:06:55Z</time></trkpt><trkpt lat="44.452389291539106" lon="8.992098866835219"><ele>75.0</ele><time>2026-05-02T08:06:57Z</time></trkpt><trkpt lat="44.45232988315847" lon="8.992173635207678"><ele>75.0</ele><time>2026-05-02T08:06:59Z</time></trkpt><trkpt lat="44.45225953390144" lon="8.992244012220016"><ele>75.0</ele><time>2026-05-02T08:07:01Z</time></trkpt><trkpt lat="44.45219494837491" lon="8.992305336909268"><ele>75.0</ele><time>2026-05-02T08:07:03Z</time></trkpt><trkpt lat="44.452128706281606" lon="8.992370501574523"><ele>75.0</ele><time>2026-05-02T08:07:05Z</time></trkpt><trkpt lat="44.45204560392652" lon="8.99240186401469"><ele>75.0</ele><time>2026-05-02T08:07:07Z</time></trkpt><trkpt lat="44.45198922327" lon="8.992487016841377"><ele>75.0</ele><time>2026-05-02T08:07:09Z</time></trkpt><trkpt lat="44.45189096800535" lon="8.992501144416998"><ele>76.16666666666667</ele><time>2026-05-02T08:07:11Z</time></trkpt><trkpt lat="44.45179188412908" lon="8.992516727646269"><ele>77.33333333333333</ele><time>2026-05-02T08:07:13Z</time></trkpt><trkpt lat="44.45170904751565" lon="8.992539633251727"><ele>78.5</ele><time>2026-05-02T08:07:15Z</time></trkpt><trkpt lat="44.45162274805973" lon="8.992549592297825"><ele>79.66666666666666</ele><time>2026-05-02T08:07:17Z</time></trkpt><trkpt lat="44.451526802783164" lon="8.992547856011644"><ele>80.83333333333333</ele><time>2026-05-02T08:07:19Z</time></trkpt><trkpt lat="44.45145766377859" lon="8.99252891198224"><ele>82.0</ele><time>2026-05-02T08:07:20Z</time></trkpt><trkpt lat="44.451366856805684" lon="8.992510763218133"><ele>78.8</ele><time>2026-05-02T08:07:22Z</time></trkpt><trkpt lat="44.45127771626378" lon="8.99249420935133"><ele>75.6</ele><time>2026-05-02T08:07:24Z</time></trkpt><trkpt lat="44.451168692300655" lon="8.992476376915187"><ele>72.39999999999999</ele><time>2026-05-02T08:07:26Z</time></trkpt><trkpt lat="44.45108356526228" lon="8.992451355549019"><ele>69.19999999999999</ele><time>2026-05-02T08:07:28Z</time></trkpt><trkpt lat="44.45099450491432" lon="8.992426716405653"><ele>66.0</ele><time>2026-05-02T08:07:30Z</time></trkpt><trkpt lat="44.45090793411287" lon="8.992408594846502"><ele>66.0</ele><time>2026-05-02T08:07:32Z</time></trkpt><trkpt lat="44.45082503275737" lon="8.99240030882903"><ele>66.0</ele><time>2026-05-02T08:07:34Z</time></trkpt><trkpt lat="44.45073909687626" lon="8.992410551818212"><ele>66.0</ele><time>2026-05-02T08:07:36Z</time></trkpt><trkpt lat="44.450667864060684" lon="8.992443669685679"><ele>66.0</ele><time>2026-05-02T08:07:38Z</time></trkpt><trkpt lat="44.45059305524841" lon="8.992473004613524"><ele>66.0</ele><time>2026-05-02T08:07:40.001Z</time></trkpt><trkpt lat="44.450525754209195" lon="8.992515586619675"><ele>66.0</ele><time>2026-05-02T08:07:42.001Z</time></trkpt><trkpt lat="44.45046525532932" lon="8.992577388244461"><ele>66.42857142857143</ele><time>2026-05-02T08:07:44.001Z</time></trkpt><trkpt lat="44.45040018165355" lon="8.992637580007141"><ele>66.85714285714286</ele><time>2026-05-02T08:07:46.001Z</time></trkpt><trkpt lat="44.45034703306163" lon="8.992722372108437"><ele>67.28571428571429</ele><time>2026-05-02T08:07:48.001Z</time></trkpt><trkpt lat="44.45030573491981" lon="8.99280722953661"><ele>67.71428571428572</ele><time>2026-05-02T08:07:50.001Z</time></trkpt><trkpt lat="44.450267123236344" lon="8.992897143279206"><ele>68.14285714285715</ele><time>2026-05-02T08:07:52.001Z</time></trkpt><trkpt lat="44.45022574613847" lon="8.992982144696018"><ele>68.57142857142857</ele><time>2026-05-02T08:07:54.001Z</time></trkpt><trkpt lat="44.45018993629631" lon="8.993065135305137"><ele>69.0</ele><time>2026-05-02T08:07:56.001Z</time></trkpt><trkpt lat="44.450156538465926" lon="8.993159667095226"><ele>69.0</ele><time>2026-05-02T08:07:58.001Z</time></trkpt><trkpt lat="44.45012200980209" lon="8.993248472163357"><ele>69.0</ele><time>2026-05-02T08:08:00.001Z</time></trkpt><trkpt lat="44.45007500661818" lon="8.993337731275789"><ele>69.0</ele><time>2026-05-02T08:08:02.001Z</time></trkpt><trkpt lat="44.450035805551764" lon="8.993432397806123"><ele>69.0</ele><time>2026-05-02T08:08:04.001Z</time></trkpt><trkpt lat="44.449978939172546" lon="8.993523415484061"><ele>69.0</ele><time>2026-05-02T08:08:06.001Z</time></trkpt><trkpt lat="44.44994182501955" lon="8.993615009221905"><ele>69.0</ele><time>2026-05-02T08:08:08.001Z</time></trkpt><trkpt lat="44.449890621785904" lon="8.993708274144408"><ele>70.5</ele><time>2026-05-02T08:08:10.001Z</time></trkpt><trkpt lat="44.44983680215795" lon="8.993812015857634"><ele>72.0</ele><time>2026-05-02T08:08:12.001Z</time></trkpt><trkpt lat="44.44979962836477" lon="8.993910354353098"><ele>73.5</ele><time>2026-05-02T08:08:14.001Z</time></trkpt><trkpt lat="44.44975959744692" lon="8.99401466472506"><ele>75.0</ele><time>2026-05-02T08:08:16.001Z</time></trkpt><trkpt lat="44.44971845026345" lon="8.99410964917682"><ele>76.5</ele><time>2026-05-02T08:08:18.001Z</time></trkpt><trkpt lat="44.449737555739816" lon="8.994226516851702"><ele>78.0</ele><time>2026-05-02T08:08:20.001Z</time></trkpt><trkpt lat="44.44967350379988" lon="8.994326573781205"><ele>76.66666666666667</ele><time>2026-05-02T08:08:22.001Z</time></trkpt><trkpt lat="44.449639619756766" lon="8.994429383074811"><ele>75.33333333333333</ele><time>2026-05-02T08:08:24.001Z</time></trkpt><trkpt lat="44.449622792713775" lon="8.994537903214107"><ele>74.0</ele><time>2026-05-02T08:08:26.002Z</time></trkpt><trkpt lat="44.44958420314526" lon="8.99466341848995"><ele>72.66666666666666</ele><time>2026-05-02T08:08:28.002Z</time></trkpt><trkpt lat="44.44954254801545" lon="8.994763274732602"><ele>71.33333333333333</ele><time>2026-05-02T08:08:30.002Z</time></trkpt><trkpt lat="44.44951823548772" lon="8.994868074370396"><ele>70.0</ele><time>2026-05-02T08:08:32.002Z</time></trkpt><trkpt lat="44.449494078883845" lon="8.994985874156042"><ele>70.5</ele><time>2026-05-02T08:08:34.002Z</time></trkpt><trkpt lat="44.4494790620407" lon="8.99511404058107"><ele>71.0</ele><time>2026-05-02T08:08:36.002Z</time></trkpt><trkpt lat="44.44943268886213" lon="8.995220046162292"><ele>71.5</ele><time>2026-05-02T08:08:38.002Z</time></trkpt><trkpt lat="44.449406668416664" lon="8.995333842646739"><ele>72.0</ele><time>2026-05-02T08:08:40.002Z</time></trkpt><trkpt lat="44.44937554113458" lon="8.995425949687785"><ele>72.5</ele><time>2026-05-02T08:08:42.002Z</time></trkpt><trkpt lat="44.44934520893915" lon="8.99553291302193"><ele>73.0</ele><time>2026-05-02T08:08:44.002Z</time></trkpt><trkpt lat="44.44931704079562" lon="8.995636710116239"><ele>73.0</ele><time>2026-05-02T08:08:46.002Z</time></trkpt><trkpt lat="44.449299976629554" lon="8.995744949281049"><ele>73.0</ele><time>2026-05-02T08:08:48.002Z</time></trkpt><trkpt lat="44.449263223699354" lon="8.995862798521847"><ele>73.0</ele><time>2026-05-02T08:08:50.002Z</time></trkpt><trkpt lat="44.449249583700045" lon="8.995972312058193"><ele>73.0</ele><time>2026-05-02T08:08:52.002Z</time></trkpt><trkpt lat="44.44922693289791" lon="8.996087560138212"><ele>73.0</ele><time>2026-05-02T08:08:54.002Z</time></trkpt><trkpt lat="44.44920481456163" lon="8.99619074934913"><ele>73.0</ele><time>2026-05-02T08:08:56.002Z</time></trkpt><trkpt lat="44.44915967064351" lon="8.996302009339862"><ele>73.5</ele><time>2026-05-02T08:08:58.002Z</time></trkpt><trkpt lat="44.44915318106225" lon="8.996431712905096"><ele>74.0</ele><time>2026-05-02T08:08:59.999Z</time></trkpt><trkpt lat="44.44910758457153" lon="8.996550361533048"><ele>74.5</ele><time>2026-05-02T08:09:01.999Z</time></trkpt><trkpt lat="44.44908144527655" lon="8.996671928853804"><ele>75.0</ele><time>2026-05-02T08:09:03.999Z</time></trkpt><trkpt lat="44.4490618045328" lon="8.99678585496811"><ele>75.5</ele><time>2026-05-02T08:09:05.999Z</time></trkpt><trkpt lat="44.44903518462608" lon="8.996898313971617"><ele>76.0</ele><time>2026-05-02T08:09:07.999Z</time></trkpt><trkpt lat="44.44899450889909" lon="8.997003313691987"><ele>76.16666666666666</ele><time>2026-05-02T08:09:09.999Z</time></trkpt><trkpt lat="44.448961715280035" lon="8.997108285458076"><ele>76.33333333333333</ele><time>2026-05-02T08:09:11.999Z</time></trkpt><trkpt lat="44.44892019262252" lon="8.997212901400617"><ele>76.5</ele><time>2026-05-02T08:09:13.999Z</time></trkpt><trkpt lat="44.448889693611" lon="8.997333239026666"><ele>76.66666666666667</ele><time>2026-05-02T08:09:16Z</time></trkpt><trkpt lat="44.448861533830545" lon="8.997446157037022"><ele>76.83333333333334</ele><time>2026-05-02T08:09:18Z</time></trkpt><trkpt lat="44.4488244523887" lon="8.99755197106201"><ele>77.0</ele><time>2026-05-02T08:09:20Z</time></trkpt><trkpt lat="44.44879805070777" lon="8.997659399360272"><ele>75.2</ele><time>2026-05-02T08:09:22Z</time></trkpt><trkpt lat="44.44876933757917" lon="8.997785935098777"><ele>73.4</ele><time>2026-05-02T08:09:24Z</time></trkpt><trkpt lat="44.44874591268687" lon="8.997904386224596"><ele>71.6</ele><time>2026-05-02T08:09:26Z</time></trkpt><trkpt lat="44.448713105407734" lon="8.998022607430883"><ele>69.8</ele><time>2026-05-02T08:09:28Z</time></trkpt><trkpt lat="44.44868249347454" lon="8.998141374837358"><ele>68.0</ele><time>2026-05-02T08:09:30Z</time></trkpt><trkpt lat="44.44864704953242" lon="8.998264363808174"><ele>68.6</ele><time>2026-05-02T08:09:32Z</time></trkpt><trkpt lat="44.448611302840646" lon="8.998399609611633"><ele>69.19999999999999</ele><time>2026-05-02T08:09:34Z</time></trkpt><trkpt lat="44.448580413324024" lon="8.99852359568077"><ele>69.8</ele><time>2026-05-02T08:09:36Z</time></trkpt><trkpt lat="44.44855391521331" lon="8.998636685935873"><ele>70.39999999999999</ele><time>2026-05-02T08:09:38Z</time></trkpt><trkpt lat="44.448511576904714" lon="8.998762696165674"><ele>71.0</ele><time>2026-05-02T08:09:40Z</time></trkpt><trkpt lat="44.44848261332204" lon="8.998883374228702"><ele>71.0</ele><time>2026-05-02T08:09:42Z</time></trkpt><trkpt lat="44.448474332977455" lon="8.998994390705152"><ele>71.0</ele><time>2026-05-02T08:09:44Z</time></trkpt><trkpt lat="44.448427514730035" lon="8.99911730308429"><ele>71.0</ele><time>2026-05-02T08:09:46Z</time></trkpt><trkpt lat="44.44838420256412" lon="8.999259444838398"><ele>71.0</ele><time>2026-05-02T08:09:48Z</time></trkpt><trkpt lat="44.44834995154628" lon="8.999367825752211"><ele>71.0</ele><time>2026-05-02T08:09:50.001Z</time></trkpt><trkpt lat="44.44832479840517" lon="8.999489132393338"><ele>71.66666666666667</ele><time>2026-05-02T08:09:52.001Z</time></trkpt><trkpt lat="44.448289894180185" lon="8.999598314875596"><ele>72.33333333333334</ele><time>2026-05-02T08:09:54.001Z</time></trkpt><trkpt lat="44.448268019537124" lon="8.999716917180516"><ele>73.0</ele><time>2026-05-02T08:09:56.001Z</time></trkpt><trkpt lat="44.448241243966855" lon="8.999817196707397"><ele>73.66666666666667</ele><time>2026-05-02T08:09:58.001Z</time></trkpt><trkpt lat="44.44819756825215" lon="8.999915290600446"><ele>74.33333333333333</ele><time>2026-05-02T08:10:00.001Z</time></trkpt><trkpt lat="44.44817493302289" lon="9.000041925474694"><ele>75.0</ele><time>2026-05-02T08:10:02.001Z</time></trkpt><trkpt lat="44.44815282145029" lon="9.000178978642065"><ele>75.0</ele><time>2026-05-02T08:10:04.001Z</time></trkpt><trkpt lat="44.44810423387732" lon="9.000302080187573"><ele>75.0</ele><time>2026-05-02T08:10:06.001Z</time></trkpt><trkpt lat="44.448073897900144" lon="9.000435184911707"><ele>75.0</ele><time>2026-05-02T08:10:08.001Z</time></trkpt><trkpt lat="44.44804817660361" lon="9.000525771205128"><ele>75.0</ele><time>2026-05-02T08:10:10.001Z</time></trkpt><trkpt lat="44.44802033787715" lon="9.00062182875971"><ele>75.0</ele><time>2026-05-02T08:10:12.001Z</time></trkpt><trkpt lat="44.44796259310548" lon="9.000737559718994"><ele>75.0</ele><time>2026-05-02T08:10:14.001Z</time></trkpt><trkpt lat="44.44791667789196" lon="9.000868965438894"><ele>74.0</ele><time>2026-05-02T08:10:16.001Z</time></trkpt><trkpt lat="44.447903723797594" lon="9.000982555592639"><ele>73.0</ele><time>2026-05-02T08:10:18.001Z</time></trkpt><trkpt lat="44.44785830770467" lon="9.001125537697382"><ele>72.0</ele><time>2026-05-02T08:10:20.001Z</time></trkpt><trkpt lat="44.44781867513889" lon="9.001245874410428"><ele>71.0</ele><time>2026-05-02T08:10:22.001Z</time></trkpt><trkpt lat="44.447787348683285" lon="9.001368771587153"><ele>70.0</ele><time>2026-05-02T08:10:24.001Z</time></trkpt><trkpt lat="44.447763891568975" lon="9.001503066366404"><ele>70.0</ele><time>2026-05-02T08:10:26.001Z</time></trkpt><trkpt lat="44.44774462973833" lon="9.001632187032921"><ele>70.0</ele><time>2026-05-02T08:10:28.001Z</time></trkpt><trkpt lat="44.4477213429536" lon="9.001795323514862"><ele>70.0</ele><time>2026-05-02T08:10:31.001Z</time></trkpt><trkpt lat="44.44770034036834" lon="9.00191090209538"><ele>70.0</ele><time>2026-05-02T08:10:33.002Z</time></trkpt><trkpt lat="44.447674817380765" lon="9.002033253703255"><ele>70.0</ele><time>2026-05-02T08:10:35.002Z</time></trkpt><trkpt lat="44.44762834267006" lon="9.002176080157504"><ele>70.0</ele><time>2026-05-02T08:10:37.002Z</time></trkpt><trkpt lat="44.4476007809225" lon="9.00230100705931"><ele>70.0</ele><time>2026-05-02T08:10:39.002Z</time></trkpt><trkpt lat="44.44757919024798" lon="9.00243852194041"><ele>70.0</ele><time>2026-05-02T08:10:41.002Z</time></trkpt><trkpt lat="44.447563730355924" lon="9.002573811201275"><ele>70.0</ele><time>2026-05-02T08:10:43.002Z</time></trkpt><trkpt lat="44.447546593346836" lon="9.002705612982066"><ele>70.0</ele><time>2026-05-02T08:10:45.002Z</time></trkpt><trkpt lat="44.447542492626894" lon="9.002833647928693"><ele>70.2</ele><time>2026-05-02T08:10:47.002Z</time></trkpt><trkpt lat="44.44755319657679" lon="9.002966763259542"><ele>70.4</ele><time>2026-05-02T08:10:49.002Z</time></trkpt><trkpt lat="44.44756195562057" lon="9.003110930975309"><ele>70.6</ele><time>2026-05-02T08:10:51.002Z</time></trkpt><trkpt lat="44.44757681932316" lon="9.003250389558051"><ele>70.8</ele><time>2026-05-02T08:10:53.002Z</time></trkpt><trkpt lat="44.44758036747934" lon="9.003391744137254"><ele>71.0</ele><time>2026-05-02T08:10:55.002Z</time></trkpt><trkpt lat="44.447587523416225" lon="9.003526120325786"><ele>71.39999999999999</ele><time>2026-05-02T08:10:57.002Z</time></trkpt><trkpt lat="44.447581297798045" lon="9.003662308214755"><ele>71.8</ele><time>2026-05-02T08:10:59.002Z</time></trkpt><trkpt lat="44.44757044246245" lon="9.003786968509019"><ele>72.19999999999999</ele><time>2026-05-02T08:11:01.002Z</time></trkpt><trkpt lat="44.44758508228983" lon="9.003923882363296"><ele>72.6</ele><time>2026-05-02T08:11:03.002Z</time></trkpt><trkpt lat="44.447592432446015" lon="9.004048844400199"><ele>73.0</ele><time>2026-05-02T08:11:05.002Z</time></trkpt><trkpt lat="44.44761185814989" lon="9.004175396103703"><ele>73.2</ele><time>2026-05-02T08:11:06.999Z</time></trkpt><trkpt lat="44.44764410685779" lon="9.00430446928688"><ele>73.4</ele><time>2026-05-02T08:11:08.999Z</time></trkpt><trkpt lat="44.44764395966724" lon="9.004426250595973"><ele>73.60000000000001</ele><time>2026-05-02T08:11:10.999Z</time></trkpt><trkpt lat="44.4476822726866" lon="9.004547476345833"><ele>73.8</ele><time>2026-05-02T08:11:13Z</time></trkpt><trkpt lat="44.44770115514106" lon="9.004671396083413"><ele>74.0</ele><time>2026-05-02T08:11:15Z</time></trkpt><trkpt lat="44.44773840601505" lon="9.004803260302882"><ele>74.0</ele><time>2026-05-02T08:11:17Z</time></trkpt><trkpt lat="44.447772253126715" lon="9.004949042745944"><ele>74.0</ele><time>2026-05-02T08:11:19Z</time></trkpt><trkpt lat="44.44778781802875" lon="9.005103323612133"><ele>74.0</ele><time>2026-05-02T08:11:21Z</time></trkpt><trkpt lat="44.44783008599266" lon="9.005235698077488"><ele>74.0</ele><time>2026-05-02T08:11:23Z</time></trkpt><trkpt lat="44.44786274436221" lon="9.005357375008765"><ele>74.0</ele><time>2026-05-02T08:11:25Z</time></trkpt><trkpt lat="44.44787421980976" lon="9.005465877253116"><ele>74.16666666666667</ele><time>2026-05-02T08:11:27Z</time></trkpt><trkpt lat="44.447894745656" lon="9.00555885659958"><ele>74.33333333333334</ele><time>2026-05-02T08:11:29Z</time></trkpt><trkpt lat="44.447915711536645" lon="9.005681725029905"><ele>74.5</ele><time>2026-05-02T08:11:32Z</time></trkpt><trkpt lat="44.44793965901103" lon="9.005773576322532"><ele>74.66666666666667</ele><time>2026-05-02T08:11:35Z</time></trkpt><trkpt lat="44.44797771784051" lon="9.005860369651126"><ele>74.83333333333333</ele><time>2026-05-02T08:11:42Z</time></trkpt><trkpt lat="44.448006637019034" lon="9.005970123099111"><ele>75.0</ele><time>2026-05-02T08:11:46Z</time></trkpt><trkpt lat="44.448026891565114" lon="9.006064786860945"><ele>75.83333333333333</ele><time>2026-05-02T08:11:51.001Z</time></trkpt><trkpt lat="44.44803846394121" lon="9.006157756647989"><ele>76.66666666666667</ele><time>2026-05-02T08:11:54.001Z</time></trkpt><trkpt lat="44.4480748096486" lon="9.006238288638434"><ele>77.5</ele><time>2026-05-02T08:11:58.001Z</time></trkpt><trkpt lat="44.4480890212946" lon="9.006365142651427"><ele>78.33333333333334</ele><time>2026-05-02T08:12:01.001Z</time></trkpt><trkpt lat="44.44805907979092" lon="9.006486008886972"><ele>79.16666666666667</ele><time>2026-05-02T08:12:03.001Z</time></trkpt><trkpt lat="44.448024339678966" lon="9.006569649155926"><ele>80.0</ele><time>2026-05-02T08:12:05.001Z</time></trkpt><trkpt lat="44.447985263990816" lon="9.006651897806021"><ele>79.83333333333334</ele><time>2026-05-02T08:12:09.001Z</time></trkpt><trkpt lat="44.447925188911256" lon="9.006708950531305"><ele>79.66666666666667</ele><time>2026-05-02T08:12:20.001Z</time></trkpt><trkpt lat="44.447910164455735" lon="9.006816688613998"><ele>79.5</ele><time>2026-05-02T08:12:23.001Z</time></trkpt><trkpt lat="44.44795325801934" lon="9.006934769994526"><ele>79.33333333333333</ele><time>2026-05-02T08:12:25.001Z</time></trkpt><trkpt lat="44.4479829682836" lon="9.007018891871729"><ele>79.16666666666666</ele><time>2026-05-02T08:12:27.001Z</time></trkpt><trkpt lat="44.4480135251595" lon="9.007119568461611"><ele>79.0</ele><time>2026-05-02T08:12:29.001Z</time></trkpt><trkpt lat="44.44804715768577" lon="9.007250542363915"><ele>79.0</ele><time>2026-05-02T08:12:31.002Z</time></trkpt><trkpt lat="44.44809744618403" lon="9.007382571791045"><ele>79.0</ele><time>2026-05-02T08:12:33.002Z</time></trkpt><trkpt lat="44.448157952651336" lon="9.007507774921454"><ele>79.0</ele><time>2026-05-02T08:12:35.002Z</time></trkpt><trkpt lat="44.44818654129798" lon="9.007674491022328"><ele>79.0</ele><time>2026-05-02T08:12:37.002Z</time></trkpt><trkpt lat="44.448270098834534" lon="9.007793316201681"><ele>79.2</ele><time>2026-05-02T08:12:39.002Z</time></trkpt><trkpt lat="44.44832782743732" lon="9.007933529281422"><ele>79.4</ele><time>2026-05-02T08:12:41.002Z</time></trkpt><trkpt lat="44.4483172612252" lon="9.008110992196851"><ele>79.6</ele><time>2026-05-02T08:12:43.002Z</time></trkpt><trkpt lat="44.448386614055345" lon="9.008227473499705"><ele>79.8</ele><time>2026-05-02T08:12:45.002Z</time></trkpt><trkpt lat="44.44842949205897" lon="9.00834245460191"><ele>80.0</ele><time>2026-05-02T08:12:47.002Z</time></trkpt><trkpt lat="44.44845842282025" lon="9.008494029716683"><ele>79.8</ele><time>2026-05-02T08:12:49.002Z</time></trkpt><trkpt lat="44.44849822784123" lon="9.00863036444431"><ele>79.6</ele><time>2026-05-02T08:12:51.002Z</time></trkpt><trkpt lat="44.44852903298194" lon="9.008769085887877"><ele>79.4</ele><time>2026-05-02T08:12:53.002Z</time></trkpt><trkpt lat="44.44855495672594" lon="9.008918729352715"><ele>79.2</ele><time>2026-05-02T08:12:55.002Z</time></trkpt><trkpt lat="44.448591242782115" lon="9.009059326398974"><ele>79.0</ele><time>2026-05-02T08:12:57.002Z</time></trkpt><trkpt lat="44.44862766923569" lon="9.009192694892201"><ele>79.0</ele><time>2026-05-02T08:12:59.002Z</time></trkpt><trkpt lat="44.44866837421476" lon="9.009318835170196"><ele>79.0</ele><time>2026-05-02T08:13:01.002Z</time></trkpt><trkpt lat="44.44869911928119" lon="9.009442117604891"><ele>79.0</ele><time>2026-05-02T08:13:03.002Z</time></trkpt><trkpt lat="44.44874114679441" lon="9.009562787495188"><ele>79.0</ele><time>2026-05-02T08:13:05.002Z</time></trkpt><trkpt lat="44.44876076027513" lon="9.00966757252089"><ele>79.0</ele><time>2026-05-02T08:13:07.002Z</time></trkpt><trkpt lat="44.44878484375887" lon="9.009764056978257"><ele>79.0</ele><time>2026-05-02T08:13:09.002Z</time></trkpt><trkpt lat="44.44881744118603" lon="9.009915948354449"><ele>81.33333333333333</ele><time>2026-05-02T08:13:12Z</time></trkpt><trkpt lat="44.44883808429625" lon="9.010040425160838"><ele>83.66666666666666</ele><time>2026-05-02T08:13:14Z</time></trkpt><trkpt lat="44.44886718926741" lon="9.010166203427826"><ele>86.0</ele><time>2026-05-02T08:13:16Z</time></trkpt><trkpt lat="44.448891936537784" lon="9.010279316791884"><ele>88.33333333333333</ele><time>2026-05-02T08:13:18Z</time></trkpt><trkpt lat="44.448907179376505" lon="9.010387049064363"><ele>90.66666666666667</ele><time>2026-05-02T08:13:20Z</time></trkpt><trkpt lat="44.448929525137636" lon="9.010486047405028"><ele>93.0</ele><time>2026-05-02T08:13:22Z</time></trkpt><trkpt lat="44.448949031330024" lon="9.010585312119817"><ele>93.0</ele><time>2026-05-02T08:13:24Z</time></trkpt><trkpt lat="44.44896856080667" lon="9.010685987576961"><ele>93.0</ele><time>2026-05-02T08:13:26Z</time></trkpt><trkpt lat="44.44899464506717" lon="9.010803795558092"><ele>93.0</ele><time>2026-05-02T08:13:28Z</time></trkpt><trkpt lat="44.44901589741725" lon="9.01090515969431"><ele>93.0</ele><time>2026-05-02T08:13:30Z</time></trkpt><trkpt lat="44.44903742663992" lon="9.011016013377734"><ele>93.0</ele><time>2026-05-02T08:13:32Z</time></trkpt><trkpt lat="44.44906026880371" lon="9.011120714234734"><ele>93.0</ele><time>2026-05-02T08:13:34Z</time></trkpt><trkpt lat="44.44907943848783" lon="9.01122356556299"><ele>91.66666666666667</ele><time>2026-05-02T08:13:36Z</time></trkpt><trkpt lat="44.449094317372854" lon="9.011328859757866"><ele>90.33333333333333</ele><time>2026-05-02T08:13:38Z</time></trkpt><trkpt lat="44.449124875405865" lon="9.01142591875503"><ele>89.0</ele><time>2026-05-02T08:13:40Z</time></trkpt><trkpt lat="44.44914998494741" lon="9.011508551861422"><ele>87.66666666666666</ele><time>2026-05-02T08:13:42Z</time></trkpt><trkpt lat="44.4491811279326" lon="9.011625428064102"><ele>86.33333333333333</ele><time>2026-05-02T08:13:44Z</time></trkpt><trkpt lat="44.44919923718784" lon="9.011750261609405"><ele>85.0</ele><time>2026-05-02T08:13:46Z</time></trkpt><trkpt lat="44.44922982194928" lon="9.011867917123103"><ele>85.0</ele><time>2026-05-02T08:13:48Z</time></trkpt><trkpt lat="44.44924168018769" lon="9.011994791214018"><ele>85.0</ele><time>2026-05-02T08:13:50Z</time></trkpt><trkpt lat="44.449271378016384" lon="9.012101858321094"><ele>85.0</ele><time>2026-05-02T08:13:52.001Z</time></trkpt><trkpt lat="44.44927924785739" lon="9.01222489426003"><ele>85.0</ele><time>2026-05-02T08:13:54.001Z</time></trkpt><trkpt lat="44.44931691155311" lon="9.012350228777004"><ele>85.0</ele><time>2026-05-02T08:13:56.001Z</time></trkpt><trkpt lat="44.44934332552838" lon="9.012480355882204"><ele>84.0</ele><time>2026-05-02T08:13:58.001Z</time></trkpt><trkpt lat="44.4493788912652" lon="9.012593686755798"><ele>83.0</ele><time>2026-05-02T08:14:00.001Z</time></trkpt><trkpt lat="44.449400836152456" lon="9.012725046410194"><ele>82.0</ele><time>2026-05-02T08:14:02.001Z</time></trkpt><trkpt lat="44.44942924013183" lon="9.012852557225754"><ele>81.0</ele><time>2026-05-02T08:14:04.001Z</time></trkpt><trkpt lat="44.44946522846142" lon="9.012969223478569"><ele>80.0</ele><time>2026-05-02T08:14:06.001Z</time></trkpt><trkpt lat="44.44948396046498" lon="9.013102673443461"><ele>80.0</ele><time>2026-05-02T08:14:08.001Z</time></trkpt><trkpt lat="44.44951127141993" lon="9.013218486702721"><ele>80.0</ele><time>2026-05-02T08:14:10.001Z</time></trkpt><trkpt lat="44.44953350797888" lon="9.01333912480403"><ele>80.0</ele><time>2026-05-02T08:14:12.001Z</time></trkpt><trkpt lat="44.44956350479251" lon="9.0134702115636"><ele>80.0</ele><time>2026-05-02T08:14:14.001Z</time></trkpt><trkpt lat="44.449589233577534" lon="9.013595969130336"><ele>80.0</ele><time>2026-05-02T08:14:16.001Z</time></trkpt><trkpt lat="44.44961091157404" lon="9.013709292049596"><ele>81.66666666666667</ele><time>2026-05-02T08:14:18.001Z</time></trkpt><trkpt lat="44.449633535222254" lon="9.013825233035783"><ele>83.33333333333334</ele><time>2026-05-02T08:14:20.001Z</time></trkpt><trkpt lat="44.449659391115894" lon="9.013912095197353"><ele>85.0</ele><time>2026-05-02T08:14:22.001Z</time></trkpt><trkpt lat="44.44968441205128" lon="9.014031221296124"><ele>86.66666666666667</ele><time>2026-05-02T08:14:24.001Z</time></trkpt><trkpt lat="44.449711286930224" lon="9.014139361971582"><ele>88.33333333333333</ele><time>2026-05-02T08:14:26.001Z</time></trkpt><trkpt lat="44.44973707911865" lon="9.014261080025756"><ele>90.0</ele><time>2026-05-02T08:14:28.001Z</time></trkpt><trkpt lat="44.449751582562165" lon="9.014389054933462"><ele>90.0</ele><time>2026-05-02T08:14:30.001Z</time></trkpt><trkpt lat="44.44978379560634" lon="9.014506621873021"><ele>90.0</ele><time>2026-05-02T08:14:32.002Z</time></trkpt><trkpt lat="44.44980205521809" lon="9.01463990591471"><ele>90.0</ele><time>2026-05-02T08:14:34.002Z</time></trkpt><trkpt lat="44.449819727710434" lon="9.014766717670808"><ele>90.0</ele><time>2026-05-02T08:14:36.002Z</time></trkpt><trkpt lat="44.4498337584112" lon="9.014899672299274"><ele>90.0</ele><time>2026-05-02T08:14:38.002Z</time></trkpt><trkpt lat="44.449853874485555" lon="9.015023632477593"><ele>90.0</ele><time>2026-05-02T08:14:40.002Z</time></trkpt><trkpt lat="44.44985760128401" lon="9.015155114539978"><ele>90.0</ele><time>2026-05-02T08:14:42.002Z</time></trkpt><trkpt lat="44.44986700681682" lon="9.015283658724671"><ele>90.0</ele><time>2026-05-02T08:14:44.002Z</time></trkpt><trkpt lat="44.44988203525614" lon="9.01541310563179"><ele>90.0</ele><time>2026-05-02T08:14:46.002Z</time></trkpt><trkpt lat="44.44988710721538" lon="9.015543308435314"><ele>90.0</ele><time>2026-05-02T08:14:48.002Z</time></trkpt><trkpt lat="44.449886424913196" lon="9.015675057641866"><ele>90.0</ele><time>2026-05-02T08:14:50.002Z</time></trkpt><trkpt lat="44.449883111412085" lon="9.015799148798363"><ele>90.0</ele><time>2026-05-02T08:14:52.002Z</time></trkpt><trkpt lat="44.449890111541535" lon="9.015925023068908"><ele>90.0</ele><time>2026-05-02T08:14:54.002Z</time></trkpt><trkpt lat="44.44987328059766" lon="9.016067663010455"><ele>90.0</ele><time>2026-05-02T08:14:56.002Z</time></trkpt><trkpt lat="44.449889407455885" lon="9.016181288334868"><ele>90.0</ele><time>2026-05-02T08:14:58.002Z</time></trkpt><trkpt lat="44.44988256556905" lon="9.0163109184263"><ele>90.0</ele><time>2026-05-02T08:15:00.002Z</time></trkpt><trkpt lat="44.44986090283091" lon="9.016426403640525"><ele>90.0</ele><time>2026-05-02T08:15:02.002Z</time></trkpt><trkpt lat="44.44985674078651" lon="9.016556124581268"><ele>90.0</ele><time>2026-05-02T08:15:04.002Z</time></trkpt><trkpt lat="44.449839178488695" lon="9.016683389550613"><ele>90.0</ele><time>2026-05-02T08:15:06.002Z</time></trkpt><trkpt lat="44.44983345344672" lon="9.016811157734734"><ele>90.0</ele><time>2026-05-02T08:15:08.002Z</time></trkpt><trkpt lat="44.44982348652804" lon="9.0169431797993"><ele>90.0</ele><time>2026-05-02T08:15:10.002Z</time></trkpt><trkpt lat="44.44981801431184" lon="9.017045109909246"><ele>90.0</ele><time>2026-05-02T08:15:12.003Z</time></trkpt><trkpt lat="44.449806560749764" lon="9.017178892409175"><ele>90.0</ele><time>2026-05-02T08:15:14.003Z</time></trkpt><trkpt lat="44.44980731837181" lon="9.017307096301947"><ele>90.0</ele><time>2026-05-02T08:15:16.003Z</time></trkpt><trkpt lat="44.449781856353376" lon="9.017424289411398"><ele>90.0</ele><time>2026-05-02T08:15:18Z</time></trkpt><trkpt lat="44.44976966204697" lon="9.017553754855578"><ele>90.0</ele><time>2026-05-02T08:15:20Z</time></trkpt><trkpt lat="44.44975351545929" lon="9.017681279903845"><ele>90.16666666666667</ele><time>2026-05-02T08:15:22Z</time></trkpt><trkpt lat="44.4497398215973" lon="9.017794838514918"><ele>90.33333333333333</ele><time>2026-05-02T08:15:24Z</time></trkpt><trkpt lat="44.44973184571505" lon="9.017926687281241"><ele>90.5</ele><time>2026-05-02T08:15:26Z</time></trkpt><trkpt lat="44.44971940832126" lon="9.018051453777126"><ele>90.66666666666666</ele><time>2026-05-02T08:15:28Z</time></trkpt><trkpt lat="44.44971869956746" lon="9.018180955029145"><ele>90.83333333333333</ele><time>2026-05-02T08:15:30Z</time></trkpt><trkpt lat="44.44971163237298" lon="9.01829635374715"><ele>91.0</ele><time>2026-05-02T08:15:32Z</time></trkpt><trkpt lat="44.44970202947211" lon="9.018452490254141"><ele>91.16666666666666</ele><time>2026-05-02T08:15:35Z</time></trkpt><trkpt lat="44.44968460429985" lon="9.018551182051956"><ele>91.33333333333333</ele><time>2026-05-02T08:15:37Z</time></trkpt><trkpt lat="44.44967804606389" lon="9.018683758931832"><ele>91.5</ele><time>2026-05-02T08:15:39Z</time></trkpt><trkpt lat="44.4496624783623" lon="9.018822411343619"><ele>91.66666666666667</ele><time>2026-05-02T08:15:41Z</time></trkpt><trkpt lat="44.44965148737706" lon="9.018941877062467"><ele>91.83333333333334</ele><time>2026-05-02T08:15:43Z</time></trkpt><trkpt lat="44.44965261446444" lon="9.019036794168041"><ele>92.0</ele><time>2026-05-02T08:15:45Z</time></trkpt><trkpt lat="44.44963599837654" lon="9.019149762080136"><ele>91.33333333333334</ele><time>2026-05-02T08:15:47Z</time></trkpt><trkpt lat="44.44960645800356" lon="9.01925863483963"><ele>90.66666666666667</ele><time>2026-05-02T08:15:49Z</time></trkpt><trkpt lat="44.44961364756173" lon="9.019374519372281"><ele>90.0</ele><time>2026-05-02T08:15:51Z</time></trkpt><trkpt lat="44.44960670637984" lon="9.019489752417048"><ele>89.33333333333333</ele><time>2026-05-02T08:15:53Z</time></trkpt><trkpt lat="44.44960745236455" lon="9.01960690598497"><ele>88.66666666666666</ele><time>2026-05-02T08:15:55.001Z</time></trkpt><trkpt lat="44.44960042012224" lon="9.019709406548476"><ele>88.0</ele><time>2026-05-02T08:15:57.001Z</time></trkpt><trkpt lat="44.44959302155941" lon="9.019803413973555"><ele>88.0</ele><time>2026-05-02T08:15:59.001Z</time></trkpt><trkpt lat="44.449584007459876" lon="9.019913229749156"><ele>88.0</ele><time>2026-05-02T08:16:01.001Z</time></trkpt><trkpt lat="44.44956702228759" lon="9.02002029409284"><ele>88.0</ele><time>2026-05-02T08:16:03.001Z</time></trkpt><trkpt lat="44.44954827185542" lon="9.020153079691728"><ele>88.0</ele><time>2026-05-02T08:16:06.001Z</time></trkpt><trkpt lat="44.449537887683206" lon="9.020291178637112"><ele>88.0</ele><time>2026-05-02T08:16:09.001Z</time></trkpt><trkpt lat="44.449530407754665" lon="9.020401982002799"><ele>88.0</ele><time>2026-05-02T08:16:11.001Z</time></trkpt><trkpt lat="44.449516204976234" lon="9.020508343208622"><ele>88.16666666666666</ele><time>2026-05-02T08:16:13.001Z</time></trkpt><trkpt lat="44.4495038856155" lon="9.020615359991801"><ele>88.33333333333333</ele><time>2026-05-02T08:16:15.001Z</time></trkpt><trkpt lat="44.44950281903164" lon="9.020724933597899"><ele>88.5</ele><time>2026-05-02T08:16:17.001Z</time></trkpt><trkpt lat="44.449494769440754" lon="9.020832540046193"><ele>88.66666666666667</ele><time>2026-05-02T08:16:19.001Z</time></trkpt><trkpt lat="44.449486256477684" lon="9.020937145254331"><ele>88.83333333333334</ele><time>2026-05-02T08:16:21.001Z</time></trkpt><trkpt lat="44.44947632832149" lon="9.02104268690848"><ele>89.0</ele><time>2026-05-02T08:16:23.001Z</time></trkpt><trkpt lat="44.449469635069036" lon="9.021140890021424"><ele>88.99999999999999</ele><time>2026-05-02T08:16:25.001Z</time></trkpt><trkpt lat="44.4494666045297" lon="9.021248885561283"><ele>89.0</ele><time>2026-05-02T08:16:27.001Z</time></trkpt><trkpt lat="44.44946343113884" lon="9.021348172357385"><ele>89.0</ele><time>2026-05-02T08:16:29.001Z</time></trkpt><trkpt lat="44.44944362173365" lon="9.021448504323258"><ele>89.0</ele><time>2026-05-02T08:16:31.001Z</time></trkpt><trkpt lat="44.44943420616698" lon="9.021551977597433"><ele>89.0</ele><time>2026-05-02T08:16:33.002Z</time></trkpt><trkpt lat="44.449429121602115" lon="9.02165060247578"><ele>88.99999999999999</ele><time>2026-05-02T08:16:35.002Z</time></trkpt><trkpt lat="44.44942136264836" lon="9.0217567804095"><ele>89.0</ele><time>2026-05-02T08:16:37.002Z</time></trkpt><trkpt lat="44.44941595356968" lon="9.021862613069858"><ele>89.16666666666667</ele><time>2026-05-02T08:16:39.002Z</time></trkpt><trkpt lat="44.44941347653974" lon="9.021974835906848"><ele>89.33333333333334</ele><time>2026-05-02T08:16:41.002Z</time></trkpt><trkpt lat="44.4494057230038" lon="9.022082246293293"><ele>89.5</ele><time>2026-05-02T08:16:43.002Z</time></trkpt><trkpt lat="44.44938564505983" lon="9.022181887987083"><ele>89.66666666666667</ele><time>2026-05-02T08:16:45.002Z</time></trkpt><trkpt lat="44.449375070197064" lon="9.02228787964872"><ele>89.83333333333333</ele><time>2026-05-02T08:16:47.002Z</time></trkpt><trkpt lat="44.449367848664444" lon="9.0223824434468"><ele>90.0</ele><time>2026-05-02T08:16:49.002Z</time></trkpt><trkpt lat="44.44937478177952" lon="9.022490214284158"><ele>90.71428571428571</ele><time>2026-05-02T08:16:51.002Z</time></trkpt><trkpt lat="44.4493499944266" lon="9.022584563864571"><ele>91.42857142857143</ele><time>2026-05-02T08:16:53.002Z</time></trkpt><trkpt lat="44.44932321998472" lon="9.022674501628794"><ele>92.14285714285714</ele><time>2026-05-02T08:16:55.002Z</time></trkpt><trkpt lat="44.44932229899045" lon="9.022776000852687"><ele>92.85714285714286</ele><time>2026-05-02T08:16:57.002Z</time></trkpt><trkpt lat="44.44931356970687" lon="9.022888185730269"><ele>93.57142857142858</ele><time>2026-05-02T08:16:59.002Z</time></trkpt><trkpt lat="44.449307159449276" lon="9.022979884493468"><ele>94.28571428571429</ele><time>2026-05-02T08:17:01.002Z</time></trkpt><trkpt lat="44.449330572292936" lon="9.023067450918557"><ele>95.0</ele><time>2026-05-02T08:17:03.002Z</time></trkpt><trkpt lat="44.44930729756444" lon="9.02319043614544"><ele>95.0</ele><time>2026-05-02T08:17:05.002Z</time></trkpt><trkpt lat="44.449302400131955" lon="9.02329018538701"><ele>95.0</ele><time>2026-05-02T08:17:07.002Z</time></trkpt><trkpt lat="44.44928349423489" lon="9.023388957928681"><ele>95.0</ele><time>2026-05-02T08:17:09.002Z</time></trkpt><trkpt lat="44.44928102738786" lon="9.023511256884081"><ele>95.0</ele><time>2026-05-02T08:17:11.002Z</time></trkpt><trkpt lat="44.449283093881476" lon="9.02362914094127"><ele>95.0</ele><time>2026-05-02T08:17:13.003Z</time></trkpt><trkpt lat="44.449271405811615" lon="9.023738040777712"><ele>95.0</ele><time>2026-05-02T08:17:15.003Z</time></trkpt><trkpt lat="44.44927221510729" lon="9.023847398511418"><ele>95.85714285714286</ele><time>2026-05-02T08:17:17.003Z</time></trkpt><trkpt lat="44.44926407937479" lon="9.023946602171904"><ele>96.71428571428572</ele><time>2026-05-02T08:17:19.003Z</time></trkpt><trkpt lat="44.449262906678" lon="9.024039723205933"><ele>97.57142857142857</ele><time>2026-05-02T08:17:21.003Z</time></trkpt><trkpt lat="44.44927273624289" lon="9.024129734656443"><ele>98.42857142857143</ele><time>2026-05-02T08:17:23.003Z</time></trkpt><trkpt lat="44.449280905796336" lon="9.024253155407953"><ele>99.28571428571428</ele><time>2026-05-02T08:17:26Z</time></trkpt><trkpt lat="44.44932652094582" lon="9.02431690420181"><ele>100.14285714285714</ele><time>2026-05-02T08:17:28Z</time></trkpt><trkpt lat="44.449393223998904" lon="9.024393164936887"><ele>101.0</ele><time>2026-05-02T08:17:31Z</time></trkpt><trkpt lat="44.449478274716505" lon="9.024445583181212"><ele>100.99999999999999</ele><time>2026-05-02T08:17:34Z</time></trkpt><trkpt lat="44.44953929950993" lon="9.024470180296682"><ele>101.0</ele><time>2026-05-02T08:17:36Z</time></trkpt><trkpt lat="44.44962551852581" lon="9.02451241764041"><ele>101.0</ele><time>2026-05-02T08:17:39Z</time></trkpt><trkpt lat="44.449685718255594" lon="9.0245501828133"><ele>101.0</ele><time>2026-05-02T08:17:41Z</time></trkpt><trkpt lat="44.44974682644896" lon="9.0245895113492"><ele>100.99999999999999</ele><time>2026-05-02T08:17:43Z</time></trkpt><trkpt lat="44.44983198077187" lon="9.024646383221256"><ele>101.0</ele><time>2026-05-02T08:17:46Z</time></trkpt><trkpt lat="44.44989349092892" lon="9.024710369654736"><ele>100.99999999999999</ele><time>2026-05-02T08:17:48Z</time></trkpt><trkpt lat="44.44994459913207" lon="9.024770133536055"><ele>101.0</ele><time>2026-05-02T08:17:50Z</time></trkpt><trkpt lat="44.44999939135524" lon="9.024837699134313"><ele>101.0</ele><time>2026-05-02T08:17:52Z</time></trkpt><trkpt lat="44.45006980586483" lon="9.024903558226002"><ele>101.0</ele><time>2026-05-02T08:17:55Z</time></trkpt><trkpt lat="44.45012108849401" lon="9.024998335865066"><ele>100.99999999999999</ele><time>2026-05-02T08:17:57.001Z</time></trkpt><trkpt lat="44.45016155577292" lon="9.025097879426871"><ele>101.0</ele><time>2026-05-02T08:17:59.001Z</time></trkpt><trkpt lat="44.45019502566458" lon="9.02519589199033"><ele>101.57142857142857</ele><time>2026-05-02T08:18:01.001Z</time></trkpt><trkpt lat="44.45023268525317" lon="9.025289816439082"><ele>102.14285714285714</ele><time>2026-05-02T08:18:03.001Z</time></trkpt><trkpt lat="44.45025920361461" lon="9.025386978668026"><ele>102.71428571428572</ele><time>2026-05-02T08:18:05.001Z</time></trkpt><trkpt lat="44.45025255991319" lon="9.025497856187659"><ele>103.28571428571428</ele><time>2026-05-02T08:18:07.001Z</time></trkpt><trkpt lat="44.45025393681197" lon="9.025591040431703"><ele>103.85714285714286</ele><time>2026-05-02T08:18:09.001Z</time></trkpt><trkpt lat="44.450219787550566" lon="9.025686148681835"><ele>104.42857142857143</ele><time>2026-05-02T08:18:11.001Z</time></trkpt><trkpt lat="44.45018483628854" lon="9.025770220746084"><ele>105.0</ele><time>2026-05-02T08:18:13.001Z</time></trkpt><trkpt lat="44.45012255768295" lon="9.025851134165393"><ele>106.0</ele><time>2026-05-02T08:18:15.001Z</time></trkpt><trkpt lat="44.45006660298134" lon="9.025923568067284"><ele>107.0</ele><time>2026-05-02T08:18:17.001Z</time></trkpt><trkpt lat="44.45000921312799" lon="9.025986820399833"><ele>108.0</ele><time>2026-05-02T08:18:19.001Z</time></trkpt><trkpt lat="44.449960091581076" lon="9.026048891221485"><ele>109.0</ele><time>2026-05-02T08:18:21.001Z</time></trkpt><trkpt lat="44.44990650665613" lon="9.026105137508516"><ele>110.0</ele><time>2026-05-02T08:18:23.001Z</time></trkpt><trkpt lat="44.44984979237548" lon="9.026170832283922"><ele>111.0</ele><time>2026-05-02T08:18:25.001Z</time></trkpt><trkpt lat="44.449787391710316" lon="9.026236771335448"><ele>112.0</ele><time>2026-05-02T08:18:27.001Z</time></trkpt><trkpt lat="44.449732857560576" lon="9.026317184339756"><ele>112.00000000000001</ele><time>2026-05-02T08:18:29.001Z</time></trkpt><trkpt lat="44.44968528293399" lon="9.026386306002443"><ele>112.0</ele><time>2026-05-02T08:18:31.001Z</time></trkpt><trkpt lat="44.44966508979064" lon="9.026479974455627"><ele>112.0</ele><time>2026-05-02T08:18:33.001Z</time></trkpt><trkpt lat="44.44958107964924" lon="9.026552975572887"><ele>112.0</ele><time>2026-05-02T08:18:36.002Z</time></trkpt><trkpt lat="44.449550136605325" lon="9.026669435545784"><ele>112.00000000000001</ele><time>2026-05-02T08:18:39.002Z</time></trkpt><trkpt lat="44.44951992334605" lon="9.02677312261508"><ele>112.0</ele><time>2026-05-02T08:18:42.002Z</time></trkpt><trkpt lat="44.449533629825616" lon="9.026879202767104"><ele>111.33333333333334</ele><time>2026-05-02T08:18:45.002Z</time></trkpt><trkpt lat="44.4494275913865" lon="9.026866321321181"><ele>110.66666666666667</ele><time>2026-05-02T08:21:12.002Z</time></trkpt><trkpt lat="44.449493562262155" lon="9.02687245496769"><ele>110.0</ele><time>2026-05-02T08:22:42.002Z</time></trkpt><trkpt lat="44.44951878376484" lon="9.026971347027468"><ele>109.33333333333334</ele><time>2026-05-02T08:22:45.002Z</time></trkpt><trkpt lat="44.44952176842821" lon="9.027063186767412"><ele>108.66666666666667</ele><time>2026-05-02T08:22:47.002Z</time></trkpt><trkpt lat="44.449587562149816" lon="9.027139018584434"><ele>108.0</ele><time>2026-05-02T08:22:50.002Z</time></trkpt><trkpt lat="44.44966546948708" lon="9.027207256981482"><ele>108.0</ele><time>2026-05-02T08:22:53.002Z</time></trkpt><trkpt lat="44.449722696992254" lon="9.027261872095982"><ele>108.0</ele><time>2026-05-02T08:22:55.002Z</time></trkpt><trkpt lat="44.4497774507712" lon="9.027320671320041"><ele>108.0</ele><time>2026-05-02T08:22:57.002Z</time></trkpt><trkpt lat="44.44985991151519" lon="9.02738257691515"><ele>108.0</ele><time>2026-05-02T08:23:00.002Z</time></trkpt><trkpt lat="44.449922210726285" lon="9.027437560520697"><ele>108.0</ele><time>2026-05-02T08:23:02.002Z</time></trkpt><trkpt lat="44.449985349176295" lon="9.027495348493376"><ele>108.0</ele><time>2026-05-02T08:23:04.002Z</time></trkpt><trkpt lat="44.45005225650094" lon="9.02754075960943"><ele>109.5</ele><time>2026-05-02T08:23:06.002Z</time></trkpt><trkpt lat="44.45011876223858" lon="9.027574803852099"><ele>111.0</ele><time>2026-05-02T08:23:08.002Z</time></trkpt><trkpt lat="44.45018860958259" lon="9.027635749763325"><ele>112.5</ele><time>2026-05-02T08:23:10.002Z</time></trkpt><trkpt lat="44.4502602131437" lon="9.0276880844283"><ele>114.0</ele><time>2026-05-02T08:23:12.002Z</time></trkpt><trkpt lat="44.450332212329826" lon="9.027754014923756"><ele>115.5</ele><time>2026-05-02T08:23:14.002Z</time></trkpt><trkpt lat="44.45040761700383" lon="9.027811946329603"><ele>117.0</ele><time>2026-05-02T08:23:16.002Z</time></trkpt><trkpt lat="44.45047205840345" lon="9.02786662750796"><ele>116.8</ele><time>2026-05-02T08:23:18.002Z</time></trkpt><trkpt lat="44.45054650169973" lon="9.027924728425154"><ele>116.6</ele><time>2026-05-02T08:23:20.003Z</time></trkpt><trkpt lat="44.45062145393143" lon="9.028004348086643"><ele>116.39999999999999</ele><time>2026-05-02T08:23:22.003Z</time></trkpt><trkpt lat="44.45069175051699" lon="9.028102770907534"><ele>116.19999999999999</ele><time>2026-05-02T08:23:24.003Z</time></trkpt><trkpt lat="44.45075813965702" lon="9.028206576065912"><ele>116.0</ele><time>2026-05-02T08:23:26.003Z</time></trkpt><trkpt lat="44.450814444427905" lon="9.028316155625882"><ele>116.0</ele><time>2026-05-02T08:23:28.003Z</time></trkpt><trkpt lat="44.45084500929556" lon="9.028458762817477"><ele>116.0</ele><time>2026-05-02T08:23:30.003Z</time></trkpt><trkpt lat="44.45086972116142" lon="9.02860238694181"><ele>116.0</ele><time>2026-05-02T08:23:32.003Z</time></trkpt><trkpt lat="44.45087806651555" lon="9.028737595479878"><ele>116.0</ele><time>2026-05-02T08:23:34.003Z</time></trkpt><trkpt lat="44.45085320913287" lon="9.028857544979541"><ele>116.0</ele><time>2026-05-02T08:23:36.003Z</time></trkpt><trkpt lat="44.45083207288743" lon="9.02894682399124"><ele>116.0</ele><time>2026-05-02T08:23:38.003Z</time></trkpt><trkpt lat="44.45080916273357" lon="9.029072448757642"><ele>116.0</ele><time>2026-05-02T08:23:40.003Z</time></trkpt><trkpt lat="44.45078718378892" lon="9.029214023821522"><ele>116.0</ele><time>2026-05-02T08:23:43.001Z</time></trkpt><trkpt lat="44.45073574493105" lon="9.029314830295137"><ele>116.0</ele><time>2026-05-02T08:23:45.001Z</time></trkpt><trkpt lat="44.450688167325424" lon="9.029421329110995"><ele>116.0</ele><time>2026-05-02T08:23:47.001Z</time></trkpt><trkpt lat="44.450651427566214" lon="9.02952194354929"><ele>114.83333333333333</ele><time>2026-05-02T08:23:49.001Z</time></trkpt><trkpt lat="44.450605073345734" lon="9.029623027054317"><ele>113.66666666666666</ele><time>2026-05-02T08:23:51.001Z</time></trkpt><trkpt lat="44.45055814923184" lon="9.029685771097446"><ele>112.5</ele><time>2026-05-02T08:23:52.001Z</time></trkpt><trkpt lat="44.450488658129146" lon="9.029799781305277"><ele>111.33333333333334</ele><time>2026-05-02T08:23:54.001Z</time></trkpt><trkpt lat="44.45043322540391" lon="9.029852191559455"><ele>110.16666666666667</ele><time>2026-05-02T08:23:56.001Z</time></trkpt><trkpt lat="44.45042066665458" lon="9.029972681796545"><ele>109.0</ele><time>2026-05-02T08:23:58.001Z</time></trkpt><trkpt lat="44.450427120643766" lon="9.030119783335232"><ele>113.71428571428572</ele><time>2026-05-02T08:24:01.001Z</time></trkpt><trkpt lat="44.45039637223732" lon="9.030202889518373"><ele>118.42857142857143</ele><time>2026-05-02T08:24:03.001Z</time></trkpt><trkpt lat="44.45038548431277" lon="9.030317678435203"><ele>123.14285714285714</ele><time>2026-05-02T08:24:05.001Z</time></trkpt><trkpt lat="44.45036822983611" lon="9.03042844942199"><ele>127.85714285714286</ele><time>2026-05-02T08:24:07.001Z</time></trkpt><trkpt lat="44.4503631157305" lon="9.030524779542551"><ele>132.57142857142856</ele><time>2026-05-02T08:24:09.001Z</time></trkpt><trkpt lat="44.45038076160014" lon="9.030623106955316"><ele>137.28571428571428</ele><time>2026-05-02T08:24:11.001Z</time></trkpt><trkpt lat="44.45039008812035" lon="9.030730323822128"><ele>142.0</ele><time>2026-05-02T08:24:14.001Z</time></trkpt><trkpt lat="44.45041536539952" lon="9.030822849842192"><ele>142.57142857142856</ele><time>2026-05-02T08:24:16.001Z</time></trkpt><trkpt lat="44.450433446742494" lon="9.030914854135766"><ele>143.14285714285714</ele><time>2026-05-02T08:24:19.001Z</time></trkpt><trkpt lat="44.45045519407097" lon="9.031000325753267"><ele>143.71428571428572</ele><time>2026-05-02T08:24:22.001Z</time></trkpt><trkpt lat="44.450512819233836" lon="9.031060373939281"><ele>144.28571428571428</ele><time>2026-05-02T08:24:26.001Z</time></trkpt><trkpt lat="44.450556452577686" lon="9.031134338956344"><ele>144.85714285714286</ele><time>2026-05-02T08:24:29.001Z</time></trkpt><trkpt lat="44.450626902233765" lon="9.031210725132942"><ele>145.42857142857142</ele><time>2026-05-02T08:24:32.001Z</time></trkpt><trkpt lat="44.45066710762214" lon="9.031290103600652"><ele>146.0</ele><time>2026-05-02T08:24:34.001Z</time></trkpt><trkpt lat="44.450703151974054" lon="9.031384909546736"><ele>142.5</ele><time>2026-05-02T08:24:36.001Z</time></trkpt><trkpt lat="44.450753942921864" lon="9.031440917508709"><ele>139.0</ele><time>2026-05-02T08:24:38.001Z</time></trkpt><trkpt lat="44.45082377374628" lon="9.031541540787403"><ele>135.5</ele><time>2026-05-02T08:24:41.001Z</time></trkpt><trkpt lat="44.45089654760456" lon="9.031617410509975"><ele>132.0</ele><time>2026-05-02T08:24:44.001Z</time></trkpt><trkpt lat="44.45096507371832" lon="9.03169739947802"><ele>128.5</ele><time>2026-05-02T08:24:47.001Z</time></trkpt><trkpt lat="44.45102941983307" lon="9.031774290151128"><ele>125.0</ele><time>2026-05-02T08:24:50.001Z</time></trkpt><trkpt lat="44.45107931756743" lon="9.031833093987938"><ele>124.66666666666666</ele><time>2026-05-02T08:24:52.001Z</time></trkpt><trkpt lat="44.45114835228114" lon="9.031911110508272"><ele>124.33333333333333</ele><time>2026-05-02T08:24:55.002Z</time></trkpt><trkpt lat="44.451212806129895" lon="9.031992765063517"><ele>124.0</ele><time>2026-05-02T08:24:58.002Z</time></trkpt><trkpt lat="44.45128321001471" lon="9.032071527483302"><ele>123.66666666666666</ele><time>2026-05-02T08:25:01.002Z</time></trkpt><trkpt lat="44.45132728389717" lon="9.032137979267766"><ele>123.33333333333333</ele><time>2026-05-02T08:25:03.002Z</time></trkpt><trkpt lat="44.45136825125585" lon="9.032250679509703"><ele>123.0</ele><time>2026-05-02T08:25:06.002Z</time></trkpt><trkpt lat="44.4513986760519" lon="9.032362999101682"><ele>123.66666666666667</ele><time>2026-05-02T08:25:09.002Z</time></trkpt><trkpt lat="44.45140095676184" lon="9.032487980759866"><ele>124.33333333333334</ele><time>2026-05-02T08:25:12.002Z</time></trkpt><trkpt lat="44.45140079256908" lon="9.032602250147974"><ele>125.0</ele><time>2026-05-02T08:25:15.002Z</time></trkpt><trkpt lat="44.45135558408782" lon="9.032713245004524"><ele>125.66666666666667</ele><time>2026-05-02T08:25:18.002Z</time></trkpt><trkpt lat="44.4513065284984" lon="9.032783689890108"><ele>126.33333333333334</ele><time>2026-05-02T08:25:20.002Z</time></trkpt><trkpt lat="44.45125743658368" lon="9.032847992470165"><ele>127.0</ele><time>2026-05-02T08:25:22.002Z</time></trkpt><trkpt lat="44.45118529989625" lon="9.032889889466807"><ele>127.00000000000001</ele><time>2026-05-02T08:25:24.002Z</time></trkpt><trkpt lat="44.45112297211866" lon="9.032922321479713"><ele>127.0</ele><time>2026-05-02T08:25:26.002Z</time></trkpt><trkpt lat="44.45106030594346" lon="9.032946156350997"><ele>127.0</ele><time>2026-05-02T08:25:28.002Z</time></trkpt><trkpt lat="44.450998797146745" lon="9.032970288596111"><ele>127.0</ele><time>2026-05-02T08:25:30.002Z</time></trkpt><trkpt lat="44.45091535488511" lon="9.033007492644641"><ele>127.00000000000001</ele><time>2026-05-02T08:25:33.002Z</time></trkpt><trkpt lat="44.45082877193053" lon="9.03303201646208"><ele>127.0</ele><time>2026-05-02T08:25:36.002Z</time></trkpt><trkpt lat="44.45075167537324" lon="9.033065955702229"><ele>127.0</ele><time>2026-05-02T08:25:39.002Z</time></trkpt><trkpt lat="44.45067179224487" lon="9.033098192461438"><ele>127.0</ele><time>2026-05-02T08:25:42.002Z</time></trkpt><trkpt lat="44.450597261649364" lon="9.033123208247149"><ele>127.0</ele><time>2026-05-02T08:25:45.002Z</time></trkpt><trkpt lat="44.45053319663113" lon="9.033133704559072"><ele>127.0</ele><time>2026-05-02T08:26:12Z</time></trkpt><trkpt lat="44.4505391429724" lon="9.033224442992562"><ele>127.0</ele><time>2026-05-02T08:26:15Z</time></trkpt><trkpt lat="44.45058078063694" lon="9.033311195176573"><ele>127.0</ele><time>2026-05-02T08:26:18Z</time></trkpt><trkpt lat="44.45059210693508" lon="9.033415461023658"><ele>127.0</ele><time>2026-05-02T08:26:21.001Z</time></trkpt><trkpt lat="44.45061023715292" lon="9.03350726087878"><ele>128.28571428571428</ele><time>2026-05-02T08:27:27.002Z</time></trkpt><trkpt lat="44.45062408994279" lon="9.033620867156527"><ele>129.57142857142856</ele><time>2026-05-02T08:27:32.002Z</time></trkpt><trkpt lat="44.450635208074075" lon="9.033708343612744"><ele>130.85714285714283</ele><time>2026-05-02T08:27:35.002Z</time></trkpt><trkpt lat="44.450648889096925" lon="9.033803083421605"><ele>132.14285714285714</ele><time>2026-05-02T08:27:38.002Z</time></trkpt><trkpt lat="44.450588838519955" lon="9.033892844178384"><ele>133.42857142857142</ele><time>2026-05-02T08:27:42.002Z</time></trkpt><trkpt lat="44.45053629118133" lon="9.033966833986739"><ele>134.7142857142857</ele><time>2026-05-02T08:27:46.002Z</time></trkpt><trkpt lat="44.45048666107369" lon="9.034023261376205"><ele>136.0</ele><time>2026-05-02T08:27:49.002Z</time></trkpt><trkpt lat="44.45042898703107" lon="9.034097487598649"><ele>135.99999999999997</ele><time>2026-05-02T08:27:53.002Z</time></trkpt><trkpt lat="44.45036764614669" lon="9.034133355657955"><ele>136.0</ele><time>2026-05-02T08:27:56.001Z</time></trkpt><trkpt lat="44.45031173872731" lon="9.034203762333519"><ele>136.0</ele><time>2026-05-02T08:28:00.001Z</time></trkpt><trkpt lat="44.45026265714" lon="9.03426346105809"><ele>136.0</ele><time>2026-05-02T08:28:03.001Z</time></trkpt><trkpt lat="44.450207831119585" lon="9.034345611615427"><ele>136.0</ele><time>2026-05-02T08:28:07.001Z</time></trkpt><trkpt lat="44.45014242721069" lon="9.034401033756014"><ele>135.99999999999997</ele><time>2026-05-02T08:28:10.001Z</time></trkpt><trkpt lat="44.45009643944951" lon="9.0344886102588"><ele>136.0</ele><time>2026-05-02T08:28:14.001Z</time></trkpt><trkpt lat="44.45004584308385" lon="9.034555132722035"><ele>135.85714285714283</ele><time>2026-05-02T08:28:17.001Z</time></trkpt><trkpt lat="44.4500063231906" lon="9.034632664324016"><ele>135.71428571428572</ele><time>2026-05-02T08:28:20.001Z</time></trkpt><trkpt lat="44.44996835153133" lon="9.034711646528454"><ele>135.57142857142856</ele><time>2026-05-02T08:28:23.001Z</time></trkpt><trkpt lat="44.44993250634414" lon="9.034795022900859"><ele>135.42857142857142</ele><time>2026-05-02T08:28:26.001Z</time></trkpt><trkpt lat="44.449908230609495" lon="9.034881345923342"><ele>135.28571428571428</ele><time>2026-05-02T08:28:29.001Z</time></trkpt><trkpt lat="44.449884720129035" lon="9.034965540756529"><ele>135.14285714285714</ele><time>2026-05-02T08:28:32.001Z</time></trkpt><trkpt lat="44.44989456854393" lon="9.03505828235728"><ele>135.0</ele><time>2026-05-02T08:28:35.001Z</time></trkpt><trkpt lat="44.44989926572763" lon="9.03515421631362"><ele>135.0</ele><time>2026-05-02T08:28:38.001Z</time></trkpt><trkpt lat="44.449938840064306" lon="9.035260420651062"><ele>135.0</ele><time>2026-05-02T08:28:43.001Z</time></trkpt><trkpt lat="44.449923630784475" lon="9.03535328368094"><ele>135.0</ele><time>2026-05-02T08:28:46.001Z</time></trkpt><trkpt lat="44.449919301037966" lon="9.03546884615086"><ele>135.0</ele><time>2026-05-02T08:28:50.001Z</time></trkpt><trkpt lat="44.44990579851589" lon="9.035588812813158"><ele>135.0</ele><time>2026-05-02T08:28:55.001Z</time></trkpt><trkpt lat="44.449888270598066" lon="9.035681569322062"><ele>135.0</ele><time>2026-05-02T08:28:58.001Z</time></trkpt><trkpt lat="44.44988420572342" lon="9.035780078045379"><ele>136.33333333333334</ele><time>2026-05-02T08:29:02.001Z</time></trkpt><trkpt lat="44.44987839380164" lon="9.035879921896589"><ele>137.66666666666666</ele><time>2026-05-02T08:29:06.001Z</time></trkpt><trkpt lat="44.449887064463425" lon="9.035988490180529"><ele>139.0</ele><time>2026-05-02T08:29:10.001Z</time></trkpt><trkpt lat="44.449899970378425" lon="9.036095327990864"><ele>140.33333333333331</ele><time>2026-05-02T08:29:14.001Z</time></trkpt><trkpt lat="44.44997567712685" lon="9.036103024235123"><ele>141.66666666666666</ele><time>2026-05-02T08:29:17.001Z</time></trkpt><trkpt lat="44.45002921605339" lon="9.036030435536414"><ele>143.0</ele><time>2026-05-02T08:29:23.001Z</time></trkpt><trkpt lat="44.45001667835459" lon="9.035900389991278"><ele>141.85714285714283</ele><time>2026-05-02T08:29:27.001Z</time></trkpt><trkpt lat="44.449986608517044" lon="9.035794208517808"><ele>140.71428571428572</ele><time>2026-05-02T08:29:31.002Z</time></trkpt><trkpt lat="44.450006352974235" lon="9.0357095095683"><ele>139.57142857142856</ele><time>2026-05-02T08:29:34.002Z</time></trkpt><trkpt lat="44.45001102263795" lon="9.035615302958734"><ele>138.42857142857142</ele><time>2026-05-02T08:29:37.002Z</time></trkpt><trkpt lat="44.45001380597893" lon="9.03551241271805"><ele>137.28571428571428</ele><time>2026-05-02T08:29:41.002Z</time></trkpt><trkpt lat="44.45000791381155" lon="9.035409074943178"><ele>136.14285714285714</ele><time>2026-05-02T08:29:45.002Z</time></trkpt><trkpt lat="44.45002283760724" lon="9.035308159545716"><ele>135.0</ele><time>2026-05-02T08:29:49.002Z</time></trkpt><trkpt lat="44.450021475416364" lon="9.035205350578204"><ele>135.0</ele><time>2026-05-02T08:29:53.002Z</time></trkpt><trkpt lat="44.45002328468259" lon="9.03509141948256"><ele>135.0</ele><time>2026-05-02T08:29:58.002Z</time></trkpt><trkpt lat="44.45002577367909" lon="9.034996482097522"><ele>135.0</ele><time>2026-05-02T08:30:01Z</time></trkpt><trkpt lat="44.45004672134329" lon="9.03490007892372"><ele>135.0</ele><time>2026-05-02T08:30:04Z</time></trkpt><trkpt lat="44.450092043398385" lon="9.034799094791959"><ele>135.0</ele><time>2026-05-02T08:30:07Z</time></trkpt><trkpt lat="44.450134700898474" lon="9.034711915078793"><ele>135.0</ele><time>2026-05-02T08:30:10Z</time></trkpt><trkpt lat="44.45017954846109" lon="9.034646212380089"><ele>135.0</ele><time>2026-05-02T08:30:12Z</time></trkpt><trkpt lat="44.45024682818078" lon="9.034570422365752"><ele>134.33333333333334</ele><time>2026-05-02T08:30:15Z</time></trkpt><trkpt lat="44.45029634393428" lon="9.03448734443"><ele>133.66666666666666</ele><time>2026-05-02T08:30:18Z</time></trkpt><trkpt lat="44.45034114871211" lon="9.034391860393276"><ele>133.0</ele><time>2026-05-02T08:30:22Z</time></trkpt><trkpt lat="44.45040386334514" lon="9.034351062380974"><ele>132.33333333333331</ele><time>2026-05-02T08:30:25Z</time></trkpt><trkpt lat="44.45044720857162" lon="9.03427631810066"><ele>131.66666666666666</ele><time>2026-05-02T08:30:29Z</time></trkpt><trkpt lat="44.45050571589274" lon="9.034236620816182"><ele>131.0</ele><time>2026-05-02T08:30:32Z</time></trkpt><trkpt lat="44.450596141277366" lon="9.034246375937531"><ele>131.0</ele><time>2026-05-02T08:30:36Z</time></trkpt><trkpt lat="44.450658213319315" lon="9.034283720305083"><ele>131.0</ele><time>2026-05-02T08:30:38Z</time></trkpt><trkpt lat="44.45073790936216" lon="9.034349013391369"><ele>131.0</ele><time>2026-05-02T08:30:40Z</time></trkpt><trkpt lat="44.450791525537724" lon="9.034449366740256"><ele>131.0</ele><time>2026-05-02T08:30:42Z</time></trkpt><trkpt lat="44.45083346144619" lon="9.034517024286204"><ele>131.0</ele><time>2026-05-02T08:30:44Z</time></trkpt><trkpt lat="44.450835719804886" lon="9.034410787692805"><ele>131.0</ele><time>2026-05-02T08:30:54.001Z</time></trkpt><trkpt lat="44.45091947019117" lon="9.0343555506609"><ele>131.0</ele><time>2026-05-02T08:30:57.001Z</time></trkpt><trkpt lat="44.45099740534115" lon="9.034351923440635"><ele>131.0</ele><time>2026-05-02T08:30:59.001Z</time></trkpt><trkpt lat="44.451055836240215" lon="9.034313708240827"><ele>131.0</ele><time>2026-05-02T08:31:01.001Z</time></trkpt><trkpt lat="44.45112753071821" lon="9.03428126092435"><ele>131.0</ele><time>2026-05-02T08:31:04.001Z</time></trkpt><trkpt lat="44.45120881187995" lon="9.034257153306507"><ele>131.0</ele><time>2026-05-02T08:31:07.001Z</time></trkpt><trkpt lat="44.451275378846276" lon="9.034228946642763"><ele>131.0</ele><time>2026-05-02T08:31:10.001Z</time></trkpt><trkpt lat="44.45135103443206" lon="9.034196054785808"><ele>131.57142857142858</ele><time>2026-05-02T08:31:14.001Z</time></trkpt><trkpt lat="44.451427356615035" lon="9.034167466516148"><ele>132.14285714285717</ele><time>2026-05-02T08:32:37Z</time></trkpt><trkpt lat="44.451499207978216" lon="9.034134944539357"><ele>132.71428571428572</ele><time>2026-05-02T08:32:42Z</time></trkpt><trkpt lat="44.451563725681055" lon="9.034124877197662"><ele>133.28571428571428</ele><time>2026-05-02T08:32:45Z</time></trkpt><trkpt lat="44.45163407529777" lon="9.034089790928364"><ele>133.85714285714283</ele><time>2026-05-02T08:32:49Z</time></trkpt><trkpt lat="44.451706490895106" lon="9.03407825196596"><ele>134.42857142857142</ele><time>2026-05-02T08:32:53Z</time></trkpt><trkpt lat="44.45178168264773" lon="9.034036524083149"><ele>135.0</ele><time>2026-05-02T08:32:57Z</time></trkpt><trkpt lat="44.451851914313266" lon="9.034005626994556"><ele>132.66666666666666</ele><time>2026-05-02T08:33:01.001Z</time></trkpt><trkpt lat="44.451878079916554" lon="9.033906697733427"><ele>130.33333333333334</ele><time>2026-05-02T08:33:05.001Z</time></trkpt><trkpt lat="44.451913761764196" lon="9.033798236916796"><ele>128.0</ele><time>2026-05-02T08:33:09.001Z</time></trkpt><trkpt lat="44.451957066296124" lon="9.033698953750326"><ele>125.66666666666667</ele><time>2026-05-02T08:33:12.001Z</time></trkpt><trkpt lat="44.45198066797666" lon="9.033606363989884"><ele>123.33333333333334</ele><time>2026-05-02T08:33:16.001Z</time></trkpt><trkpt lat="44.45203108029309" lon="9.033537187149912"><ele>121.0</ele><time>2026-05-02T08:33:19.001Z</time></trkpt><trkpt lat="44.452081067112964" lon="9.033453595976342"><ele>128.33333333333334</ele><time>2026-05-02T08:33:22.001Z</time></trkpt><trkpt lat="44.45214934213861" lon="9.033378420624272"><ele>135.66666666666669</ele><time>2026-05-02T08:33:25.001Z</time></trkpt><trkpt lat="44.45216868856762" lon="9.033272917517692"><ele>143.0</ele><time>2026-05-02T08:33:27.001Z</time></trkpt><trkpt lat="44.45220051322402" lon="9.033182409033992"><ele>150.33333333333334</ele><time>2026-05-02T08:33:29.001Z</time></trkpt><trkpt lat="44.452233381163865" lon="9.033072557046212"><ele>157.66666666666666</ele><time>2026-05-02T08:33:32.001Z</time></trkpt><trkpt lat="44.45225798963195" lon="9.032985044087994"><ele>165.0</ele><time>2026-05-02T08:33:34.001Z</time></trkpt><trkpt lat="44.45228422894871" lon="9.032894194041237"><ele>165.00000000000003</ele><time>2026-05-02T08:33:43.001Z</time></trkpt><trkpt lat="44.452303353742934" lon="9.0327891574708"><ele>165.0</ele><time>2026-05-02T08:33:48.001Z</time></trkpt><trkpt lat="44.452325390728305" lon="9.032693862851126"><ele>165.0</ele><time>2026-05-02T08:33:51.001Z</time></trkpt><trkpt lat="44.452342801415476" lon="9.032566882892455"><ele>165.0</ele><time>2026-05-02T08:33:55.001Z</time></trkpt><trkpt lat="44.45235377505997" lon="9.03247533522192"><ele>165.0</ele><time>2026-05-02T08:33:58.002Z</time></trkpt><trkpt lat="44.452386732094304" lon="9.032389898753351"><ele>165.00000000000003</ele><time>2026-05-02T08:34:01.002Z</time></trkpt><trkpt lat="44.45235596754999" lon="9.032299625068223"><ele>165.0</ele><time>2026-05-02T08:34:06.002Z</time></trkpt><trkpt lat="44.45230813097344" lon="9.032220527413415"><ele>165.5</ele><time>2026-05-02T08:34:10.002Z</time></trkpt><trkpt lat="44.45228613478567" lon="9.032110131253328"><ele>166.0</ele><time>2026-05-02T08:34:13Z</time></trkpt><trkpt lat="44.452260347754155" lon="9.031998986683343"><ele>166.5</ele><time>2026-05-02T08:34:16Z</time></trkpt><trkpt lat="44.4522207143721" lon="9.031894733240135"><ele>167.0</ele><time>2026-05-02T08:34:19Z</time></trkpt><trkpt lat="44.45214664613425" lon="9.031832515538941"><ele>167.5</ele><time>2026-05-02T08:34:22Z</time></trkpt><trkpt lat="44.452116765852466" lon="9.03175394845598"><ele>168.0</ele><time>2026-05-02T08:34:26Z</time></trkpt><trkpt lat="44.45208383764762" lon="9.031661523335268"><ele>165.33333333333334</ele><time>2026-05-02T08:34:28Z</time></trkpt><trkpt lat="44.4520506350575" lon="9.031551113577269"><ele>162.66666666666666</ele><time>2026-05-02T08:34:31Z</time></trkpt><trkpt lat="44.451997014443215" lon="9.031447927881228"><ele>160.0</ele><time>2026-05-02T08:34:34Z</time></trkpt><trkpt lat="44.45194619287446" lon="9.031345464779683"><ele>157.33333333333331</ele><time>2026-05-02T08:34:38Z</time></trkpt><trkpt lat="44.4518863472083" lon="9.031259103209516"><ele>154.66666666666666</ele><time>2026-05-02T08:34:41Z</time></trkpt><trkpt lat="44.45181879858392" lon="9.031242621748646"><ele>152.0</ele><time>2026-05-02T08:34:44Z</time></trkpt><trkpt lat="44.45174989033289" lon="9.031202479966792"><ele>152.0</ele><time>2026-05-02T08:34:47Z</time></trkpt><trkpt lat="44.451662865966185" lon="9.031171223755097"><ele>152.0</ele><time>2026-05-02T08:34:51Z</time></trkpt><trkpt lat="44.45159628285404" lon="9.03112853709005"><ele>152.0</ele><time>2026-05-02T08:34:54Z</time></trkpt><trkpt lat="44.45154059653402" lon="9.031076724529937"><ele>152.0</ele><time>2026-05-02T08:34:57Z</time></trkpt><trkpt lat="44.45149507730498" lon="9.031004809439947"><ele>152.0</ele><time>2026-05-02T08:34:59Z</time></trkpt><trkpt lat="44.45145022201399" lon="9.03092372684448"><ele>152.0</ele><time>2026-05-02T08:35:01Z</time></trkpt><trkpt lat="44.45137613509963" lon="9.030879354105583"><ele>152.0</ele><time>2026-05-02T08:35:04Z</time></trkpt><trkpt lat="44.451300979872755" lon="9.030832525643973"><ele>152.0</ele><time>2026-05-02T08:35:07.001Z</time></trkpt><trkpt lat="44.451238707257765" lon="9.030800431369286"><ele>152.0</ele><time>2026-05-02T08:35:10.001Z</time></trkpt><trkpt lat="44.451169802795484" lon="9.030764400592892"><ele>152.0</ele><time>2026-05-02T08:35:14.001Z</time></trkpt><trkpt lat="44.451105751596195" lon="9.030728852219909"><ele>152.0</ele><time>2026-05-02T08:35:17.001Z</time></trkpt><trkpt lat="44.451067743089766" lon="9.03063407342158"><ele>152.0</ele><time>2026-05-02T08:35:20.001Z</time></trkpt><trkpt lat="44.45107490092192" lon="9.030523165331607"><ele>152.0</ele><time>2026-05-02T08:35:23.001Z</time></trkpt><trkpt lat="44.451107467998774" lon="9.030435354389498"><ele>152.0</ele><time>2026-05-02T08:35:26.001Z</time></trkpt><trkpt lat="44.45115062068181" lon="9.030333024070552"><ele>152.0</ele><time>2026-05-02T08:35:29.001Z</time></trkpt><trkpt lat="44.451207846506" lon="9.030236448737034"><ele>152.0</ele><time>2026-05-02T08:35:32.001Z</time></trkpt><trkpt lat="44.45124975176151" lon="9.030135648777387"><ele>152.0</ele><time>2026-05-02T08:35:35.001Z</time></trkpt><trkpt lat="44.45129752043282" lon="9.03005148429375"><ele>152.0</ele><time>2026-05-02T08:35:39.001Z</time></trkpt><trkpt lat="44.45135806812285" lon="9.029984219400838"><ele>152.0</ele><time>2026-05-02T08:35:42.001Z</time></trkpt><trkpt lat="44.451439297785846" lon="9.02991124063191"><ele>150.33333333333331</ele><time>2026-05-02T08:35:46.001Z</time></trkpt><trkpt lat="44.45149351858357" lon="9.029822394280927"><ele>148.66666666666666</ele><time>2026-05-02T08:35:49.001Z</time></trkpt><trkpt lat="44.451536551706035" lon="9.02972542234563"><ele>147.0</ele><time>2026-05-02T08:35:52.001Z</time></trkpt><trkpt lat="44.45157645598371" lon="9.029644454357614"><ele>145.33333333333334</ele><time>2026-05-02T08:35:55.001Z</time></trkpt><trkpt lat="44.45162173466672" lon="9.029546631750097"><ele>143.66666666666669</ele><time>2026-05-02T08:35:58.001Z</time></trkpt><trkpt lat="44.45164527284982" lon="9.029434240617913"><ele>142.0</ele><time>2026-05-02T08:36:02.002Z</time></trkpt><trkpt lat="44.451665888503165" lon="9.029350722930149"><ele>142.0</ele><time>2026-05-02T08:36:05.002Z</time></trkpt><trkpt lat="44.45165669821313" lon="9.029235725078669"><ele>142.0</ele><time>2026-05-02T08:36:09.002Z</time></trkpt><trkpt lat="44.45163954071338" lon="9.02912409026857"><ele>142.0</ele><time>2026-05-02T08:36:13.002Z</time></trkpt><trkpt lat="44.45165152685873" lon="9.029029099156036"><ele>142.0</ele><time>2026-05-02T08:36:15.002Z</time></trkpt><trkpt lat="44.45165334918445" lon="9.028940556899801"><ele>142.0</ele><time>2026-05-02T08:36:17.999Z</time></trkpt><trkpt lat="44.4516695706572" lon="9.028851876949025"><ele>142.0</ele><time>2026-05-02T08:36:19.999Z</time></trkpt><trkpt lat="44.45166237550295" lon="9.028747545790843"><ele>142.0</ele><time>2026-05-02T08:36:23.999Z</time></trkpt><trkpt lat="44.4516932279586" lon="9.028668641608174"><ele>143.0</ele><time>2026-05-02T08:36:29.999Z</time></trkpt><trkpt lat="44.45173769377506" lon="9.028604547948838"><ele>144.0</ele><time>2026-05-02T08:36:34Z</time></trkpt><trkpt lat="44.45175638041425" lon="9.028515290562307"><ele>145.0</ele><time>2026-05-02T08:36:47Z</time></trkpt><trkpt lat="44.45176729411595" lon="9.028420515978997"><ele>146.0</ele><time>2026-05-02T08:36:52Z</time></trkpt><trkpt lat="44.45177616131158" lon="9.02832662816885"><ele>147.0</ele><time>2026-05-02T08:36:57Z</time></trkpt><trkpt lat="44.45176873351534" lon="9.028236063377069"><ele>148.0</ele><time>2026-05-02T08:37:03Z</time></trkpt><trkpt lat="44.451706246223985" lon="9.028177580746071"><ele>149.0</ele><time>2026-05-02T08:37:08Z</time></trkpt><trkpt lat="44.45164358316917" lon="9.02816156630265"><ele>152.83333333333331</ele><time>2026-05-02T08:37:13.001Z</time></trkpt><trkpt lat="44.451587566629875" lon="9.028074733432144"><ele>156.66666666666666</ele><time>2026-05-02T08:37:16.001Z</time></trkpt><trkpt lat="44.45154462395682" lon="9.027978721048745"><ele>160.5</ele><time>2026-05-02T08:37:18.001Z</time></trkpt><trkpt lat="44.45150276692356" lon="9.027893680159888"><ele>164.33333333333334</ele><time>2026-05-02T08:37:20.001Z</time></trkpt><trkpt lat="44.45142817877612" lon="9.027876450415938"><ele>168.16666666666669</ele><time>2026-05-02T08:37:23.001Z</time></trkpt><trkpt lat="44.451385015230606" lon="9.027809440950803"><ele>172.0</ele><time>2026-05-02T08:37:25.001Z</time></trkpt><trkpt lat="44.45134285163069" lon="9.027704514987011"><ele>166.57142857142858</ele><time>2026-05-02T08:37:27.001Z</time></trkpt><trkpt lat="44.451275847584405" lon="9.027648702673302"><ele>161.14285714285714</ele><time>2026-05-02T08:37:29.001Z</time></trkpt><trkpt lat="44.45124144115812" lon="9.027545939986792"><ele>155.71428571428572</ele><time>2026-05-02T08:37:31.001Z</time></trkpt><trkpt lat="44.45117914158282" lon="9.02750654844496"><ele>150.28571428571428</ele><time>2026-05-02T08:37:34.001Z</time></trkpt><trkpt lat="44.45111844939421" lon="9.027463057938554"><ele>144.85714285714286</ele><time>2026-05-02T08:37:37.001Z</time></trkpt><trkpt lat="44.45105184894091" lon="9.027426949864136"><ele>139.42857142857144</ele><time>2026-05-02T08:37:39.001Z</time></trkpt><trkpt lat="44.45098147651189" lon="9.02738716408398"><ele>134.0</ele><time>2026-05-02T08:37:41.001Z</time></trkpt><trkpt lat="44.45091666693343" lon="9.027353110406368"><ele>134.0</ele><time>2026-05-02T08:37:43.001Z</time></trkpt><trkpt lat="44.45086336344545" lon="9.027295426590001"><ele>134.0</ele><time>2026-05-02T08:37:45.001Z</time></trkpt><trkpt lat="44.45079041786121" lon="9.02725816025273"><ele>134.0</ele><time>2026-05-02T08:37:48.001Z</time></trkpt><trkpt lat="44.45070548950962" lon="9.027186589642408"><ele>134.0</ele><time>2026-05-02T08:37:52.001Z</time></trkpt><trkpt lat="44.45069341551069" lon="9.027083038517862"><ele>134.0</ele><time>2026-05-02T08:37:56.001Z</time></trkpt><trkpt lat="44.45068304764583" lon="9.026993255863145"><ele>134.0</ele><time>2026-05-02T08:38:06.002Z</time></trkpt><trkpt lat="44.450705887756364" lon="9.026903174467389"><ele>134.0</ele><time>2026-05-02T08:38:12.002Z</time></trkpt><trkpt lat="44.45076721359384" lon="9.026835171055366"><ele>134.0</ele><time>2026-05-02T08:38:18.002Z</time></trkpt><trkpt lat="44.450821998305045" lon="9.026785982621222"><ele>134.0</ele><time>2026-05-02T08:38:22.002Z</time></trkpt><trkpt lat="44.45088479183828" lon="9.02674572816838"><ele>134.0</ele><time>2026-05-02T08:38:24.999Z</time></trkpt><trkpt lat="44.4509231917545" lon="9.026665387740703"><ele>134.0</ele><time>2026-05-02T08:38:27.999Z</time></trkpt><trkpt lat="44.450958455385695" lon="9.026569825173715"><ele>134.0</ele><time>2026-05-02T08:38:33.999Z</time></trkpt><trkpt lat="44.450990305490244" lon="9.026490407515668"><ele>134.0</ele><time>2026-05-02T08:38:39Z</time></trkpt><trkpt lat="44.451053179194574" lon="9.026441679112416"><ele>132.0</ele><time>2026-05-02T08:38:45Z</time></trkpt><trkpt lat="44.45114841349194" lon="9.02639906204992"><ele>130.0</ele><time>2026-05-02T08:39:12.001Z</time></trkpt><trkpt lat="44.451158957406456" lon="9.02631144521242"><ele>128.0</ele><time>2026-05-02T08:39:20.001Z</time></trkpt><trkpt lat="44.451194880750855" lon="9.026223506360894"><ele>126.0</ele><time>2026-05-02T08:39:27.001Z</time></trkpt><trkpt lat="44.451224504576125" lon="9.026142466976053"><ele>124.0</ele><time>2026-05-02T08:39:36.001Z</time></trkpt><trkpt lat="44.451263160223675" lon="9.026060859905424"><ele>122.0</ele><time>2026-05-02T08:39:52.001Z</time></trkpt><trkpt lat="44.4512512602305" lon="9.025961456324652"><ele>120.0</ele><time>2026-05-02T08:40:03.002Z</time></trkpt><trkpt lat="44.451295271524444" lon="9.025890742423385"><ele>119.28571428571429</ele><time>2026-05-02T08:40:12.002Z</time></trkpt><trkpt lat="44.45127827913008" lon="9.025789409713981"><ele>118.57142857142856</ele><time>2026-05-02T08:40:20.002Z</time></trkpt><trkpt lat="44.451303531274974" lon="9.025705208582657"><ele>117.85714285714285</ele><time>2026-05-02T08:40:27.002Z</time></trkpt><trkpt lat="44.451328295626084" lon="9.025621441653584"><ele>117.14285714285714</ele><time>2026-05-02T08:40:34Z</time></trkpt><trkpt lat="44.451339911238954" lon="9.025528342974562"><ele>116.42857142857142</ele><time>2026-05-02T08:40:42Z</time></trkpt><trkpt lat="44.45136794630984" lon="9.025437208745789"><ele>115.7142857142857</ele><time>2026-05-02T08:40:52Z</time></trkpt><trkpt lat="44.45137028072322" lon="9.0253356313087"><ele>114.99999999999999</ele><time>2026-05-02T08:41:00Z</time></trkpt><trkpt lat="44.45135584200057" lon="9.0252362621543"><ele>116.33333333333334</ele><time>2026-05-02T08:41:06Z</time></trkpt><trkpt lat="44.45132677414769" lon="9.025147464852639"><ele>117.66666666666667</ele><time>2026-05-02T08:41:12.001Z</time></trkpt><trkpt lat="44.451296540930095" lon="9.025050048983516"><ele>119.0</ele><time>2026-05-02T08:41:24.001Z</time></trkpt><trkpt lat="44.451273835128575" lon="9.02496494842575"><ele>120.33333333333334</ele><time>2026-05-02T08:41:33.001Z</time></trkpt><trkpt lat="44.45121017206786" lon="9.024955200125529"><ele>121.66666666666667</ele><time>2026-05-02T08:41:39.001Z</time></trkpt><trkpt lat="44.45114964585547" lon="9.024911675169523"><ele>123.0</ele><time>2026-05-02T08:41:45.001Z</time></trkpt><trkpt lat="44.451148120208806" lon="9.024742319680211"><ele>123.00000000000001</ele><time>2026-05-02T08:42:02.002Z</time></trkpt><trkpt lat="44.45112103701551" lon="9.024661695804273"><ele>123.0</ele><time>2026-05-02T08:42:10.002Z</time></trkpt><trkpt lat="44.45109121332263" lon="9.024582218221248"><ele>123.00000000000001</ele><time>2026-05-02T08:42:20.002Z</time></trkpt><trkpt lat="44.45107784679408" lon="9.024495560391088"><ele>123.00000000000001</ele><time>2026-05-02T08:42:29.002Z</time></trkpt><trkpt lat="44.45108115591257" lon="9.024393898465167"><ele>123.0</ele><time>2026-05-02T08:44:32.002Z</time></trkpt><trkpt lat="44.451110877531775" lon="9.024311536934663"><ele>123.00000000000001</ele><time>2026-05-02T08:44:40.002Z</time></trkpt><trkpt lat="44.451165081132764" lon="9.024256316420152"><ele>123.00000000000001</ele><time>2026-05-02T08:44:45.001Z</time></trkpt><trkpt lat="44.4511965694959" lon="9.024151645415923"><ele>122.83333333333333</ele><time>2026-05-02T08:44:49Z</time></trkpt><trkpt lat="44.45125880861089" lon="9.024080669444837"><ele>122.66666666666666</ele><time>2026-05-02T08:44:51Z</time></trkpt><trkpt lat="44.4513199158769" lon="9.023994629104035"><ele>122.5</ele><time>2026-05-02T08:44:54Z</time></trkpt><trkpt lat="44.4512531086742" lon="9.023965135614795"><ele>122.33333333333333</ele><time>2026-05-02T08:45:02Z</time></trkpt><trkpt lat="44.45125577881397" lon="9.023852308222256"><ele>122.16666666666666</ele><time>2026-05-02T08:45:06.001Z</time></trkpt><trkpt lat="44.451264180836695" lon="9.02372369190667"><ele>122.0</ele><time>2026-05-02T08:45:09.001Z</time></trkpt><trkpt lat="44.45128170153914" lon="9.023636600258119"><ele>121.99999999999999</ele><time>2026-05-02T08:45:11.001Z</time></trkpt><trkpt lat="44.4512873350681" lon="9.023543420647101"><ele>122.0</ele><time>2026-05-02T08:45:13.001Z</time></trkpt><trkpt lat="44.45127341410722" lon="9.023438350592956"><ele>121.99999999999999</ele><time>2026-05-02T08:45:16.001Z</time></trkpt><trkpt lat="44.45123956083098" lon="9.023357915201155"><ele>121.99999999999999</ele><time>2026-05-02T08:45:18.001Z</time></trkpt><trkpt lat="44.45117314546632" lon="9.023302530215947"><ele>122.0</ele><time>2026-05-02T08:45:21.001Z</time></trkpt><trkpt lat="44.45117353467043" lon="9.02320032707806"><ele>121.99999999999999</ele><time>2026-05-02T08:45:24.001Z</time></trkpt><trkpt lat="44.45123066617273" lon="9.023140396867355"><ele>121.99999999999999</ele><time>2026-05-02T08:45:28.001Z</time></trkpt><trkpt lat="44.451273334223416" lon="9.02307519568347"><ele>122.33333333333333</ele><time>2026-05-02T08:45:31.001Z</time></trkpt><trkpt lat="44.45131377565659" lon="9.022995725306771"><ele>122.66666666666666</ele><time>2026-05-02T08:45:34.001Z</time></trkpt><trkpt lat="44.45135633708113" lon="9.022915668988102"><ele>123.0</ele><time>2026-05-02T08:45:38.001Z</time></trkpt><trkpt lat="44.451438110201984" lon="9.022915538085815"><ele>123.33333333333334</ele><time>2026-05-02T08:45:41.001Z</time></trkpt><trkpt lat="44.451520806865304" lon="9.02295931400413"><ele>123.66666666666667</ele><time>2026-05-02T08:45:44.001Z</time></trkpt><trkpt lat="44.451587744876974" lon="9.02298738506622"><ele>124.0</ele><time>2026-05-02T08:45:47.001Z</time></trkpt><trkpt lat="44.45166918424184" lon="9.023018100172282"><ele>124.0</ele><time>2026-05-02T08:45:51.001Z</time></trkpt><trkpt lat="44.451730065815156" lon="9.023050108243423"><ele>124.00000000000001</ele><time>2026-05-02T08:45:55.001Z</time></trkpt><trkpt lat="44.45178560581699" lon="9.023002481427001"><ele>124.0</ele><time>2026-05-02T08:45:59.002Z</time></trkpt><trkpt lat="44.451835242280914" lon="9.022946179650175"><ele>124.0</ele><time>2026-05-02T08:46:03.002Z</time></trkpt><trkpt lat="44.45189483179206" lon="9.022898833606424"><ele>124.00000000000001</ele><time>2026-05-02T08:46:07.002Z</time></trkpt><trkpt lat="44.4519580889643" lon="9.022838762789743"><ele>124.0</ele><time>2026-05-02T08:46:12.002Z</time></trkpt><trkpt lat="44.452033779812886" lon="9.022877683763038"><ele>124.0</ele><time>2026-05-02T08:46:17.002Z</time></trkpt><trkpt lat="44.4520982923327" lon="9.022870426674837"><ele>126.71428571428572</ele><time>2026-05-02T08:46:22.002Z</time></trkpt><trkpt lat="44.4521431689792" lon="9.022803224372618"><ele>129.42857142857144</ele><time>2026-05-02T08:46:32.002Z</time></trkpt><trkpt lat="44.452197538021075" lon="9.022731580990508"><ele>132.14285714285714</ele><time>2026-05-02T08:46:37.002Z</time></trkpt><trkpt lat="44.45223299017049" lon="9.022644641443595"><ele>134.85714285714286</ele><time>2026-05-02T08:46:42.002Z</time></trkpt><trkpt lat="44.452271177920586" lon="9.02255893020217"><ele>137.57142857142856</ele><time>2026-05-02T08:46:46.003Z</time></trkpt><trkpt lat="44.45230599849281" lon="9.022464606127262"><ele>140.28571428571428</ele><time>2026-05-02T08:46:50Z</time></trkpt><trkpt lat="44.45234136129439" lon="9.022382437789881"><ele>143.0</ele><time>2026-05-02T08:46:53Z</time></trkpt><trkpt lat="44.4523658545136" lon="9.022295447107053"><ele>144.28571428571428</ele><time>2026-05-02T08:46:56Z</time></trkpt><trkpt lat="44.45237783106003" lon="9.022196263256482"><ele>145.57142857142856</ele><time>2026-05-02T08:46:59Z</time></trkpt><trkpt lat="44.45235975937855" lon="9.022111452651368"><ele>146.85714285714283</ele><time>2026-05-02T08:47:02Z</time></trkpt><trkpt lat="44.452336323381616" lon="9.022016302105879"><ele>148.14285714285714</ele><time>2026-05-02T08:47:05Z</time></trkpt><trkpt lat="44.45231868853807" lon="9.021925854859004"><ele>149.42857142857144</ele><time>2026-05-02T08:47:08Z</time></trkpt><trkpt lat="44.452292629327964" lon="9.021824428728078"><ele>150.7142857142857</ele><time>2026-05-02T08:47:12Z</time></trkpt><trkpt lat="44.45226512281487" lon="9.021713602629886"><ele>152.0</ele><time>2026-05-02T08:47:16Z</time></trkpt><trkpt lat="44.4522450922647" lon="9.021616338456143"><ele>154.28571428571428</ele><time>2026-05-02T08:47:19Z</time></trkpt><trkpt lat="44.45221032330653" lon="9.02152752152541"><ele>156.57142857142858</ele><time>2026-05-02T08:47:23Z</time></trkpt><trkpt lat="44.45216609916385" lon="9.021453858274862"><ele>158.85714285714286</ele><time>2026-05-02T08:47:26.001Z</time></trkpt><trkpt lat="44.452124550845504" lon="9.02136955205876"><ele>161.14285714285714</ele><time>2026-05-02T08:47:30.001Z</time></trkpt><trkpt lat="44.452078286037164" lon="9.021272843219357"><ele>163.42857142857144</ele><time>2026-05-02T08:47:34.001Z</time></trkpt><trkpt lat="44.45204325149718" lon="9.021187315579446"><ele>165.71428571428572</ele><time>2026-05-02T08:47:37.001Z</time></trkpt><trkpt lat="44.452016747062245" lon="9.021084575051866"><ele>168.0</ele><time>2026-05-02T08:47:40.001Z</time></trkpt><trkpt lat="44.45200091771578" lon="9.020980688237819"><ele>162.42857142857142</ele><time>2026-05-02T08:47:43.001Z</time></trkpt><trkpt lat="44.452000956519385" lon="9.020877154702214"><ele>156.85714285714286</ele><time>2026-05-02T08:47:46.001Z</time></trkpt><trkpt lat="44.451998654540134" lon="9.020776096720398"><ele>151.28571428571428</ele><time>2026-05-02T08:47:49.001Z</time></trkpt><trkpt lat="44.4519963599884" lon="9.02068448492683"><ele>145.71428571428572</ele><time>2026-05-02T08:47:52.001Z</time></trkpt><trkpt lat="44.451996764877435" lon="9.020588768968839"><ele>140.14285714285714</ele><time>2026-05-02T08:47:55.001Z</time></trkpt><trkpt lat="44.45200183660261" lon="9.020494658751385"><ele>134.57142857142856</ele><time>2026-05-02T08:47:58.001Z</time></trkpt><trkpt lat="44.452002463061135" lon="9.020394663870094"><ele>129.0</ele><time>2026-05-02T08:48:01.001Z</time></trkpt><trkpt lat="44.452004875837616" lon="9.020297154160309"><ele>129.0</ele><time>2026-05-02T08:48:04.001Z</time></trkpt><trkpt lat="44.45200093733476" lon="9.020201812976394"><ele>129.0</ele><time>2026-05-02T08:48:07.001Z</time></trkpt><trkpt lat="44.45199841058656" lon="9.020106562086548"><ele>129.0</ele><time>2026-05-02T08:48:10.001Z</time></trkpt><trkpt lat="44.4519968212995" lon="9.020007835629896"><ele>129.0</ele><time>2026-05-02T08:48:13.002Z</time></trkpt><trkpt lat="44.452009882258174" lon="9.019891143994805"><ele>129.0</ele><time>2026-05-02T08:48:17.002Z</time></trkpt><trkpt lat="44.452031147755655" lon="9.019778161758364"><ele>129.0</ele><time>2026-05-02T08:48:21.002Z</time></trkpt><trkpt lat="44.4520559550486" lon="9.019675834172407"><ele>128.33333333333334</ele><time>2026-05-02T08:48:24.002Z</time></trkpt><trkpt lat="44.45209230003751" lon="9.019579752033028"><ele>127.66666666666666</ele><time>2026-05-02T08:48:27.002Z</time></trkpt><trkpt lat="44.452110821571736" lon="9.01949107413951"><ele>127.0</ele><time>2026-05-02T08:48:30.002Z</time></trkpt><trkpt lat="44.45214879650222" lon="9.019373644381018"><ele>126.33333333333333</ele><time>2026-05-02T08:48:34.002Z</time></trkpt><trkpt lat="44.45216883986035" lon="9.019283697305385"><ele>125.66666666666666</ele><time>2026-05-02T08:48:37.002Z</time></trkpt><trkpt lat="44.45221456540571" lon="9.019194386194679"><ele>125.0</ele><time>2026-05-02T08:48:40.002Z</time></trkpt><trkpt lat="44.4522444924092" lon="9.01909221139332"><ele>128.42857142857142</ele><time>2026-05-02T08:48:43.002Z</time></trkpt><trkpt lat="44.452277514960315" lon="9.01898447115319"><ele>131.85714285714286</ele><time>2026-05-02T08:48:46.002Z</time></trkpt><trkpt lat="44.45231042845202" lon="9.018886315821927"><ele>135.28571428571428</ele><time>2026-05-02T08:48:49.002Z</time></trkpt><trkpt lat="44.452354696290016" lon="9.01880375569561"><ele>138.71428571428572</ele><time>2026-05-02T08:48:52.002Z</time></trkpt><trkpt lat="44.45240192896929" lon="9.018712539174665"><ele>142.14285714285714</ele><time>2026-05-02T08:48:56Z</time></trkpt><trkpt lat="44.452429830283556" lon="9.018631324428128"><ele>145.57142857142856</ele><time>2026-05-02T08:49:01Z</time></trkpt><trkpt lat="44.452423772357825" lon="9.01854243480036"><ele>149.0</ele><time>2026-05-02T08:49:04Z</time></trkpt><trkpt lat="44.45236735212423" lon="9.018458568446087"><ele>149.0</ele><time>2026-05-02T08:49:08Z</time></trkpt><trkpt lat="44.45234858488964" lon="9.018350808542845"><ele>149.0</ele><time>2026-05-02T08:49:12Z</time></trkpt><trkpt lat="44.45233265770903" lon="9.01825518019232"><ele>149.0</ele><time>2026-05-02T08:49:15Z</time></trkpt><trkpt lat="44.4523169028761" lon="9.018165992518771"><ele>149.0</ele><time>2026-05-02T08:49:19Z</time></trkpt><trkpt lat="44.45231930585303" lon="9.018057782921078"><ele>149.0</ele><time>2026-05-02T08:49:22Z</time></trkpt><trkpt lat="44.45230957207882" lon="9.017930743608094"><ele>149.0</ele><time>2026-05-02T08:49:25Z</time></trkpt><trkpt lat="44.452310237025465" lon="9.017788001212821"><ele>149.33333333333331</ele><time>2026-05-02T08:49:27Z</time></trkpt><trkpt lat="44.45230778532886" lon="9.017698275059251"><ele>149.66666666666666</ele><time>2026-05-02T08:49:29Z</time></trkpt><trkpt lat="44.45230615848377" lon="9.01757299998065"><ele>150.0</ele><time>2026-05-02T08:49:31Z</time></trkpt><trkpt lat="44.45230442477338" lon="9.017452586545295"><ele>150.33333333333334</ele><time>2026-05-02T08:49:33.001Z</time></trkpt><trkpt lat="44.45229228204059" lon="9.01731040498138"><ele>150.66666666666669</ele><time>2026-05-02T08:49:35.001Z</time></trkpt><trkpt lat="44.45225893245765" lon="9.017177404683503"><ele>151.0</ele><time>2026-05-02T08:49:37.001Z</time></trkpt><trkpt lat="44.45219929169043" lon="9.017082162263016"><ele>151.4</ele><time>2026-05-02T08:49:39.001Z</time></trkpt><trkpt lat="44.45212926811075" lon="9.016975587933214"><ele>151.8</ele><time>2026-05-02T08:49:41.001Z</time></trkpt><trkpt lat="44.452062941381676" lon="9.01688819970417"><ele>152.20000000000002</ele><time>2026-05-02T08:49:43.001Z</time></trkpt><trkpt lat="44.45199106799124" lon="9.016784573134023"><ele>152.6</ele><time>2026-05-02T08:49:45.001Z</time></trkpt><trkpt lat="44.45191547765802" lon="9.01669435577746"><ele>153.0</ele><time>2026-05-02T08:49:47.001Z</time></trkpt><trkpt lat="44.451857626643" lon="9.016599752869304"><ele>150.0</ele><time>2026-05-02T08:49:49.001Z</time></trkpt><trkpt lat="44.451807901105106" lon="9.016503041201476"><ele>147.0</ele><time>2026-05-02T08:49:51.001Z</time></trkpt><trkpt lat="44.45179341185677" lon="9.016389089259285"><ele>144.0</ele><time>2026-05-02T08:49:53.001Z</time></trkpt><trkpt lat="44.45181484943034" lon="9.016279750790277"><ele>141.0</ele><time>2026-05-02T08:49:55.001Z</time></trkpt><trkpt lat="44.45186689644298" lon="9.016195404867863"><ele>138.0</ele><time>2026-05-02T08:49:57.001Z</time></trkpt><trkpt lat="44.45187689576568" lon="9.016103063413551"><ele>135.0</ele><time>2026-05-02T08:51:06Z</time></trkpt><trkpt lat="44.451935902252785" lon="9.016026777762265"><ele>135.0</ele><time>2026-05-02T08:51:10Z</time></trkpt><trkpt lat="44.45196571955245" lon="9.015916878959551"><ele>135.0</ele><time>2026-05-02T08:51:14Z</time></trkpt><trkpt lat="44.45199144362386" lon="9.015819153435753"><ele>135.0</ele><time>2026-05-02T08:51:17Z</time></trkpt><trkpt lat="44.452017806338" lon="9.015733621080942"><ele>135.0</ele><time>2026-05-02T08:51:20Z</time></trkpt><trkpt lat="44.45200907081455" lon="9.015641991051174"><ele>135.0</ele><time>2026-05-02T08:51:23Z</time></trkpt><trkpt lat="44.451991597518756" lon="9.01553015762789"><ele>135.0</ele><time>2026-05-02T08:51:26Z</time></trkpt><trkpt lat="44.45197210543488" lon="9.015432556460434"><ele>135.0</ele><time>2026-05-02T08:51:29Z</time></trkpt><trkpt lat="44.45192385800004" lon="9.015354944961414"><ele>135.5</ele><time>2026-05-02T08:51:31Z</time></trkpt><trkpt lat="44.45193048615099" lon="9.01526178088482"><ele>136.0</ele><time>2026-05-02T08:51:33Z</time></trkpt><trkpt lat="44.45185557093194" lon="9.015191589668035"><ele>136.5</ele><time>2026-05-02T08:51:36Z</time></trkpt><trkpt lat="44.45177179693055" lon="9.015183832020305"><ele>137.0</ele><time>2026-05-02T08:51:39Z</time></trkpt><trkpt lat="44.451716590529024" lon="9.015075125690977"><ele>137.5</ele><time>2026-05-02T08:51:42.001Z</time></trkpt><trkpt lat="44.45165839380574" lon="9.015010783516288"><ele>138.0</ele><time>2026-05-02T08:51:44.001Z</time></trkpt><trkpt lat="44.451620954713285" lon="9.014850584846908"><ele>140.0</ele><time>2026-05-02T08:51:46.001Z</time></trkpt><trkpt lat="44.45159157700241" lon="9.014664715599684"><ele>142.0</ele><time>2026-05-02T08:51:48.001Z</time></trkpt><trkpt lat="44.45154682182593" lon="9.014571931855729"><ele>144.0</ele><time>2026-05-02T08:51:50.001Z</time></trkpt><trkpt lat="44.451487201486216" lon="9.014493840985304"><ele>146.0</ele><time>2026-05-02T08:51:52.001Z</time></trkpt><trkpt lat="44.451447196895884" lon="9.014381547695773"><ele>148.0</ele><time>2026-05-02T08:51:54.001Z</time></trkpt><trkpt lat="44.45145550628886" lon="9.014275141460148"><ele>148.0</ele><time>2026-05-02T08:51:56.001Z</time></trkpt><trkpt lat="44.45144016880764" lon="9.01415528859125"><ele>148.0</ele><time>2026-05-02T08:51:58.001Z</time></trkpt><trkpt lat="44.451442773796686" lon="9.014054070881398"><ele>148.0</ele><time>2026-05-02T08:52:00.001Z</time></trkpt><trkpt lat="44.45144623534038" lon="9.013931846457282"><ele>148.0</ele><time>2026-05-02T08:52:03.001Z</time></trkpt><trkpt lat="44.451440969033506" lon="9.013806912567572"><ele>148.0</ele><time>2026-05-02T08:52:06.001Z</time></trkpt><trkpt lat="44.45144180071746" lon="9.013700832110768"><ele>148.0</ele><time>2026-05-02T08:52:08.001Z</time></trkpt><trkpt lat="44.45144614981932" lon="9.013604881990823"><ele>148.0</ele><time>2026-05-02T08:52:11.001Z</time></trkpt><trkpt lat="44.45142778671762" lon="9.013511275236475"><ele>148.0</ele><time>2026-05-02T08:52:13.001Z</time></trkpt><trkpt lat="44.45140975150989" lon="9.013424172414837"><ele>148.0</ele><time>2026-05-02T08:52:16.001Z</time></trkpt><trkpt lat="44.45139596934168" lon="9.0133163116215"><ele>148.0</ele><time>2026-05-02T08:52:19.001Z</time></trkpt><trkpt lat="44.45139480055639" lon="9.013217570050989"><ele>148.0</ele><time>2026-05-02T08:52:21.001Z</time></trkpt><trkpt lat="44.45145151471968" lon="9.013105546581729"><ele>148.0</ele><time>2026-05-02T08:52:23.001Z</time></trkpt><trkpt lat="44.45149123820367" lon="9.01300799372224"><ele>146.66666666666669</ele><time>2026-05-02T08:52:25.002Z</time></trkpt><trkpt lat="44.45153058851864" lon="9.012919807489565"><ele>145.33333333333334</ele><time>2026-05-02T08:52:27.002Z</time></trkpt><trkpt lat="44.451558921885905" lon="9.012840366895595"><ele>144.0</ele><time>2026-05-02T08:52:29.002Z</time></trkpt><trkpt lat="44.45160814204298" lon="9.012767072748067"><ele>142.66666666666666</ele><time>2026-05-02T08:52:31.002Z</time></trkpt><trkpt lat="44.45165471657929" lon="9.012685660517642"><ele>141.33333333333331</ele><time>2026-05-02T08:52:33.002Z</time></trkpt><trkpt lat="44.45171015403286" lon="9.012581096164356"><ele>140.0</ele><time>2026-05-02T08:52:36.002Z</time></trkpt><trkpt lat="44.45173372854781" lon="9.012475560838586"><ele>138.5</ele><time>2026-05-02T08:52:38.002Z</time></trkpt><trkpt lat="44.45175129909305" lon="9.012387838908495"><ele>137.0</ele><time>2026-05-02T08:52:40.002Z</time></trkpt><trkpt lat="44.45179158233043" lon="9.012261508228535"><ele>135.5</ele><time>2026-05-02T08:52:43.002Z</time></trkpt><trkpt lat="44.45182350607486" lon="9.01218353064373"><ele>134.0</ele><time>2026-05-02T08:52:45.002Z</time></trkpt><trkpt lat="44.45185646078332" lon="9.01209736245007"><ele>132.5</ele><time>2026-05-02T08:52:47.002Z</time></trkpt><trkpt lat="44.451888653121856" lon="9.011999357146552"><ele>131.0</ele><time>2026-05-02T08:52:49.002Z</time></trkpt><trkpt lat="44.451920269087424" lon="9.011888594536995"><ele>131.0</ele><time>2026-05-02T08:52:51.002Z</time></trkpt><trkpt lat="44.451957554756014" lon="9.011782949274219"><ele>131.0</ele><time>2026-05-02T08:52:53.002Z</time></trkpt><trkpt lat="44.451998945685986" lon="9.011669979247278"><ele>131.0</ele><time>2026-05-02T08:52:55.002Z</time></trkpt><trkpt lat="44.45205750875758" lon="9.011575466943578"><ele>131.0</ele><time>2026-05-02T08:52:57.002Z</time></trkpt><trkpt lat="44.45211886863393" lon="9.011472185057757"><ele>131.0</ele><time>2026-05-02T08:52:59.002Z</time></trkpt><trkpt lat="44.4521831137551" lon="9.011394131637434"><ele>131.0</ele><time>2026-05-02T08:53:01.002Z</time></trkpt><trkpt lat="44.45224244827785" lon="9.01135635105369"><ele>132.0</ele><time>2026-05-02T08:53:03.002Z</time></trkpt><trkpt lat="44.452312672178444" lon="9.01130863669494"><ele>133.0</ele><time>2026-05-02T08:53:06Z</time></trkpt><trkpt lat="44.4523788734252" lon="9.011238212698986"><ele>134.0</ele><time>2026-05-02T08:53:09Z</time></trkpt><trkpt lat="44.452435967877484" lon="9.011171752288924"><ele>135.0</ele><time>2026-05-02T08:53:12Z</time></trkpt><trkpt lat="44.45248790933368" lon="9.011094331317539"><ele>136.0</ele><time>2026-05-02T08:53:16Z</time></trkpt><trkpt lat="44.4525137572358" lon="9.010994701858355"><ele>137.0</ele><time>2026-05-02T08:53:19Z</time></trkpt><trkpt lat="44.45251454116753" lon="9.010888361053391"><ele>135.0</ele><time>2026-05-02T08:53:23Z</time></trkpt><trkpt lat="44.452571865913384" lon="9.010796866180861"><ele>133.0</ele><time>2026-05-02T08:53:26Z</time></trkpt><trkpt lat="44.452618642669265" lon="9.010718111114013"><ele>131.0</ele><time>2026-05-02T08:53:28Z</time></trkpt><trkpt lat="44.45267059705112" lon="9.010641513123321"><ele>129.0</ele><time>2026-05-02T08:53:30Z</time></trkpt><trkpt lat="44.45271986069089" lon="9.010551410296685"><ele>126.99999999999999</ele><time>2026-05-02T08:53:32Z</time></trkpt><trkpt lat="44.4527731263507" lon="9.010473211672508"><ele>125.0</ele><time>2026-05-02T08:53:34Z</time></trkpt><trkpt lat="44.45282737720044" lon="9.010395771513416"><ele>124.99999999999999</ele><time>2026-05-02T08:53:36Z</time></trkpt><trkpt lat="44.4528901729936" lon="9.010306143553052"><ele>125.0</ele><time>2026-05-02T08:53:39Z</time></trkpt><trkpt lat="44.45295434584934" lon="9.010242292979338"><ele>125.0</ele><time>2026-05-02T08:53:42Z</time></trkpt><trkpt lat="44.453037250104096" lon="9.01026418215637"><ele>125.0</ele><time>2026-05-02T08:53:45Z</time></trkpt><trkpt lat="44.45310120332376" lon="9.010318901896623"><ele>124.99999999999999</ele><time>2026-05-02T08:53:47Z</time></trkpt><trkpt lat="44.45316125122023" lon="9.010370757192488"><ele>125.0</ele><time>2026-05-02T08:53:49Z</time></trkpt><trkpt lat="44.45324301066492" lon="9.010408188874147"><ele>125.28571428571428</ele><time>2026-05-02T08:53:52.001Z</time></trkpt><trkpt lat="44.45330693098992" lon="9.010396567497667"><ele>125.57142857142858</ele><time>2026-05-02T08:53:55.001Z</time></trkpt><trkpt lat="44.45338087173556" lon="9.010383094065057"><ele>125.85714285714286</ele><time>2026-05-02T08:53:58.001Z</time></trkpt><trkpt lat="44.45344318026358" lon="9.010413797796451"><ele>126.14285714285714</ele><time>2026-05-02T08:54:00.001Z</time></trkpt><trkpt lat="44.45351675076464" lon="9.010432704168833"><ele>126.42857142857142</ele><time>2026-05-02T08:54:03.001Z</time></trkpt><trkpt lat="44.453580656211365" lon="9.010448026877086"><ele>126.71428571428572</ele><time>2026-05-02T08:54:06.001Z</time></trkpt><trkpt lat="44.45364437642514" lon="9.010478586432319"><ele>127.0</ele><time>2026-05-02T08:54:09.001Z</time></trkpt><trkpt lat="44.45369632632901" lon="9.010555773844297"><ele>127.00000000000001</ele><time>2026-05-02T08:54:12.001Z</time></trkpt><trkpt lat="44.4537185466884" lon="9.010652199433768"><ele>127.0</ele><time>2026-05-02T08:54:16.001Z</time></trkpt><trkpt lat="44.45375227723769" lon="9.010759409530104"><ele>127.0</ele><time>2026-05-02T08:54:19.001Z</time></trkpt><trkpt lat="44.45380536414757" lon="9.010821566214407"><ele>127.0</ele><time>2026-05-02T08:54:22.001Z</time></trkpt><trkpt lat="44.45385812593261" lon="9.010887721112216"><ele>127.00000000000001</ele><time>2026-05-02T08:54:26.001Z</time></trkpt><trkpt lat="44.453900170630156" lon="9.01098001423173"><ele>127.0</ele><time>2026-05-02T08:54:29.001Z</time></trkpt><trkpt lat="44.453954618487984" lon="9.011059415535682"><ele>128.0</ele><time>2026-05-02T08:54:32.001Z</time></trkpt><trkpt lat="44.45401891175166" lon="9.011108254275038"><ele>129.0</ele><time>2026-05-02T08:54:35.002Z</time></trkpt><trkpt lat="44.454082915568904" lon="9.011159410358493"><ele>130.0</ele><time>2026-05-02T08:54:37.002Z</time></trkpt><trkpt lat="44.454156757590546" lon="9.011208021215936"><ele>131.0</ele><time>2026-05-02T08:54:40.002Z</time></trkpt><trkpt lat="44.454232082829904" lon="9.011219494296718"><ele>132.0</ele><time>2026-05-02T08:54:44.002Z</time></trkpt><trkpt lat="44.45431022124978" lon="9.011216207613975"><ele>133.0</ele><time>2026-05-02T08:54:48.002Z</time></trkpt><trkpt lat="44.454386087510215" lon="9.011230135102165"><ele>133.0</ele><time>2026-05-02T08:54:52.002Z</time></trkpt><trkpt lat="44.45445608678472" lon="9.011258842188829"><ele>133.0</ele><time>2026-05-02T08:54:56.002Z</time></trkpt><trkpt lat="44.45451982686019" lon="9.01124102643961"><ele>133.0</ele><time>2026-05-02T08:55:01.002Z</time></trkpt><trkpt lat="44.45458763512991" lon="9.011267197220883"><ele>133.0</ele><time>2026-05-02T08:55:13.999Z</time></trkpt><trkpt lat="44.45466054369342" lon="9.011196146966602"><ele>133.0</ele><time>2026-05-02T08:55:18.999Z</time></trkpt><trkpt lat="44.45471363039719" lon="9.011144132270548"><ele>133.0</ele><time>2026-05-02T08:55:21.999Z</time></trkpt><trkpt lat="44.4547651870524" lon="9.011068817742558"><ele>133.0</ele><time>2026-05-02T08:55:25.999Z</time></trkpt><trkpt lat="44.454814115348896" lon="9.01100388010078"><ele>133.28571428571428</ele><time>2026-05-02T08:55:28.999Z</time></trkpt><trkpt lat="44.45486960597861" lon="9.010920796545127"><ele>133.57142857142856</ele><time>2026-05-02T08:55:35Z</time></trkpt><trkpt lat="44.454941128811434" lon="9.010865011427951"><ele>133.85714285714286</ele><time>2026-05-02T08:55:39Z</time></trkpt><trkpt lat="44.455014481282845" lon="9.010860906179008"><ele>134.14285714285714</ele><time>2026-05-02T08:55:42Z</time></trkpt><trkpt lat="44.45508115587674" lon="9.01084323041831"><ele>134.42857142857142</ele><time>2026-05-02T08:55:44Z</time></trkpt><trkpt lat="44.45514699971447" lon="9.010811435404396"><ele>134.71428571428572</ele><time>2026-05-02T08:55:47Z</time></trkpt><trkpt lat="44.4552108615967" lon="9.010770896624171"><ele>135.0</ele><time>2026-05-02T08:55:51Z</time></trkpt><trkpt lat="44.45525898871712" lon="9.01069276040214"><ele>134.0</ele><time>2026-05-02T08:55:54Z</time></trkpt><trkpt lat="44.455303698712704" lon="9.010618950728064"><ele>133.0</ele><time>2026-05-02T08:55:57Z</time></trkpt><trkpt lat="44.45535432215652" lon="9.010535948627053"><ele>132.0</ele><time>2026-05-02T08:56:00Z</time></trkpt><trkpt lat="44.45541065973198" lon="9.010471321920624"><ele>131.0</ele><time>2026-05-02T08:56:03.001Z</time></trkpt><trkpt lat="44.455458179684555" lon="9.010401905235701"><ele>130.0</ele><time>2026-05-02T08:56:06.001Z</time></trkpt><trkpt lat="44.455510256591054" lon="9.010328119622452"><ele>129.0</ele><time>2026-05-02T08:56:08.001Z</time></trkpt><trkpt lat="44.455569458931386" lon="9.010238243295358"><ele>128.99999999999997</ele><time>2026-05-02T08:56:10.001Z</time></trkpt><trkpt lat="44.45561580185912" lon="9.01015524415402"><ele>129.0</ele><time>2026-05-02T08:56:12.001Z</time></trkpt><trkpt lat="44.455659391978095" lon="9.010083487217583"><ele>129.0</ele><time>2026-05-02T08:56:14.001Z</time></trkpt><trkpt lat="44.455716558275725" lon="9.009984223322654"><ele>129.0</ele><time>2026-05-02T08:56:17.001Z</time></trkpt><trkpt lat="44.45576092870173" lon="9.009891679794505"><ele>129.0</ele><time>2026-05-02T08:56:20.001Z</time></trkpt><trkpt lat="44.45574667575706" lon="9.009804172344804"><ele>128.99999999999997</ele><time>2026-05-02T08:56:22.001Z</time></trkpt><trkpt lat="44.45573040103342" lon="9.009708161360548"><ele>129.0</ele><time>2026-05-02T08:56:24.001Z</time></trkpt><trkpt lat="44.455714511508496" lon="9.009583051732507"><ele>130.83333333333334</ele><time>2026-05-02T08:56:27.001Z</time></trkpt><trkpt lat="44.45569308120045" lon="9.009478455867663"><ele>132.66666666666666</ele><time>2026-05-02T08:56:30.001Z</time></trkpt><trkpt lat="44.45570575313282" lon="9.009357793783996"><ele>134.5</ele><time>2026-05-02T08:56:42.002Z</time></trkpt><trkpt lat="44.455705976598274" lon="9.009265265641895"><ele>136.33333333333331</ele><time>2026-05-02T08:57:03.002Z</time></trkpt><trkpt lat="44.45571055178906" lon="9.009152240044614"><ele>138.16666666666666</ele><time>2026-05-02T08:57:08.002Z</time></trkpt><trkpt lat="44.45571851450257" lon="9.009054211953009"><ele>140.0</ele><time>2026-05-02T08:57:11.002Z</time></trkpt><trkpt lat="44.45567041630469" lon="9.008960199386026"><ele>141.57142857142858</ele><time>2026-05-02T08:57:16.002Z</time></trkpt><trkpt lat="44.45563108974482" lon="9.008868933160265"><ele>143.14285714285714</ele><time>2026-05-02T08:57:19.999Z</time></trkpt><trkpt lat="44.45561939873579" lon="9.00877832239348"><ele>144.71428571428572</ele><time>2026-05-02T08:57:22.999Z</time></trkpt><trkpt lat="44.45559936089178" lon="9.008688824340688"><ele>146.28571428571428</ele><time>2026-05-02T08:57:26.999Z</time></trkpt><trkpt lat="44.45557165977809" lon="9.00857928432154"><ele>147.85714285714286</ele><time>2026-05-02T08:57:29.999Z</time></trkpt><trkpt lat="44.455551293145945" lon="9.008481082485398"><ele>149.42857142857144</ele><time>2026-05-02T08:57:32.999Z</time></trkpt><trkpt lat="44.45553603520971" lon="9.008372595519887"><ele>151.0</ele><time>2026-05-02T08:57:35.999Z</time></trkpt><trkpt lat="44.45551954624611" lon="9.008248435217073"><ele>152.66666666666669</ele><time>2026-05-02T08:57:38.999Z</time></trkpt><trkpt lat="44.455492194872505" lon="9.00814800584994"><ele>154.33333333333334</ele><time>2026-05-02T08:57:43Z</time></trkpt><trkpt lat="44.45546659343335" lon="9.008043445952328"><ele>156.0</ele><time>2026-05-02T08:57:46Z</time></trkpt><trkpt lat="44.45544647303694" lon="9.007917619853622"><ele>157.66666666666666</ele><time>2026-05-02T08:57:49Z</time></trkpt><trkpt lat="44.455444748540934" lon="9.007809589505477"><ele>159.33333333333331</ele><time>2026-05-02T08:57:51Z</time></trkpt><trkpt lat="44.45545354137436" lon="9.00766991798898"><ele>161.0</ele><time>2026-05-02T08:57:53Z</time></trkpt><trkpt lat="44.455474853800425" lon="9.00757220241831"><ele>161.0</ele><time>2026-05-02T08:57:55Z</time></trkpt><trkpt lat="44.455505327630114" lon="9.007494211035157"><ele>161.0</ele><time>2026-05-02T08:57:57Z</time></trkpt><trkpt lat="44.45553474662839" lon="9.007403803940917"><ele>161.0</ele><time>2026-05-02T08:58:00Z</time></trkpt><trkpt lat="44.45558510993496" lon="9.00731465631264"><ele>161.0</ele><time>2026-05-02T08:58:03Z</time></trkpt><trkpt lat="44.45561704261164" lon="9.007230649137593"><ele>161.0</ele><time>2026-05-02T08:58:06.001Z</time></trkpt><trkpt lat="44.455627724512965" lon="9.007126904427022"><ele>161.0</ele><time>2026-05-02T08:58:18.001Z</time></trkpt><trkpt lat="44.455576236070065" lon="9.007064941685766"><ele>161.0</ele><time>2026-05-02T08:58:23.001Z</time></trkpt><trkpt lat="44.45551050923475" lon="9.007018826855177"><ele>158.5</ele><time>2026-05-02T08:58:26.001Z</time></trkpt><trkpt lat="44.45543540531649" lon="9.006992561827124"><ele>156.0</ele><time>2026-05-02T08:58:30.001Z</time></trkpt><trkpt lat="44.45536774955755" lon="9.007031273247652"><ele>153.5</ele><time>2026-05-02T08:58:32.001Z</time></trkpt><trkpt lat="44.455302707380376" lon="9.006996708027858"><ele>151.0</ele><time>2026-05-02T08:58:51.002Z</time></trkpt><trkpt lat="44.45522435627233" lon="9.007000397126983"><ele>148.5</ele><time>2026-05-02T08:58:54.002Z</time></trkpt><trkpt lat="44.45511895016237" lon="9.006996566726144"><ele>146.0</ele><time>2026-05-02T08:58:57.002Z</time></trkpt><trkpt lat="44.45505438454227" lon="9.006981690088756"><ele>146.0</ele><time>2026-05-02T08:58:59.002Z</time></trkpt><trkpt lat="44.454989799008295" lon="9.006934204107308"><ele>146.0</ele><time>2026-05-02T08:59:01.002Z</time></trkpt><trkpt lat="44.45492652081203" lon="9.006872493854445"><ele>146.0</ele><time>2026-05-02T08:59:03.002Z</time></trkpt><trkpt lat="44.45483317858455" lon="9.006827929250623"><ele>146.0</ele><time>2026-05-02T08:59:33.999Z</time></trkpt><trkpt lat="44.45476340273944" lon="9.00689975636402"><ele>146.0</ele><time>2026-05-02T08:59:36.999Z</time></trkpt><trkpt lat="44.45470497534941" lon="9.006949730605994"><ele>146.0</ele><time>2026-05-02T08:59:39.999Z</time></trkpt><trkpt lat="44.45462290751902" lon="9.006997350483624"><ele>145.0</ele><time>2026-05-02T08:59:42.999Z</time></trkpt><trkpt lat="44.45453132592843" lon="9.006947589057534"><ele>144.0</ele><time>2026-05-02T08:59:45.999Z</time></trkpt><trkpt lat="44.45444803469006" lon="9.006901657149847"><ele>143.0</ele><time>2026-05-02T08:59:48.999Z</time></trkpt><trkpt lat="44.45438376527462" lon="9.006863927044373"><ele>142.0</ele><time>2026-05-02T08:59:51Z</time></trkpt><trkpt lat="44.4543008076128" lon="9.0068288035296"><ele>141.0</ele><time>2026-05-02T08:59:54Z</time></trkpt><trkpt lat="44.45423506460697" lon="9.00680495982896"><ele>140.0</ele><time>2026-05-02T08:59:56Z</time></trkpt><trkpt lat="44.45415400132978" lon="9.006741254503762"><ele>140.0</ele><time>2026-05-02T08:59:59Z</time></trkpt><trkpt lat="44.45408917437617" lon="9.00681572003865"><ele>140.0</ele><time>2026-05-02T09:00:03Z</time></trkpt><trkpt lat="44.454044885633074" lon="9.006911882699361"><ele>140.0</ele><time>2026-05-02T09:00:07Z</time></trkpt><trkpt lat="44.45398259449647" lon="9.006948709393654"><ele>140.0</ele><time>2026-05-02T09:00:09Z</time></trkpt><trkpt lat="44.453906450315216" lon="9.006956132118303"><ele>140.0</ele><time>2026-05-02T09:00:12Z</time></trkpt><trkpt lat="44.453842051712904" lon="9.006966696235281"><ele>140.0</ele><time>2026-05-02T09:00:14.001Z</time></trkpt><trkpt lat="44.45375914266996" lon="9.006989531975773"><ele>140.0</ele><time>2026-05-02T09:00:17.001Z</time></trkpt><trkpt lat="44.453681753109024" lon="9.007021261232836"><ele>140.0</ele><time>2026-05-02T09:00:20.001Z</time></trkpt><trkpt lat="44.45360263909665" lon="9.0070556511938"><ele>140.0</ele><time>2026-05-02T09:00:23.001Z</time></trkpt><trkpt lat="44.453539158182785" lon="9.007053326830594"><ele>140.0</ele><time>2026-05-02T09:00:25.001Z</time></trkpt><trkpt lat="44.453452791107864" lon="9.007073075847591"><ele>140.0</ele><time>2026-05-02T09:00:28.001Z</time></trkpt><trkpt lat="44.45336948670754" lon="9.007011397108753"><ele>140.0</ele><time>2026-05-02T09:00:31.001Z</time></trkpt><trkpt lat="44.45329563992474" lon="9.00695142981725"><ele>140.0</ele><time>2026-05-02T09:00:34.001Z</time></trkpt><trkpt lat="44.45323662404777" lon="9.006892983394089"><ele>140.0</ele><time>2026-05-02T09:00:36.001Z</time></trkpt><trkpt lat="44.45318316507917" lon="9.00680726261394"><ele>140.0</ele><time>2026-05-02T09:00:38.001Z</time></trkpt><trkpt lat="44.453133252285525" lon="9.006699896275586"><ele>140.0</ele><time>2026-05-02T09:00:41.001Z</time></trkpt><trkpt lat="44.45311493878093" lon="9.006579747446242"><ele>140.0</ele><time>2026-05-02T09:00:44.001Z</time></trkpt><trkpt lat="44.453106152760824" lon="9.006459109821087"><ele>140.0</ele><time>2026-05-02T09:00:47.002Z</time></trkpt><trkpt lat="44.453050440995554" lon="9.006357661682323"><ele>139.83333333333331</ele><time>2026-05-02T09:00:50.002Z</time></trkpt><trkpt lat="44.45298574392878" lon="9.006263437816399"><ele>139.66666666666666</ele><time>2026-05-02T09:00:53.002Z</time></trkpt><trkpt lat="44.45293465460504" lon="9.006157650702114"><ele>139.5</ele><time>2026-05-02T09:00:56.002Z</time></trkpt><trkpt lat="44.452893796377886" lon="9.006067649720631"><ele>139.33333333333334</ele><time>2026-05-02T09:00:59.002Z</time></trkpt><trkpt lat="44.452885022135256" lon="9.005980016524791"><ele>139.16666666666669</ele><time>2026-05-02T09:01:01.002Z</time></trkpt><trkpt lat="44.452864001630346" lon="9.005887558318427"><ele>139.0</ele><time>2026-05-02T09:01:04.002Z</time></trkpt><trkpt lat="44.452844896818156" lon="9.005779394148076"><ele>139.0</ele><time>2026-05-02T09:01:08.002Z</time></trkpt><trkpt lat="44.45284151273656" lon="9.005672577910138"><ele>139.0</ele><time>2026-05-02T09:01:12.002Z</time></trkpt><trkpt lat="44.45282127143684" lon="9.005584502684231"><ele>139.0</ele><time>2026-05-02T09:01:16.002Z</time></trkpt><trkpt lat="44.45283324562105" lon="9.005496268235541"><ele>139.0</ele><time>2026-05-02T09:01:21.003Z</time></trkpt><trkpt lat="44.45280128410207" lon="9.005419660727323"><ele>139.0</ele><time>2026-05-02T09:01:26.003Z</time></trkpt><trkpt lat="44.45272584976177" lon="9.005364481958086"><ele>139.0</ele><time>2026-05-02T09:01:28.003Z</time></trkpt><trkpt lat="44.452654260578186" lon="9.005328032238857"><ele>139.0</ele><time>2026-05-02T09:01:29.998Z</time></trkpt><trkpt lat="44.452586049974244" lon="9.005274019293845"><ele>139.0</ele><time>2026-05-02T09:01:31.998Z</time></trkpt><trkpt lat="44.45253001785086" lon="9.00516288326875"><ele>139.0</ele><time>2026-05-02T09:01:33.998Z</time></trkpt><trkpt lat="44.45248031882307" lon="9.005033123244724"><ele>139.0</ele><time>2026-05-02T09:01:35.999Z</time></trkpt><trkpt lat="44.45243168193616" lon="9.004885063396623"><ele>139.0</ele><time>2026-05-02T09:01:37.999Z</time></trkpt><trkpt lat="44.45239181724988" lon="9.004758051211425"><ele>139.0</ele><time>2026-05-02T09:01:39.999Z</time></trkpt><trkpt lat="44.45235995829909" lon="9.004634558181689"><ele>139.5</ele><time>2026-05-02T09:01:41.999Z</time></trkpt><trkpt lat="44.452321692922986" lon="9.004560125256866"><ele>140.0</ele><time>2026-05-02T09:01:43.999Z</time></trkpt><trkpt lat="44.45228603122409" lon="9.004454019653386"><ele>140.5</ele><time>2026-05-02T09:01:46.999Z</time></trkpt><trkpt lat="44.45223004010579" lon="9.004371514214743"><ele>141.0</ele><time>2026-05-02T09:01:50Z</time></trkpt><trkpt lat="44.45214870662617" lon="9.00437635242992"><ele>141.5</ele><time>2026-05-02T09:01:53Z</time></trkpt><trkpt lat="44.45208044394612" lon="9.004324356802618"><ele>142.0</ele><time>2026-05-02T09:09:51.003Z</time></trkpt><trkpt lat="44.4520516449637" lon="9.004232807597578"><ele>142.42857142857142</ele><time>2026-05-02T09:09:55.999Z</time></trkpt><trkpt lat="44.452020308680765" lon="9.004152275306124"><ele>142.85714285714283</ele><time>2026-05-02T09:09:58.999Z</time></trkpt><trkpt lat="44.451984401462504" lon="9.004052162512021"><ele>143.28571428571428</ele><time>2026-05-02T09:10:03Z</time></trkpt><trkpt lat="44.45198279019624" lon="9.003947042420217"><ele>143.71428571428572</ele><time>2026-05-02T09:10:06Z</time></trkpt><trkpt lat="44.452002190303126" lon="9.003851870213625"><ele>144.14285714285717</ele><time>2026-05-02T09:10:09Z</time></trkpt><trkpt lat="44.45203943608009" lon="9.003770664405211"><ele>144.57142857142858</ele><time>2026-05-02T09:10:12Z</time></trkpt><trkpt lat="44.45209065883973" lon="9.00370787629838"><ele>145.0</ele><time>2026-05-02T09:10:15Z</time></trkpt><trkpt lat="44.4521678620025" lon="9.003676812777647"><ele>145.0</ele><time>2026-05-02T09:10:19Z</time></trkpt><trkpt lat="44.45224342669824" lon="9.00368308688131"><ele>145.0</ele><time>2026-05-02T09:10:23Z</time></trkpt><trkpt lat="44.452298728130515" lon="9.003734794251944"><ele>145.0</ele><time>2026-05-02T09:10:26.001Z</time></trkpt><trkpt lat="44.45234290660133" lon="9.003814115772812"><ele>145.0</ele><time>2026-05-02T09:10:30.001Z</time></trkpt><trkpt lat="44.45236688054961" lon="9.003910190008574"><ele>145.0</ele><time>2026-05-02T09:10:33.001Z</time></trkpt><trkpt lat="44.45239551919736" lon="9.004005867637359"><ele>145.0</ele><time>2026-05-02T09:10:37.001Z</time></trkpt><trkpt lat="44.45242440115751" lon="9.004085319277463"><ele>145.0</ele><time>2026-05-02T09:10:40.001Z</time></trkpt><trkpt lat="44.45245621291701" lon="9.004186504356955"><ele>144.5</ele><time>2026-05-02T09:10:43.001Z</time></trkpt><trkpt lat="44.452499316644996" lon="9.004273873801273"><ele>144.0</ele><time>2026-05-02T09:10:48.001Z</time></trkpt><trkpt lat="44.452522453142485" lon="9.004380533563566"><ele>143.5</ele><time>2026-05-02T09:10:50.001Z</time></trkpt><trkpt lat="44.45253210044834" lon="9.004470364993598"><ele>143.0</ele><time>2026-05-02T09:10:53.001Z</time></trkpt><trkpt lat="44.452558012455036" lon="9.004583030716825"><ele>142.5</ele><time>2026-05-02T09:10:56.002Z</time></trkpt><trkpt lat="44.45257735672267" lon="9.004679544644219"><ele>142.0</ele><time>2026-05-02T09:10:59.002Z</time></trkpt><trkpt lat="44.45260645310969" lon="9.004774251738224"><ele>142.0</ele><time>2026-05-02T09:11:02.002Z</time></trkpt><trkpt lat="44.45264308588888" lon="9.004881177733157"><ele>142.0</ele><time>2026-05-02T09:11:05.002Z</time></trkpt><trkpt lat="44.452682230538585" lon="9.00496535462811"><ele>142.0</ele><time>2026-05-02T09:11:08.002Z</time></trkpt><trkpt lat="44.45272716053057" lon="9.005051427654728"><ele>142.0</ele><time>2026-05-02T09:11:11.002Z</time></trkpt><trkpt lat="44.45279142219747" lon="9.005154140398723"><ele>142.0</ele><time>2026-05-02T09:11:14.002Z</time></trkpt><trkpt lat="44.4528520241427" lon="9.005251791567662"><ele>142.0</ele><time>2026-05-02T09:11:17.002Z</time></trkpt><trkpt lat="44.45291354863032" lon="9.005353422992552"><ele>143.14285714285714</ele><time>2026-05-02T09:11:20.002Z</time></trkpt><trkpt lat="44.45295815629088" lon="9.005420780041014"><ele>144.28571428571428</ele><time>2026-05-02T09:11:22.002Z</time></trkpt><trkpt lat="44.45301276556208" lon="9.005499800950078"><ele>145.42857142857142</ele><time>2026-05-02T09:11:25.002Z</time></trkpt><trkpt lat="44.4530689693516" lon="9.005584323853384"><ele>146.57142857142856</ele><time>2026-05-02T09:11:28.002Z</time></trkpt><trkpt lat="44.45311566500911" lon="9.00566708072227"><ele>147.71428571428572</ele><time>2026-05-02T09:11:31.003Z</time></trkpt><trkpt lat="44.45316162792606" lon="9.005749755096188"><ele>148.85714285714283</ele><time>2026-05-02T09:11:34.003Z</time></trkpt><trkpt lat="44.45321259980413" lon="9.005821692391201"><ele>150.0</ele><time>2026-05-02T09:11:37.003Z</time></trkpt><trkpt lat="44.45326431130349" lon="9.00589411523784"><ele>149.99999999999997</ele><time>2026-05-02T09:11:40.003Z</time></trkpt><trkpt lat="44.45330793633783" lon="9.005966868013054"><ele>150.0</ele><time>2026-05-02T09:11:43.003Z</time></trkpt><trkpt lat="44.4533504491395" lon="9.006046120657308"><ele>150.0</ele><time>2026-05-02T09:11:46.003Z</time></trkpt><trkpt lat="44.45339502269017" lon="9.006126368024207"><ele>150.0</ele><time>2026-05-02T09:11:49.003Z</time></trkpt><trkpt lat="44.45344282019944" lon="9.006194313599977"><ele>150.0</ele><time>2026-05-02T09:11:52.003Z</time></trkpt><trkpt lat="44.45349747038021" lon="9.006255510510048"><ele>149.99999999999997</ele><time>2026-05-02T09:11:55.003Z</time></trkpt><trkpt lat="44.453562462306095" lon="9.006300603990836"><ele>150.0</ele><time>2026-05-02T09:11:58.003Z</time></trkpt><trkpt lat="44.453630639202764" lon="9.006310402334057"><ele>149.99999999999997</ele><time>2026-05-02T09:12:00.999Z</time></trkpt><trkpt lat="44.453698000817056" lon="9.006312167447529"><ele>150.0</ele><time>2026-05-02T09:12:03.999Z</time></trkpt><trkpt lat="44.45376612467546" lon="9.006299515235444"><ele>150.0</ele><time>2026-05-02T09:12:06.999Z</time></trkpt><trkpt lat="44.45382925140726" lon="9.006279831907198"><ele>150.0</ele><time>2026-05-02T09:12:09.999Z</time></trkpt><trkpt lat="44.45390488661544" lon="9.006239228394257"><ele>150.0</ele><time>2026-05-02T09:12:13.999Z</time></trkpt><trkpt lat="44.4539611678482" lon="9.006181880012647"><ele>149.99999999999997</ele><time>2026-05-02T09:12:18Z</time></trkpt><trkpt lat="44.454009710847224" lon="9.006105380725028"><ele>150.0</ele><time>2026-05-02T09:12:23Z</time></trkpt><trkpt lat="44.454071489723646" lon="9.006038704817941"><ele>151.0</ele><time>2026-05-02T09:12:27Z</time></trkpt><trkpt lat="44.45413863429809" lon="9.005973677822809"><ele>152.0</ele><time>2026-05-02T09:12:31Z</time></trkpt><trkpt lat="44.45419763898766" lon="9.005901637662463"><ele>153.0</ele><time>2026-05-02T09:12:35Z</time></trkpt><trkpt lat="44.454233398683755" lon="9.00581054620057"><ele>154.0</ele><time>2026-05-02T09:12:39.001Z</time></trkpt><trkpt lat="44.45422424843247" lon="9.00570644107301"><ele>155.0</ele><time>2026-05-02T09:12:43.001Z</time></trkpt><trkpt lat="44.454219606698686" lon="9.005614031123178"><ele>156.0</ele><time>2026-05-02T09:12:47.001Z</time></trkpt><trkpt lat="44.454201580274514" lon="9.005511816608394"><ele>157.0</ele><time>2026-05-02T09:12:52.001Z</time></trkpt><trkpt lat="44.45415077077884" lon="9.005428507061339"><ele>158.0</ele><time>2026-05-02T09:12:56.001Z</time></trkpt><trkpt lat="44.454103239699236" lon="9.005344333550164"><ele>159.0</ele><time>2026-05-02T09:13:01.001Z</time></trkpt><trkpt lat="44.454061000774765" lon="9.005250747123426"><ele>160.0</ele><time>2026-05-02T09:13:05.002Z</time></trkpt><trkpt lat="44.454084137124944" lon="9.005165660519735"><ele>161.0</ele><time>2026-05-02T09:13:09.002Z</time></trkpt><trkpt lat="44.45401256312565" lon="9.005099331172248"><ele>162.0</ele><time>2026-05-02T09:13:12.002Z</time></trkpt><trkpt lat="44.45395431658821" lon="9.005056607012333"><ele>161.66666666666666</ele><time>2026-05-02T09:13:14.002Z</time></trkpt><trkpt lat="44.45388993819112" lon="9.00498713420848"><ele>161.33333333333334</ele><time>2026-05-02T09:13:18.002Z</time></trkpt><trkpt lat="44.453854527545545" lon="9.004887412125557"><ele>161.0</ele><time>2026-05-02T09:13:21.002Z</time></trkpt><trkpt lat="44.45381542734172" lon="9.004803382369797"><ele>160.66666666666669</ele><time>2026-05-02T09:13:24.002Z</time></trkpt><trkpt lat="44.45377540300508" lon="9.004718566226277"><ele>160.33333333333334</ele><time>2026-05-02T09:13:28.002Z</time></trkpt><trkpt lat="44.453783995503954" lon="9.004610403302555"><ele>160.0</ele><time>2026-05-02T09:13:31.002Z</time></trkpt><trkpt lat="44.453739048206046" lon="9.004536873338152"><ele>160.0</ele><time>2026-05-02T09:13:34.002Z</time></trkpt><trkpt lat="44.4537025684973" lon="9.004452737648293"><ele>160.0</ele><time>2026-05-02T09:13:36.002Z</time></trkpt><trkpt lat="44.453663059562565" lon="9.004346775558549"><ele>160.0</ele><time>2026-05-02T09:13:40.003Z</time></trkpt><trkpt lat="44.45366150849249" lon="9.004240602564995"><ele>160.0</ele><time>2026-05-02T09:13:43.003Z</time></trkpt><trkpt lat="44.453666988019044" lon="9.004137660166489"><ele>160.0</ele><time>2026-05-02T09:13:46.003Z</time></trkpt><trkpt lat="44.45370461475922" lon="9.004045655248854"><ele>160.0</ele><time>2026-05-02T09:13:49.003Z</time></trkpt><trkpt lat="44.453750941809226" lon="9.003971682716145"><ele>161.0</ele><time>2026-05-02T09:13:52.003Z</time></trkpt><trkpt lat="44.453752125691615" lon="9.003881867299484"><ele>162.0</ele><time>2026-05-02T09:13:56.003Z</time></trkpt><trkpt lat="44.45373650239885" lon="9.003772688485522"><ele>163.0</ele><time>2026-05-02T09:14:02.003Z</time></trkpt><trkpt lat="44.45371043801082" lon="9.00367498570756"><ele>164.0</ele><time>2026-05-02T09:14:06.998Z</time></trkpt><trkpt lat="44.4537030441078" lon="9.003563064221332"><ele>165.0</ele><time>2026-05-02T09:14:10.999Z</time></trkpt><trkpt lat="44.45367790315816" lon="9.003470937075864"><ele>166.0</ele><time>2026-05-02T09:14:14.999Z</time></trkpt><trkpt lat="44.45366708855043" lon="9.003360899045623"><ele>167.0</ele><time>2026-05-02T09:14:18.999Z</time></trkpt><trkpt lat="44.45366502842651" lon="9.00326660043261"><ele>168.33333333333331</ele><time>2026-05-02T09:14:22.999Z</time></trkpt><trkpt lat="44.453647219945616" lon="9.003161338828113"><ele>169.66666666666666</ele><time>2026-05-02T09:14:28Z</time></trkpt><trkpt lat="44.453601485698435" lon="9.00307116564233"><ele>171.0</ele><time>2026-05-02T09:14:32Z</time></trkpt><trkpt lat="44.453539847524674" lon="9.00299918418306"><ele>172.33333333333334</ele><time>2026-05-02T09:14:36Z</time></trkpt><trkpt lat="44.4534840529775" lon="9.002921561071236"><ele>173.66666666666669</ele><time>2026-05-02T09:14:39Z</time></trkpt><trkpt lat="44.45345101204659" lon="9.002834120851514"><ele>175.0</ele><time>2026-05-02T09:14:42Z</time></trkpt><trkpt lat="44.45342368570318" lon="9.002743339287534"><ele>175.0</ele><time>2026-05-02T09:14:45.001Z</time></trkpt><trkpt lat="44.45338350028797" lon="9.002671014033206"><ele>175.0</ele><time>2026-05-02T09:14:48.001Z</time></trkpt><trkpt lat="44.45335947061193" lon="9.00257107430856"><ele>175.0</ele><time>2026-05-02T09:14:52.001Z</time></trkpt><trkpt lat="44.45333314711999" lon="9.002473665159025"><ele>175.0</ele><time>2026-05-02T09:14:56.001Z</time></trkpt><trkpt lat="44.453306691856504" lon="9.002352016861616"><ele>175.0</ele><time>2026-05-02T09:15:00.001Z</time></trkpt><trkpt lat="44.45327779836896" lon="9.00224987535312"><ele>175.0</ele><time>2026-05-02T09:15:04.001Z</time></trkpt><trkpt lat="44.453255972893416" lon="9.002155827107519"><ele>176.66666666666669</ele><time>2026-05-02T09:15:08.001Z</time></trkpt><trkpt lat="44.45324125802125" lon="9.002045326655443"><ele>178.33333333333334</ele><time>2026-05-02T09:15:12.002Z</time></trkpt><trkpt lat="44.45322534835157" lon="9.001945313123617"><ele>180.0</ele><time>2026-05-02T09:15:16.002Z</time></trkpt><trkpt lat="44.45321531516279" lon="9.00183931009547"><ele>181.66666666666666</ele><time>2026-05-02T09:15:19.002Z</time></trkpt><trkpt lat="44.453204401600594" lon="9.001719591285333"><ele>183.33333333333331</ele><time>2026-05-02T09:15:22.002Z</time></trkpt><trkpt lat="44.45315782325852" lon="9.001575202958739"><ele>185.0</ele><time>2026-05-02T09:15:24.002Z</time></trkpt><trkpt lat="44.45313367528495" lon="9.001478630253745"><ele>185.0</ele><time>2026-05-02T09:15:26.002Z</time></trkpt><trkpt lat="44.45310725459305" lon="9.001308866689824"><ele>185.0</ele><time>2026-05-02T09:15:28.002Z</time></trkpt><trkpt lat="44.45308846191545" lon="9.001209563104883"><ele>185.0</ele><time>2026-05-02T09:15:29.002Z</time></trkpt><trkpt lat="44.453132859755115" lon="9.001022148623223"><ele>185.0</ele><time>2026-05-02T09:15:31.002Z</time></trkpt><trkpt lat="44.45318760421565" lon="9.000927939508072"><ele>185.0</ele><time>2026-05-02T09:15:32.002Z</time></trkpt><trkpt lat="44.453235776992315" lon="9.000861509873978"><ele>183.83333333333331</ele><time>2026-05-02T09:15:33.002Z</time></trkpt><trkpt lat="44.45324827709839" lon="9.000736807609124"><ele>182.66666666666666</ele><time>2026-05-02T09:15:34.002Z</time></trkpt><trkpt lat="44.45323531268687" lon="9.000584726465982"><ele>181.5</ele><time>2026-05-02T09:15:36.002Z</time></trkpt><trkpt lat="44.45323339675178" lon="9.000484006995642"><ele>180.33333333333334</ele><time>2026-05-02T09:15:38.002Z</time></trkpt><trkpt lat="44.45321912223163" lon="9.000373774668542"><ele>179.16666666666669</ele><time>2026-05-02T09:15:42.002Z</time></trkpt><trkpt lat="44.45321892926563" lon="9.000280190173006"><ele>178.0</ele><time>2026-05-02T09:15:44.003Z</time></trkpt><trkpt lat="44.453236167471715" lon="9.000168362011301"><ele>177.99999999999997</ele><time>2026-05-02T09:15:47.003Z</time></trkpt><trkpt lat="44.45324521829507" lon="9.000057414803566"><ele>178.0</ele><time>2026-05-02T09:15:50.003Z</time></trkpt><trkpt lat="44.45324366891399" lon="8.99996153427522"><ele>178.0</ele><time>2026-05-02T09:15:55.003Z</time></trkpt><trkpt lat="44.453207550487384" lon="8.999878609822588"><ele>178.0</ele><time>2026-05-02T09:16:02.003Z</time></trkpt><trkpt lat="44.45314038068341" lon="8.99986883366004"><ele>178.0</ele><time>2026-05-02T09:16:07.003Z</time></trkpt><trkpt lat="44.4530794349818" lon="8.999844286989017"><ele>177.99999999999997</ele><time>2026-05-02T09:16:10.003Z</time></trkpt><trkpt lat="44.453008354414365" lon="8.999812037132834"><ele>178.0</ele><time>2026-05-02T09:16:12.999Z</time></trkpt><trkpt lat="44.45294418538351" lon="8.999751065821867"><ele>175.33333333333334</ele><time>2026-05-02T09:16:15.999Z</time></trkpt><trkpt lat="44.45289678739704" lon="8.999660032223023"><ele>172.66666666666669</ele><time>2026-05-02T09:16:18.999Z</time></trkpt><trkpt lat="44.452855860854505" lon="8.99955940496446"><ele>170.0</ele><time>2026-05-02T09:16:21.999Z</time></trkpt><trkpt lat="44.452840272615454" lon="8.999444947087705"><ele>167.33333333333334</ele><time>2026-05-02T09:16:24.999Z</time></trkpt><trkpt lat="44.452830614958195" lon="8.999355377923806"><ele>164.66666666666666</ele><time>2026-05-02T09:16:26.999Z</time></trkpt><trkpt lat="44.452815175043646" lon="8.999220676966821"><ele>162.0</ele><time>2026-05-02T09:16:30Z</time></trkpt><trkpt lat="44.452808044253686" lon="8.999131833197627"><ele>162.0</ele><time>2026-05-02T09:16:32Z</time></trkpt><trkpt lat="44.452815341378276" lon="8.999039866103601"><ele>162.0</ele><time>2026-05-02T09:16:34Z</time></trkpt><trkpt lat="44.45284026658748" lon="8.998918889598695"><ele>162.0</ele><time>2026-05-02T09:16:37Z</time></trkpt><trkpt lat="44.45286642909232" lon="8.998827979378987"><ele>162.0</ele><time>2026-05-02T09:16:39Z</time></trkpt><trkpt lat="44.452884100652994" lon="8.998738576846492"><ele>162.0</ele><time>2026-05-02T09:16:41Z</time></trkpt><trkpt lat="44.452885832366334" lon="8.998605650810815"><ele>162.0</ele><time>2026-05-02T09:16:44Z</time></trkpt><trkpt lat="44.452889454742675" lon="8.99848040167813"><ele>162.0</ele><time>2026-05-02T09:16:47Z</time></trkpt><trkpt lat="44.452888407874816" lon="8.998391532032658"><ele>162.0</ele><time>2026-05-02T09:16:50.001Z</time></trkpt><trkpt lat="44.45288326045901" lon="8.998283327559012"><ele>162.0</ele><time>2026-05-02T09:16:56.001Z</time></trkpt><trkpt lat="44.45291912464773" lon="8.998179515320823"><ele>162.0</ele><time>2026-05-02T09:17:36.002Z</time></trkpt><trkpt lat="44.45288068835397" lon="8.998103084713238"><ele>162.0</ele><time>2026-05-02T09:18:10.003Z</time></trkpt><trkpt lat="44.45292079151852" lon="8.998018367911373"><ele>162.0</ele><time>2026-05-02T09:18:12.003Z</time></trkpt><trkpt lat="44.452973541151856" lon="8.9979452575306"><ele>162.0</ele><time>2026-05-02T09:18:14.003Z</time></trkpt><trkpt lat="44.45302796553523" lon="8.997878357233391"><ele>162.83333333333334</ele><time>2026-05-02T09:18:16.003Z</time></trkpt><trkpt lat="44.45308706595084" lon="8.997775988577413"><ele>163.66666666666666</ele><time>2026-05-02T09:18:17.999Z</time></trkpt><trkpt lat="44.453110512934146" lon="8.997658565282622"><ele>164.5</ele><time>2026-05-02T09:18:20.999Z</time></trkpt><trkpt lat="44.45316525228313" lon="8.99757405783087"><ele>165.33333333333331</ele><time>2026-05-02T09:18:22.999Z</time></trkpt><trkpt lat="44.45323196057984" lon="8.99749100704177"><ele>166.16666666666666</ele><time>2026-05-02T09:18:25Z</time></trkpt><trkpt lat="44.45325675336551" lon="8.997406535656806"><ele>167.0</ele><time>2026-05-02T09:18:27Z</time></trkpt><trkpt lat="44.453275721972034" lon="8.997307503548253"><ele>167.0</ele><time>2026-05-02T09:18:30Z</time></trkpt><trkpt lat="44.4532884100198" lon="8.99721338774863"><ele>167.0</ele><time>2026-05-02T09:18:33Z</time></trkpt><trkpt lat="44.45333276793581" lon="8.997128813949685"><ele>167.0</ele><time>2026-05-02T09:18:36Z</time></trkpt><trkpt lat="44.453378762500776" lon="8.99704784383112"><ele>167.0</ele><time>2026-05-02T09:18:39Z</time></trkpt><trkpt lat="44.4534567344747" lon="8.996990415006701"><ele>167.0</ele><time>2026-05-02T09:18:44Z</time></trkpt><trkpt lat="44.45350199401046" lon="8.996891754505889"><ele>167.0</ele><time>2026-05-02T09:18:47Z</time></trkpt><trkpt lat="44.45347036469784" lon="8.996770867475504"><ele>167.0</ele><time>2026-05-02T09:18:50Z</time></trkpt><trkpt lat="44.453474463831135" lon="8.996675738191433"><ele>167.0</ele><time>2026-05-02T09:18:52.001Z</time></trkpt><trkpt lat="44.45345401604263" lon="8.99656697667718"><ele>167.0</ele><time>2026-05-02T09:18:54.001Z</time></trkpt><trkpt lat="44.45344988726085" lon="8.996427353724664"><ele>167.0</ele><time>2026-05-02T09:18:56.001Z</time></trkpt><trkpt lat="44.45346056640575" lon="8.996311945715926"><ele>167.0</ele><time>2026-05-02T09:18:58.001Z</time></trkpt><trkpt lat="44.453468449337414" lon="8.996201765790216"><ele>167.0</ele><time>2026-05-02T09:19:00.001Z</time></trkpt><trkpt lat="44.45348849497106" lon="8.996104746329959"><ele>165.16666666666666</ele><time>2026-05-02T09:19:02.001Z</time></trkpt><trkpt lat="44.45351236726493" lon="8.995980577512015"><ele>163.33333333333331</ele><time>2026-05-02T09:19:05.001Z</time></trkpt><trkpt lat="44.45353833274967" lon="8.995895588578923"><ele>161.5</ele><time>2026-05-02T09:19:07.001Z</time></trkpt><trkpt lat="44.45357055589937" lon="8.995788939802903"><ele>159.66666666666666</ele><time>2026-05-02T09:19:10.001Z</time></trkpt><trkpt lat="44.453595101820916" lon="8.99568290644651"><ele>157.83333333333334</ele><time>2026-05-02T09:19:13.001Z</time></trkpt><trkpt lat="44.453614214910615" lon="8.995563815985074"><ele>156.0</ele><time>2026-05-02T09:19:16.001Z</time></trkpt><trkpt lat="44.45361998859162" lon="8.9954463615143"><ele>156.0</ele><time>2026-05-02T09:19:19.001Z</time></trkpt><trkpt lat="44.45362509682283" lon="8.995343097456072"><ele>156.0</ele><time>2026-05-02T09:19:22.002Z</time></trkpt><trkpt lat="44.45362703560742" lon="8.995232951080558"><ele>156.0</ele><time>2026-05-02T09:19:25.002Z</time></trkpt><trkpt lat="44.4536615171734" lon="8.995135328532838"><ele>156.0</ele><time>2026-05-02T09:19:28.002Z</time></trkpt><trkpt lat="44.45358807282487" lon="8.995099931243917"><ele>156.0</ele><time>2026-05-02T09:19:41.002Z</time></trkpt><trkpt lat="44.453511797369494" lon="8.995105048017772"><ele>156.0</ele><time>2026-05-02T09:19:44.002Z</time></trkpt><trkpt lat="44.45343104987936" lon="8.995107465492344"><ele>156.0</ele><time>2026-05-02T09:19:47.002Z</time></trkpt><trkpt lat="44.453367717674574" lon="8.995119150150561"><ele>156.0</ele><time>2026-05-02T09:19:49.002Z</time></trkpt><trkpt lat="44.45327352847792" lon="8.995112027859449"><ele>156.0</ele><time>2026-05-02T09:19:52.002Z</time></trkpt><trkpt lat="44.45320774003672" lon="8.995114862957902"><ele>156.0</ele><time>2026-05-02T09:19:54.002Z</time></trkpt><trkpt lat="44.453135399509456" lon="8.995120946963581"><ele>156.0</ele><time>2026-05-02T09:19:57.003Z</time></trkpt><trkpt lat="44.45305336295254" lon="8.995126800202469"><ele>156.0</ele><time>2026-05-02T09:20:00.003Z</time></trkpt><trkpt lat="44.45297901487257" lon="8.995119443033058"><ele>152.5</ele><time>2026-05-02T09:20:02.003Z</time></trkpt><trkpt lat="44.4529065991537" lon="8.99513252414431"><ele>149.0</ele><time>2026-05-02T09:20:05.003Z</time></trkpt><trkpt lat="44.452825261509524" lon="8.995147577854699"><ele>145.5</ele><time>2026-05-02T09:20:08.003Z</time></trkpt><trkpt lat="44.45276180651379" lon="8.995118194843625"><ele>142.0</ele><time>2026-05-02T09:20:11.003Z</time></trkpt><trkpt lat="44.45268269526853" lon="8.995119525688605"><ele>138.5</ele><time>2026-05-02T09:20:14.003Z</time></trkpt><trkpt lat="44.45259524317076" lon="8.995102427295325"><ele>135.0</ele><time>2026-05-02T09:20:17.003Z</time></trkpt><trkpt lat="44.45253057223697" lon="8.995052779066114"><ele>135.0</ele><time>2026-05-02T09:20:20.003Z</time></trkpt><trkpt lat="44.45245363981266" lon="8.995038957096677"><ele>135.0</ele><time>2026-05-02T09:20:23.999Z</time></trkpt><trkpt lat="44.45238360662543" lon="8.995044609628852"><ele>135.0</ele><time>2026-05-02T09:20:27.999Z</time></trkpt><trkpt lat="44.45231193127739" lon="8.995062835034581"><ele>135.0</ele><time>2026-05-02T09:20:32.999Z</time></trkpt><trkpt lat="44.452248751666424" lon="8.994999332150755"><ele>135.0</ele><time>2026-05-02T09:20:36Z</time></trkpt><trkpt lat="44.452189443777286" lon="8.994936532683504"><ele>135.0</ele><time>2026-05-02T09:20:39Z</time></trkpt><trkpt lat="44.45210465339172" lon="8.99486689193566"><ele>132.0</ele><time>2026-05-02T09:20:42Z</time></trkpt><trkpt lat="44.452060974245846" lon="8.994787563733741"><ele>129.0</ele><time>2026-05-02T09:20:44Z</time></trkpt><trkpt lat="44.452032505568894" lon="8.994694328275738"><ele>126.0</ele><time>2026-05-02T09:20:46Z</time></trkpt><trkpt lat="44.45201464790537" lon="8.994604231018982"><ele>123.0</ele><time>2026-05-02T09:20:48Z</time></trkpt><trkpt lat="44.45198482357397" lon="8.994519065594487"><ele>120.0</ele><time>2026-05-02T09:20:50Z</time></trkpt><trkpt lat="44.45203183647359" lon="8.994397658275819"><ele>117.0</ele><time>2026-05-02T09:20:53Z</time></trkpt><trkpt lat="44.4521030644697" lon="8.99435975827772"><ele>121.0</ele><time>2026-05-02T09:20:56Z</time></trkpt><trkpt lat="44.45219553051865" lon="8.994359773070435"><ele>125.0</ele><time>2026-05-02T09:20:59.001Z</time></trkpt><trkpt lat="44.4522854304352" lon="8.994343943324832"><ele>129.0</ele><time>2026-05-02T09:21:02.001Z</time></trkpt><trkpt lat="44.45236491745198" lon="8.994361439059357"><ele>133.0</ele><time>2026-05-02T09:21:05.001Z</time></trkpt><trkpt lat="44.45243870989251" lon="8.994357611235852"><ele>137.0</ele><time>2026-05-02T09:21:09.001Z</time></trkpt><trkpt lat="44.4525050397813" lon="8.994334214615638"><ele>141.0</ele><time>2026-05-02T09:21:12.001Z</time></trkpt><trkpt lat="44.45259080468342" lon="8.994282780596375"><ele>141.0</ele><time>2026-05-02T09:21:15.001Z</time></trkpt><trkpt lat="44.452656713039225" lon="8.99428228756841"><ele>141.0</ele><time>2026-05-02T09:21:17.001Z</time></trkpt><trkpt lat="44.45273767635092" lon="8.994292323274674"><ele>141.0</ele><time>2026-05-02T09:21:19.001Z</time></trkpt><trkpt lat="44.45280298848357" lon="8.994248477231464"><ele>141.0</ele><time>2026-05-02T09:21:22.001Z</time></trkpt><trkpt lat="44.452885621244505" lon="8.994206379098364"><ele>141.0</ele><time>2026-05-02T09:21:24.001Z</time></trkpt><trkpt lat="44.45296002246792" lon="8.99417672176675"><ele>141.0</ele><time>2026-05-02T09:21:26.001Z</time></trkpt><trkpt lat="44.45302295856075" lon="8.994161875500982"><ele>141.0</ele><time>2026-05-02T09:21:28.002Z</time></trkpt><trkpt lat="44.453104106316474" lon="8.994120194118201"><ele>140.83333333333334</ele><time>2026-05-02T09:21:31.002Z</time></trkpt><trkpt lat="44.453183975358726" lon="8.994078065433431"><ele>140.66666666666666</ele><time>2026-05-02T09:21:33.002Z</time></trkpt><trkpt lat="44.45324372398944" lon="8.994018277683796"><ele>140.5</ele><time>2026-05-02T09:21:35.002Z</time></trkpt><trkpt lat="44.45331777050315" lon="8.99396489884513"><ele>140.33333333333331</ele><time>2026-05-02T09:21:38.002Z</time></trkpt><trkpt lat="44.45337868016528" lon="8.99391028061147"><ele>140.16666666666666</ele><time>2026-05-02T09:21:41.002Z</time></trkpt><trkpt lat="44.453457256791175" lon="8.993858392902068"><ele>140.0</ele><time>2026-05-02T09:21:44.002Z</time></trkpt><trkpt lat="44.45351117021901" lon="8.99381086095555"><ele>140.0</ele><time>2026-05-02T09:21:46.002Z</time></trkpt><trkpt lat="44.453570955591125" lon="8.993782576771604"><ele>140.0</ele><time>2026-05-02T09:21:49.002Z</time></trkpt><trkpt lat="44.4536427770068" lon="8.99377142809335"><ele>140.0</ele><time>2026-05-02T09:21:52.002Z</time></trkpt><trkpt lat="44.45371577379499" lon="8.993762761868696"><ele>140.0</ele><time>2026-05-02T09:21:55.002Z</time></trkpt><trkpt lat="44.45378737114032" lon="8.993775722411952"><ele>140.0</ele><time>2026-05-02T09:21:58.002Z</time></trkpt><trkpt lat="44.45382098216364" lon="8.99367940818811"><ele>140.0</ele><time>2026-05-02T09:22:04.003Z</time></trkpt><trkpt lat="44.45379280678007" lon="8.993589793465768"><ele>140.0</ele><time>2026-05-02T09:22:11.003Z</time></trkpt><trkpt lat="44.453735809854564" lon="8.993436784423134"><ele>140.0</ele><time>2026-05-02T09:22:48Z</time></trkpt><trkpt lat="44.45371546728628" lon="8.9933473112473"><ele>140.0</ele><time>2026-05-02T09:23:06.001Z</time></trkpt><trkpt lat="44.45365608026031" lon="8.99329642639513"><ele>140.0</ele><time>2026-05-02T09:23:27.001Z</time></trkpt><trkpt lat="44.453643588026836" lon="8.99319890737287"><ele>140.0</ele><time>2026-05-02T09:23:36.002Z</time></trkpt><trkpt lat="44.453682264051515" lon="8.993056981728376"><ele>140.0</ele><time>2026-05-02T09:23:51.002Z</time></trkpt><trkpt lat="44.453749925515275" lon="8.993008754216891"><ele>140.0</ele><time>2026-05-02T09:23:59.002Z</time></trkpt><trkpt lat="44.45382015747659" lon="8.99296050452252"><ele>140.14285714285714</ele><time>2026-05-02T09:24:16.003Z</time></trkpt><trkpt lat="44.45389127133729" lon="8.992986581841729"><ele>140.28571428571428</ele><time>2026-05-02T09:24:27.003Z</time></trkpt><trkpt lat="44.45391549968372" lon="8.992893534251209"><ele>140.42857142857144</ele><time>2026-05-02T09:25:16.001Z</time></trkpt><trkpt lat="44.453943720212486" lon="8.992813444825357"><ele>140.57142857142856</ele><time>2026-05-02T09:25:25.001Z</time></trkpt><trkpt lat="44.45395566261671" lon="8.992725868838079"><ele>140.71428571428572</ele><time>2026-05-02T09:25:29.001Z</time></trkpt><trkpt lat="44.45399963385784" lon="8.992646626361504"><ele>140.85714285714286</ele><time>2026-05-02T09:25:33.001Z</time></trkpt><trkpt lat="44.45401365657388" lon="8.99256023502891"><ele>141.0</ele><time>2026-05-02T09:25:36.001Z</time></trkpt><trkpt lat="44.45401214566001" lon="8.992471712725344"><ele>141.0</ele><time>2026-05-02T09:25:40.001Z</time></trkpt><trkpt lat="44.45402363736636" lon="8.992364795702843"><ele>141.0</ele><time>2026-05-02T09:25:43.002Z</time></trkpt><trkpt lat="44.45403734606721" lon="8.992245037906578"><ele>141.0</ele><time>2026-05-02T09:25:48.002Z</time></trkpt><trkpt lat="44.45406486469691" lon="8.992131351255559"><ele>141.0</ele><time>2026-05-02T09:25:51.002Z</time></trkpt><trkpt lat="44.45408917406626" lon="8.992018898218934"><ele>141.0</ele><time>2026-05-02T09:25:54.002Z</time></trkpt><trkpt lat="44.4541326732596" lon="8.991927465315282"><ele>141.0</ele><time>2026-05-02T09:25:57.002Z</time></trkpt><trkpt lat="44.45419021535883" lon="8.991816700416837"><ele>141.0</ele><time>2026-05-02T09:26:00.002Z</time></trkpt><trkpt lat="44.45424760512644" lon="8.991764557247746"><ele>141.0</ele><time>2026-05-02T09:26:02.002Z</time></trkpt><trkpt lat="44.454325427381875" lon="8.991746353432388"><ele>141.0</ele><time>2026-05-02T09:26:05.002Z</time></trkpt><trkpt lat="44.45439412903987" lon="8.991754223050316"><ele>141.0</ele><time>2026-05-02T09:26:08.002Z</time></trkpt><trkpt lat="44.454474400601825" lon="8.991778842397094"><ele>141.0</ele><time>2026-05-02T09:26:11.002Z</time></trkpt><trkpt lat="44.454560481597944" lon="8.991761497206749"><ele>141.0</ele><time>2026-05-02T09:26:15.003Z</time></trkpt><trkpt lat="44.45463598392346" lon="8.991744005445668"><ele>142.57142857142858</ele><time>2026-05-02T09:26:20.003Z</time></trkpt><trkpt lat="44.454701255200646" lon="8.991715670504398"><ele>144.14285714285714</ele><time>2026-05-02T09:26:23.003Z</time></trkpt><trkpt lat="44.45477397932139" lon="8.991698139143116"><ele>145.71428571428572</ele><time>2026-05-02T09:26:27.003Z</time></trkpt><trkpt lat="44.45483907998349" lon="8.99169662327065"><ele>147.28571428571428</ele><time>2026-05-02T09:26:30.003Z</time></trkpt><trkpt lat="44.45491861723414" lon="8.991654586695235"><ele>148.85714285714286</ele><time>2026-05-02T09:26:33.003Z</time></trkpt><trkpt lat="44.454989853362534" lon="8.991620419430998"><ele>150.42857142857142</ele><time>2026-05-02T09:26:36.003Z</time></trkpt><trkpt lat="44.45504622952629" lon="8.991565325946986"><ele>152.0</ele><time>2026-05-02T09:26:39.003Z</time></trkpt><trkpt lat="44.45509597492081" lon="8.991502819786774"><ele>152.0</ele><time>2026-05-02T09:26:42.999Z</time></trkpt><trkpt lat="44.45507349495695" lon="8.991417813864427"><ele>152.0</ele><time>2026-05-02T09:26:49.999Z</time></trkpt><trkpt lat="44.45504994154576" lon="8.991315450262078"><ele>152.0</ele><time>2026-05-02T09:26:54.999Z</time></trkpt><trkpt lat="44.454982524619396" lon="8.991248228685736"><ele>152.0</ele><time>2026-05-02T09:26:57.999Z</time></trkpt><trkpt lat="44.45494428248186" lon="8.991131742129644"><ele>152.0</ele><time>2026-05-02T09:27:01Z</time></trkpt><trkpt lat="44.454911806896654" lon="8.991043589930184"><ele>152.0</ele><time>2026-05-02T09:27:04Z</time></trkpt><trkpt lat="44.45488979997153" lon="8.990917109665709"><ele>150.7142857142857</ele><time>2026-05-02T09:27:07Z</time></trkpt><trkpt lat="44.45486448492675" lon="8.990828961344752"><ele>149.42857142857144</ele><time>2026-05-02T09:27:09Z</time></trkpt><trkpt lat="44.45487792425463" lon="8.990717860095193"><ele>148.14285714285714</ele><time>2026-05-02T09:27:11Z</time></trkpt><trkpt lat="44.45485315122718" lon="8.990632522729689"><ele>146.85714285714283</ele><time>2026-05-02T09:27:13Z</time></trkpt><trkpt lat="44.45483938796158" lon="8.99053231456718"><ele>145.57142857142856</ele><time>2026-05-02T09:27:15Z</time></trkpt><trkpt lat="44.45483878124367" lon="8.990437472918364"><ele>144.28571428571428</ele><time>2026-05-02T09:27:17Z</time></trkpt><trkpt lat="44.45486186709831" lon="8.990340527161036"><ele>143.0</ele><time>2026-05-02T09:27:19Z</time></trkpt><trkpt lat="44.45487676503368" lon="8.990237203647753"><ele>142.99999999999997</ele><time>2026-05-02T09:27:21.001Z</time></trkpt><trkpt lat="44.45491476307603" lon="8.9901654739101"><ele>143.0</ele><time>2026-05-02T09:27:23.001Z</time></trkpt><trkpt lat="44.454957853361" lon="8.990082207936485"><ele>143.0</ele><time>2026-05-02T09:27:25.001Z</time></trkpt><trkpt lat="44.45501033568855" lon="8.990019781936915"><ele>143.0</ele><time>2026-05-02T09:27:27.001Z</time></trkpt><trkpt lat="44.455056719104526" lon="8.989950252378742"><ele>143.0</ele><time>2026-05-02T09:27:29.001Z</time></trkpt><trkpt lat="44.45512188483577" lon="8.989868289068145"><ele>142.99999999999997</ele><time>2026-05-02T09:27:32.001Z</time></trkpt><trkpt lat="44.45518004252207" lon="8.989789015058342"><ele>143.0</ele><time>2026-05-02T09:27:35.001Z</time></trkpt><trkpt lat="44.455209403374695" lon="8.989708269129968"><ele>141.0</ele><time>2026-05-02T09:27:37.001Z</time></trkpt><trkpt lat="44.45523645386988" lon="8.98962630899676"><ele>139.0</ele><time>2026-05-02T09:27:39.001Z</time></trkpt><trkpt lat="44.45526480081374" lon="8.989497093738231"><ele>137.0</ele><time>2026-05-02T09:27:42.001Z</time></trkpt><trkpt lat="44.45529473142631" lon="8.989386831918571"><ele>135.0</ele><time>2026-05-02T09:27:45.001Z</time></trkpt><trkpt lat="44.45532883950358" lon="8.98926280695113"><ele>133.0</ele><time>2026-05-02T09:27:48.001Z</time></trkpt><trkpt lat="44.45535030337249" lon="8.98916891092533"><ele>131.0</ele><time>2026-05-02T09:27:50.002Z</time></trkpt><trkpt lat="44.455382082570814" lon="8.989075727030245"><ele>128.83333333333331</ele><time>2026-05-02T09:27:52.002Z</time></trkpt><trkpt lat="44.455399523684044" lon="8.98897709260208"><ele>126.66666666666666</ele><time>2026-05-02T09:27:54.002Z</time></trkpt><trkpt lat="44.45542399486644" lon="8.988870220328451"><ele>124.5</ele><time>2026-05-02T09:27:56.002Z</time></trkpt><trkpt lat="44.45544647135355" lon="8.988769559785137"><ele>122.33333333333334</ele><time>2026-05-02T09:27:58.002Z</time></trkpt><trkpt lat="44.455455214215284" lon="8.988662000650093"><ele>120.16666666666667</ele><time>2026-05-02T09:28:00.002Z</time></trkpt><trkpt lat="44.45546980558606" lon="8.988556638249786"><ele>118.0</ele><time>2026-05-02T09:28:02.002Z</time></trkpt><trkpt lat="44.45547913321292" lon="8.988449560352663"><ele>117.33333333333334</ele><time>2026-05-02T09:28:04.002Z</time></trkpt><trkpt lat="44.45548330361817" lon="8.988341288188012"><ele>116.66666666666667</ele><time>2026-05-02T09:28:06.002Z</time></trkpt><trkpt lat="44.455472322943976" lon="8.988240219851129"><ele>116.0</ele><time>2026-05-02T09:28:08.002Z</time></trkpt><trkpt lat="44.45545243343921" lon="8.988144033996033"><ele>115.33333333333334</ele><time>2026-05-02T09:28:10.002Z</time></trkpt><trkpt lat="44.45546179671158" lon="8.988029958928188"><ele>114.66666666666667</ele><time>2026-05-02T09:28:13.002Z</time></trkpt><trkpt lat="44.45553189724652" lon="8.987929905473013"><ele>114.0</ele><time>2026-05-02T09:28:16.002Z</time></trkpt><trkpt lat="44.455591574094036" lon="8.98785581122619"><ele>115.5</ele><time>2026-05-02T09:28:18.002Z</time></trkpt><trkpt lat="44.45564695494237" lon="8.98779019700892"><ele>117.0</ele><time>2026-05-02T09:28:20.002Z</time></trkpt><trkpt lat="44.455710852288995" lon="8.987729327989737"><ele>118.5</ele><time>2026-05-02T09:28:22.003Z</time></trkpt><trkpt lat="44.45577500537618" lon="8.987669513352074"><ele>120.0</ele><time>2026-05-02T09:28:24.003Z</time></trkpt><trkpt lat="44.45586191603953" lon="8.987593173225106"><ele>121.5</ele><time>2026-05-02T09:28:27.003Z</time></trkpt><trkpt lat="44.45593663421125" lon="8.987534283981732"><ele>123.0</ele><time>2026-05-02T09:28:29.003Z</time></trkpt><trkpt lat="44.45601983975919" lon="8.987483841140099"><ele>123.0</ele><time>2026-05-02T09:28:31.003Z</time></trkpt><trkpt lat="44.45607421581758" lon="8.987406086862439"><ele>123.00000000000001</ele><time>2026-05-02T09:28:34.003Z</time></trkpt><trkpt lat="44.456119911182675" lon="8.987320716739267"><ele>123.00000000000001</ele><time>2026-05-02T09:28:36.003Z</time></trkpt><trkpt lat="44.45618377495037" lon="8.987215096353108"><ele>123.0</ele><time>2026-05-02T09:28:40.003Z</time></trkpt><trkpt lat="44.4562586892463" lon="8.987135766827471"><ele>123.0</ele><time>2026-05-02T09:28:42.003Z</time></trkpt><trkpt lat="44.456367496007694" lon="8.987101014070694"><ele>125.83333333333333</ele><time>2026-05-02T09:28:44.003Z</time></trkpt><trkpt lat="44.456469227394024" lon="8.987054823288997"><ele>128.66666666666666</ele><time>2026-05-02T09:28:46.003Z</time></trkpt><trkpt lat="44.456533368969204" lon="8.98699863671608"><ele>131.5</ele><time>2026-05-02T09:28:47.998Z</time></trkpt><trkpt lat="44.45661810234221" lon="8.986939177867164"><ele>134.33333333333331</ele><time>2026-05-02T09:28:49.999Z</time></trkpt><trkpt lat="44.456695595901465" lon="8.98690758995798"><ele>137.16666666666666</ele><time>2026-05-02T09:28:51.999Z</time></trkpt><trkpt lat="44.45677112280123" lon="8.986868750249949"><ele>140.0</ele><time>2026-05-02T09:28:53.999Z</time></trkpt><trkpt lat="44.45682868724141" lon="8.986786661798334"><ele>140.0</ele><time>2026-05-02T09:28:55.999Z</time></trkpt><trkpt lat="44.45688266115071" lon="8.986703189761904"><ele>140.0</ele><time>2026-05-02T09:28:57.999Z</time></trkpt><trkpt lat="44.45695476390957" lon="8.986623948595579"><ele>140.0</ele><time>2026-05-02T09:29:00.999Z</time></trkpt><trkpt lat="44.45700713686951" lon="8.986552685283105"><ele>140.0</ele><time>2026-05-02T09:29:02.999Z</time></trkpt><trkpt lat="44.457061230011156" lon="8.986455727157606"><ele>140.0</ele><time>2026-05-02T09:29:06Z</time></trkpt><trkpt lat="44.45711787079073" lon="8.986358836446009"><ele>140.0</ele><time>2026-05-02T09:29:09Z</time></trkpt><trkpt lat="44.45718393072955" lon="8.986296240647835"><ele>139.66666666666666</ele><time>2026-05-02T09:29:12Z</time></trkpt><trkpt lat="44.457243548479326" lon="8.98623036995817"><ele>139.33333333333331</ele><time>2026-05-02T09:29:15Z</time></trkpt><trkpt lat="44.457323930737196" lon="8.986214296736952"><ele>139.0</ele><time>2026-05-02T09:29:18Z</time></trkpt><trkpt lat="44.4573871702494" lon="8.98619214486513"><ele>138.66666666666666</ele><time>2026-05-02T09:29:21Z</time></trkpt><trkpt lat="44.457451034712086" lon="8.986203752892806"><ele>138.33333333333334</ele><time>2026-05-02T09:29:24.001Z</time></trkpt><trkpt lat="44.45753309892496" lon="8.986230531558503"><ele>138.0</ele><time>2026-05-02T09:29:28.001Z</time></trkpt><trkpt lat="44.45761256241609" lon="8.98621319051212"><ele>138.0</ele><time>2026-05-02T09:29:33.001Z</time></trkpt><trkpt lat="44.45763147759955" lon="8.986310452883824"><ele>138.0</ele><time>2026-05-02T09:29:36.001Z</time></trkpt><trkpt lat="44.4576507385604" lon="8.986402513288702"><ele>138.0</ele><time>2026-05-02T09:29:41.001Z</time></trkpt><trkpt lat="44.457605673290345" lon="8.98649472703231"><ele>138.0</ele><time>2026-05-02T09:29:46.001Z</time></trkpt><trkpt lat="44.45755455923177" lon="8.98654864258399"><ele>138.0</ele><time>2026-05-02T09:29:50.001Z</time></trkpt><trkpt lat="44.45753052118878" lon="8.98665184507"><ele>138.0</ele><time>2026-05-02T09:29:52.002Z</time></trkpt><trkpt lat="44.45747297735599" lon="8.986740956464097"><ele>138.0</ele><time>2026-05-02T09:29:55.002Z</time></trkpt><trkpt lat="44.45742301578757" lon="8.98682958080267"><ele>140.16666666666666</ele><time>2026-05-02T09:29:59.002Z</time></trkpt><trkpt lat="44.457369626311255" lon="8.986911557069702"><ele>142.33333333333334</ele><time>2026-05-02T09:30:01.002Z</time></trkpt><trkpt lat="44.457343401263145" lon="8.98701234000578"><ele>144.5</ele><time>2026-05-02T09:30:05.002Z</time></trkpt><trkpt lat="44.45731328606856" lon="8.987099473083438"><ele>146.66666666666669</ele><time>2026-05-02T09:30:08.002Z</time></trkpt><trkpt lat="44.457255698688456" lon="8.987192253655744"><ele>148.83333333333334</ele><time>2026-05-02T09:30:12.002Z</time></trkpt><trkpt lat="44.45720636851707" lon="8.987275948149966"><ele>151.0</ele><time>2026-05-02T09:30:15.002Z</time></trkpt><trkpt lat="44.45716210084441" lon="8.98735014781723"><ele>150.33333333333334</ele><time>2026-05-02T09:30:18.002Z</time></trkpt><trkpt lat="44.45710759814083" lon="8.98744557521275"><ele>149.66666666666669</ele><time>2026-05-02T09:30:20.002Z</time></trkpt><trkpt lat="44.457047020727515" lon="8.98753103433344"><ele>149.0</ele><time>2026-05-02T09:30:23.002Z</time></trkpt><trkpt lat="44.456986977537795" lon="8.987624850755298"><ele>148.33333333333334</ele><time>2026-05-02T09:30:26.003Z</time></trkpt><trkpt lat="44.456938629896506" lon="8.987719663285677"><ele>147.66666666666666</ele><time>2026-05-02T09:30:29.003Z</time></trkpt><trkpt lat="44.45687688937445" lon="8.987799563221152"><ele>147.0</ele><time>2026-05-02T09:30:33.003Z</time></trkpt><trkpt lat="44.45682567859557" lon="8.987863780753374"><ele>147.0</ele><time>2026-05-02T09:30:37.003Z</time></trkpt><trkpt lat="44.45677353225532" lon="8.987921366927925"><ele>147.0</ele><time>2026-05-02T09:30:40.003Z</time></trkpt><trkpt lat="44.456724872680226" lon="8.9879958618344"><ele>147.0</ele><time>2026-05-02T09:30:43.003Z</time></trkpt><trkpt lat="44.45669509162804" lon="8.988082207468464"><ele>147.0</ele><time>2026-05-02T09:30:47.003Z</time></trkpt><trkpt lat="44.45665887950861" lon="8.988168305341915"><ele>147.0</ele><time>2026-05-02T09:30:51.003Z</time></trkpt><trkpt lat="44.45662144983818" lon="8.988264559369592"><ele>147.0</ele><time>2026-05-02T09:30:54.998Z</time></trkpt><trkpt lat="44.456568360357096" lon="8.988339003090704"><ele>147.0</ele><time>2026-05-02T09:30:58.999Z</time></trkpt><trkpt lat="44.45652328158401" lon="8.98842214267023"><ele>146.85714285714286</ele><time>2026-05-02T09:31:02.999Z</time></trkpt><trkpt lat="44.45647356513159" lon="8.98848012063018"><ele>146.71428571428572</ele><time>2026-05-02T09:31:06.999Z</time></trkpt><trkpt lat="44.456438442312866" lon="8.988565168494738"><ele>146.57142857142856</ele><time>2026-05-02T09:31:12Z</time></trkpt><trkpt lat="44.45637885853468" lon="8.98861813793953"><ele>146.42857142857144</ele><time>2026-05-02T09:31:17Z</time></trkpt><trkpt lat="44.45633486127751" lon="8.988702806054627"><ele>146.28571428571428</ele><time>2026-05-02T09:31:21Z</time></trkpt><trkpt lat="44.45629976277218" lon="8.988792947416258"><ele>146.14285714285714</ele><time>2026-05-02T09:31:34.001Z</time></trkpt><trkpt lat="44.45623203019712" lon="8.988787115134752"><ele>146.0</ele><time>2026-05-02T09:38:52.002Z</time></trkpt><trkpt lat="44.45618733765107" lon="8.988884846902364"><ele>146.0</ele><time>2026-05-02T09:40:52.002Z</time></trkpt><trkpt lat="44.45622914080528" lon="8.988810046285897"><ele>146.0</ele><time>2026-05-02T09:41:03.003Z</time></trkpt><trkpt lat="44.45627113167189" lon="8.988744052473766"><ele>146.0</ele><time>2026-05-02T09:41:15.003Z</time></trkpt><trkpt lat="44.45633145469998" lon="8.988691527081352"><ele>146.0</ele><time>2026-05-02T09:41:30.999Z</time></trkpt><trkpt lat="44.456384172736335" lon="8.988617616789654"><ele>146.0</ele><time>2026-05-02T09:41:35.999Z</time></trkpt><trkpt lat="44.456432860107434" lon="8.988528059725098"><ele>146.0</ele><time>2026-05-02T09:41:38.999Z</time></trkpt><trkpt lat="44.45648369316047" lon="8.988451928845615"><ele>146.0</ele><time>2026-05-02T09:41:40.999Z</time></trkpt><trkpt lat="44.456544673015934" lon="8.988348639468956"><ele>146.16666666666666</ele><time>2026-05-02T09:41:42.999Z</time></trkpt><trkpt lat="44.4566169787228" lon="8.988245055894394"><ele>146.33333333333331</ele><time>2026-05-02T09:41:44.999Z</time></trkpt><trkpt lat="44.456666398747366" lon="8.988181995399716"><ele>146.5</ele><time>2026-05-02T09:41:45.999Z</time></trkpt><trkpt lat="44.45670809389755" lon="8.988078724428501"><ele>146.66666666666666</ele><time>2026-05-02T09:41:48Z</time></trkpt><trkpt lat="44.45676813564023" lon="8.987977929504673"><ele>146.83333333333334</ele><time>2026-05-02T09:41:50Z</time></trkpt><trkpt lat="44.456822997000685" lon="8.987889188685953"><ele>147.0</ele><time>2026-05-02T09:41:52Z</time></trkpt><trkpt lat="44.45688066440226" lon="8.987793150621748"><ele>147.0</ele><time>2026-05-02T09:41:54Z</time></trkpt><trkpt lat="44.45694836689943" lon="8.987658409271994"><ele>147.0</ele><time>2026-05-02T09:41:56Z</time></trkpt><trkpt lat="44.4570299025371" lon="8.987533992985249"><ele>147.0</ele><time>2026-05-02T09:41:58Z</time></trkpt><trkpt lat="44.45709566382159" lon="8.987404748094471"><ele>147.0</ele><time>2026-05-02T09:42:00Z</time></trkpt><trkpt lat="44.45715982747329" lon="8.987294347500384"><ele>147.66666666666666</ele><time>2026-05-02T09:42:02Z</time></trkpt><trkpt lat="44.45721759481457" lon="8.98717336704473"><ele>148.33333333333334</ele><time>2026-05-02T09:42:04Z</time></trkpt><trkpt lat="44.457291423113475" lon="8.987089691847597"><ele>149.0</ele><time>2026-05-02T09:42:06Z</time></trkpt><trkpt lat="44.45735340406317" lon="8.987021861075743"><ele>149.66666666666669</ele><time>2026-05-02T09:42:08Z</time></trkpt><trkpt lat="44.457407033696775" lon="8.986961527040647"><ele>150.33333333333334</ele><time>2026-05-02T09:42:10.001Z</time></trkpt><trkpt lat="44.4574827651714" lon="8.986878562690348"><ele>151.0</ele><time>2026-05-02T09:42:13.001Z</time></trkpt><trkpt lat="44.45754453977865" lon="8.986830450216809"><ele>151.00000000000003</ele><time>2026-05-02T09:42:15.001Z</time></trkpt><trkpt lat="44.4575933917903" lon="8.986774091224811"><ele>151.0</ele><time>2026-05-02T09:42:17.001Z</time></trkpt><trkpt lat="44.457644318822396" lon="8.986718533812514"><ele>151.0</ele><time>2026-05-02T09:42:19.001Z</time></trkpt><trkpt lat="44.45771024876303" lon="8.98669006652706"><ele>151.0</ele><time>2026-05-02T09:42:21.001Z</time></trkpt><trkpt lat="44.45777668461992" lon="8.986645208268365"><ele>151.0</ele><time>2026-05-02T09:42:23.001Z</time></trkpt><trkpt lat="44.45786648443133" lon="8.986580590446703"><ele>151.00000000000003</ele><time>2026-05-02T09:42:26.001Z</time></trkpt><trkpt lat="44.4579339059009" lon="8.986539682847047"><ele>151.0</ele><time>2026-05-02T09:42:28.001Z</time></trkpt><trkpt lat="44.45800253563708" lon="8.986470983033263"><ele>151.14285714285717</ele><time>2026-05-02T09:42:31.001Z</time></trkpt><trkpt lat="44.45805093676641" lon="8.986392266646689"><ele>151.28571428571428</ele><time>2026-05-02T09:42:34.001Z</time></trkpt><trkpt lat="44.45807423629004" lon="8.98629618863406"><ele>151.42857142857144</ele><time>2026-05-02T09:42:37.001Z</time></trkpt><trkpt lat="44.45810087404516" lon="8.98620707853754"><ele>151.57142857142858</ele><time>2026-05-02T09:42:40.002Z</time></trkpt><trkpt lat="44.458116944629715" lon="8.986120908933357"><ele>151.71428571428572</ele><time>2026-05-02T09:42:43.002Z</time></trkpt><trkpt lat="44.458142024118736" lon="8.986031462573782"><ele>151.85714285714286</ele><time>2026-05-02T09:42:46.002Z</time></trkpt><trkpt lat="44.458184432901334" lon="8.985943088630632"><ele>152.0</ele><time>2026-05-02T09:42:49.002Z</time></trkpt><trkpt lat="44.458228893890194" lon="8.985850157488185"><ele>151.0</ele><time>2026-05-02T09:42:52.002Z</time></trkpt><trkpt lat="44.45827828108189" lon="8.985774489066886"><ele>150.0</ele><time>2026-05-02T09:42:55.002Z</time></trkpt><trkpt lat="44.45832537095631" lon="8.985704529535543"><ele>149.0</ele><time>2026-05-02T09:43:00.002Z</time></trkpt><trkpt lat="44.45837068218305" lon="8.985632103736494"><ele>148.0</ele><time>2026-05-02T09:43:25.003Z</time></trkpt><trkpt lat="44.45841884872821" lon="8.985520701127498"><ele>147.0</ele><time>2026-05-02T09:43:28.003Z</time></trkpt><trkpt lat="44.45845802427759" lon="8.985415501267003"><ele>146.0</ele><time>2026-05-02T09:43:29.998Z</time></trkpt><trkpt lat="44.45852375745435" lon="8.985458194380236"><ele>146.0</ele><time>2026-05-02T09:43:33.998Z</time></trkpt><trkpt lat="44.45858756262413" lon="8.985472084809393"><ele>146.0</ele><time>2026-05-02T09:43:36.998Z</time></trkpt><trkpt lat="44.458645348646314" lon="8.985434773254985"><ele>146.0</ele><time>2026-05-02T09:43:38.999Z</time></trkpt><trkpt lat="44.458707125817135" lon="8.985348732517881"><ele>146.0</ele><time>2026-05-02T09:43:41.999Z</time></trkpt><trkpt lat="44.45874757979487" lon="8.985266460790013"><ele>146.0</ele><time>2026-05-02T09:43:44.999Z</time></trkpt><trkpt lat="44.45879749712309" lon="8.985182384179037"><ele>146.0</ele><time>2026-05-02T09:43:47.999Z</time></trkpt><trkpt lat="44.45884071131759" lon="8.98510001422447"><ele>146.0</ele><time>2026-05-02T09:43:51Z</time></trkpt><trkpt lat="44.45889222534586" lon="8.98503354293624"><ele>146.71428571428572</ele><time>2026-05-02T09:43:54Z</time></trkpt><trkpt lat="44.4589484132501" lon="8.984975688665344"><ele>147.42857142857144</ele><time>2026-05-02T09:43:57Z</time></trkpt><trkpt lat="44.45901078735168" lon="8.984925625549113"><ele>148.14285714285717</ele><time>2026-05-02T09:44:00Z</time></trkpt><trkpt lat="44.45906632939245" lon="8.984882645290382"><ele>148.85714285714286</ele><time>2026-05-02T09:44:03Z</time></trkpt><trkpt lat="44.45914076518952" lon="8.984839198240033"><ele>149.57142857142858</ele><time>2026-05-02T09:44:07Z</time></trkpt><trkpt lat="44.45921856232717" lon="8.984783880197297"><ele>150.2857142857143</ele><time>2026-05-02T09:44:11.001Z</time></trkpt><trkpt lat="44.45927975289952" lon="8.984742425893469"><ele>151.0</ele><time>2026-05-02T09:44:14.001Z</time></trkpt><trkpt lat="44.45937011144575" lon="8.984693902527326"><ele>151.00000000000003</ele><time>2026-05-02T09:44:19.001Z</time></trkpt><trkpt lat="44.459439975002184" lon="8.984688467888514"><ele>151.0</ele><time>2026-05-02T09:44:22.001Z</time></trkpt><trkpt lat="44.4595090628992" lon="8.984682127081163"><ele>151.0</ele><time>2026-05-02T09:44:25.001Z</time></trkpt><trkpt lat="44.45958990970714" lon="8.984689598499775"><ele>151.0</ele><time>2026-05-02T09:44:29.001Z</time></trkpt><trkpt lat="44.45966141800681" lon="8.984690398021257"><ele>151.0</ele><time>2026-05-02T09:44:33.001Z</time></trkpt><trkpt lat="44.459727708089105" lon="8.984693879339288"><ele>151.00000000000003</ele><time>2026-05-02T09:44:36.002Z</time></trkpt><trkpt lat="44.45979056566799" lon="8.984687178471406"><ele>151.0</ele><time>2026-05-02T09:44:39.002Z</time></trkpt><trkpt lat="44.45986782290153" lon="8.984670443228291"><ele>152.85714285714286</ele><time>2026-05-02T09:44:43.002Z</time></trkpt><trkpt lat="44.45993402752789" lon="8.984608191838944"><ele>154.71428571428572</ele><time>2026-05-02T09:44:48.002Z</time></trkpt><trkpt lat="44.45999326819209" lon="8.984556508668728"><ele>156.57142857142856</ele><time>2026-05-02T09:44:52.002Z</time></trkpt><trkpt lat="44.46004953821456" lon="8.984516952216003"><ele>158.42857142857144</ele><time>2026-05-02T09:44:55.002Z</time></trkpt><trkpt lat="44.46010205016345" lon="8.984460708008045"><ele>160.28571428571428</ele><time>2026-05-02T09:44:59.002Z</time></trkpt><trkpt lat="44.460171060052176" lon="8.984405709121907"><ele>162.14285714285714</ele><time>2026-05-02T09:45:03.002Z</time></trkpt><trkpt lat="44.46022241508134" lon="8.984331902866233"><ele>164.0</ele><time>2026-05-02T09:45:07.002Z</time></trkpt><trkpt lat="44.46029282588399" lon="8.984299998856745"><ele>163.99999999999997</ele><time>2026-05-02T09:45:11.003Z</time></trkpt><trkpt lat="44.46036521414894" lon="8.98434226743635"><ele>164.0</ele><time>2026-05-02T09:45:15.003Z</time></trkpt><trkpt lat="44.46041901356102" lon="8.984397727529942"><ele>164.0</ele><time>2026-05-02T09:45:18.003Z</time></trkpt><trkpt lat="44.46044510611322" lon="8.984497958435794"><ele>164.0</ele><time>2026-05-02T09:45:21.003Z</time></trkpt><trkpt lat="44.460446467197954" lon="8.984606132565137"><ele>164.0</ele><time>2026-05-02T09:45:25.003Z</time></trkpt><trkpt lat="44.46041940781247" lon="8.984686206050537"><ele>163.99999999999997</ele><time>2026-05-02T09:45:29.003Z</time></trkpt><trkpt lat="44.46037956054626" lon="8.984775563604282"><ele>164.0</ele><time>2026-05-02T09:45:34.003Z</time></trkpt><trkpt lat="44.46031775339009" lon="8.98484223936555"><ele>163.99999999999997</ele><time>2026-05-02T09:45:38.998Z</time></trkpt><trkpt lat="44.46025951817226" lon="8.98490809683204"><ele>164.0</ele><time>2026-05-02T09:45:42.999Z</time></trkpt><trkpt lat="44.46020215997425" lon="8.984973041566194"><ele>164.0</ele><time>2026-05-02T09:45:46.999Z</time></trkpt><trkpt lat="44.46015757340282" lon="8.98504250622356"><ele>164.0</ele><time>2026-05-02T09:45:50.999Z</time></trkpt><trkpt lat="44.460099816342606" lon="8.985112730375265"><ele>164.0</ele><time>2026-05-02T09:45:55Z</time></trkpt><trkpt lat="44.46005450205068" lon="8.985188089002863"><ele>163.99999999999997</ele><time>2026-05-02T09:45:59Z</time></trkpt><trkpt lat="44.460004286050136" lon="8.98524435848707"><ele>164.0</ele><time>2026-05-02T09:46:02Z</time></trkpt><trkpt lat="44.45995017315056" lon="8.985310173539535"><ele>165.57142857142856</ele><time>2026-05-02T09:46:05Z</time></trkpt><trkpt lat="44.45987419527174" lon="8.985357880626067"><ele>167.14285714285714</ele><time>2026-05-02T09:46:08Z</time></trkpt><trkpt lat="44.4598072122761" lon="8.985378176631025"><ele>168.71428571428572</ele><time>2026-05-02T09:46:12.001Z</time></trkpt><trkpt lat="44.45975211963111" lon="8.98545128582907"><ele>170.28571428571428</ele><time>2026-05-02T09:46:16.001Z</time></trkpt><trkpt lat="44.45973193590026" lon="8.985548338902685"><ele>171.85714285714286</ele><time>2026-05-02T09:46:20.001Z</time></trkpt><trkpt lat="44.459794100311534" lon="8.985600445172919"><ele>173.42857142857142</ele><time>2026-05-02T09:46:24.001Z</time></trkpt><trkpt lat="44.459854719874414" lon="8.985625957247688"><ele>175.0</ele><time>2026-05-02T09:46:28.001Z</time></trkpt><trkpt lat="44.459928941495946" lon="8.985583665236417"><ele>175.0</ele><time>2026-05-02T09:46:33.001Z</time></trkpt><trkpt lat="44.46000523014112" lon="8.985552239294377"><ele>175.0</ele><time>2026-05-02T09:46:37.001Z</time></trkpt><trkpt lat="44.460077700542435" lon="8.985507949071694"><ele>175.0</ele><time>2026-05-02T09:46:41.002Z</time></trkpt><trkpt lat="44.460142041487174" lon="8.98547911919215"><ele>175.0</ele><time>2026-05-02T09:46:44.002Z</time></trkpt><trkpt lat="44.46022595955121" lon="8.985470610580878"><ele>175.0</ele><time>2026-05-02T09:46:48.002Z</time></trkpt><trkpt lat="44.46028933825687" lon="8.985486150787612"><ele>175.0</ele><time>2026-05-02T09:46:51.002Z</time></trkpt><trkpt lat="44.460351679987106" lon="8.985532931128335"><ele>175.0</ele><time>2026-05-02T09:46:54.002Z</time></trkpt><trkpt lat="44.46042115128471" lon="8.985563683441598"><ele>175.0</ele><time>2026-05-02T09:46:58.002Z</time></trkpt><trkpt lat="44.460480656761625" lon="8.985610279700085"><ele>175.0</ele><time>2026-05-02T09:47:01.002Z</time></trkpt><trkpt lat="44.46055371790956" lon="8.985660200015007"><ele>175.0</ele><time>2026-05-02T09:47:05.002Z</time></trkpt><trkpt lat="44.46061298450761" lon="8.985699116857282"><ele>175.0</ele><time>2026-05-02T09:47:08.002Z</time></trkpt><trkpt lat="44.46067753488268" lon="8.985753878088289"><ele>175.0</ele><time>2026-05-02T09:47:11.002Z</time></trkpt><trkpt lat="44.460734896376536" lon="8.985814378486102"><ele>175.0</ele><time>2026-05-02T09:47:14.003Z</time></trkpt><trkpt lat="44.46079509210956" lon="8.985879376580543"><ele>175.0</ele><time>2026-05-02T09:47:17.003Z</time></trkpt><trkpt lat="44.460854715692584" lon="8.985934692637422"><ele>177.0</ele><time>2026-05-02T09:47:20.003Z</time></trkpt><trkpt lat="44.46091675050542" lon="8.986011207368705"><ele>179.0</ele><time>2026-05-02T09:47:23.003Z</time></trkpt><trkpt lat="44.46097260593485" lon="8.986078097677114"><ele>181.0</ele><time>2026-05-02T09:47:26.003Z</time></trkpt><trkpt lat="44.46103090844195" lon="8.98613735130388"><ele>183.0</ele><time>2026-05-02T09:47:29.003Z</time></trkpt><trkpt lat="44.46108791931421" lon="8.986206438187185"><ele>185.0</ele><time>2026-05-02T09:47:32.003Z</time></trkpt><trkpt lat="44.46115688211023" lon="8.98627813392581"><ele>187.0</ele><time>2026-05-02T09:47:36.003Z</time></trkpt><trkpt lat="44.46121169466675" lon="8.986339867974003"><ele>187.0</ele><time>2026-05-02T09:47:39.003Z</time></trkpt><trkpt lat="44.4612643201825" lon="8.986405739081103"><ele>187.0</ele><time>2026-05-02T09:47:41.999Z</time></trkpt><trkpt lat="44.46131447946019" lon="8.986483360084948"><ele>187.0</ele><time>2026-05-02T09:47:45.999Z</time></trkpt><trkpt lat="44.46137580431713" lon="8.986548183794858"><ele>187.0</ele><time>2026-05-02T09:47:55.999Z</time></trkpt><trkpt lat="44.4614239096784" lon="8.986637363439083"><ele>187.0</ele><time>2026-05-02T09:48:00Z</time></trkpt><trkpt lat="44.46146413507572" lon="8.986711154784588"><ele>187.0</ele><time>2026-05-02T09:48:04Z</time></trkpt><trkpt lat="44.46150567578544" lon="8.98680705948286"><ele>187.0</ele><time>2026-05-02T09:48:08Z</time></trkpt><trkpt lat="44.46153802337349" lon="8.9868986580536"><ele>187.33333333333334</ele><time>2026-05-02T09:48:12Z</time></trkpt><trkpt lat="44.46156829008953" lon="8.98701151598518"><ele>187.66666666666669</ele><time>2026-05-02T09:48:17.001Z</time></trkpt><trkpt lat="44.46157002746476" lon="8.98712485603271"><ele>188.0</ele><time>2026-05-02T09:48:21.001Z</time></trkpt><trkpt lat="44.461577104063394" lon="8.987235237355499"><ele>188.33333333333334</ele><time>2026-05-02T09:48:25.001Z</time></trkpt><trkpt lat="44.46156665242915" lon="8.98733039896339"><ele>188.66666666666666</ele><time>2026-05-02T09:48:28.001Z</time></trkpt><trkpt lat="44.46154830887728" lon="8.987437013975192"><ele>189.0</ele><time>2026-05-02T09:48:32.001Z</time></trkpt><trkpt lat="44.46153219242869" lon="8.987532328247818"><ele>189.57142857142858</ele><time>2026-05-02T09:48:36.001Z</time></trkpt><trkpt lat="44.461522037344444" lon="8.987634789998678"><ele>190.14285714285714</ele><time>2026-05-02T09:48:40.001Z</time></trkpt><trkpt lat="44.461496516260006" lon="8.987724009432887"><ele>190.71428571428572</ele><time>2026-05-02T09:48:43.001Z</time></trkpt><trkpt lat="44.46146891428095" lon="8.987826348610138"><ele>191.28571428571428</ele><time>2026-05-02T09:48:47.002Z</time></trkpt><trkpt lat="44.46143666803994" lon="8.987916710685399"><ele>191.85714285714286</ele><time>2026-05-02T09:48:51.002Z</time></trkpt><trkpt lat="44.46140938544074" lon="8.988013686349603"><ele>192.42857142857144</ele><time>2026-05-02T09:48:55.002Z</time></trkpt><trkpt lat="44.461393038523866" lon="8.988104263454717"><ele>193.0</ele><time>2026-05-02T09:48:59.002Z</time></trkpt><trkpt lat="44.461379793823504" lon="8.988212691429572"><ele>192.99999999999997</ele><time>2026-05-02T09:49:03.002Z</time></trkpt><trkpt lat="44.461355497950805" lon="8.98832455924779"><ele>193.0</ele><time>2026-05-02T09:49:07.002Z</time></trkpt><trkpt lat="44.46133703923456" lon="8.98842797481055"><ele>193.0</ele><time>2026-05-02T09:49:10.002Z</time></trkpt><trkpt lat="44.461307706081" lon="8.988548104483323"><ele>193.0</ele><time>2026-05-02T09:49:13.002Z</time></trkpt><trkpt lat="44.46128334271535" lon="8.988629945697072"><ele>192.99999999999997</ele><time>2026-05-02T09:49:15.002Z</time></trkpt><trkpt lat="44.46126544394647" lon="8.988745102351299"><ele>193.0</ele><time>2026-05-02T09:49:18.003Z</time></trkpt><trkpt lat="44.461243662118626" lon="8.988839410033837"><ele>194.83333333333331</ele><time>2026-05-02T09:49:21.003Z</time></trkpt><trkpt lat="44.46121528909028" lon="8.988957054478622"><ele>196.66666666666666</ele><time>2026-05-02T09:49:24.003Z</time></trkpt><trkpt lat="44.46119628922489" lon="8.989077239668287"><ele>198.5</ele><time>2026-05-02T09:49:27.003Z</time></trkpt><trkpt lat="44.461153842182156" lon="8.989180855649412"><ele>200.33333333333331</ele><time>2026-05-02T09:49:30.003Z</time></trkpt><trkpt lat="44.46114736961798" lon="8.989282794404227"><ele>202.16666666666666</ele><time>2026-05-02T09:49:33.003Z</time></trkpt><trkpt lat="44.46113109938948" lon="8.98939046322342"><ele>204.0</ele><time>2026-05-02T09:49:36.003Z</time></trkpt><trkpt lat="44.461121728698735" lon="8.989496220578696"><ele>204.5</ele><time>2026-05-02T09:49:39.003Z</time></trkpt><trkpt lat="44.461132767771204" lon="8.989621138770547"><ele>205.0</ele><time>2026-05-02T09:49:42.003Z</time></trkpt><trkpt lat="44.461161724072014" lon="8.989746999318672"><ele>205.5</ele><time>2026-05-02T09:49:45.003Z</time></trkpt><trkpt lat="44.46118944285025" lon="8.989855572926356"><ele>206.0</ele><time>2026-05-02T09:49:47.999Z</time></trkpt><trkpt lat="44.46120891322911" lon="8.989995005348796"><ele>206.5</ele><time>2026-05-02T09:49:50.999Z</time></trkpt><trkpt lat="44.46124076930097" lon="8.990074919079198"><ele>207.0</ele><time>2026-05-02T09:49:52.999Z</time></trkpt><trkpt lat="44.461268477272704" lon="8.990199924087323"><ele>205.16666666666666</ele><time>2026-05-02T09:49:55.999Z</time></trkpt><trkpt lat="44.461283064021906" lon="8.990302640763662"><ele>203.33333333333331</ele><time>2026-05-02T09:49:57.999Z</time></trkpt><trkpt lat="44.46129833609035" lon="8.990402430283632"><ele>201.5</ele><time>2026-05-02T09:49:59.999Z</time></trkpt><trkpt lat="44.46131238738642" lon="8.990491989918315"><ele>199.66666666666666</ele><time>2026-05-02T09:50:01.999Z</time></trkpt><trkpt lat="44.461307677187094" lon="8.990616199128866"><ele>197.83333333333331</ele><time>2026-05-02T09:50:04.999Z</time></trkpt><trkpt lat="44.46133498161902" lon="8.990722312397212"><ele>196.0</ele><time>2026-05-02T09:50:08Z</time></trkpt><trkpt lat="44.461349283605685" lon="8.990859959900966"><ele>196.0</ele><time>2026-05-02T09:50:11Z</time></trkpt><trkpt lat="44.46135583955397" lon="8.990958048092885"><ele>196.0</ele><time>2026-05-02T09:50:13Z</time></trkpt><trkpt lat="44.461358292855984" lon="8.99106070025466"><ele>196.0</ele><time>2026-05-02T09:50:15Z</time></trkpt><trkpt lat="44.46137611232608" lon="8.991156868116821"><ele>196.0</ele><time>2026-05-02T09:50:17Z</time></trkpt><trkpt lat="44.46137804830969" lon="8.991256679639685"><ele>196.0</ele><time>2026-05-02T09:50:19Z</time></trkpt><trkpt lat="44.461384368875514" lon="8.991348091179425"><ele>196.0</ele><time>2026-05-02T09:50:21Z</time></trkpt><trkpt lat="44.4613830123344" lon="8.99143822902414"><ele>196.0</ele><time>2026-05-02T09:50:23Z</time></trkpt><trkpt lat="44.46137982858144" lon="8.991547843266797"><ele>195.99999999999997</ele><time>2026-05-02T09:50:26Z</time></trkpt><trkpt lat="44.4613777270552" lon="8.99166809497528"><ele>196.0</ele><time>2026-05-02T09:50:29.001Z</time></trkpt><trkpt lat="44.461388235496706" lon="8.991775015892847"><ele>196.0</ele><time>2026-05-02T09:50:32.001Z</time></trkpt><trkpt lat="44.46139408414929" lon="8.99188372098545"><ele>196.0</ele><time>2026-05-02T09:50:35.001Z</time></trkpt><trkpt lat="44.46139881816975" lon="8.99198183964507"><ele>195.99999999999997</ele><time>2026-05-02T09:50:38.001Z</time></trkpt><trkpt lat="44.46139467157884" lon="8.99207612833564"><ele>196.0</ele><time>2026-05-02T09:50:41.001Z</time></trkpt><trkpt lat="44.46137967944236" lon="8.99218536363992"><ele>197.16666666666666</ele><time>2026-05-02T09:50:45.001Z</time></trkpt><trkpt lat="44.46136132801057" lon="8.992295098839312"><ele>198.33333333333331</ele><time>2026-05-02T09:50:49.001Z</time></trkpt><trkpt lat="44.46134556913004" lon="8.992397646857526"><ele>199.5</ele><time>2026-05-02T09:50:52.001Z</time></trkpt><trkpt lat="44.46133454483042" lon="8.992539869089835"><ele>200.66666666666669</ele><time>2026-05-02T09:50:55.001Z</time></trkpt><trkpt lat="44.46133977067669" lon="8.992641627203907"><ele>201.83333333333334</ele><time>2026-05-02T09:50:57.002Z</time></trkpt><trkpt lat="44.46136280223352" lon="8.992738149851087"><ele>203.0</ele><time>2026-05-02T09:50:59.002Z</time></trkpt><trkpt lat="44.461396274382906" lon="8.992814341549204"><ele>204.28571428571428</ele><time>2026-05-02T09:51:01.002Z</time></trkpt><trkpt lat="44.46144359892827" lon="8.99287962528934"><ele>205.57142857142856</ele><time>2026-05-02T09:51:03.002Z</time></trkpt><trkpt lat="44.46150202294249" lon="8.992947610701433"><ele>206.85714285714286</ele><time>2026-05-02T09:51:06.002Z</time></trkpt><trkpt lat="44.46156200761034" lon="8.99300761412976"><ele>208.14285714285714</ele><time>2026-05-02T09:51:08.002Z</time></trkpt><trkpt lat="44.46160790048264" lon="8.993087271534586"><ele>209.42857142857142</ele><time>2026-05-02T09:51:10.002Z</time></trkpt><trkpt lat="44.461658459700296" lon="8.993156027783037"><ele>210.71428571428572</ele><time>2026-05-02T09:51:12.002Z</time></trkpt><trkpt lat="44.46169451898272" lon="8.993232060038887"><ele>212.0</ele><time>2026-05-02T09:51:14.002Z</time></trkpt><trkpt lat="44.46172624663915" lon="8.993329793662427"><ele>216.00000000000003</ele><time>2026-05-02T09:51:17.002Z</time></trkpt><trkpt lat="44.461779745755166" lon="8.99341654317729"><ele>220.0</ele><time>2026-05-02T09:51:20.002Z</time></trkpt><trkpt lat="44.461804201328775" lon="8.99350362556234"><ele>224.0</ele><time>2026-05-02T09:51:22.002Z</time></trkpt><trkpt lat="44.46182208239517" lon="8.993606786928556"><ele>228.0</ele><time>2026-05-02T09:51:25.002Z</time></trkpt><trkpt lat="44.46184854270155" lon="8.993716423952225"><ele>232.00000000000003</ele><time>2026-05-02T09:51:28.002Z</time></trkpt><trkpt lat="44.46186785033908" lon="8.993807896390003"><ele>236.0</ele><time>2026-05-02T09:51:31.003Z</time></trkpt><trkpt lat="44.46190609132086" lon="8.99390911266111"><ele>236.00000000000003</ele><time>2026-05-02T09:51:34.003Z</time></trkpt><trkpt lat="44.46199086647483" lon="8.993940947774107"><ele>236.0</ele><time>2026-05-02T09:51:37.003Z</time></trkpt><trkpt lat="44.46206539398173" lon="8.993939837862804"><ele>236.0</ele><time>2026-05-02T09:51:40.003Z</time></trkpt><trkpt lat="44.46213178369875" lon="8.993893962015386"><ele>236.0</ele><time>2026-05-02T09:51:43.003Z</time></trkpt><trkpt lat="44.46217519903869" lon="8.993818989602776"><ele>236.00000000000003</ele><time>2026-05-02T09:51:47.003Z</time></trkpt><trkpt lat="44.46223295624797" lon="8.99374798866585"><ele>236.0</ele><time>2026-05-02T09:51:50.003Z</time></trkpt><trkpt lat="44.462309997671234" lon="8.993690684382381"><ele>236.16666666666669</ele><time>2026-05-02T09:51:52.999Z</time></trkpt><trkpt lat="44.4623995170724" lon="8.993676760432626"><ele>236.33333333333334</ele><time>2026-05-02T09:51:55.999Z</time></trkpt><trkpt lat="44.4624848161106" lon="8.99366687466648"><ele>236.5</ele><time>2026-05-02T09:51:58.999Z</time></trkpt><trkpt lat="44.46257816936981" lon="8.993650231216805"><ele>236.66666666666669</ele><time>2026-05-02T09:52:01.999Z</time></trkpt><trkpt lat="44.46266379263748" lon="8.993627539372337"><ele>236.83333333333334</ele><time>2026-05-02T09:52:04.999Z</time></trkpt><trkpt lat="44.46272626549253" lon="8.993591807022396"><ele>237.0</ele><time>2026-05-02T09:52:06.999Z</time></trkpt><trkpt lat="44.462780046211115" lon="8.99354577395499"><ele>237.0</ele><time>2026-05-02T09:52:09Z</time></trkpt><trkpt lat="44.462860803933765" lon="8.99348799828548"><ele>237.0</ele><time>2026-05-02T09:52:12Z</time></trkpt><trkpt lat="44.46294544458841" lon="8.993461686438927"><ele>237.0</ele><time>2026-05-02T09:52:15Z</time></trkpt><trkpt lat="44.46303547148437" lon="8.993419759600082"><ele>237.0</ele><time>2026-05-02T09:52:18Z</time></trkpt><trkpt lat="44.46310158870221" lon="8.993381402774075"><ele>237.0</ele><time>2026-05-02T09:52:20Z</time></trkpt><trkpt lat="44.463188654814125" lon="8.993336453713157"><ele>237.0</ele><time>2026-05-02T09:52:23Z</time></trkpt><trkpt lat="44.4632654915009" lon="8.993305181326486"><ele>234.1428571428571</ele><time>2026-05-02T09:52:26Z</time></trkpt><trkpt lat="44.46335426691826" lon="8.993263199163437"><ele>231.28571428571428</ele><time>2026-05-02T09:52:29.001Z</time></trkpt><trkpt lat="44.46341894593665" lon="8.993235033062708"><ele>228.42857142857142</ele><time>2026-05-02T09:52:31.001Z</time></trkpt><trkpt lat="44.46349171428241" lon="8.99321686724067"><ele>225.57142857142856</ele><time>2026-05-02T09:52:33.001Z</time></trkpt><trkpt lat="44.463560166943985" lon="8.993210598086234"><ele>222.71428571428572</ele><time>2026-05-02T09:52:35.001Z</time></trkpt><trkpt lat="44.463627175189146" lon="8.993190625374671"><ele>219.85714285714286</ele><time>2026-05-02T09:52:37.001Z</time></trkpt><trkpt lat="44.46369370442896" lon="8.993167424605941"><ele>217.0</ele><time>2026-05-02T09:52:39.001Z</time></trkpt><trkpt lat="44.46375993400234" lon="8.993150848418516"><ele>218.71428571428572</ele><time>2026-05-02T09:52:41.001Z</time></trkpt><trkpt lat="44.46382223810436" lon="8.993098359018896"><ele>220.42857142857144</ele><time>2026-05-02T09:52:43.001Z</time></trkpt><trkpt lat="44.46387006869683" lon="8.993029577007949"><ele>222.14285714285714</ele><time>2026-05-02T09:52:45.001Z</time></trkpt><trkpt lat="44.46392856894672" lon="8.992978678792312"><ele>223.85714285714286</ele><time>2026-05-02T09:52:47.001Z</time></trkpt><trkpt lat="44.463997196590576" lon="8.992941755592431"><ele>225.57142857142858</ele><time>2026-05-02T09:52:49.001Z</time></trkpt><trkpt lat="44.46406062416333" lon="8.992917145269788"><ele>227.28571428571428</ele><time>2026-05-02T09:52:51.001Z</time></trkpt><trkpt lat="44.46412663546248" lon="8.99288829048488"><ele>229.0</ele><time>2026-05-02T09:52:53.001Z</time></trkpt><trkpt lat="44.464209590468926" lon="8.992856987346352"><ele>228.99999999999997</ele><time>2026-05-02T09:52:56.002Z</time></trkpt><trkpt lat="44.46429016626049" lon="8.992836957825766"><ele>229.0</ele><time>2026-05-02T09:52:59.002Z</time></trkpt><trkpt lat="44.4643838334772" lon="8.992840367692267"><ele>229.0</ele><time>2026-05-02T09:53:02.002Z</time></trkpt><trkpt lat="44.46446918012296" lon="8.992865284492488"><ele>229.0</ele><time>2026-05-02T09:53:05.002Z</time></trkpt><trkpt lat="44.46455733637248" lon="8.992892862720964"><ele>228.99999999999997</ele><time>2026-05-02T09:53:08.002Z</time></trkpt><trkpt lat="44.46464523043024" lon="8.992892794850146"><ele>229.0</ele><time>2026-05-02T09:53:11.002Z</time></trkpt><trkpt lat="44.46473180121987" lon="8.992882322018323"><ele>230.83333333333331</ele><time>2026-05-02T09:53:14.002Z</time></trkpt><trkpt lat="44.4648012051682" lon="8.99281608919529"><ele>232.66666666666666</ele><time>2026-05-02T09:53:17.002Z</time></trkpt><trkpt lat="44.464868386534086" lon="8.992764703513506"><ele>234.5</ele><time>2026-05-02T09:53:20.002Z</time></trkpt><trkpt lat="44.464937328074484" lon="8.992703938152646"><ele>236.33333333333331</ele><time>2026-05-02T09:53:23.002Z</time></trkpt><trkpt lat="44.465007837737474" lon="8.992645344679671"><ele>238.16666666666666</ele><time>2026-05-02T09:53:27.002Z</time></trkpt><trkpt lat="44.46506800229794" lon="8.992601281828295"><ele>240.0</ele><time>2026-05-02T09:53:31.003Z</time></trkpt><trkpt lat="44.4651261359832" lon="8.992565626698527"><ele>240.0</ele><time>2026-05-02T09:53:35.003Z</time></trkpt><trkpt lat="44.46518517906406" lon="8.992526585814838"><ele>240.0</ele><time>2026-05-02T09:53:38.003Z</time></trkpt><trkpt lat="44.465248442349626" lon="8.992473177526731"><ele>240.0</ele><time>2026-05-02T09:53:41.003Z</time></trkpt><trkpt lat="44.46532046385947" lon="8.992420586641456"><ele>240.0</ele><time>2026-05-02T09:53:45.003Z</time></trkpt><trkpt lat="44.46538246453629" lon="8.992367372361203"><ele>240.0</ele><time>2026-05-02T09:53:49.003Z</time></trkpt><trkpt lat="44.46545805125262" lon="8.992307874438799"><ele>240.0</ele><time>2026-05-02T09:53:53.003Z</time></trkpt><trkpt lat="44.46553129228078" lon="8.992258744783323"><ele>238.33333333333334</ele><time>2026-05-02T09:53:57.003Z</time></trkpt><trkpt lat="44.46560734443034" lon="8.992219853947326"><ele>236.66666666666669</ele><time>2026-05-02T09:54:00.999Z</time></trkpt><trkpt lat="44.46571513860267" lon="8.992172029334288"><ele>235.0</ele><time>2026-05-02T09:58:21Z</time></trkpt><trkpt lat="44.465647270541176" lon="8.992161279521802"><ele>233.33333333333334</ele><time>2026-05-02T10:00:09.003Z</time></trkpt><trkpt lat="44.46559778064413" lon="8.992226155268968"><ele>231.66666666666669</ele><time>2026-05-02T10:00:28Z</time></trkpt><trkpt lat="44.46553832113885" lon="8.992279009552794"><ele>230.0</ele><time>2026-05-02T10:01:02.001Z</time></trkpt><trkpt lat="44.4654767392568" lon="8.992327132960263"><ele>231.66666666666669</ele><time>2026-05-02T10:01:06.001Z</time></trkpt><trkpt lat="44.465411985847226" lon="8.99237694959314"><ele>233.33333333333334</ele><time>2026-05-02T10:01:09.001Z</time></trkpt><trkpt lat="44.46532824423209" lon="8.992442397149789"><ele>235.0</ele><time>2026-05-02T10:01:12.001Z</time></trkpt><trkpt lat="44.465263437126424" lon="8.992506170611332"><ele>236.66666666666669</ele><time>2026-05-02T10:01:14.001Z</time></trkpt><trkpt lat="44.465192765352406" lon="8.992557718854906"><ele>238.33333333333334</ele><time>2026-05-02T10:01:16.001Z</time></trkpt><trkpt lat="44.46511304543153" lon="8.992617317277022"><ele>240.0</ele><time>2026-05-02T10:01:18.001Z</time></trkpt><trkpt lat="44.46503003233512" lon="8.992681059541814"><ele>240.0</ele><time>2026-05-02T10:01:20.001Z</time></trkpt><trkpt lat="44.464931495810895" lon="8.99275440065562"><ele>240.0</ele><time>2026-05-02T10:01:22.002Z</time></trkpt><trkpt lat="44.46482529225393" lon="8.992833080400548"><ele>240.0</ele><time>2026-05-02T10:01:24.002Z</time></trkpt><trkpt lat="44.464737835914576" lon="8.992871165504427"><ele>240.0</ele><time>2026-05-02T10:01:26.002Z</time></trkpt><trkpt lat="44.464633866345" lon="8.992870714493343"><ele>240.0</ele><time>2026-05-02T10:01:28.002Z</time></trkpt><trkpt lat="44.464548805721876" lon="8.992830371468358"><ele>237.8</ele><time>2026-05-02T10:01:30.002Z</time></trkpt><trkpt lat="44.46444947951735" lon="8.992806105061657"><ele>235.6</ele><time>2026-05-02T10:01:32.002Z</time></trkpt><trkpt lat="44.46437016291343" lon="8.992811628233973"><ele>233.39999999999998</ele><time>2026-05-02T10:01:34.002Z</time></trkpt><trkpt lat="44.464267810429064" lon="8.99284868156573"><ele>231.2</ele><time>2026-05-02T10:01:36.002Z</time></trkpt><trkpt lat="44.46416558999627" lon="8.992874827759007"><ele>229.0</ele><time>2026-05-02T10:01:38.002Z</time></trkpt><trkpt lat="44.464077359714665" lon="8.992912048598534"><ele>229.0</ele><time>2026-05-02T10:01:40.002Z</time></trkpt><trkpt lat="44.46399535868304" lon="8.992945283980953"><ele>228.99999999999997</ele><time>2026-05-02T10:01:42.002Z</time></trkpt><trkpt lat="44.46391064481462" lon="8.99302073883454"><ele>228.99999999999997</ele><time>2026-05-02T10:01:44.002Z</time></trkpt><trkpt lat="44.463835266566875" lon="8.993106345819076"><ele>229.0</ele><time>2026-05-02T10:01:46.002Z</time></trkpt><trkpt lat="44.463746417638376" lon="8.993150205588785"><ele>229.0</ele><time>2026-05-02T10:01:48.002Z</time></trkpt><trkpt lat="44.463659537294554" lon="8.993164914630658"><ele>226.99999999999997</ele><time>2026-05-02T10:01:50.002Z</time></trkpt><trkpt lat="44.46356538090302" lon="8.99318504650247"><ele>225.0</ele><time>2026-05-02T10:01:52.002Z</time></trkpt><trkpt lat="44.46347411800511" lon="8.993211304672457"><ele>223.0</ele><time>2026-05-02T10:01:54.002Z</time></trkpt><trkpt lat="44.46340806299116" lon="8.99325668468153"><ele>221.0</ele><time>2026-05-02T10:01:56.003Z</time></trkpt><trkpt lat="44.46334729787079" lon="8.993282570910381"><ele>218.99999999999997</ele><time>2026-05-02T10:01:58.003Z</time></trkpt><trkpt lat="44.46328085789287" lon="8.99331019313386"><ele>217.0</ele><time>2026-05-02T10:02:00.003Z</time></trkpt><trkpt lat="44.46321261090497" lon="8.993338990621139"><ele>220.33333333333331</ele><time>2026-05-02T10:02:03.003Z</time></trkpt><trkpt lat="44.463149638854446" lon="8.993388302978797"><ele>223.66666666666666</ele><time>2026-05-02T10:02:06.003Z</time></trkpt><trkpt lat="44.46308949171102" lon="8.993416015514665"><ele>227.0</ele><time>2026-05-02T10:02:09.003Z</time></trkpt><trkpt lat="44.4630189900873" lon="8.993460351113445"><ele>230.33333333333331</ele><time>2026-05-02T10:02:12.003Z</time></trkpt><trkpt lat="44.46293526335687" lon="8.993516913780892"><ele>233.66666666666666</ele><time>2026-05-02T10:02:15.003Z</time></trkpt><trkpt lat="44.46285855309196" lon="8.993558117972867"><ele>237.0</ele><time>2026-05-02T10:02:17.003Z</time></trkpt><trkpt lat="44.462787404682665" lon="8.993612078358098"><ele>237.0</ele><time>2026-05-02T10:02:19.003Z</time></trkpt><trkpt lat="44.462711860670844" lon="8.993633485582425"><ele>237.0</ele><time>2026-05-02T10:02:21.003Z</time></trkpt><trkpt lat="44.46263676661507" lon="8.993664922016821"><ele>237.0</ele><time>2026-05-02T10:02:22.998Z</time></trkpt><trkpt lat="44.46255593101522" lon="8.993684568615283"><ele>237.0</ele><time>2026-05-02T10:02:24.998Z</time></trkpt><trkpt lat="44.462480466589106" lon="8.993691721986396"><ele>237.0</ele><time>2026-05-02T10:02:26.998Z</time></trkpt><trkpt lat="44.46237722006234" lon="8.993734549127131"><ele>237.0</ele><time>2026-05-02T10:02:28.999Z</time></trkpt><trkpt lat="44.46229760148305" lon="8.993832039820997"><ele>237.0</ele><time>2026-05-02T10:02:30.999Z</time></trkpt><trkpt lat="44.46221387929405" lon="8.993945119580932"><ele>237.0</ele><time>2026-05-02T10:02:32.999Z</time></trkpt><trkpt lat="44.46210977183521" lon="8.993995809811622"><ele>237.0</ele><time>2026-05-02T10:02:34.999Z</time></trkpt><trkpt lat="44.46198965329997" lon="8.993954393218338"><ele>237.0</ele><time>2026-05-02T10:02:36.999Z</time></trkpt><trkpt lat="44.46191276854975" lon="8.99382252811666"><ele>236.8</ele><time>2026-05-02T10:02:38.999Z</time></trkpt><trkpt lat="44.461864863580914" lon="8.993714301411975"><ele>236.6</ele><time>2026-05-02T10:02:40.999Z</time></trkpt><trkpt lat="44.46180315916391" lon="8.993659706634192"><ele>236.40000000000003</ele><time>2026-05-02T10:02:42Z</time></trkpt><trkpt lat="44.46172935721057" lon="8.993550935380327"><ele>236.20000000000002</ele><time>2026-05-02T10:02:44Z</time></trkpt><trkpt lat="44.46172968110185" lon="8.993457456315305"><ele>236.0</ele><time>2026-05-02T10:02:45Z</time></trkpt><trkpt lat="44.4616718028868" lon="8.99331007797722"><ele>230.0</ele><time>2026-05-02T10:02:47Z</time></trkpt><trkpt lat="44.46160285211045" lon="8.993162155828436"><ele>224.0</ele><time>2026-05-02T10:02:49Z</time></trkpt><trkpt lat="44.46151208142579" lon="8.993038653987508"><ele>218.0</ele><time>2026-05-02T10:02:51Z</time></trkpt><trkpt lat="44.46141653205946" lon="8.992954881056415"><ele>212.0</ele><time>2026-05-02T10:02:53Z</time></trkpt><trkpt lat="44.461361084570754" lon="8.992828391879339"><ele>212.0</ele><time>2026-05-02T10:02:55Z</time></trkpt><trkpt lat="44.461309874003575" lon="8.992700471119841"><ele>212.0</ele><time>2026-05-02T10:02:57Z</time></trkpt><trkpt lat="44.46129732945323" lon="8.992554686759139"><ele>212.0</ele><time>2026-05-02T10:02:59Z</time></trkpt><trkpt lat="44.461329225659654" lon="8.992432357427143"><ele>212.0</ele><time>2026-05-02T10:03:01.001Z</time></trkpt><trkpt lat="44.461365070611826" lon="8.992334765466438"><ele>212.0</ele><time>2026-05-02T10:03:03.001Z</time></trkpt><trkpt lat="44.46137539479055" lon="8.992225884502671"><ele>209.75</ele><time>2026-05-02T10:03:05.001Z</time></trkpt><trkpt lat="44.46139664665298" lon="8.99210896343547"><ele>207.5</ele><time>2026-05-02T10:03:07.001Z</time></trkpt><trkpt lat="44.46140436150976" lon="8.991959962581372"><ele>205.25</ele><time>2026-05-02T10:03:09.001Z</time></trkpt><trkpt lat="44.46139265822955" lon="8.991782991940404"><ele>203.0</ele><time>2026-05-02T10:03:11.001Z</time></trkpt><trkpt lat="44.46138549996705" lon="8.99159229961246"><ele>202.0</ele><time>2026-05-02T10:03:13.001Z</time></trkpt><trkpt lat="44.46136945287178" lon="8.991495793651763"><ele>201.0</ele><time>2026-05-02T10:03:14.001Z</time></trkpt><trkpt lat="44.46137322047619" lon="8.991391458987438"><ele>200.0</ele><time>2026-05-02T10:03:15.001Z</time></trkpt><trkpt lat="44.4613677352135" lon="8.991289473103723"><ele>199.0</ele><time>2026-05-02T10:03:16.001Z</time></trkpt><trkpt lat="44.46135894378647" lon="8.991187840778613"><ele>198.0</ele><time>2026-05-02T10:03:17.001Z</time></trkpt><trkpt lat="44.4613538324714" lon="8.991084479956275"><ele>197.0</ele><time>2026-05-02T10:03:18.001Z</time></trkpt><trkpt lat="44.46134338424836" lon="8.990987858369811"><ele>196.0</ele><time>2026-05-02T10:03:19.001Z</time></trkpt><trkpt lat="44.46133288239217" lon="8.990886374288577"><ele>195.16666666666666</ele><time>2026-05-02T10:03:20.001Z</time></trkpt><trkpt lat="44.46132189249582" lon="8.990794584298655"><ele>194.33333333333331</ele><time>2026-05-02T10:03:21.001Z</time></trkpt><trkpt lat="44.461323096272515" lon="8.990704872763757"><ele>193.5</ele><time>2026-05-02T10:03:22.001Z</time></trkpt><trkpt lat="44.46131874775085" lon="8.99061612439843"><ele>192.66666666666666</ele><time>2026-05-02T10:03:23.001Z</time></trkpt><trkpt lat="44.46131557411782" lon="8.990527354991212"><ele>191.83333333333331</ele><time>2026-05-02T10:03:24.001Z</time></trkpt><trkpt lat="44.46129792613736" lon="8.990344638303178"><ele>191.0</ele><time>2026-05-02T10:03:26.001Z</time></trkpt><trkpt lat="44.461280848531864" lon="8.990249355166622"><ele>194.20000000000002</ele><time>2026-05-02T10:03:27.001Z</time></trkpt><trkpt lat="44.46126084383696" lon="8.990159753784026"><ele>197.4</ele><time>2026-05-02T10:03:28.001Z</time></trkpt><trkpt lat="44.46120075142575" lon="8.990004559672943"><ele>200.6</ele><time>2026-05-02T10:03:30.002Z</time></trkpt><trkpt lat="44.461152738906144" lon="8.989862445265645"><ele>203.8</ele><time>2026-05-02T10:03:32.002Z</time></trkpt><trkpt lat="44.46112367029325" lon="8.989724084349135"><ele>207.0</ele><time>2026-05-02T10:03:34.002Z</time></trkpt><trkpt lat="44.46110412858263" lon="8.98957985725074"><ele>207.0</ele><time>2026-05-02T10:03:36.002Z</time></trkpt><trkpt lat="44.46111783119017" lon="8.989430024017262"><ele>207.0</ele><time>2026-05-02T10:03:38.002Z</time></trkpt><trkpt lat="44.46113878108897" lon="8.989287307145595"><ele>207.0</ele><time>2026-05-02T10:03:40.002Z</time></trkpt><trkpt lat="44.46116301831216" lon="8.989172190682053"><ele>207.0</ele><time>2026-05-02T10:03:42.002Z</time></trkpt><trkpt lat="44.461193569951355" lon="8.989064307846574"><ele>207.0</ele><time>2026-05-02T10:03:45.002Z</time></trkpt><trkpt lat="44.46120374652644" lon="8.988974888471589"><ele>207.0</ele><time>2026-05-02T10:03:48.002Z</time></trkpt><trkpt lat="44.461223709436446" lon="8.988847207981825"><ele>206.5</ele><time>2026-05-02T10:03:51.002Z</time></trkpt><trkpt lat="44.461233584121196" lon="8.988758568608697"><ele>206.0</ele><time>2026-05-02T10:03:53.002Z</time></trkpt><trkpt lat="44.46126686127621" lon="8.988661082749841"><ele>205.5</ele><time>2026-05-02T10:03:55.002Z</time></trkpt><trkpt lat="44.46130699379679" lon="8.988559453073753"><ele>205.0</ele><time>2026-05-02T10:03:57.002Z</time></trkpt><trkpt lat="44.46133674725795" lon="8.988427444709227"><ele>204.5</ele><time>2026-05-02T10:03:59.002Z</time></trkpt><trkpt lat="44.46135628634551" lon="8.988339823977286"><ele>204.0</ele><time>2026-05-02T10:04:01.003Z</time></trkpt><trkpt lat="44.461383259140504" lon="8.988248682593602"><ele>201.79999999999998</ele><time>2026-05-02T10:04:03.003Z</time></trkpt><trkpt lat="44.461401203481" lon="8.988136703321107"><ele>199.6</ele><time>2026-05-02T10:04:05.003Z</time></trkpt><trkpt lat="44.46142226026254" lon="8.988026017812777"><ele>197.4</ele><time>2026-05-02T10:04:07.003Z</time></trkpt><trkpt lat="44.4614482134662" lon="8.987901199621707"><ele>195.2</ele><time>2026-05-02T10:04:09.003Z</time></trkpt><trkpt lat="44.46148150098664" lon="8.98776817277144"><ele>193.0</ele><time>2026-05-02T10:04:11.003Z</time></trkpt><trkpt lat="44.461513695610776" lon="8.987627422686211"><ele>192.2</ele><time>2026-05-02T10:04:13.003Z</time></trkpt><trkpt lat="44.461543222540286" lon="8.98749045506156"><ele>191.4</ele><time>2026-05-02T10:04:15.003Z</time></trkpt><trkpt lat="44.46156610512571" lon="8.987357364487734"><ele>190.6</ele><time>2026-05-02T10:04:17.003Z</time></trkpt><trkpt lat="44.461573014604916" lon="8.98721936770299"><ele>189.79999999999998</ele><time>2026-05-02T10:04:19.003Z</time></trkpt><trkpt lat="44.46157314738049" lon="8.987070983460265"><ele>189.0</ele><time>2026-05-02T10:04:21.003Z</time></trkpt><trkpt lat="44.46154111912834" lon="8.986911191273517"><ele>189.0</ele><time>2026-05-02T10:04:23.003Z</time></trkpt><trkpt lat="44.46146717861466" lon="8.986758744053544"><ele>189.0</ele><time>2026-05-02T10:04:25.003Z</time></trkpt><trkpt lat="44.461421072347136" lon="8.986680380594"><ele>189.0</ele><time>2026-05-02T10:04:26.003Z</time></trkpt><trkpt lat="44.46137421907954" lon="8.9865951421384"><ele>189.0</ele><time>2026-05-02T10:04:27.003Z</time></trkpt><trkpt lat="44.46132216706995" lon="8.986505684316946"><ele>189.0</ele><time>2026-05-02T10:04:28.003Z</time></trkpt><trkpt lat="44.46126792199104" lon="8.986412697286923"><ele>189.0</ele><time>2026-05-02T10:04:28.998Z</time></trkpt><trkpt lat="44.4612009060418" lon="8.986331661641328"><ele>188.66666666666666</ele><time>2026-05-02T10:04:29.998Z</time></trkpt><trkpt lat="44.46112815861422" lon="8.986259652177813"><ele>188.33333333333334</ele><time>2026-05-02T10:04:30.998Z</time></trkpt><trkpt lat="44.46105371499872" lon="8.986188968687095"><ele>188.0</ele><time>2026-05-02T10:04:31.998Z</time></trkpt><trkpt lat="44.46097623583099" lon="8.9861168715166"><ele>187.66666666666669</ele><time>2026-05-02T10:04:32.999Z</time></trkpt><trkpt lat="44.46090322915705" lon="8.98603928069778"><ele>187.33333333333334</ele><time>2026-05-02T10:04:33.999Z</time></trkpt><trkpt lat="44.46083689057106" lon="8.98596719016478"><ele>187.0</ele><time>2026-05-02T10:04:34.999Z</time></trkpt><trkpt lat="44.46077474643273" lon="8.985893702343406"><ele>185.0</ele><time>2026-05-02T10:04:35.999Z</time></trkpt><trkpt lat="44.46071436885807" lon="8.985819900713905"><ele>183.0</ele><time>2026-05-02T10:04:36.999Z</time></trkpt><trkpt lat="44.46064633103738" lon="8.985753540550018"><ele>181.0</ele><time>2026-05-02T10:04:37.999Z</time></trkpt><trkpt lat="44.460576922585226" lon="8.985697051465726"><ele>179.0</ele><time>2026-05-02T10:04:38.999Z</time></trkpt><trkpt lat="44.46051064146006" lon="8.985641763272017"><ele>177.0</ele><time>2026-05-02T10:04:39.999Z</time></trkpt><trkpt lat="44.4604556132522" lon="8.985552125106564"><ele>175.0</ele><time>2026-05-02T10:04:40.999Z</time></trkpt><trkpt lat="44.46037854822916" lon="8.985498751893864"><ele>175.0</ele><time>2026-05-02T10:04:41.999Z</time></trkpt><trkpt lat="44.46029826478313" lon="8.985456658215192"><ele>175.0</ele><time>2026-05-02T10:04:42.999Z</time></trkpt><trkpt lat="44.46020666408394" lon="8.985451110204233"><ele>175.0</ele><time>2026-05-02T10:04:43.999Z</time></trkpt><trkpt lat="44.46011945357532" lon="8.985468474191517"><ele>175.0</ele><time>2026-05-02T10:04:44.999Z</time></trkpt><trkpt lat="44.46003645402309" lon="8.98549512298128"><ele>175.0</ele><time>2026-05-02T10:04:45.999Z</time></trkpt><trkpt lat="44.459956742139006" lon="8.985526352006701"><ele>175.0</ele><time>2026-05-02T10:04:46.999Z</time></trkpt><trkpt lat="44.45987933799186" lon="8.98555667713804"><ele>175.0</ele><time>2026-05-02T10:04:48Z</time></trkpt><trkpt lat="44.45981418217506" lon="8.985578881978743"><ele>175.0</ele><time>2026-05-02T10:04:49Z</time></trkpt><trkpt lat="44.459735985937854" lon="8.985571861755696"><ele>175.0</ele><time>2026-05-02T10:04:51Z</time></trkpt><trkpt lat="44.459733874067844" lon="8.985462317984735"><ele>175.0</ele><time>2026-05-02T10:04:53Z</time></trkpt><trkpt lat="44.45982890050559" lon="8.985400325172753"><ele>175.0</ele><time>2026-05-02T10:04:55Z</time></trkpt><trkpt lat="44.45993179720632" lon="8.98534983509363"><ele>175.0</ele><time>2026-05-02T10:04:57Z</time></trkpt><trkpt lat="44.4600174408295" lon="8.985252796751825"><ele>175.0</ele><time>2026-05-02T10:04:59Z</time></trkpt><trkpt lat="44.46006802758639" lon="8.985192869825841"><ele>175.0</ele><time>2026-05-02T10:05:00Z</time></trkpt><trkpt lat="44.460142853679045" lon="8.985110234491836"><ele>175.0</ele><time>2026-05-02T10:05:02Z</time></trkpt><trkpt lat="44.46022617254537" lon="8.985019381443275"><ele>175.0</ele><time>2026-05-02T10:05:04Z</time></trkpt><trkpt lat="44.46031777343535" lon="8.984909536317224"><ele>175.0</ele><time>2026-05-02T10:05:06.001Z</time></trkpt><trkpt lat="44.46040625742295" lon="8.984809229113223"><ele>172.8</ele><time>2026-05-02T10:05:08.001Z</time></trkpt><trkpt lat="44.46048537817432" lon="8.984726690919901"><ele>170.6</ele><time>2026-05-02T10:05:10.001Z</time></trkpt><trkpt lat="44.460525922494725" lon="8.984593680521556"><ele>168.39999999999998</ele><time>2026-05-02T10:05:12.001Z</time></trkpt><trkpt lat="44.460502722852794" lon="8.984442499773936"><ele>166.2</ele><time>2026-05-02T10:05:14.001Z</time></trkpt><trkpt lat="44.460422248952845" lon="8.984322341971144"><ele>164.0</ele><time>2026-05-02T10:05:16.001Z</time></trkpt><trkpt lat="44.46030912550305" lon="8.98429810430166"><ele>164.0</ele><time>2026-05-02T10:05:18.001Z</time></trkpt><trkpt lat="44.460214470743615" lon="8.984353383080782"><ele>164.0</ele><time>2026-05-02T10:05:20.001Z</time></trkpt><trkpt lat="44.46013495698866" lon="8.984400188788053"><ele>164.0</ele><time>2026-05-02T10:05:22.001Z</time></trkpt><trkpt lat="44.46006983759453" lon="8.984516048959074"><ele>164.0</ele><time>2026-05-02T10:05:24.001Z</time></trkpt><trkpt lat="44.45997818083996" lon="8.984605599918957"><ele>164.0</ele><time>2026-05-02T10:05:26.001Z</time></trkpt><trkpt lat="44.45988657906035" lon="8.984670590270385"><ele>164.0</ele><time>2026-05-02T10:05:28.001Z</time></trkpt><trkpt lat="44.459813354320865" lon="8.98469506692659"><ele>164.0</ele><time>2026-05-02T10:05:30.001Z</time></trkpt><trkpt lat="44.45969876769614" lon="8.984697258877835"><ele>164.0</ele><time>2026-05-02T10:05:32.001Z</time></trkpt><trkpt lat="44.45963395717314" lon="8.984694389162936"><ele>164.0</ele><time>2026-05-02T10:05:33.001Z</time></trkpt><trkpt lat="44.45951123247764" lon="8.984671851738588"><ele>164.0</ele><time>2026-05-02T10:05:35.002Z</time></trkpt><trkpt lat="44.45944433675562" lon="8.984684781755785"><ele>164.0</ele><time>2026-05-02T10:05:36.002Z</time></trkpt><trkpt lat="44.45937727278764" lon="8.984714587055535"><ele>161.83333333333331</ele><time>2026-05-02T10:05:37.002Z</time></trkpt><trkpt lat="44.459310470505116" lon="8.984758079793828"><ele>159.66666666666666</ele><time>2026-05-02T10:05:38.002Z</time></trkpt><trkpt lat="44.45924654320788" lon="8.984803141334357"><ele>157.5</ele><time>2026-05-02T10:05:39.002Z</time></trkpt><trkpt lat="44.45918518953041" lon="8.984857908098345"><ele>155.33333333333334</ele><time>2026-05-02T10:05:40.002Z</time></trkpt><trkpt lat="44.45911504866069" lon="8.98490540131255"><ele>153.16666666666669</ele><time>2026-05-02T10:05:41.002Z</time></trkpt><trkpt lat="44.45904461549316" lon="8.984953721958002"><ele>151.0</ele><time>2026-05-02T10:05:42.002Z</time></trkpt><trkpt lat="44.45897721684267" lon="8.985011967520919"><ele>150.16666666666669</ele><time>2026-05-02T10:05:43.002Z</time></trkpt><trkpt lat="44.458917169336566" lon="8.985095954906491"><ele>149.33333333333334</ele><time>2026-05-02T10:05:44.002Z</time></trkpt><trkpt lat="44.45886220081767" lon="8.985189259995888"><ele>148.5</ele><time>2026-05-02T10:05:45.002Z</time></trkpt><trkpt lat="44.45881581204888" lon="8.985295676124142"><ele>147.66666666666666</ele><time>2026-05-02T10:05:46.002Z</time></trkpt><trkpt lat="44.45876733046769" lon="8.985374258656151"><ele>146.83333333333331</ele><time>2026-05-02T10:05:47.002Z</time></trkpt><trkpt lat="44.458673093147645" lon="8.985450848076024"><ele>146.0</ele><time>2026-05-02T10:05:49.002Z</time></trkpt><trkpt lat="44.458611914480876" lon="8.985425445280493"><ele>146.0</ele><time>2026-05-02T10:05:50.002Z</time></trkpt><trkpt lat="44.458562575570774" lon="8.985321572887745"><ele>146.0</ele><time>2026-05-02T10:05:52.002Z</time></trkpt><trkpt lat="44.45860943481643" lon="8.985183894329927"><ele>146.0</ele><time>2026-05-02T10:05:54.002Z</time></trkpt><trkpt lat="44.45867509420465" lon="8.985046588353255"><ele>146.0</ele><time>2026-05-02T10:05:56.002Z</time></trkpt><trkpt lat="44.45873571838387" lon="8.984893652380416"><ele>146.0</ele><time>2026-05-02T10:05:58.002Z</time></trkpt><trkpt lat="44.45879344708661" lon="8.984752834516359"><ele>147.0</ele><time>2026-05-02T10:06:00.002Z</time></trkpt><trkpt lat="44.45885261710805" lon="8.98459393828023"><ele>148.0</ele><time>2026-05-02T10:06:02.002Z</time></trkpt><trkpt lat="44.458885449452524" lon="8.984507110334345"><ele>149.0</ele><time>2026-05-02T10:06:03.002Z</time></trkpt><trkpt lat="44.458933739025746" lon="8.984334278520079"><ele>150.0</ele><time>2026-05-02T10:06:05.002Z</time></trkpt><trkpt lat="44.4589641644867" lon="8.984232336220881"><ele>151.0</ele><time>2026-05-02T10:06:06.003Z</time></trkpt><trkpt lat="44.458998222776835" lon="8.984133403616747"><ele>149.42857142857144</ele><time>2026-05-02T10:06:07.003Z</time></trkpt><trkpt lat="44.45903250898063" lon="8.984045905773918"><ele>147.85714285714286</ele><time>2026-05-02T10:06:08.003Z</time></trkpt><trkpt lat="44.45905455684886" lon="8.983947262096759"><ele>146.28571428571428</ele><time>2026-05-02T10:06:09.003Z</time></trkpt><trkpt lat="44.45908852572532" lon="8.983871433865502"><ele>144.71428571428572</ele><time>2026-05-02T10:06:10.003Z</time></trkpt><trkpt lat="44.45911780745613" lon="8.983761301987728"><ele>143.14285714285714</ele><time>2026-05-02T10:06:11.003Z</time></trkpt><trkpt lat="44.45916720912579" lon="8.983676808609374"><ele>141.57142857142858</ele><time>2026-05-02T10:06:12.003Z</time></trkpt><trkpt lat="44.45919165371202" lon="8.983571922353118"><ele>140.0</ele><time>2026-05-02T10:06:13.003Z</time></trkpt><trkpt lat="44.459209035824074" lon="8.983481992767466"><ele>138.5</ele><time>2026-05-02T10:06:14.003Z</time></trkpt><trkpt lat="44.45919160176012" lon="8.983325564944847"><ele>137.0</ele><time>2026-05-02T10:06:16.003Z</time></trkpt><trkpt lat="44.4591856518799" lon="8.983233593019014"><ele>135.5</ele><time>2026-05-02T10:06:22.003Z</time></trkpt><trkpt lat="44.45911717669924" lon="8.983228753215519"><ele>134.0</ele><time>2026-05-02T10:06:25.003Z</time></trkpt><trkpt lat="44.45906138736882" lon="8.983135392497719"><ele>132.5</ele><time>2026-05-02T10:06:27.003Z</time></trkpt><trkpt lat="44.458988605276225" lon="8.983021576971515"><ele>131.0</ele><time>2026-05-02T10:06:29.003Z</time></trkpt><trkpt lat="44.4589067132107" lon="8.982929919124865"><ele>131.0</ele><time>2026-05-02T10:06:31.003Z</time></trkpt><trkpt lat="44.45881009687735" lon="8.982836626147117"><ele>131.0</ele><time>2026-05-02T10:06:33.003Z</time></trkpt><trkpt lat="44.45876067774595" lon="8.98277679856704"><ele>131.0</ele><time>2026-05-02T10:06:34.003Z</time></trkpt><trkpt lat="44.458659463565034" lon="8.982659370063136"><ele>131.0</ele><time>2026-05-02T10:06:35.998Z</time></trkpt><trkpt lat="44.4585983258373" lon="8.982592404762183"><ele>131.0</ele><time>2026-05-02T10:06:36.998Z</time></trkpt><trkpt lat="44.45854679134183" lon="8.98254037638762"><ele>129.8</ele><time>2026-05-02T10:06:37.998Z</time></trkpt><trkpt lat="44.45847536819172" lon="8.982456466679235"><ele>128.6</ele><time>2026-05-02T10:06:38.998Z</time></trkpt><trkpt lat="44.45844172592711" lon="8.982321303726733"><ele>127.4</ele><time>2026-05-02T10:06:39.998Z</time></trkpt><trkpt lat="44.45836582615872" lon="8.982258381336882"><ele>126.2</ele><time>2026-05-02T10:06:40.998Z</time></trkpt><trkpt lat="44.45826021257139" lon="8.982288134318223"><ele>125.0</ele><time>2026-05-02T10:06:41.998Z</time></trkpt><trkpt lat="44.45817489839853" lon="8.982259263719403"><ele>124.99999999999999</ele><time>2026-05-02T10:06:42.999Z</time></trkpt><trkpt lat="44.45809248302289" lon="8.982232195573769"><ele>125.0</ele><time>2026-05-02T10:06:43.999Z</time></trkpt><trkpt lat="44.45800889678419" lon="8.982204167333363"><ele>125.0</ele><time>2026-05-02T10:06:44.999Z</time></trkpt><trkpt lat="44.45792349963002" lon="8.982188757195594"><ele>125.0</ele><time>2026-05-02T10:06:45.999Z</time></trkpt><trkpt lat="44.45782944027564" lon="8.982165868223628"><ele>124.99999999999999</ele><time>2026-05-02T10:06:46.999Z</time></trkpt><trkpt lat="44.45773878047868" lon="8.982143401428704"><ele>125.0</ele><time>2026-05-02T10:06:47.999Z</time></trkpt><trkpt lat="44.457648341622374" lon="8.982115154867703"><ele>123.0</ele><time>2026-05-02T10:06:48.999Z</time></trkpt><trkpt lat="44.45754127037156" lon="8.982142409253562"><ele>121.0</ele><time>2026-05-02T10:06:49.999Z</time></trkpt><trkpt lat="44.45745126810734" lon="8.982210235937764"><ele>119.0</ele><time>2026-05-02T10:06:50.999Z</time></trkpt><trkpt lat="44.457367529213926" lon="8.982298994331108"><ele>117.0</ele><time>2026-05-02T10:06:51.999Z</time></trkpt><trkpt lat="44.457283627726575" lon="8.982393475784397"><ele>115.0</ele><time>2026-05-02T10:06:52.999Z</time></trkpt><trkpt lat="44.457207456390826" lon="8.982481191552743"><ele>114.2</ele><time>2026-05-02T10:06:53.999Z</time></trkpt><trkpt lat="44.45712201254331" lon="8.982566870219708"><ele>113.4</ele><time>2026-05-02T10:06:55Z</time></trkpt><trkpt lat="44.45702597374681" lon="8.982627769938016"><ele>112.6</ele><time>2026-05-02T10:06:56Z</time></trkpt><trkpt lat="44.456959447399036" lon="8.982727387238675"><ele>111.8</ele><time>2026-05-02T10:06:57Z</time></trkpt><trkpt lat="44.45687515257133" lon="8.982805879805644"><ele>111.0</ele><time>2026-05-02T10:06:58Z</time></trkpt><trkpt lat="44.45680617399302" lon="8.982879598203892"><ele>111.0</ele><time>2026-05-02T10:06:59Z</time></trkpt><trkpt lat="44.45673568296691" lon="8.982971544228658"><ele>111.0</ele><time>2026-05-02T10:07:00Z</time></trkpt><trkpt lat="44.456701547574326" lon="8.983091198647948"><ele>111.0</ele><time>2026-05-02T10:07:01Z</time></trkpt><trkpt lat="44.45669388080076" lon="8.983216708247426"><ele>111.0</ele><time>2026-05-02T10:07:02Z</time></trkpt><trkpt lat="44.45667876867871" lon="8.983346208177856"><ele>111.0</ele><time>2026-05-02T10:07:03Z</time></trkpt><trkpt lat="44.45664980074458" lon="8.98347750137249"><ele>110.0</ele><time>2026-05-02T10:07:04Z</time></trkpt><trkpt lat="44.45661363946146" lon="8.983595450415297"><ele>109.0</ele><time>2026-05-02T10:07:05Z</time></trkpt><trkpt lat="44.45657934712831" lon="8.983698052434109"><ele>108.0</ele><time>2026-05-02T10:07:06Z</time></trkpt><trkpt lat="44.45654330768082" lon="8.983787477714403"><ele>107.0</ele><time>2026-05-02T10:07:07Z</time></trkpt><trkpt lat="44.45648319169879" lon="8.98383621503101"><ele>106.0</ele><time>2026-05-02T10:07:08Z</time></trkpt><trkpt lat="44.45640394815982" lon="8.983827145473928"><ele>105.0</ele><time>2026-05-02T10:07:09Z</time></trkpt><trkpt lat="44.456354794004305" lon="8.983765523413238"><ele>105.0</ele><time>2026-05-02T10:07:10Z</time></trkpt><trkpt lat="44.45633417094953" lon="8.983661303826391"><ele>105.0</ele><time>2026-05-02T10:07:11Z</time></trkpt><trkpt lat="44.45634246983608" lon="8.983546856865814"><ele>105.0</ele><time>2026-05-02T10:07:12.001Z</time></trkpt><trkpt lat="44.45636823099883" lon="8.983429258327341"><ele>105.0</ele><time>2026-05-02T10:07:13.001Z</time></trkpt><trkpt lat="44.45640151604268" lon="8.98330921346893"><ele>105.0</ele><time>2026-05-02T10:07:14.001Z</time></trkpt><trkpt lat="44.456415189575935" lon="8.983174212253386"><ele>105.0</ele><time>2026-05-02T10:07:15.001Z</time></trkpt><trkpt lat="44.4564195705335" lon="8.983038062955476"><ele>105.8</ele><time>2026-05-02T10:07:16.001Z</time></trkpt><trkpt lat="44.45640526026425" lon="8.982904171925627"><ele>106.6</ele><time>2026-05-02T10:07:17.001Z</time></trkpt><trkpt lat="44.45639036916217" lon="8.982774489207097"><ele>107.4</ele><time>2026-05-02T10:07:18.001Z</time></trkpt><trkpt lat="44.456377824673844" lon="8.9826403472394"><ele>108.2</ele><time>2026-05-02T10:07:19.001Z</time></trkpt><trkpt lat="44.45636642688116" lon="8.982517281884006"><ele>109.0</ele><time>2026-05-02T10:07:20.001Z</time></trkpt><trkpt lat="44.45636104549869" lon="8.982399551295819"><ele>109.00000000000001</ele><time>2026-05-02T10:07:21.001Z</time></trkpt><trkpt lat="44.456359432809606" lon="8.982287436721704"><ele>109.0</ele><time>2026-05-02T10:07:22.001Z</time></trkpt><trkpt lat="44.45636422266919" lon="8.982177684487096"><ele>109.0</ele><time>2026-05-02T10:07:23.001Z</time></trkpt><trkpt lat="44.45637518232984" lon="8.982074685287028"><ele>109.0</ele><time>2026-05-02T10:07:24.001Z</time></trkpt><trkpt lat="44.45638081743723" lon="8.98196949697237"><ele>109.00000000000001</ele><time>2026-05-02T10:07:25.001Z</time></trkpt><trkpt lat="44.45639278700567" lon="8.981861003513961"><ele>109.0</ele><time>2026-05-02T10:07:26.001Z</time></trkpt><trkpt lat="44.45639427528452" lon="8.98175395522728"><ele>107.50000000000001</ele><time>2026-05-02T10:07:27.001Z</time></trkpt><trkpt lat="44.45639671787142" lon="8.98163793079029"><ele>106.0</ele><time>2026-05-02T10:07:28.001Z</time></trkpt><trkpt lat="44.45640456640356" lon="8.981517381573337"><ele>104.5</ele><time>2026-05-02T10:07:29.001Z</time></trkpt><trkpt lat="44.45641251330423" lon="8.981403263612798"><ele>103.0</ele><time>2026-05-02T10:07:30.001Z</time></trkpt><trkpt lat="44.456443483139765" lon="8.981301890267071"><ele>101.50000000000001</ele><time>2026-05-02T10:07:31.001Z</time></trkpt><trkpt lat="44.45650137322093" lon="8.981208974220355"><ele>100.0</ele><time>2026-05-02T10:07:32.001Z</time></trkpt><trkpt lat="44.45657547224996" lon="8.981154503768899"><ele>100.00000000000001</ele><time>2026-05-02T10:07:33.001Z</time></trkpt><trkpt lat="44.45665387604476" lon="8.981117361718384"><ele>100.0</ele><time>2026-05-02T10:07:34.001Z</time></trkpt><trkpt lat="44.4567313691136" lon="8.981078327555299"><ele>100.0</ele><time>2026-05-02T10:07:35.001Z</time></trkpt><trkpt lat="44.45681082400663" lon="8.981049877400723"><ele>100.0</ele><time>2026-05-02T10:07:36.001Z</time></trkpt><trkpt lat="44.45688578212442" lon="8.98100753491863"><ele>100.00000000000001</ele><time>2026-05-02T10:07:37.001Z</time></trkpt><trkpt lat="44.45696315386967" lon="8.980963267587317"><ele>100.0</ele><time>2026-05-02T10:07:38.001Z</time></trkpt><trkpt lat="44.45704321272621" lon="8.980923488397474"><ele>99.0</ele><time>2026-05-02T10:07:39.002Z</time></trkpt><trkpt lat="44.457126348023564" lon="8.980896306661629"><ele>98.0</ele><time>2026-05-02T10:07:40.002Z</time></trkpt><trkpt lat="44.45721342765" lon="8.980879913893625"><ele>97.0</ele><time>2026-05-02T10:07:41.002Z</time></trkpt><trkpt lat="44.457306596145905" lon="8.980858088198081"><ele>96.0</ele><time>2026-05-02T10:07:42.002Z</time></trkpt><trkpt lat="44.457401741629894" lon="8.9808442689915"><ele>95.0</ele><time>2026-05-02T10:07:43.002Z</time></trkpt><trkpt lat="44.45749664792513" lon="8.98082788687715"><ele>95.0</ele><time>2026-05-02T10:07:44.002Z</time></trkpt><trkpt lat="44.45757871526301" lon="8.980819933438626"><ele>95.0</ele><time>2026-05-02T10:07:45.002Z</time></trkpt><trkpt lat="44.45765053540392" lon="8.980818034458656"><ele>95.0</ele><time>2026-05-02T10:07:46.002Z</time></trkpt><trkpt lat="44.45776097458952" lon="8.98076599769972"><ele>95.0</ele><time>2026-05-02T10:07:48.002Z</time></trkpt><trkpt lat="44.457782655058296" lon="8.980626218543321"><ele>95.0</ele><time>2026-05-02T10:07:50.002Z</time></trkpt><trkpt lat="44.45769938199993" lon="8.980521898434063"><ele>95.0</ele><time>2026-05-02T10:07:52.002Z</time></trkpt><trkpt lat="44.45759415970154" lon="8.980520571530676"><ele>95.0</ele><time>2026-05-02T10:07:54.002Z</time></trkpt><trkpt lat="44.457481630270856" lon="8.980512128502768"><ele>95.0</ele><time>2026-05-02T10:07:56.002Z</time></trkpt><trkpt lat="44.45734802634464" lon="8.98050591324414"><ele>95.0</ele><time>2026-05-02T10:07:58.002Z</time></trkpt><trkpt lat="44.4572605927847" lon="8.98048114309353"><ele>95.0</ele><time>2026-05-02T10:08:00.002Z</time></trkpt><trkpt lat="44.45719446748" lon="8.980472077123562"><ele>95.0</ele><time>2026-05-02T10:08:02.002Z</time></trkpt><trkpt lat="44.457131067051925" lon="8.980479071780463"><ele>95.0</ele><time>2026-05-02T10:08:16.003Z</time></trkpt><trkpt lat="44.45704122304111" lon="8.980471246984703"><ele>95.0</ele><time>2026-05-02T10:08:20.003Z</time></trkpt><trkpt lat="44.45696690235824" lon="8.980486291383464"><ele>95.0</ele><time>2026-05-02T10:08:22.003Z</time></trkpt><trkpt lat="44.45689338282349" lon="8.980485522632936"><ele>95.0</ele><time>2026-05-02T10:08:24.003Z</time></trkpt><trkpt lat="44.45680605249675" lon="8.98046880712597"><ele>95.0</ele><time>2026-05-02T10:08:26.003Z</time></trkpt><trkpt lat="44.45673761186935" lon="8.980461265562358"><ele>93.8</ele><time>2026-05-02T10:08:28.003Z</time></trkpt><trkpt lat="44.45665046371702" lon="8.980477620290198"><ele>92.6</ele><time>2026-05-02T10:08:30.003Z</time></trkpt><trkpt lat="44.456577380621695" lon="8.980465522836683"><ele>91.4</ele><time>2026-05-02T10:08:32.003Z</time></trkpt><trkpt lat="44.456474502514816" lon="8.980461395052021"><ele>90.2</ele><time>2026-05-02T10:08:34.003Z</time></trkpt><trkpt lat="44.45637137996176" lon="8.980464335639136"><ele>89.0</ele><time>2026-05-02T10:08:36.003Z</time></trkpt><trkpt lat="44.456276233964466" lon="8.980461018783739"><ele>87.4</ele><time>2026-05-02T10:08:38.003Z</time></trkpt><trkpt lat="44.45616363395079" lon="8.980489732437066"><ele>85.80000000000001</ele><time>2026-05-02T10:08:40.003Z</time></trkpt><trkpt lat="44.456033030183626" lon="8.980509602909168"><ele>84.19999999999999</ele><time>2026-05-02T10:08:41.999Z</time></trkpt><trkpt lat="44.455965965383236" lon="8.980520503036892"><ele>82.6</ele><time>2026-05-02T10:08:42.999Z</time></trkpt><trkpt lat="44.455896408096464" lon="8.980533839957907"><ele>81.0</ele><time>2026-05-02T10:08:43.999Z</time></trkpt><trkpt lat="44.45583014403573" lon="8.980545499916772"><ele>81.0</ele><time>2026-05-02T10:08:44.999Z</time></trkpt><trkpt lat="44.455767153559634" lon="8.98056392813321"><ele>81.0</ele><time>2026-05-02T10:08:45.999Z</time></trkpt><trkpt lat="44.45570139790049" lon="8.980584082244716"><ele>81.0</ele><time>2026-05-02T10:08:46.999Z</time></trkpt><trkpt lat="44.4556389583277" lon="8.980610321446774"><ele>81.0</ele><time>2026-05-02T10:08:47.999Z</time></trkpt><trkpt lat="44.455567413506415" lon="8.980636926703239"><ele>81.0</ele><time>2026-05-02T10:08:48.999Z</time></trkpt><trkpt lat="44.45549455983632" lon="8.980661766076528"><ele>81.0</ele><time>2026-05-02T10:08:49.999Z</time></trkpt><trkpt lat="44.45543140558184" lon="8.98068722805724"><ele>81.0</ele><time>2026-05-02T10:08:50.999Z</time></trkpt><trkpt lat="44.4553642437339" lon="8.980712520754492"><ele>78.6</ele><time>2026-05-02T10:08:51.999Z</time></trkpt><trkpt lat="44.45530364755028" lon="8.980752880090717"><ele>76.19999999999999</ele><time>2026-05-02T10:08:52.999Z</time></trkpt><trkpt lat="44.45524264891466" lon="8.980803720617137"><ele>73.80000000000001</ele><time>2026-05-02T10:08:53.999Z</time></trkpt><trkpt lat="44.45513962066226" lon="8.980879367623816"><ele>71.4</ele><time>2026-05-02T10:08:55.999Z</time></trkpt><trkpt lat="44.455050200120525" lon="8.980957527637198"><ele>69.0</ele><time>2026-05-02T10:08:58Z</time></trkpt><trkpt lat="44.45496865553085" lon="8.981037846320836"><ele>69.0</ele><time>2026-05-02T10:09:00Z</time></trkpt><trkpt lat="44.45486764222678" lon="8.981108560673157"><ele>69.0</ele><time>2026-05-02T10:09:02Z</time></trkpt><trkpt lat="44.45475549046408" lon="8.98114459596282"><ele>69.0</ele><time>2026-05-02T10:09:04Z</time></trkpt><trkpt lat="44.45468057527607" lon="8.98116543946074"><ele>69.0</ele><time>2026-05-02T10:09:06Z</time></trkpt><trkpt lat="44.4545912901111" lon="8.981191791912538"><ele>69.0</ele><time>2026-05-02T10:09:09Z</time></trkpt><trkpt lat="44.454501122745626" lon="8.981182436345994"><ele>67.5</ele><time>2026-05-02T10:09:12Z</time></trkpt><trkpt lat="44.454438028177066" lon="8.98120742591133"><ele>66.0</ele><time>2026-05-02T10:09:23.001Z</time></trkpt><trkpt lat="44.454383621295" lon="8.98104645782916"><ele>64.5</ele><time>2026-05-02T10:09:36.001Z</time></trkpt><trkpt lat="44.454371442356006" lon="8.980946202257279"><ele>63.0</ele><time>2026-05-02T10:09:38.001Z</time></trkpt><trkpt lat="44.45436526345342" lon="8.980849218960168"><ele>61.5</ele><time>2026-05-02T10:09:40.001Z</time></trkpt><trkpt lat="44.45435583592363" lon="8.980730375309808"><ele>60.0</ele><time>2026-05-02T10:09:42.001Z</time></trkpt><trkpt lat="44.45432053428135" lon="8.980619486002054"><ele>60.0</ele><time>2026-05-02T10:09:44.001Z</time></trkpt><trkpt lat="44.454279465670574" lon="8.980513917256204"><ele>60.0</ele><time>2026-05-02T10:09:46.001Z</time></trkpt><trkpt lat="44.454260438317625" lon="8.980422226540439"><ele>60.0</ele><time>2026-05-02T10:09:49.001Z</time></trkpt><trkpt lat="44.454215774187894" lon="8.980310173941614"><ele>60.0</ele><time>2026-05-02T10:09:52.002Z</time></trkpt><trkpt lat="44.454199530150774" lon="8.98021543685606"><ele>60.0</ele><time>2026-05-02T10:09:57.002Z</time></trkpt><trkpt lat="44.45419154403998" lon="8.980101305167809"><ele>60.0</ele><time>2026-05-02T10:10:01.002Z</time></trkpt><trkpt lat="44.45418714394315" lon="8.979980456226698"><ele>59.85714285714286</ele><time>2026-05-02T10:10:04.002Z</time></trkpt><trkpt lat="44.45416348282243" lon="8.979891581006063"><ele>59.71428571428571</ele><time>2026-05-02T10:10:09.002Z</time></trkpt><trkpt lat="44.45410770488322" lon="8.979819050095953"><ele>59.57142857142857</ele><time>2026-05-02T10:10:11.002Z</time></trkpt><trkpt lat="44.45405689061166" lon="8.979746600898562"><ele>59.42857142857143</ele><time>2026-05-02T10:10:13.002Z</time></trkpt><trkpt lat="44.45405169386662" lon="8.97964205029423"><ele>59.28571428571429</ele><time>2026-05-02T10:10:15.002Z</time></trkpt><trkpt lat="44.4540286688864" lon="8.979533145262478"><ele>59.14285714285714</ele><time>2026-05-02T10:10:17.002Z</time></trkpt><trkpt lat="44.45400508601279" lon="8.979438648888733"><ele>59.0</ele><time>2026-05-02T10:10:20.002Z</time></trkpt><trkpt lat="44.45398658410233" lon="8.979353429723897"><ele>59.0</ele><time>2026-05-02T10:10:21.002Z</time></trkpt><trkpt lat="44.453967215222065" lon="8.979260769729224"><ele>59.00000000000001</ele><time>2026-05-02T10:10:22.002Z</time></trkpt><trkpt lat="44.45394524006377" lon="8.979134724723664"><ele>59.00000000000001</ele><time>2026-05-02T10:10:24.003Z</time></trkpt><trkpt lat="44.45390464682073" lon="8.979010540022138"><ele>59.0</ele><time>2026-05-02T10:10:26.003Z</time></trkpt><trkpt lat="44.45385575199911" lon="8.978887826602547"><ele>59.0</ele><time>2026-05-02T10:10:28.003Z</time></trkpt><trkpt lat="44.45380330980371" lon="8.978769966690415"><ele>59.2</ele><time>2026-05-02T10:10:30.003Z</time></trkpt><trkpt lat="44.45374844557442" lon="8.97865459430737"><ele>59.400000000000006</ele><time>2026-05-02T10:10:32.003Z</time></trkpt><trkpt lat="44.45367691643313" lon="8.978553380508165"><ele>59.6</ele><time>2026-05-02T10:10:34.003Z</time></trkpt><trkpt lat="44.453623279207584" lon="8.9784489139772"><ele>59.8</ele><time>2026-05-02T10:10:36.003Z</time></trkpt><trkpt lat="44.45357224197313" lon="8.97835252820776"><ele>60.0</ele><time>2026-05-02T10:10:38.003Z</time></trkpt><trkpt lat="44.453525368447664" lon="8.978253254355513"><ele>60.0</ele><time>2026-05-02T10:10:40.003Z</time></trkpt><trkpt lat="44.45348079487257" lon="8.978155165648685"><ele>60.0</ele><time>2026-05-02T10:10:42.003Z</time></trkpt><trkpt lat="44.45343139466275" lon="8.978058708656688"><ele>60.0</ele><time>2026-05-02T10:10:44.003Z</time></trkpt><trkpt lat="44.45339404588768" lon="8.977970303880541"><ele>60.0</ele><time>2026-05-02T10:10:46.003Z</time></trkpt><trkpt lat="44.4533383531482" lon="8.97786810846428"><ele>60.0</ele><time>2026-05-02T10:10:47.999Z</time></trkpt><trkpt lat="44.45328783984674" lon="8.977754262476184"><ele>60.0</ele><time>2026-05-02T10:10:49.999Z</time></trkpt><trkpt lat="44.453232234590615" lon="8.977643702949218"><ele>60.0</ele><time>2026-05-02T10:10:51.999Z</time></trkpt><trkpt lat="44.453158159670295" lon="8.977552900823632"><ele>60.0</ele><time>2026-05-02T10:10:53.999Z</time></trkpt><trkpt lat="44.45310530377977" lon="8.977447402251821"><ele>60.0</ele><time>2026-05-02T10:10:55.999Z</time></trkpt><trkpt lat="44.45304755832431" lon="8.977333548443417"><ele>60.0</ele><time>2026-05-02T10:10:58Z</time></trkpt><trkpt lat="44.45299085045986" lon="8.977201250748141"><ele>60.0</ele><time>2026-05-02T10:11:00Z</time></trkpt><trkpt lat="44.45292540180053" lon="8.97708196694151"><ele>59.4</ele><time>2026-05-02T10:11:02Z</time></trkpt><trkpt lat="44.4528654922831" lon="8.976946792873843"><ele>58.8</ele><time>2026-05-02T10:11:04Z</time></trkpt><trkpt lat="44.45279281987342" lon="8.976829167343416"><ele>58.2</ele><time>2026-05-02T10:11:06Z</time></trkpt><trkpt lat="44.45273522790964" lon="8.976703979882968"><ele>57.6</ele><time>2026-05-02T10:11:08Z</time></trkpt><trkpt lat="44.4526766774839" lon="8.976597183960969"><ele>57.0</ele><time>2026-05-02T10:11:10Z</time></trkpt><trkpt lat="44.45260171557926" lon="8.976505482888518"><ele>56.6</ele><time>2026-05-02T10:11:12Z</time></trkpt><trkpt lat="44.45255386583983" lon="8.976380947424289"><ele>56.2</ele><time>2026-05-02T10:11:14Z</time></trkpt><trkpt lat="44.45249224895211" lon="8.97628683783573"><ele>55.8</ele><time>2026-05-02T10:11:16Z</time></trkpt><trkpt lat="44.45242544077432" lon="8.976177308238807"><ele>55.4</ele><time>2026-05-02T10:11:18Z</time></trkpt><trkpt lat="44.452380343906576" lon="8.976063916385797"><ele>55.0</ele><time>2026-05-02T10:11:20Z</time></trkpt><trkpt lat="44.452319502466246" lon="8.975939257626958"><ele>54.4</ele><time>2026-05-02T10:11:22Z</time></trkpt><trkpt lat="44.45226500329652" lon="8.975816638256683"><ele>53.8</ele><time>2026-05-02T10:11:24Z</time></trkpt><trkpt lat="44.45220892199252" lon="8.975712912369954"><ele>53.2</ele><time>2026-05-02T10:11:26.001Z</time></trkpt><trkpt lat="44.45216523309377" lon="8.975604730360503"><ele>52.6</ele><time>2026-05-02T10:11:28.001Z</time></trkpt><trkpt lat="44.45212355088398" lon="8.975499515788835"><ele>52.0</ele><time>2026-05-02T10:11:30.001Z</time></trkpt><trkpt lat="44.45207390055413" lon="8.975394161303406"><ele>52.0</ele><time>2026-05-02T10:11:32.001Z</time></trkpt><trkpt lat="44.452008437215895" lon="8.975277883563013"><ele>52.0</ele><time>2026-05-02T10:11:34.001Z</time></trkpt><trkpt lat="44.45195853372528" lon="8.975153143960316"><ele>52.0</ele><time>2026-05-02T10:11:36.001Z</time></trkpt><trkpt lat="44.45189984089459" lon="8.975037045991616"><ele>52.0</ele><time>2026-05-02T10:11:38.001Z</time></trkpt><trkpt lat="44.4518379403095" lon="8.97493079724643"><ele>52.0</ele><time>2026-05-02T10:11:40.001Z</time></trkpt><trkpt lat="44.45177880745875" lon="8.97481505044712"><ele>52.8</ele><time>2026-05-02T10:11:42.001Z</time></trkpt><trkpt lat="44.451712651233585" lon="8.974697413413159"><ele>53.6</ele><time>2026-05-02T10:11:44.001Z</time></trkpt><trkpt lat="44.45165830113894" lon="8.974583216836825"><ele>54.39999999999999</ele><time>2026-05-02T10:11:46.001Z</time></trkpt><trkpt lat="44.451605788616924" lon="8.974461377040926"><ele>55.199999999999996</ele><time>2026-05-02T10:11:48.001Z</time></trkpt><trkpt lat="44.45154898737636" lon="8.974349661675125"><ele>56.0</ele><time>2026-05-02T10:11:50.001Z</time></trkpt><trkpt lat="44.45148681047467" lon="8.974236441799887"><ele>54.8</ele><time>2026-05-02T10:11:52.001Z</time></trkpt><trkpt lat="44.45142421976513" lon="8.974125115736394"><ele>53.599999999999994</ele><time>2026-05-02T10:11:54.001Z</time></trkpt><trkpt lat="44.45135635101178" lon="8.974015966513576"><ele>52.4</ele><time>2026-05-02T10:11:56.001Z</time></trkpt><trkpt lat="44.45130402823437" lon="8.973888982737035"><ele>51.2</ele><time>2026-05-02T10:11:58.001Z</time></trkpt><trkpt lat="44.45122801431193" lon="8.973776956954106"><ele>50.0</ele><time>2026-05-02T10:12:00.001Z</time></trkpt><trkpt lat="44.451164895002506" lon="8.97366006578269"><ele>50.0</ele><time>2026-05-02T10:12:02.002Z</time></trkpt><trkpt lat="44.45110584822211" lon="8.9735267102427"><ele>50.0</ele><time>2026-05-02T10:12:04.002Z</time></trkpt><trkpt lat="44.45104215648067" lon="8.973400865860828"><ele>50.0</ele><time>2026-05-02T10:12:06.002Z</time></trkpt><trkpt lat="44.45098188840257" lon="8.9732848160263"><ele>50.0</ele><time>2026-05-02T10:12:08.002Z</time></trkpt><trkpt lat="44.45092110872487" lon="8.973154474688057"><ele>50.0</ele><time>2026-05-02T10:12:10.002Z</time></trkpt><trkpt lat="44.45085899500122" lon="8.973041586195848"><ele>50.8</ele><time>2026-05-02T10:12:12.002Z</time></trkpt><trkpt lat="44.45080363720313" lon="8.97293226411724"><ele>51.6</ele><time>2026-05-02T10:12:14.002Z</time></trkpt><trkpt lat="44.45075027124697" lon="8.972822398436952"><ele>52.400000000000006</ele><time>2026-05-02T10:12:16.002Z</time></trkpt><trkpt lat="44.45069137820603" lon="8.972706128310163"><ele>53.2</ele><time>2026-05-02T10:12:18.002Z</time></trkpt><trkpt lat="44.45063716352638" lon="8.972592187248159"><ele>54.0</ele><time>2026-05-02T10:12:20.002Z</time></trkpt><trkpt lat="44.45057331512548" lon="8.972487876515782"><ele>53.6</ele><time>2026-05-02T10:12:22.002Z</time></trkpt><trkpt lat="44.45048810279117" lon="8.972406428547204"><ele>53.2</ele><time>2026-05-02T10:12:24.002Z</time></trkpt><trkpt lat="44.45042357489066" lon="8.972386996617814"><ele>52.800000000000004</ele><time>2026-05-02T10:12:25.002Z</time></trkpt><trkpt lat="44.4503242498748" lon="8.972330587081286"><ele>52.400000000000006</ele><time>2026-05-02T10:12:27.002Z</time></trkpt><trkpt lat="44.450223054372785" lon="8.972274849872228"><ele>52.0</ele><time>2026-05-02T10:12:29.002Z</time></trkpt><trkpt lat="44.45013105018973" lon="8.972208874434688"><ele>52.0</ele><time>2026-05-02T10:12:31.002Z</time></trkpt><trkpt lat="44.4500323434928" lon="8.972160543977775"><ele>52.0</ele><time>2026-05-02T10:12:33.002Z</time></trkpt><trkpt lat="44.44992823003664" lon="8.97211819231234"><ele>52.0</ele><time>2026-05-02T10:12:35.002Z</time></trkpt><trkpt lat="44.44983321599784" lon="8.972069907189654"><ele>52.0</ele><time>2026-05-02T10:12:37.002Z</time></trkpt><trkpt lat="44.44977196956575" lon="8.972044225180468"><ele>52.0</ele><time>2026-05-02T10:12:38.002Z</time></trkpt><trkpt lat="44.449663277113586" lon="8.97198808442976"><ele>51.2</ele><time>2026-05-02T10:12:40.002Z</time></trkpt><trkpt lat="44.4495983439954" lon="8.97192651977632"><ele>50.400000000000006</ele><time>2026-05-02T10:12:42.003Z</time></trkpt><trkpt lat="44.44950555604098" lon="8.971820244183629"><ele>49.599999999999994</ele><time>2026-05-02T10:12:44.003Z</time></trkpt><trkpt lat="44.44941461940029" lon="8.971723806324421"><ele>48.8</ele><time>2026-05-02T10:12:46.003Z</time></trkpt><trkpt lat="44.44935021463256" lon="8.971616041916397"><ele>48.0</ele><time>2026-05-02T10:12:48.003Z</time></trkpt><trkpt lat="44.44928768326213" lon="8.971482764124866"><ele>48.0</ele><time>2026-05-02T10:12:50.003Z</time></trkpt><trkpt lat="44.4492268407334" lon="8.971340799074602"><ele>48.0</ele><time>2026-05-02T10:12:52.003Z</time></trkpt><trkpt lat="44.449157624229336" lon="8.971212588661942"><ele>48.0</ele><time>2026-05-02T10:12:53.998Z</time></trkpt><trkpt lat="44.4490924652861" lon="8.971092212624805"><ele>48.0</ele><time>2026-05-02T10:12:55.998Z</time></trkpt><trkpt lat="44.449034269376156" lon="8.970979493442536"><ele>48.0</ele><time>2026-05-02T10:12:57.998Z</time></trkpt><trkpt lat="44.448972587308766" lon="8.970871128049405"><ele>48.0</ele><time>2026-05-02T10:12:59.998Z</time></trkpt><trkpt lat="44.44891687079252" lon="8.970762036271424"><ele>48.0</ele><time>2026-05-02T10:13:01.999Z</time></trkpt><trkpt lat="44.44886535463239" lon="8.970652885331733"><ele>48.0</ele><time>2026-05-02T10:13:03.999Z</time></trkpt><trkpt lat="44.448806891497185" lon="8.970545241596238"><ele>48.0</ele><time>2026-05-02T10:13:05.999Z</time></trkpt><trkpt lat="44.4487361657204" lon="8.970445873666062"><ele>48.0</ele><time>2026-05-02T10:13:07.999Z</time></trkpt><trkpt lat="44.4486777737435" lon="8.970342370024516"><ele>48.0</ele><time>2026-05-02T10:13:09.999Z</time></trkpt><trkpt lat="44.44862504837888" lon="8.970257687390939"><ele>48.0</ele><time>2026-05-02T10:13:11.999Z</time></trkpt><trkpt lat="44.44856156470976" lon="8.970188205987482"><ele>48.0</ele><time>2026-05-02T10:13:15Z</time></trkpt><trkpt lat="44.448514493844804" lon="8.97012558944681"><ele>48.0</ele><time>2026-05-02T10:13:18Z</time></trkpt><trkpt lat="44.44845534791376" lon="8.97002111800836"><ele>48.0</ele><time>2026-05-02T10:13:21Z</time></trkpt><trkpt lat="44.4484017327235" lon="8.969951485181518"><ele>48.0</ele><time>2026-05-02T10:13:23Z</time></trkpt><trkpt lat="44.448342542878976" lon="8.969870160546533"><ele>49.2</ele><time>2026-05-02T10:13:25Z</time></trkpt><trkpt lat="44.448279755475774" lon="8.969768443874708"><ele>50.4</ele><time>2026-05-02T10:13:27Z</time></trkpt><trkpt lat="44.44821896708183" lon="8.969671029824275"><ele>51.60000000000001</ele><time>2026-05-02T10:13:29Z</time></trkpt><trkpt lat="44.448159467805105" lon="8.969573408647161"><ele>52.800000000000004</ele><time>2026-05-02T10:13:31Z</time></trkpt><trkpt lat="44.44809883496991" lon="8.969486120258969"><ele>54.0</ele><time>2026-05-02T10:13:33.001Z</time></trkpt><trkpt lat="44.44803555431481" lon="8.96939667629015"><ele>54.0</ele><time>2026-05-02T10:13:35.001Z</time></trkpt><trkpt lat="44.447966927481794" lon="8.969311454165029"><ele>54.0</ele><time>2026-05-02T10:13:37.001Z</time></trkpt><trkpt lat="44.44790892945004" lon="8.969219903995546"><ele>54.0</ele><time>2026-05-02T10:13:39.001Z</time></trkpt><trkpt lat="44.44786312719117" lon="8.969142297761865"><ele>54.0</ele><time>2026-05-02T10:13:41.001Z</time></trkpt><trkpt lat="44.44780431014654" lon="8.969072605562799"><ele>54.0</ele><time>2026-05-02T10:13:43.001Z</time></trkpt><trkpt lat="44.44774984669484" lon="8.968993447777008"><ele>54.0</ele><time>2026-05-02T10:13:45.001Z</time></trkpt><trkpt lat="44.4477033531788" lon="8.968927992078445"><ele>52.833333333333336</ele><time>2026-05-02T10:13:47.001Z</time></trkpt><trkpt lat="44.44765580444088" lon="8.968838960249723"><ele>51.666666666666664</ele><time>2026-05-02T10:13:49.001Z</time></trkpt><trkpt lat="44.44759438257812" lon="8.968760414495733"><ele>50.5</ele><time>2026-05-02T10:13:51.001Z</time></trkpt><trkpt lat="44.44754688357924" lon="8.968695464888695"><ele>49.33333333333333</ele><time>2026-05-02T10:13:53.001Z</time></trkpt><trkpt lat="44.44749337937017" lon="8.968599580521778"><ele>48.166666666666664</ele><time>2026-05-02T10:13:56.001Z</time></trkpt><trkpt lat="44.447456769100015" lon="8.968514811526159"><ele>47.0</ele><time>2026-05-02T10:13:58.001Z</time></trkpt><trkpt lat="44.44741976044377" lon="8.968412434785044"><ele>47.166666666666664</ele><time>2026-05-02T10:14:00.002Z</time></trkpt><trkpt lat="44.44736631493608" lon="8.968313126893202"><ele>47.33333333333333</ele><time>2026-05-02T10:14:02.002Z</time></trkpt><trkpt lat="44.44732430708706" lon="8.968211218554906"><ele>47.5</ele><time>2026-05-02T10:14:04.002Z</time></trkpt><trkpt lat="44.44726937210022" lon="8.968105073096584"><ele>47.666666666666664</ele><time>2026-05-02T10:14:06.002Z</time></trkpt><trkpt lat="44.44723043864466" lon="8.968012418263356"><ele>47.833333333333336</ele><time>2026-05-02T10:14:08.002Z</time></trkpt><trkpt lat="44.44719459774939" lon="8.96792578582656"><ele>48.0</ele><time>2026-05-02T10:14:10.002Z</time></trkpt><trkpt lat="44.447136173211696" lon="8.967812040551044"><ele>47.8</ele><time>2026-05-02T10:14:12.002Z</time></trkpt><trkpt lat="44.44707477379018" lon="8.967690223900174"><ele>47.599999999999994</ele><time>2026-05-02T10:14:14.002Z</time></trkpt><trkpt lat="44.4470142043334" lon="8.967580170421943"><ele>47.400000000000006</ele><time>2026-05-02T10:14:16.002Z</time></trkpt><trkpt lat="44.446946263177615" lon="8.967481326142707"><ele>47.2</ele><time>2026-05-02T10:14:18.002Z</time></trkpt><trkpt lat="44.44686256373699" lon="8.967379909995543"><ele>47.0</ele><time>2026-05-02T10:14:20.002Z</time></trkpt><trkpt lat="44.446775994890274" lon="8.967287522453839"><ele>47.0</ele><time>2026-05-02T10:14:22.002Z</time></trkpt><trkpt lat="44.44667641269732" lon="8.967206950801236"><ele>47.0</ele><time>2026-05-02T10:14:24.002Z</time></trkpt><trkpt lat="44.446583159979845" lon="8.967112243849119"><ele>47.0</ele><time>2026-05-02T10:14:26.002Z</time></trkpt><trkpt lat="44.446498644005565" lon="8.967015932897512"><ele>47.0</ele><time>2026-05-02T10:14:28.002Z</time></trkpt><trkpt lat="44.44642089625769" lon="8.96693589101982"><ele>47.0</ele><time>2026-05-02T10:14:30.002Z</time></trkpt><trkpt lat="44.44635189830837" lon="8.966838299050996"><ele>47.2</ele><time>2026-05-02T10:14:32.003Z</time></trkpt><trkpt lat="44.44627836229985" lon="8.966752277752684"><ele>47.400000000000006</ele><time>2026-05-02T10:14:34.003Z</time></trkpt><trkpt lat="44.44620181361548" lon="8.96667469668916"><ele>47.599999999999994</ele><time>2026-05-02T10:14:36.003Z</time></trkpt><trkpt lat="44.44611167555292" lon="8.966601700341222"><ele>47.8</ele><time>2026-05-02T10:14:38.003Z</time></trkpt><trkpt lat="44.44602803015341" lon="8.966519113351206"><ele>48.0</ele><time>2026-05-02T10:14:40.003Z</time></trkpt><trkpt lat="44.44595928609033" lon="8.966439636600976"><ele>48.14285714285714</ele><time>2026-05-02T10:14:42.003Z</time></trkpt><trkpt lat="44.44589120904361" lon="8.966394875520153"><ele>48.285714285714285</ele><time>2026-05-02T10:14:44.003Z</time></trkpt><trkpt lat="44.44583001821252" lon="8.966340421461314"><ele>48.42857142857143</ele><time>2026-05-02T10:14:46.003Z</time></trkpt><trkpt lat="44.445773416372774" lon="8.966295916591665"><ele>48.57142857142857</ele><time>2026-05-02T10:14:48.003Z</time></trkpt><trkpt lat="44.44571547406233" lon="8.966229002104008"><ele>48.714285714285715</ele><time>2026-05-02T10:14:51.003Z</time></trkpt><trkpt lat="44.44564900709309" lon="8.966188573274643"><ele>48.857142857142854</ele><time>2026-05-02T10:14:53.003Z</time></trkpt><trkpt lat="44.44559032849402" lon="8.966105550701721"><ele>49.0</ele><time>2026-05-02T10:14:55.003Z</time></trkpt><trkpt lat="44.44553044358711" lon="8.966057050281464"><ele>48.99999999999999</ele><time>2026-05-02T10:14:57.003Z</time></trkpt><trkpt lat="44.44547631017168" lon="8.965993259758667"><ele>49.0</ele><time>2026-05-02T10:14:58.998Z</time></trkpt><trkpt lat="44.445417823574935" lon="8.965947944708567"><ele>49.0</ele><time>2026-05-02T10:15:00.998Z</time></trkpt><trkpt lat="44.4453522227829" lon="8.965900141220816"><ele>49.0</ele><time>2026-05-02T10:15:02.998Z</time></trkpt><trkpt lat="44.44528318433472" lon="8.965841645724403"><ele>48.99999999999999</ele><time>2026-05-02T10:15:04.999Z</time></trkpt><trkpt lat="44.44522499757767" lon="8.965759254910678"><ele>49.0</ele><time>2026-05-02T10:15:06.999Z</time></trkpt><trkpt lat="44.445154279359436" lon="8.965683717920106"><ele>49.2</ele><time>2026-05-02T10:15:08.999Z</time></trkpt><trkpt lat="44.445060068606324" lon="8.965624601893163"><ele>49.400000000000006</ele><time>2026-05-02T10:15:10.999Z</time></trkpt><trkpt lat="44.44499191215289" lon="8.965539834483723"><ele>49.6</ele><time>2026-05-02T10:15:12.999Z</time></trkpt><trkpt lat="44.44490437941613" lon="8.965474284089913"><ele>49.8</ele><time>2026-05-02T10:15:14.999Z</time></trkpt><trkpt lat="44.444830463958965" lon="8.965412659348262"><ele>50.0</ele><time>2026-05-02T10:15:16.999Z</time></trkpt><trkpt lat="44.44475494908775" lon="8.965327244906117"><ele>50.0</ele><time>2026-05-02T10:15:19Z</time></trkpt><trkpt lat="44.444652395351106" lon="8.965288881310231"><ele>50.0</ele><time>2026-05-02T10:15:21Z</time></trkpt><trkpt lat="44.444579658507756" lon="8.965185483822117"><ele>50.0</ele><time>2026-05-02T10:15:23Z</time></trkpt><trkpt lat="44.44449776373961" lon="8.965105781282736"><ele>50.0</ele><time>2026-05-02T10:15:25Z</time></trkpt><trkpt lat="44.44440017880881" lon="8.965041371858076"><ele>50.0</ele><time>2026-05-02T10:15:27Z</time></trkpt><trkpt lat="44.44431094755593" lon="8.964958709942058"><ele>49.66666666666667</ele><time>2026-05-02T10:15:29Z</time></trkpt><trkpt lat="44.44424760073035" lon="8.964849481565913"><ele>49.333333333333336</ele><time>2026-05-02T10:15:31Z</time></trkpt><trkpt lat="44.444173193361884" lon="8.964755103723213"><ele>49.0</ele><time>2026-05-02T10:15:33Z</time></trkpt><trkpt lat="44.444088827433276" lon="8.96468576670354"><ele>48.66666666666667</ele><time>2026-05-02T10:15:35Z</time></trkpt><trkpt lat="44.44404100923208" lon="8.964620967101265"><ele>48.333333333333336</ele><time>2026-05-02T10:15:39.001Z</time></trkpt><trkpt lat="44.44399494323618" lon="8.964537311716361"><ele>48.0</ele><time>2026-05-02T10:15:42.001Z</time></trkpt><trkpt lat="44.443940996160784" lon="8.964473777744857"><ele>48.0</ele><time>2026-05-02T10:15:44.001Z</time></trkpt><trkpt lat="44.443865451727085" lon="8.964407544419963"><ele>48.0</ele><time>2026-05-02T10:15:47.001Z</time></trkpt><trkpt lat="44.44379814900566" lon="8.964349290329034"><ele>48.0</ele><time>2026-05-02T10:15:49.001Z</time></trkpt><trkpt lat="44.44374090195227" lon="8.964257750257376"><ele>48.0</ele><time>2026-05-02T10:15:51.001Z</time></trkpt><trkpt lat="44.44367085243626" lon="8.964171104385182"><ele>48.0</ele><time>2026-05-02T10:15:53.001Z</time></trkpt><trkpt lat="44.44361256800544" lon="8.964108062886393"><ele>48.0</ele><time>2026-05-02T10:15:55.001Z</time></trkpt><trkpt lat="44.44355060548618" lon="8.96402765288476"><ele>47.8</ele><time>2026-05-02T10:15:57.001Z</time></trkpt><trkpt lat="44.44346448940661" lon="8.963969287672235"><ele>47.599999999999994</ele><time>2026-05-02T10:15:59.001Z</time></trkpt><trkpt lat="44.44338920521483" lon="8.963910255152372"><ele>47.400000000000006</ele><time>2026-05-02T10:16:01.001Z</time></trkpt><trkpt lat="44.443324403308026" lon="8.963819852289332"><ele>47.2</ele><time>2026-05-02T10:16:03.001Z</time></trkpt><trkpt lat="44.443261915769746" lon="8.96374948116918"><ele>47.0</ele><time>2026-05-02T10:16:05.002Z</time></trkpt><trkpt lat="44.44315001783599" lon="8.963772144715543"><ele>47.0</ele><time>2026-05-02T10:16:07.002Z</time></trkpt><trkpt lat="44.4430598090253" lon="8.963756570740042"><ele>47.0</ele><time>2026-05-02T10:16:09.002Z</time></trkpt><trkpt lat="44.44297616563557" lon="8.963717756670727"><ele>47.0</ele><time>2026-05-02T10:16:11.002Z</time></trkpt><trkpt lat="44.44288106632722" lon="8.963691204775534"><ele>47.0</ele><time>2026-05-02T10:16:13.002Z</time></trkpt><trkpt lat="44.442804859091076" lon="8.963660475189704"><ele>47.0</ele><time>2026-05-02T10:16:15.002Z</time></trkpt><trkpt lat="44.442675068673985" lon="8.963669027300822"><ele>45.8</ele><time>2026-05-02T10:16:17.002Z</time></trkpt><trkpt lat="44.44256875969272" lon="8.963643006684883"><ele>44.6</ele><time>2026-05-02T10:16:19.002Z</time></trkpt><trkpt lat="44.44246486346456" lon="8.963629084006913"><ele>43.4</ele><time>2026-05-02T10:16:21.002Z</time></trkpt><trkpt lat="44.44236049004335" lon="8.963627628507297"><ele>42.199999999999996</ele><time>2026-05-02T10:16:23.002Z</time></trkpt><trkpt lat="44.44226758329357" lon="8.963593540057218"><ele>41.0</ele><time>2026-05-02T10:16:25.002Z</time></trkpt><trkpt lat="44.44215692992587" lon="8.963561256406436"><ele>40.4</ele><time>2026-05-02T10:16:27.002Z</time></trkpt><trkpt lat="44.442057225776786" lon="8.963559775990669"><ele>39.8</ele><time>2026-05-02T10:16:29.002Z</time></trkpt><trkpt lat="44.44194909540024" lon="8.963547038941261"><ele>39.199999999999996</ele><time>2026-05-02T10:16:31.002Z</time></trkpt><trkpt lat="44.44184676449121" lon="8.96352962406915"><ele>38.599999999999994</ele><time>2026-05-02T10:16:33.002Z</time></trkpt><trkpt lat="44.44174132685529" lon="8.96351468877535"><ele>38.0</ele><time>2026-05-02T10:16:35.002Z</time></trkpt><trkpt lat="44.441637067246795" lon="8.96349299818332"><ele>38.0</ele><time>2026-05-02T10:16:37.002Z</time></trkpt><trkpt lat="44.44153836939898" lon="8.96346338162674"><ele>38.0</ele><time>2026-05-02T10:16:39.003Z</time></trkpt><trkpt lat="44.441435416158676" lon="8.963413638867623"><ele>38.0</ele><time>2026-05-02T10:16:41.003Z</time></trkpt><trkpt lat="44.44134423552418" lon="8.963370283587286"><ele>38.0</ele><time>2026-05-02T10:16:43.003Z</time></trkpt><trkpt lat="44.44124663264059" lon="8.963312591190835"><ele>38.0</ele><time>2026-05-02T10:16:45.003Z</time></trkpt><trkpt lat="44.44115062426826" lon="8.963278553402692"><ele>39.2</ele><time>2026-05-02T10:16:47.003Z</time></trkpt><trkpt lat="44.441047532896604" lon="8.96325047537058"><ele>40.4</ele><time>2026-05-02T10:16:49.003Z</time></trkpt><trkpt lat="44.44097040409369" lon="8.963209385234855"><ele>41.6</ele><time>2026-05-02T10:16:51.003Z</time></trkpt><trkpt lat="44.44091130600604" lon="8.963176482241478"><ele>42.800000000000004</ele><time>2026-05-02T10:16:52.003Z</time></trkpt><trkpt lat="44.44081768738137" lon="8.963141607876686"><ele>44.0</ele><time>2026-05-02T10:16:54.003Z</time></trkpt><trkpt lat="44.44072594859585" lon="8.963080025504077"><ele>44.0</ele><time>2026-05-02T10:16:56.003Z</time></trkpt><trkpt lat="44.44063817970749" lon="8.963029388008868"><ele>44.0</ele><time>2026-05-02T10:16:58.003Z</time></trkpt><trkpt lat="44.440552487863116" lon="8.962995506339574"><ele>44.0</ele><time>2026-05-02T10:17:00.003Z</time></trkpt><trkpt lat="44.440489810704385" lon="8.9629510360984"><ele>44.0</ele><time>2026-05-02T10:17:02.003Z</time></trkpt><trkpt lat="44.440424879537815" lon="8.962935160575178"><ele>44.0</ele><time>2026-05-02T10:17:23.999Z</time></trkpt><trkpt lat="44.44033419798036" lon="8.962903152341411"><ele>44.0</ele><time>2026-05-02T10:17:28Z</time></trkpt><trkpt lat="44.440271517696154" lon="8.962871932473748"><ele>43.166666666666664</ele><time>2026-05-02T10:17:30Z</time></trkpt><trkpt lat="44.44018664197084" lon="8.962841149035512"><ele>42.33333333333333</ele><time>2026-05-02T10:17:32Z</time></trkpt><trkpt lat="44.440095477465896" lon="8.96282400727198"><ele>41.5</ele><time>2026-05-02T10:17:34Z</time></trkpt><trkpt lat="44.44001708488225" lon="8.962793721907103"><ele>40.666666666666664</ele><time>2026-05-02T10:17:36Z</time></trkpt><trkpt lat="44.43992470134384" lon="8.962760303055672"><ele>39.833333333333336</ele><time>2026-05-02T10:17:38Z</time></trkpt><trkpt lat="44.43984803887893" lon="8.962729319159896"><ele>39.0</ele><time>2026-05-02T10:17:40Z</time></trkpt><trkpt lat="44.43977002363101" lon="8.962690071442491"><ele>39.0</ele><time>2026-05-02T10:17:42Z</time></trkpt><trkpt lat="44.43968816745035" lon="8.96266631108028"><ele>39.0</ele><time>2026-05-02T10:17:44.001Z</time></trkpt><trkpt lat="44.43959818087723" lon="8.962626315166364"><ele>39.0</ele><time>2026-05-02T10:17:46.001Z</time></trkpt><trkpt lat="44.439506809737104" lon="8.962590308959523"><ele>39.0</ele><time>2026-05-02T10:17:48.001Z</time></trkpt><trkpt lat="44.43940325455388" lon="8.962567116317206"><ele>39.0</ele><time>2026-05-02T10:17:50.001Z</time></trkpt><trkpt lat="44.43930992102967" lon="8.962545800947373"><ele>40.6</ele><time>2026-05-02T10:17:52.001Z</time></trkpt><trkpt lat="44.439206877375" lon="8.962517346626447"><ele>42.2</ele><time>2026-05-02T10:17:54.001Z</time></trkpt><trkpt lat="44.43910367500166" lon="8.962474642802853"><ele>43.800000000000004</ele><time>2026-05-02T10:17:56.001Z</time></trkpt><trkpt lat="44.438994211681724" lon="8.962443236555732"><ele>45.4</ele><time>2026-05-02T10:17:58.001Z</time></trkpt><trkpt lat="44.438930933533356" lon="8.962428828271458"><ele>47.0</ele><time>2026-05-02T10:17:59.001Z</time></trkpt><trkpt lat="44.43882787187059" lon="8.962409559394642"><ele>45.4</ele><time>2026-05-02T10:18:01.001Z</time></trkpt><trkpt lat="44.43872165303385" lon="8.962350135285302"><ele>43.800000000000004</ele><time>2026-05-02T10:18:03.001Z</time></trkpt><trkpt lat="44.438629518409755" lon="8.962323735196186"><ele>42.2</ele><time>2026-05-02T10:18:05.001Z</time></trkpt><trkpt lat="44.43852228340599" lon="8.962295494996724"><ele>40.6</ele><time>2026-05-02T10:18:07.001Z</time></trkpt><trkpt lat="44.43840497277313" lon="8.96226450480166"><ele>39.0</ele><time>2026-05-02T10:18:09.002Z</time></trkpt><trkpt lat="44.43829668584333" lon="8.962258025645253"><ele>39.0</ele><time>2026-05-02T10:18:11.002Z</time></trkpt><trkpt lat="44.43818890951477" lon="8.962215761132834"><ele>39.0</ele><time>2026-05-02T10:18:13.002Z</time></trkpt><trkpt lat="44.4380911392394" lon="8.96214357331396"><ele>39.0</ele><time>2026-05-02T10:18:15.002Z</time></trkpt><trkpt lat="44.43800230883834" lon="8.962117731947098"><ele>39.0</ele><time>2026-05-02T10:18:17.002Z</time></trkpt><trkpt lat="44.4378995395044" lon="8.962097273668967"><ele>39.0</ele><time>2026-05-02T10:18:19.002Z</time></trkpt><trkpt lat="44.437794249268094" lon="8.962072285315216"><ele>37.8</ele><time>2026-05-02T10:18:21.002Z</time></trkpt><trkpt lat="44.437701183431656" lon="8.962021958776628"><ele>36.599999999999994</ele><time>2026-05-02T10:18:23.002Z</time></trkpt><trkpt lat="44.43759553074429" lon="8.962012937841083"><ele>35.4</ele><time>2026-05-02T10:18:25.002Z</time></trkpt><trkpt lat="44.43750031967695" lon="8.961997396422557"><ele>34.199999999999996</ele><time>2026-05-02T10:18:27.002Z</time></trkpt><trkpt lat="44.43739237766581" lon="8.96199578590353"><ele>33.0</ele><time>2026-05-02T10:18:29.002Z</time></trkpt><trkpt lat="44.43729803423182" lon="8.962000241137458"><ele>33.0</ele><time>2026-05-02T10:18:31.002Z</time></trkpt><trkpt lat="44.437194448899845" lon="8.961991151798516"><ele>33.0</ele><time>2026-05-02T10:18:33.002Z</time></trkpt><trkpt lat="44.43709207613306" lon="8.96199067984411"><ele>33.0</ele><time>2026-05-02T10:18:35.002Z</time></trkpt><trkpt lat="44.43698697150887" lon="8.96197994148669"><ele>33.0</ele><time>2026-05-02T10:18:37.002Z</time></trkpt><trkpt lat="44.43687724018668" lon="8.961975526520282"><ele>33.0</ele><time>2026-05-02T10:18:39.002Z</time></trkpt><trkpt lat="44.43677165048257" lon="8.961969056311819"><ele>32.8</ele><time>2026-05-02T10:18:41.003Z</time></trkpt><trkpt lat="44.43665834893447" lon="8.961962188997243"><ele>32.599999999999994</ele><time>2026-05-02T10:18:43.003Z</time></trkpt><trkpt lat="44.43654735971726" lon="8.961952146402483"><ele>32.400000000000006</ele><time>2026-05-02T10:18:45.003Z</time></trkpt><trkpt lat="44.436440725594274" lon="8.96194338337264"><ele>32.2</ele><time>2026-05-02T10:18:47.003Z</time></trkpt><trkpt lat="44.43633245610317" lon="8.961927487051364"><ele>32.0</ele><time>2026-05-02T10:18:49.003Z</time></trkpt><trkpt lat="44.43621828747138" lon="8.961926409027393"><ele>31.6</ele><time>2026-05-02T10:18:51.003Z</time></trkpt><trkpt lat="44.43610333702297" lon="8.961896131457944"><ele>31.200000000000003</ele><time>2026-05-02T10:18:53.003Z</time></trkpt><trkpt lat="44.43597931780977" lon="8.961892592775955"><ele>30.8</ele><time>2026-05-02T10:18:55.003Z</time></trkpt><trkpt lat="44.435916732166014" lon="8.96188198602122"><ele>30.4</ele><time>2026-05-02T10:18:56.003Z</time></trkpt><trkpt lat="44.43578834001166" lon="8.96185257584059"><ele>30.0</ele><time>2026-05-02T10:18:58.003Z</time></trkpt><trkpt lat="44.43567118394604" lon="8.961807598161629"><ele>30.0</ele><time>2026-05-02T10:19:00.003Z</time></trkpt><trkpt lat="44.43555628370627" lon="8.961762430586289"><ele>30.0</ele><time>2026-05-02T10:19:02.003Z</time></trkpt><trkpt lat="44.435493406846824" lon="8.961731874771436"><ele>30.0</ele><time>2026-05-02T10:19:03.003Z</time></trkpt><trkpt lat="44.43543157156034" lon="8.961703831329348"><ele>30.0</ele><time>2026-05-02T10:19:04.003Z</time></trkpt><trkpt lat="44.435368351269425" lon="8.961674773978027"><ele>30.0</ele><time>2026-05-02T10:19:05.003Z</time></trkpt><trkpt lat="44.43525353362179" lon="8.96161177204407"><ele>30.0</ele><time>2026-05-02T10:19:07.003Z</time></trkpt><trkpt lat="44.43513659485297" lon="8.961549949765878"><ele>30.2</ele><time>2026-05-02T10:19:09.003Z</time></trkpt><trkpt lat="44.435077265754295" lon="8.961517324388252"><ele>30.4</ele><time>2026-05-02T10:19:10.003Z</time></trkpt><trkpt lat="44.435019635696044" lon="8.961480909798432"><ele>30.6</ele><time>2026-05-02T10:19:10.998Z</time></trkpt><trkpt lat="44.43490831266038" lon="8.961410680025427"><ele>30.8</ele><time>2026-05-02T10:19:12.998Z</time></trkpt><trkpt lat="44.434803129569794" lon="8.961331934925632"><ele>31.0</ele><time>2026-05-02T10:19:14.999Z</time></trkpt><trkpt lat="44.43469567844892" lon="8.961246909903288"><ele>30.25</ele><time>2026-05-02T10:19:16.999Z</time></trkpt><trkpt lat="44.434591438375016" lon="8.961162700398228"><ele>29.5</ele><time>2026-05-02T10:19:18.999Z</time></trkpt><trkpt lat="44.43448778491976" lon="8.961085351844671"><ele>28.75</ele><time>2026-05-02T10:19:20.999Z</time></trkpt><trkpt lat="44.43439071260839" lon="8.960988861925108"><ele>28.0</ele><time>2026-05-02T10:19:22.999Z</time></trkpt><trkpt lat="44.43429379431308" lon="8.960891304814755"><ele>29.0</ele><time>2026-05-02T10:19:24.999Z</time></trkpt><trkpt lat="44.43419917130023" lon="8.960791694606579"><ele>30.0</ele><time>2026-05-02T10:19:26.999Z</time></trkpt><trkpt lat="44.43410714112604" lon="8.960696100742478"><ele>31.0</ele><time>2026-05-02T10:19:28.999Z</time></trkpt><trkpt lat="44.43401385717507" lon="8.960574627433013"><ele>32.0</ele><time>2026-05-02T10:19:31Z</time></trkpt><trkpt lat="44.43391744053029" lon="8.96052078415237"><ele>32.0</ele><time>2026-05-02T10:19:33Z</time></trkpt><trkpt lat="44.43383266781976" lon="8.960416776182361"><ele>32.0</ele><time>2026-05-02T10:19:35Z</time></trkpt><trkpt lat="44.43374317517176" lon="8.960330437810699"><ele>32.0</ele><time>2026-05-02T10:19:37Z</time></trkpt><trkpt lat="44.43365930983063" lon="8.960249702690001"><ele>32.0</ele><time>2026-05-02T10:19:39Z</time></trkpt><trkpt lat="44.4335878010268" lon="8.960167040877476"><ele>32.0</ele><time>2026-05-02T10:19:41Z</time></trkpt><trkpt lat="44.43354070294183" lon="8.960101915555166"><ele>31.499999999999996</ele><time>2026-05-02T10:19:45Z</time></trkpt><trkpt lat="44.433472501523504" lon="8.960062208939833"><ele>31.0</ele><time>2026-05-02T10:20:04.001Z</time></trkpt><trkpt lat="44.433422462662136" lon="8.95996601111935"><ele>30.5</ele><time>2026-05-02T10:20:07.001Z</time></trkpt><trkpt lat="44.433357506000554" lon="8.959896677548333"><ele>30.0</ele><time>2026-05-02T10:20:09.001Z</time></trkpt><trkpt lat="44.433286562288096" lon="8.959828551029082"><ele>29.499999999999996</ele><time>2026-05-02T10:20:11.001Z</time></trkpt><trkpt lat="44.43322950871903" lon="8.959757792949095"><ele>29.0</ele><time>2026-05-02T10:20:13.001Z</time></trkpt><trkpt lat="44.43315344125849" lon="8.959676122417793"><ele>29.999999999999996</ele><time>2026-05-02T10:20:16.002Z</time></trkpt><trkpt lat="44.43312220933519" lon="8.95954873931635"><ele>31.0</ele><time>2026-05-02T10:20:19.002Z</time></trkpt><trkpt lat="44.433173382757225" lon="8.959485588907976"><ele>32.0</ele><time>2026-05-02T10:20:21.002Z</time></trkpt><trkpt lat="44.433209137260974" lon="8.959396783631703"><ele>33.0</ele><time>2026-05-02T10:20:27.002Z</time></trkpt><trkpt lat="44.43316931027217" lon="8.959304720872742"><ele>34.0</ele><time>2026-05-02T10:20:34.002Z</time></trkpt><trkpt lat="44.4330849740067" lon="8.959228905055525"><ele>35.0</ele><time>2026-05-02T10:20:37.002Z</time></trkpt><trkpt lat="44.433023106204516" lon="8.95918439639467"><ele>34.83333333333333</ele><time>2026-05-02T10:20:40.002Z</time></trkpt><trkpt lat="44.432975415924716" lon="8.959126541456726"><ele>34.666666666666664</ele><time>2026-05-02T10:20:43.002Z</time></trkpt><trkpt lat="44.4329114522042" lon="8.959035047813185"><ele>34.5</ele><time>2026-05-02T10:20:46.002Z</time></trkpt><trkpt lat="44.43287118245503" lon="8.958959293985044"><ele>34.333333333333336</ele><time>2026-05-02T10:20:48.002Z</time></trkpt><trkpt lat="44.43282917700644" lon="8.95889004071125"><ele>34.16666666666667</ele><time>2026-05-02T10:20:50.003Z</time></trkpt><trkpt lat="44.432780080384354" lon="8.95878731221957"><ele>34.0</ele><time>2026-05-02T10:20:52.003Z</time></trkpt><trkpt lat="44.43272728951411" lon="8.958696331676926"><ele>34.0</ele><time>2026-05-02T10:20:54.003Z</time></trkpt><trkpt lat="44.432683101008315" lon="8.958591089899567"><ele>34.0</ele><time>2026-05-02T10:20:56.003Z</time></trkpt><trkpt lat="44.432642109294456" lon="8.958499850629769"><ele>34.0</ele><time>2026-05-02T10:20:58.003Z</time></trkpt><trkpt lat="44.432598039999" lon="8.958423533343236"><ele>34.0</ele><time>2026-05-02T10:21:00.003Z</time></trkpt><trkpt lat="44.43256385794577" lon="8.958309525376418"><ele>34.0</ele><time>2026-05-02T10:21:02.003Z</time></trkpt><trkpt lat="44.432500208832444" lon="8.95824235076092"><ele>34.0</ele><time>2026-05-02T10:21:04.003Z</time></trkpt><trkpt lat="44.432458359865144" lon="8.958151646802003"><ele>34.333333333333336</ele><time>2026-05-02T10:21:06.003Z</time></trkpt><trkpt lat="44.43240440692248" lon="8.958105476980224"><ele>34.66666666666667</ele><time>2026-05-02T10:21:08.003Z</time></trkpt><trkpt lat="44.43237034410766" lon="8.958011574272362"><ele>35.0</ele><time>2026-05-02T10:21:10.003Z</time></trkpt><trkpt lat="44.43230916719437" lon="8.957931329583872"><ele>35.333333333333336</ele><time>2026-05-02T10:21:12.003Z</time></trkpt><trkpt lat="44.43223099277557" lon="8.957882260074388"><ele>35.666666666666664</ele><time>2026-05-02T10:21:14.003Z</time></trkpt><trkpt lat="44.432158503295206" lon="8.957822298656257"><ele>36.0</ele><time>2026-05-02T10:21:16.003Z</time></trkpt><trkpt lat="44.43208265177257" lon="8.957781173424262"><ele>34.666666666666664</ele><time>2026-05-02T10:21:17.999Z</time></trkpt><trkpt lat="44.432011290464885" lon="8.957732463959484"><ele>33.333333333333336</ele><time>2026-05-02T10:21:19.999Z</time></trkpt><trkpt lat="44.431928474813105" lon="8.95771897107923"><ele>32.0</ele><time>2026-05-02T10:21:21.999Z</time></trkpt><trkpt lat="44.43185087106746" lon="8.957707191505614"><ele>30.666666666666668</ele><time>2026-05-02T10:21:23.999Z</time></trkpt><trkpt lat="44.43178237772805" lon="8.957690199808058"><ele>29.333333333333336</ele><time>2026-05-02T10:21:25.999Z</time></trkpt><trkpt lat="44.431696146811184" lon="8.95768164675738"><ele>28.0</ele><time>2026-05-02T10:21:28.999Z</time></trkpt><trkpt lat="44.43162829717154" lon="8.957652256887394"><ele>28.000000000000004</ele><time>2026-05-02T10:21:30.999Z</time></trkpt><trkpt lat="44.43155077762732" lon="8.957615749878592"><ele>28.0</ele><time>2026-05-02T10:21:32.999Z</time></trkpt><trkpt lat="44.431483803621" lon="8.957587433292076"><ele>28.0</ele><time>2026-05-02T10:21:35Z</time></trkpt><trkpt lat="44.431425431507655" lon="8.957554255881906"><ele>28.0</ele><time>2026-05-02T10:21:37Z</time></trkpt><trkpt lat="44.43134388819428" lon="8.957490807063362"><ele>28.000000000000004</ele><time>2026-05-02T10:21:40Z</time></trkpt><trkpt lat="44.43128353329658" lon="8.957434311902976"><ele>28.0</ele><time>2026-05-02T10:21:42Z</time></trkpt><trkpt lat="44.43120690542787" lon="8.957362532998827"><ele>28.599999999999998</ele><time>2026-05-02T10:21:44Z</time></trkpt><trkpt lat="44.43112406835963" lon="8.957326246937713"><ele>29.199999999999996</ele><time>2026-05-02T10:21:46Z</time></trkpt><trkpt lat="44.43103061920051" lon="8.957287420342137"><ele>29.8</ele><time>2026-05-02T10:21:48Z</time></trkpt><trkpt lat="44.430948544668816" lon="8.957217275963702"><ele>30.4</ele><time>2026-05-02T10:21:50Z</time></trkpt><trkpt lat="44.43084804665005" lon="8.957148672177036"><ele>31.0</ele><time>2026-05-02T10:21:52Z</time></trkpt><trkpt lat="44.43077459162227" lon="8.957073039525236"><ele>31.0</ele><time>2026-05-02T10:21:54.001Z</time></trkpt><trkpt lat="44.43071991549866" lon="8.956974870939106"><ele>31.0</ele><time>2026-05-02T10:21:56.001Z</time></trkpt><trkpt lat="44.43069602483034" lon="8.956884524950125"><ele>31.0</ele><time>2026-05-02T10:21:58.001Z</time></trkpt><trkpt lat="44.43063211354328" lon="8.956840409945775"><ele>31.0</ele><time>2026-05-02T10:22:00.001Z</time></trkpt><trkpt lat="44.43058736892802" lon="8.95670344699609"><ele>31.0</ele><time>2026-05-02T10:22:02.001Z</time></trkpt><trkpt lat="44.430587835752384" lon="8.956536624223952"><ele>30.000000000000004</ele><time>2026-05-02T10:22:05.001Z</time></trkpt><trkpt lat="44.43054684548165" lon="8.95644174574867"><ele>29.0</ele><time>2026-05-02T10:22:07.001Z</time></trkpt><trkpt lat="44.430468282410395" lon="8.956416639875211"><ele>28.0</ele><time>2026-05-02T10:22:09.001Z</time></trkpt><trkpt lat="44.43039875944478" lon="8.956360240569174"><ele>27.0</ele><time>2026-05-02T10:22:12.001Z</time></trkpt><trkpt lat="44.43033373735698" lon="8.956334942591667"><ele>26.000000000000004</ele><time>2026-05-02T10:22:14.001Z</time></trkpt><trkpt lat="44.4302675508051" lon="8.956264965995379"><ele>25.0</ele><time>2026-05-02T10:22:16.001Z</time></trkpt><trkpt lat="44.43021899656872" lon="8.95618254437621"><ele>25.000000000000004</ele><time>2026-05-02T10:22:18.001Z</time></trkpt><trkpt lat="44.430174291204274" lon="8.956118026050861"><ele>25.0</ele><time>2026-05-02T10:22:20.001Z</time></trkpt><trkpt lat="44.43010232880352" lon="8.956019221018511"><ele>25.0</ele><time>2026-05-02T10:22:23.002Z</time></trkpt><trkpt lat="44.43005462705287" lon="8.955935687216513"><ele>25.0</ele><time>2026-05-02T10:22:26.002Z</time></trkpt><trkpt lat="44.429990509535735" lon="8.955801702729286"><ele>25.000000000000004</ele><time>2026-05-02T10:22:28.002Z</time></trkpt><trkpt lat="44.429966091093036" lon="8.955682856433299"><ele>25.0</ele><time>2026-05-02T10:22:30.002Z</time></trkpt><trkpt lat="44.42992358111431" lon="8.955577239580718"><ele>26.666666666666668</ele><time>2026-05-02T10:22:32.002Z</time></trkpt><trkpt lat="44.42988860777838" lon="8.955451338970462"><ele>28.333333333333336</ele><time>2026-05-02T10:22:34.002Z</time></trkpt><trkpt lat="44.4298481156412" lon="8.955365190949953"><ele>30.0</ele><time>2026-05-02T10:22:36.002Z</time></trkpt><trkpt lat="44.429826777281725" lon="8.955238120528282"><ele>31.666666666666664</ele><time>2026-05-02T10:22:38.002Z</time></trkpt><trkpt lat="44.42980647919987" lon="8.955114831255024"><ele>33.33333333333333</ele><time>2026-05-02T10:22:40.002Z</time></trkpt><trkpt lat="44.429773562607316" lon="8.955026390247012"><ele>35.0</ele><time>2026-05-02T10:22:43.002Z</time></trkpt><trkpt lat="44.42975348135124" lon="8.954919247339358"><ele>36.33333333333333</ele><time>2026-05-02T10:22:46.002Z</time></trkpt><trkpt lat="44.42973671056188" lon="8.95478176193825"><ele>37.666666666666664</ele><time>2026-05-02T10:22:49.002Z</time></trkpt><trkpt lat="44.4297185216646" lon="8.954691293699435"><ele>39.0</ele><time>2026-05-02T10:22:51.002Z</time></trkpt><trkpt lat="44.42970343837004" lon="8.954604220510138"><ele>40.333333333333336</ele><time>2026-05-02T10:22:53.002Z</time></trkpt><trkpt lat="44.4296622608742" lon="8.954503614607221"><ele>41.66666666666667</ele><time>2026-05-02T10:22:56.003Z</time></trkpt><trkpt lat="44.4296251455925" lon="8.954428346682835"><ele>43.0</ele><time>2026-05-02T10:22:58.003Z</time></trkpt><trkpt lat="44.42957021243637" lon="8.954357482633561"><ele>40.0</ele><time>2026-05-02T10:23:01.003Z</time></trkpt><trkpt lat="44.42948265025792" lon="8.954312866269033"><ele>37.0</ele><time>2026-05-02T10:23:04.003Z</time></trkpt><trkpt lat="44.429415854967395" lon="8.954353724392208"><ele>34.0</ele><time>2026-05-02T10:23:07.003Z</time></trkpt><trkpt lat="44.429341190275295" lon="8.95437825022345"><ele>31.0</ele><time>2026-05-02T10:23:10.003Z</time></trkpt><trkpt lat="44.429270874413355" lon="8.954406674354182"><ele>28.000000000000004</ele><time>2026-05-02T10:23:14.003Z</time></trkpt><trkpt lat="44.42916442075052" lon="8.954509830989954"><ele>25.0</ele><time>2026-05-02T10:25:48Z</time></trkpt><trkpt lat="44.429091980337844" lon="8.954538699967248"><ele>25.000000000000004</ele><time>2026-05-02T10:26:30.001Z</time></trkpt><trkpt lat="44.4290614091187" lon="8.954449684757037"><ele>25.0</ele><time>2026-05-02T10:26:34.001Z</time></trkpt><trkpt lat="44.42901820994812" lon="8.954366509179444"><ele>25.0</ele><time>2026-05-02T10:26:38.002Z</time></trkpt><trkpt lat="44.42900996220993" lon="8.954275440230578"><ele>25.0</ele><time>2026-05-02T10:26:41.002Z</time></trkpt><trkpt lat="44.42898902813281" lon="8.954168120140292"><ele>25.000000000000004</ele><time>2026-05-02T10:26:44.002Z</time></trkpt><trkpt lat="44.42896568849025" lon="8.954048140740896"><ele>25.0</ele><time>2026-05-02T10:26:47.002Z</time></trkpt><trkpt lat="44.4289426061769" lon="8.953927731076833"><ele>24.42857142857143</ele><time>2026-05-02T10:26:50.002Z</time></trkpt><trkpt lat="44.428930120958725" lon="8.9538305673594"><ele>23.857142857142858</ele><time>2026-05-02T10:26:52.002Z</time></trkpt><trkpt lat="44.42891224898419" lon="8.953737157029304"><ele>23.285714285714285</ele><time>2026-05-02T10:26:54.002Z</time></trkpt><trkpt lat="44.42889225592188" lon="8.953635722957129"><ele>22.714285714285715</ele><time>2026-05-02T10:26:56.002Z</time></trkpt><trkpt lat="44.428870762879846" lon="8.953542004520756"><ele>22.142857142857142</ele><time>2026-05-02T10:26:58.002Z</time></trkpt><trkpt lat="44.42885269951373" lon="8.95344696468238"><ele>21.571428571428573</ele><time>2026-05-02T10:27:00.002Z</time></trkpt><trkpt lat="44.428831332408485" lon="8.953344940311332"><ele>21.0</ele><time>2026-05-02T10:27:02.002Z</time></trkpt><trkpt lat="44.42879718436375" lon="8.95325664535311"><ele>21.0</ele><time>2026-05-02T10:27:04.002Z</time></trkpt><trkpt lat="44.428766397589214" lon="8.953171787572657"><ele>21.0</ele><time>2026-05-02T10:27:06.002Z</time></trkpt><trkpt lat="44.428722018676496" lon="8.953098190501498"><ele>21.0</ele><time>2026-05-02T10:27:08.003Z</time></trkpt><trkpt lat="44.428674511784855" lon="8.95303239358685"><ele>21.0</ele><time>2026-05-02T10:27:10.003Z</time></trkpt><trkpt lat="44.42865472868961" lon="8.952931801991975"><ele>21.0</ele><time>2026-05-02T10:27:13.003Z</time></trkpt><trkpt lat="44.428639627575365" lon="8.952844467840375"><ele>21.0</ele><time>2026-05-02T10:27:16.003Z</time></trkpt><trkpt lat="44.428616455109484" lon="8.95274250293676"><ele>21.0</ele><time>2026-05-02T10:27:19.003Z</time></trkpt><trkpt lat="44.42859198702471" lon="8.952651070510388"><ele>21.0</ele><time>2026-05-02T10:27:21.003Z</time></trkpt><trkpt lat="44.42856836025314" lon="8.952554116112033"><ele>21.0</ele><time>2026-05-02T10:27:23.003Z</time></trkpt><trkpt lat="44.42854970463893" lon="8.952451208341909"><ele>21.0</ele><time>2026-05-02T10:27:25.003Z</time></trkpt><trkpt lat="44.428524774034" lon="8.952344726382409"><ele>21.0</ele><time>2026-05-02T10:27:27.003Z</time></trkpt><trkpt lat="44.428499347139685" lon="8.952236841778488"><ele>21.0</ele><time>2026-05-02T10:27:29.003Z</time></trkpt><trkpt lat="44.42847799522976" lon="8.952129576819395"><ele>21.0</ele><time>2026-05-02T10:27:31.003Z</time></trkpt><trkpt lat="44.428451590540064" lon="8.952030118862288"><ele>21.142857142857142</ele><time>2026-05-02T10:27:33.003Z</time></trkpt><trkpt lat="44.428425863069236" lon="8.951919809146371"><ele>21.285714285714285</ele><time>2026-05-02T10:27:34.999Z</time></trkpt><trkpt lat="44.42840590961535" lon="8.951820725411313"><ele>21.42857142857143</ele><time>2026-05-02T10:27:36.999Z</time></trkpt><trkpt lat="44.42838713693554" lon="8.951716949868615"><ele>21.57142857142857</ele><time>2026-05-02T10:27:38.999Z</time></trkpt><trkpt lat="44.42836067202916" lon="8.95163246873445"><ele>21.714285714285715</ele><time>2026-05-02T10:27:40.999Z</time></trkpt><trkpt lat="44.42833131760917" lon="8.951542774313026"><ele>21.857142857142858</ele><time>2026-05-02T10:27:43.999Z</time></trkpt><trkpt lat="44.42829508067498" lon="8.951469497655577"><ele>22.0</ele><time>2026-05-02T10:27:46.999Z</time></trkpt><trkpt lat="44.42824884678557" lon="8.95137090529135"><ele>22.666666666666664</ele><time>2026-05-02T10:27:51Z</time></trkpt><trkpt lat="44.42821453527398" lon="8.95125354602465"><ele>23.333333333333332</ele><time>2026-05-02T10:27:54Z</time></trkpt><trkpt lat="44.428198929955705" lon="8.951132616492826"><ele>24.0</ele><time>2026-05-02T10:27:57Z</time></trkpt><trkpt lat="44.42816655531612" lon="8.951051736038183"><ele>24.666666666666664</ele><time>2026-05-02T10:28:03Z</time></trkpt><trkpt lat="44.42817291917971" lon="8.950958592255446"><ele>25.333333333333332</ele><time>2026-05-02T10:28:06Z</time></trkpt><trkpt lat="44.42817692927638" lon="8.950847755139794"><ele>26.0</ele><time>2026-05-02T10:28:09.001Z</time></trkpt><trkpt lat="44.42815862769734" lon="8.950760986612277"><ele>26.166666666666664</ele><time>2026-05-02T10:28:11.001Z</time></trkpt><trkpt lat="44.42815129891746" lon="8.950670289205057"><ele>26.333333333333332</ele><time>2026-05-02T10:28:13.001Z</time></trkpt><trkpt lat="44.42812843919513" lon="8.95056941565168"><ele>26.5</ele><time>2026-05-02T10:28:16.001Z</time></trkpt><trkpt lat="44.4281001447876" lon="8.950453526567788"><ele>26.666666666666664</ele><time>2026-05-02T10:28:19.001Z</time></trkpt><trkpt lat="44.428085930339535" lon="8.950351103160282"><ele>26.833333333333332</ele><time>2026-05-02T10:28:22.001Z</time></trkpt><trkpt lat="44.428052545197104" lon="8.950270207823264"><ele>27.0</ele><time>2026-05-02T10:28:25.001Z</time></trkpt><trkpt lat="44.42802895038532" lon="8.950158637799051"><ele>27.0</ele><time>2026-05-02T10:28:29.001Z</time></trkpt><trkpt lat="44.42804214690004" lon="8.950052500766999"><ele>27.0</ele><time>2026-05-02T10:28:34.001Z</time></trkpt><trkpt lat="44.42803365139711" lon="8.949939462120382"><ele>27.0</ele><time>2026-05-02T10:28:38.002Z</time></trkpt><trkpt lat="44.42800169349163" lon="8.949841285445444"><ele>27.0</ele><time>2026-05-02T10:28:41.002Z</time></trkpt><trkpt lat="44.42797949115306" lon="8.949758358236242"><ele>27.0</ele><time>2026-05-02T10:28:44.002Z</time></trkpt><trkpt lat="44.42796319006765" lon="8.949652972497779"><ele>27.0</ele><time>2026-05-02T10:28:47.002Z</time></trkpt><trkpt lat="44.427951572966755" lon="8.949565362611494"><ele>27.0</ele><time>2026-05-02T10:28:53.002Z</time></trkpt><trkpt lat="44.428004007833266" lon="8.949476648123586"><ele>27.142857142857142</ele><time>2026-05-02T10:28:59.002Z</time></trkpt><trkpt lat="44.4280762513473" lon="8.9494417563543"><ele>27.285714285714285</ele><time>2026-05-02T10:29:02.002Z</time></trkpt><trkpt lat="44.428139319573994" lon="8.949410921366447"><ele>27.42857142857143</ele><time>2026-05-02T10:29:05.002Z</time></trkpt><trkpt lat="44.4281347875573" lon="8.949308039263206"><ele>27.57142857142857</ele><time>2026-05-02T10:29:10.002Z</time></trkpt><trkpt lat="44.42810164572565" lon="8.949214039438221"><ele>27.714285714285715</ele><time>2026-05-02T10:29:13.003Z</time></trkpt><trkpt lat="44.4280839521064" lon="8.949118803008199"><ele>27.857142857142858</ele><time>2026-05-02T10:29:15.003Z</time></trkpt><trkpt lat="44.428080906715614" lon="8.949027103021223"><ele>28.0</ele><time>2026-05-02T10:29:18.003Z</time></trkpt><trkpt lat="44.42808228871684" lon="8.948931960193933"><ele>27.666666666666668</ele><time>2026-05-02T10:29:22.003Z</time></trkpt><trkpt lat="44.42806151570338" lon="8.948828821006169"><ele>27.333333333333336</ele><time>2026-05-02T10:29:26.003Z</time></trkpt><trkpt lat="44.42803471973236" lon="8.948724742685009"><ele>27.0</ele><time>2026-05-02T10:29:30.003Z</time></trkpt><trkpt lat="44.428007255053366" lon="8.94861390427112"><ele>26.666666666666664</ele><time>2026-05-02T10:29:34.003Z</time></trkpt><trkpt lat="44.427963714710216" lon="8.948530304240398"><ele>26.333333333333332</ele><time>2026-05-02T10:29:38.003Z</time></trkpt><trkpt lat="44.42794544645574" lon="8.948412614026854"><ele>26.0</ele><time>2026-05-02T10:29:41Z</time></trkpt><trkpt lat="44.427905390634294" lon="8.948297891964636"><ele>25.666666666666664</ele><time>2026-05-02T10:29:44Z</time></trkpt><trkpt lat="44.42784719420699" lon="8.948200289146863"><ele>25.333333333333332</ele><time>2026-05-02T10:29:47Z</time></trkpt><trkpt lat="44.427813415545266" lon="8.948123890849445"><ele>25.0</ele><time>2026-05-02T10:29:49Z</time></trkpt><trkpt lat="44.42777589018179" lon="8.948024609385058"><ele>24.666666666666664</ele><time>2026-05-02T10:29:52Z</time></trkpt><trkpt lat="44.427727709685314" lon="8.947947895315778"><ele>24.333333333333332</ele><time>2026-05-02T10:29:55Z</time></trkpt><trkpt lat="44.427672218608954" lon="8.947880256961662"><ele>24.0</ele><time>2026-05-02T10:29:59Z</time></trkpt><trkpt lat="44.42762301387859" lon="8.94781092753636"><ele>24.0</ele><time>2026-05-02T10:30:02Z</time></trkpt><trkpt lat="44.42755035843185" lon="8.947718111272346"><ele>24.0</ele><time>2026-05-02T10:30:07Z</time></trkpt><trkpt lat="44.427489835999644" lon="8.947661675976638"><ele>24.0</ele><time>2026-05-02T10:30:09Z</time></trkpt><trkpt lat="44.42743163244133" lon="8.94762292137644"><ele>24.0</ele><time>2026-05-02T10:30:11Z</time></trkpt><trkpt lat="44.42736281042377" lon="8.947587658432841"><ele>24.0</ele><time>2026-05-02T10:30:13.001Z</time></trkpt><trkpt lat="44.427262869462076" lon="8.94756035843469"><ele>24.0</ele><time>2026-05-02T10:30:15.001Z</time></trkpt><trkpt lat="44.42719042750144" lon="8.947537794596153"><ele>25.0</ele><time>2026-05-02T10:30:17.001Z</time></trkpt><trkpt lat="44.427092612271956" lon="8.947528170214039"><ele>26.0</ele><time>2026-05-02T10:30:20.001Z</time></trkpt><trkpt lat="44.42699463975816" lon="8.94750764592978"><ele>27.0</ele><time>2026-05-02T10:30:22.001Z</time></trkpt><trkpt lat="44.42689347912485" lon="8.94750445841484"><ele>28.0</ele><time>2026-05-02T10:30:24.001Z</time></trkpt><trkpt lat="44.42679395775139" lon="8.947491233847481"><ele>29.0</ele><time>2026-05-02T10:30:26.001Z</time></trkpt><trkpt lat="44.42669594247602" lon="8.947474641588293"><ele>29.0</ele><time>2026-05-02T10:30:28.001Z</time></trkpt><trkpt lat="44.42659881405578" lon="8.947463170471817"><ele>29.0</ele><time>2026-05-02T10:30:31.001Z</time></trkpt><trkpt lat="44.42648773077843" lon="8.947499348334523"><ele>29.0</ele><time>2026-05-02T10:30:35.001Z</time></trkpt><trkpt lat="44.426387020728306" lon="8.947465182845555"><ele>29.0</ele><time>2026-05-02T10:30:37.001Z</time></trkpt><trkpt lat="44.42625326279959" lon="8.947408973535062"><ele>28.499999999999996</ele><time>2026-05-02T10:30:40.001Z</time></trkpt><trkpt lat="44.42616505030112" lon="8.947399081943745"><ele>28.0</ele><time>2026-05-02T10:30:41.001Z</time></trkpt><trkpt lat="44.42610194876242" lon="8.947385217475706"><ele>27.5</ele><time>2026-05-02T10:30:42.001Z</time></trkpt><trkpt lat="44.42599629676306" lon="8.947350964281947"><ele>27.0</ele><time>2026-05-02T10:30:44.002Z</time></trkpt><trkpt lat="44.42590497265711" lon="8.947349565871814"><ele>26.499999999999996</ele><time>2026-05-02T10:30:46.002Z</time></trkpt><trkpt lat="44.425829213930236" lon="8.947333852678966"><ele>26.0</ele><time>2026-05-02T10:30:48.002Z</time></trkpt><trkpt lat="44.42574584038886" lon="8.94732009811418"><ele>26.0</ele><time>2026-05-02T10:30:51.002Z</time></trkpt><trkpt lat="44.42567804179441" lon="8.947305510317364"><ele>26.0</ele><time>2026-05-02T10:30:53.002Z</time></trkpt><trkpt lat="44.42561063701726" lon="8.947290086015368"><ele>26.0</ele><time>2026-05-02T10:30:56.002Z</time></trkpt><trkpt lat="44.42553703185777" lon="8.947281620181613"><ele>26.0</ele><time>2026-05-02T10:30:58.002Z</time></trkpt><trkpt lat="44.42546339978296" lon="8.947265515468041"><ele>26.0</ele><time>2026-05-02T10:31:00.002Z</time></trkpt><trkpt lat="44.4253998343572" lon="8.947270483126543"><ele>26.0</ele><time>2026-05-02T10:31:03.002Z</time></trkpt><trkpt lat="44.425335534602524" lon="8.94725006753245"><ele>26.0</ele><time>2026-05-02T10:31:06.002Z</time></trkpt><trkpt lat="44.425256312223375" lon="8.947219727748097"><ele>25.833333333333332</ele><time>2026-05-02T10:31:10.002Z</time></trkpt><trkpt lat="44.4251738022839" lon="8.947216494420893"><ele>25.666666666666664</ele><time>2026-05-02T10:31:13.002Z</time></trkpt><trkpt lat="44.42509361441785" lon="8.947189515176555"><ele>25.5</ele><time>2026-05-02T10:31:15.002Z</time></trkpt><trkpt lat="44.42501328933352" lon="8.947179486016461"><ele>25.333333333333336</ele><time>2026-05-02T10:31:17.003Z</time></trkpt><trkpt lat="44.42493473041823" lon="8.947182196044606"><ele>25.166666666666668</ele><time>2026-05-02T10:31:19.003Z</time></trkpt><trkpt lat="44.42484518439629" lon="8.947171574112897"><ele>25.0</ele><time>2026-05-02T10:31:21.003Z</time></trkpt><trkpt lat="44.42475608746957" lon="8.94716545602991"><ele>25.0</ele><time>2026-05-02T10:31:23.003Z</time></trkpt><trkpt lat="44.424656344581074" lon="8.947144386809969"><ele>25.0</ele><time>2026-05-02T10:31:25.003Z</time></trkpt><trkpt lat="44.42454905349252" lon="8.94712720555719"><ele>25.0</ele><time>2026-05-02T10:31:27.003Z</time></trkpt><trkpt lat="44.42444591950709" lon="8.947121274027861"><ele>25.0</ele><time>2026-05-02T10:31:29.003Z</time></trkpt><trkpt lat="44.424350851676344" lon="8.94711111212506"><ele>25.0</ele><time>2026-05-02T10:31:31.003Z</time></trkpt><trkpt lat="44.42424217381381" lon="8.94709503302751"><ele>24.2</ele><time>2026-05-02T10:31:33.003Z</time></trkpt><trkpt lat="44.42412950163509" lon="8.947087197373547"><ele>23.4</ele><time>2026-05-02T10:31:35.003Z</time></trkpt><trkpt lat="44.42406367352048" lon="8.947078653379739"><ele>22.6</ele><time>2026-05-02T10:31:36.003Z</time></trkpt><trkpt lat="44.42397055577728" lon="8.947075855767627"><ele>21.8</ele><time>2026-05-02T10:31:38.003Z</time></trkpt><trkpt lat="44.423847135743216" lon="8.947065286961438"><ele>21.0</ele><time>2026-05-02T10:31:40.003Z</time></trkpt><trkpt lat="44.42373714132143" lon="8.947057421218133"><ele>20.333333333333332</ele><time>2026-05-02T10:31:42.003Z</time></trkpt><trkpt lat="44.42362970766764" lon="8.94704372231599"><ele>19.666666666666668</ele><time>2026-05-02T10:31:44.003Z</time></trkpt><trkpt lat="44.42355209507642" lon="8.947015666989047"><ele>19.0</ele><time>2026-05-02T10:31:46Z</time></trkpt><trkpt lat="44.423475853884305" lon="8.946997184540948"><ele>18.333333333333336</ele><time>2026-05-02T10:31:48Z</time></trkpt><trkpt lat="44.423383832635686" lon="8.946994810957374"><ele>17.666666666666668</ele><time>2026-05-02T10:31:50Z</time></trkpt><trkpt lat="44.42330705185819" lon="8.946984326805305"><ele>17.0</ele><time>2026-05-02T10:31:52Z</time></trkpt><trkpt lat="44.42322189109899" lon="8.946997917269416"><ele>17.0</ele><time>2026-05-02T10:31:55Z</time></trkpt><trkpt lat="44.42313487843016" lon="8.94698759675802"><ele>17.0</ele><time>2026-05-02T10:31:58Z</time></trkpt><trkpt lat="44.423079135507" lon="8.946939233331928"><ele>17.0</ele><time>2026-05-02T10:32:02Z</time></trkpt><trkpt lat="44.42303988099944" lon="8.946859891224904"><ele>17.0</ele><time>2026-05-02T10:32:10Z</time></trkpt><trkpt lat="44.422909586704144" lon="8.946764179640095"><ele>17.0</ele><time>2026-05-02T10:32:49.002Z</time></trkpt><trkpt lat="44.42284421463306" lon="8.946813704218675"><ele>17.0</ele><time>2026-05-02T10:32:58.002Z</time></trkpt><trkpt lat="44.42278051757885" lon="8.946813929031968"><ele>16.666666666666668</ele><time>2026-05-02T10:33:03.002Z</time></trkpt><trkpt lat="44.42269696123419" lon="8.946821302896517"><ele>16.333333333333336</ele><time>2026-05-02T10:33:07.002Z</time></trkpt><trkpt lat="44.422619254117414" lon="8.946812956263983"><ele>16.0</ele><time>2026-05-02T10:33:10.002Z</time></trkpt><trkpt lat="44.42255149799379" lon="8.946807706332452"><ele>15.666666666666668</ele><time>2026-05-02T10:33:14.002Z</time></trkpt><trkpt lat="44.42244855747553" lon="8.946836490024422"><ele>15.333333333333334</ele><time>2026-05-02T10:33:16.002Z</time></trkpt><trkpt lat="44.42234905493291" lon="8.94684663819222"><ele>15.0</ele><time>2026-05-02T10:33:18.002Z</time></trkpt><trkpt lat="44.42226416014443" lon="8.946829788238324"><ele>15.0</ele><time>2026-05-02T10:33:20.002Z</time></trkpt><trkpt lat="44.422174392011556" lon="8.94682624055416"><ele>15.0</ele><time>2026-05-02T10:33:22.002Z</time></trkpt><trkpt lat="44.42210157343788" lon="8.946813196989401"><ele>15.0</ele><time>2026-05-02T10:33:24.003Z</time></trkpt><trkpt lat="44.42202711913759" lon="8.946801027925611"><ele>15.0</ele><time>2026-05-02T10:33:26.003Z</time></trkpt><trkpt lat="44.421962927753704" lon="8.946815423182104"><ele>15.0</ele><time>2026-05-02T10:33:28.003Z</time></trkpt><trkpt lat="44.42188758752585" lon="8.94679362318881"><ele>15.0</ele><time>2026-05-02T10:33:30.003Z</time></trkpt><trkpt lat="44.42180670139999" lon="8.946777633491857"><ele>14.833333333333334</ele><time>2026-05-02T10:33:32.003Z</time></trkpt><trkpt lat="44.42172714595004" lon="8.946764674905141"><ele>14.666666666666668</ele><time>2026-05-02T10:33:34.003Z</time></trkpt><trkpt lat="44.42163592815059" lon="8.946743150835854"><ele>14.5</ele><time>2026-05-02T10:33:36.003Z</time></trkpt><trkpt lat="44.42155139317223" lon="8.946724856914567"><ele>14.333333333333334</ele><time>2026-05-02T10:33:38.003Z</time></trkpt><trkpt lat="44.421459209980625" lon="8.946717612273236"><ele>14.166666666666668</ele><time>2026-05-02T10:33:40.003Z</time></trkpt><trkpt lat="44.42137081091055" lon="8.946714752677744"><ele>14.0</ele><time>2026-05-02T10:33:42.003Z</time></trkpt><trkpt lat="44.42127582136453" lon="8.946709304229735"><ele>14.000000000000002</ele><time>2026-05-02T10:33:44.003Z</time></trkpt><trkpt lat="44.421189397330366" lon="8.946715023770492"><ele>14.0</ele><time>2026-05-02T10:33:46.003Z</time></trkpt><trkpt lat="44.42110132976515" lon="8.946730254388532"><ele>14.0</ele><time>2026-05-02T10:33:48.003Z</time></trkpt><trkpt lat="44.4210096870131" lon="8.946749495018775"><ele>14.0</ele><time>2026-05-02T10:33:50.003Z</time></trkpt><trkpt lat="44.42093824723908" lon="8.946769332427616"><ele>14.000000000000002</ele><time>2026-05-02T10:33:52Z</time></trkpt><trkpt lat="44.420860219668626" lon="8.946787932286073"><ele>14.0</ele><time>2026-05-02T10:33:54Z</time></trkpt><trkpt lat="44.420774310152396" lon="8.946801734838191"><ele>14.0</ele><time>2026-05-02T10:33:56Z</time></trkpt><trkpt lat="44.42069715221704" lon="8.946818902304123"><ele>13.999999999999998</ele><time>2026-05-02T10:33:58Z</time></trkpt><trkpt lat="44.42063113173289" lon="8.946833966905483"><ele>13.999999999999998</ele><time>2026-05-02T10:34:01Z</time></trkpt><trkpt lat="44.42056741904267" lon="8.94684166283495"><ele>14.0</ele><time>2026-05-02T10:34:23.001Z</time></trkpt><trkpt lat="44.42056283535687" lon="8.946994314006943"><ele>14.0</ele><time>2026-05-02T10:35:08.002Z</time></trkpt><trkpt lat="44.42064253429544" lon="8.946765255866868"><ele>14.0</ele><time>2026-05-02T10:36:31.456Z</time></trkpt><trkpt lat="44.42054480366557" lon="8.946911475032566"><ele>14.0</ele><time>2026-05-02T10:39:15.346Z</time></trkpt><trkpt lat="44.42064253429544" lon="8.946765255866868"><ele>14.0</ele><time>2026-05-02T10:39:32.204Z</time></trkpt><trkpt lat="44.420534995828135" lon="8.946859749322464"><ele>14.0</ele><time>2026-05-02T10:39:34.76Z</time></trkpt><trkpt lat="44.42064253429544" lon="8.946765255866868"><ele>14.0</ele><time>2026-05-02T10:39:56.01Z</time></trkpt><trkpt lat="44.42054539235308" lon="8.946928543745821"><ele>13.999999999999998</ele><time>2026-05-02T10:39:57.01Z</time></trkpt><trkpt lat="44.42056702925726" lon="8.946820905837102"><ele>13.999999999999998</ele><time>2026-05-02T10:40:20.663Z</time></trkpt><trkpt lat="44.42064253429544" lon="8.946765255866868"><ele>14.0</ele><time>2026-05-02T10:41:30.074Z</time></trkpt><trkpt lat="44.420611081703335" lon="8.946645939030018"><ele>14.0</ele><time>2026-05-02T10:41:34.002Z</time></trkpt><trkpt lat="44.42086097637704" lon="8.94660629812666"><ele>15.75</ele><time>2026-05-02T10:41:35.002Z</time></trkpt><trkpt lat="44.420677490427884" lon="8.946678105399018"><ele>17.5</ele><time>2026-05-02T10:41:56.027Z</time></trkpt><trkpt lat="44.42055787552289" lon="8.946611702917682"><ele>19.25</ele><time>2026-05-02T10:42:17Z</time></trkpt><trkpt lat="44.42064734522403" lon="8.946609403823825"><ele>21.0</ele><time>2026-05-02T10:42:27Z</time></trkpt><trkpt lat="44.420692968124996" lon="8.946676762151338"><ele>21.0</ele><time>2026-05-02T10:42:46.001Z</time></trkpt></trkseg></trk></gpx>